<?xml version='1.0' encoding='UTF-8'?><gpx version="1.1" creator="JPX - https://github.com/jenetics/jpx" xmlns="http://www.topografix.com/GPX/1/1"><trk><trkseg><trkpt lat="44.4796093710922" lon="7.872715568008848"><ele>363.1666666666667</ele><time>2026-04-08T16:07:40.015Z</time></trkpt><trkpt lat="44.47955053990212" lon="7.872683491918717"><ele>363.3333333333333</ele><time>2026-04-08T16:07:43.998Z</time></trkpt><trkpt lat="44.479484352406295" lon="7.872619868258703"><ele>363.5</ele><time>2026-04-08T16:07:47.998Z</time></trkpt><trkpt lat="44.4793930432293" lon="7.872654739097901"><ele>363.66666666666663</ele><time>2026-04-08T16:07:54Z</time></trkpt><trkpt lat="44.479297368103396" lon="7.872711702707543"><ele>363.8333333333333</ele><time>2026-04-08T16:07:57Z</time></trkpt><trkpt lat="44.47922554180839" lon="7.872756484309029"><ele>364.0</ele><time>2026-04-08T16:08:00Z</time></trkpt><trkpt lat="44.479085420485504" lon="7.872830846185259"><ele>364.0</ele><time>2026-04-08T16:08:04Z</time></trkpt><trkpt lat="44.479067789985024" lon="7.8729737656954955"><ele>364.0</ele><time>2026-04-08T16:08:07Z</time></trkpt><trkpt lat="44.47911417292788" lon="7.873096340059651"><ele>364.0</ele><time>2026-04-08T16:08:09Z</time></trkpt><trkpt lat="44.479146453934675" lon="7.873191383808996"><ele>364.0</ele><time>2026-04-08T16:08:10Z</time></trkpt><trkpt lat="44.47920593599311" lon="7.873367124157301"><ele>364.0</ele><time>2026-04-08T16:08:12Z</time></trkpt><trkpt lat="44.47923812882083" lon="7.8735060697235735"><ele>363.66666666666663</ele><time>2026-04-08T16:08:13Z</time></trkpt><trkpt lat="44.47927658239504" lon="7.873630498004886"><ele>363.3333333333333</ele><time>2026-04-08T16:08:14Z</time></trkpt><trkpt lat="44.479309016067205" lon="7.873735815838897"><ele>363.0</ele><time>2026-04-08T16:08:15Z</time></trkpt><trkpt lat="44.479331244575306" lon="7.87383584491759"><ele>362.6666666666667</ele><time>2026-04-08T16:08:16Z</time></trkpt><trkpt lat="44.47934909392383" lon="7.873936159305556"><ele>362.33333333333337</ele><time>2026-04-08T16:08:17Z</time></trkpt><trkpt lat="44.47937263475978" lon="7.874049900104259"><ele>362.0</ele><time>2026-04-08T16:08:18Z</time></trkpt><trkpt lat="44.47940116767509" lon="7.87419204432327"><ele>361.8</ele><time>2026-04-08T16:08:19Z</time></trkpt><trkpt lat="44.4794222349678" lon="7.874343461287401"><ele>361.6</ele><time>2026-04-08T16:08:20Z</time></trkpt><trkpt lat="44.47944111040283" lon="7.874509556460512"><ele>361.40000000000003</ele><time>2026-04-08T16:08:21Z</time></trkpt><trkpt lat="44.47945539904034" lon="7.874642668315691"><ele>361.20000000000005</ele><time>2026-04-08T16:08:22Z</time></trkpt><trkpt lat="44.479463551177226" lon="7.874760255097115"><ele>361.0</ele><time>2026-04-08T16:08:23Z</time></trkpt><trkpt lat="44.47946504708702" lon="7.874887162779639"><ele>361.0</ele><time>2026-04-08T16:08:24Z</time></trkpt><trkpt lat="44.47950340565751" lon="7.875049453591988"><ele>361.0</ele><time>2026-04-08T16:08:25Z</time></trkpt><trkpt lat="44.47952437218224" lon="7.875185515781299"><ele>361.0</ele><time>2026-04-08T16:08:26Z</time></trkpt><trkpt lat="44.47949909284914" lon="7.875336373059383"><ele>361.0</ele><time>2026-04-08T16:08:27Z</time></trkpt><trkpt lat="44.479484080077064" lon="7.875502676224094"><ele>361.0</ele><time>2026-04-08T16:08:28Z</time></trkpt><trkpt lat="44.479477796646066" lon="7.875657212672936"><ele>361.0</ele><time>2026-04-08T16:08:29Z</time></trkpt><trkpt lat="44.479477183794074" lon="7.8758267068677945"><ele>361.0</ele><time>2026-04-08T16:08:30Z</time></trkpt><trkpt lat="44.47947271245726" lon="7.8759746782172755"><ele>361.0</ele><time>2026-04-08T16:08:31Z</time></trkpt><trkpt lat="44.47946238590622" lon="7.876106480257271"><ele>361.0</ele><time>2026-04-08T16:08:32Z</time></trkpt><trkpt lat="44.47945319907956" lon="7.876239645994232"><ele>361.0</ele><time>2026-04-08T16:08:33Z</time></trkpt><trkpt lat="44.479447503237274" lon="7.876396648440962"><ele>361.0</ele><time>2026-04-08T16:08:34Z</time></trkpt><trkpt lat="44.47944674794636" lon="7.876556799599611"><ele>361.0</ele><time>2026-04-08T16:08:35Z</time></trkpt><trkpt lat="44.47944351910483" lon="7.876675913569797"><ele>361.0</ele><time>2026-04-08T16:08:36Z</time></trkpt><trkpt lat="44.47944392794061" lon="7.876778104345589"><ele>361.0</ele><time>2026-04-08T16:08:37Z</time></trkpt><trkpt lat="44.47944377081691" lon="7.876903790970338"><ele>361.6</ele><time>2026-04-08T16:08:38Z</time></trkpt><trkpt lat="44.4794641102019" lon="7.877057001996398"><ele>362.20000000000005</ele><time>2026-04-08T16:08:39Z</time></trkpt><trkpt lat="44.47948430219782" lon="7.8772213001794125"><ele>362.79999999999995</ele><time>2026-04-08T16:08:40Z</time></trkpt><trkpt lat="44.47951429496322" lon="7.877371938422039"><ele>363.4</ele><time>2026-04-08T16:08:41Z</time></trkpt><trkpt lat="44.47954698850964" lon="7.8774905451354424"><ele>364.0</ele><time>2026-04-08T16:08:42Z</time></trkpt><trkpt lat="44.479576817243355" lon="7.877617580590253"><ele>363.4</ele><time>2026-04-08T16:08:43Z</time></trkpt><trkpt lat="44.47960174732321" lon="7.877745194419086"><ele>362.79999999999995</ele><time>2026-04-08T16:08:44Z</time></trkpt><trkpt lat="44.479633031012035" lon="7.87785177764756"><ele>362.20000000000005</ele><time>2026-04-08T16:08:45Z</time></trkpt><trkpt lat="44.47966546789613" lon="7.87795607883304"><ele>361.6</ele><time>2026-04-08T16:08:45.999Z</time></trkpt><trkpt lat="44.4797101349104" lon="7.8780926254450225"><ele>361.0</ele><time>2026-04-08T16:08:46.999Z</time></trkpt><trkpt lat="44.479742796610275" lon="7.87823725504731"><ele>361.0</ele><time>2026-04-08T16:08:47.999Z</time></trkpt><trkpt lat="44.479795980596954" lon="7.878394205144918"><ele>361.0</ele><time>2026-04-08T16:08:48.999Z</time></trkpt><trkpt lat="44.47984620029696" lon="7.8785118315306715"><ele>361.0</ele><time>2026-04-08T16:08:49.999Z</time></trkpt><trkpt lat="44.47989894407954" lon="7.878623241703707"><ele>361.0</ele><time>2026-04-08T16:08:50.999Z</time></trkpt><trkpt lat="44.47994069985627" lon="7.87876147034149"><ele>361.0</ele><time>2026-04-08T16:08:51.999Z</time></trkpt><trkpt lat="44.479981917298105" lon="7.878893800659044"><ele>360.8</ele><time>2026-04-08T16:08:52.999Z</time></trkpt><trkpt lat="44.48001899181441" lon="7.879000033124864"><ele>360.6</ele><time>2026-04-08T16:08:53.999Z</time></trkpt><trkpt lat="44.480056059684635" lon="7.879107674656563"><ele>360.4</ele><time>2026-04-08T16:08:54.999Z</time></trkpt><trkpt lat="44.48010324879279" lon="7.8792166958786884"><ele>360.2</ele><time>2026-04-08T16:08:55.999Z</time></trkpt><trkpt lat="44.4802116076021" lon="7.879273852854632"><ele>360.0</ele><time>2026-04-08T16:08:56.999Z</time></trkpt><trkpt lat="44.480299540971096" lon="7.879340081489304"><ele>359.8</ele><time>2026-04-08T16:08:57.999Z</time></trkpt><trkpt lat="44.480384732302795" lon="7.879392999278094"><ele>359.6</ele><time>2026-04-08T16:08:58.999Z</time></trkpt><trkpt lat="44.480472884921035" lon="7.879459857884283"><ele>359.4</ele><time>2026-04-08T16:08:59.999Z</time></trkpt><trkpt lat="44.4805652134318" lon="7.879537870809113"><ele>359.2</ele><time>2026-04-08T16:09:00.999Z</time></trkpt><trkpt lat="44.48063447870072" lon="7.879616522856566"><ele>359.0</ele><time>2026-04-08T16:09:01.999Z</time></trkpt><trkpt lat="44.48069433604836" lon="7.879724090736944"><ele>358.79999999999995</ele><time>2026-04-08T16:09:02.999Z</time></trkpt><trkpt lat="44.48072489321015" lon="7.879836527674598"><ele>358.59999999999997</ele><time>2026-04-08T16:09:03.999Z</time></trkpt><trkpt lat="44.48075967118413" lon="7.879940501979701"><ele>358.4</ele><time>2026-04-08T16:09:04.999Z</time></trkpt><trkpt lat="44.480782756541544" lon="7.880058315833844"><ele>358.2</ele><time>2026-04-08T16:09:05.999Z</time></trkpt><trkpt lat="44.4808151868392" lon="7.8801405309222"><ele>358.0</ele><time>2026-04-08T16:09:06.999Z</time></trkpt><trkpt lat="44.480867154778416" lon="7.880309216029834"><ele>358.0</ele><time>2026-04-08T16:09:08.999Z</time></trkpt><trkpt lat="44.480897687508396" lon="7.880402914070079"><ele>358.0</ele><time>2026-04-08T16:09:09.999Z</time></trkpt><trkpt lat="44.48092286131444" lon="7.88049636366443"><ele>358.0</ele><time>2026-04-08T16:09:10.999Z</time></trkpt><trkpt lat="44.48098445115225" lon="7.880675914477576"><ele>358.0</ele><time>2026-04-08T16:09:12.999Z</time></trkpt><trkpt lat="44.48101479761899" lon="7.880786516510699"><ele>358.0</ele><time>2026-04-08T16:09:13.999Z</time></trkpt><trkpt lat="44.48103782117939" lon="7.880907119119876"><ele>357.79999999999995</ele><time>2026-04-08T16:09:14.999Z</time></trkpt><trkpt lat="44.48105114168107" lon="7.881030162234227"><ele>357.6</ele><time>2026-04-08T16:09:15.999Z</time></trkpt><trkpt lat="44.48108074987493" lon="7.881134808507118"><ele>357.4</ele><time>2026-04-08T16:09:16.999Z</time></trkpt><trkpt lat="44.481103796024975" lon="7.8812583975833155"><ele>357.20000000000005</ele><time>2026-04-08T16:09:17.999Z</time></trkpt><trkpt lat="44.48112789176421" lon="7.881386779654117"><ele>357.0</ele><time>2026-04-08T16:09:18.999Z</time></trkpt><trkpt lat="44.481167743629086" lon="7.881513839920727"><ele>357.0</ele><time>2026-04-08T16:09:19.999Z</time></trkpt><trkpt lat="44.48121406321662" lon="7.881646535981508"><ele>357.0</ele><time>2026-04-08T16:09:20.999Z</time></trkpt><trkpt lat="44.48126852589495" lon="7.881763460413923"><ele>357.0</ele><time>2026-04-08T16:09:21.999Z</time></trkpt><trkpt lat="44.481323478632795" lon="7.8818724801212"><ele>357.0</ele><time>2026-04-08T16:09:22.999Z</time></trkpt><trkpt lat="44.48137345656826" lon="7.88198545780418"><ele>357.0</ele><time>2026-04-08T16:09:23.999Z</time></trkpt><trkpt lat="44.48141870362591" lon="7.882081509049755"><ele>356.40000000000003</ele><time>2026-04-08T16:09:24.999Z</time></trkpt><trkpt lat="44.48146872878568" lon="7.882187603833862"><ele>355.8</ele><time>2026-04-08T16:09:25.999Z</time></trkpt><trkpt lat="44.4815228243693" lon="7.882303458576676"><ele>355.2</ele><time>2026-04-08T16:09:26.999Z</time></trkpt><trkpt lat="44.48156689362955" lon="7.882399837745768"><ele>354.6</ele><time>2026-04-08T16:09:27.999Z</time></trkpt><trkpt lat="44.481611553602846" lon="7.882518756110015"><ele>354.0</ele><time>2026-04-08T16:09:28.999Z</time></trkpt><trkpt lat="44.48166044071713" lon="7.882643366190503"><ele>352.79999999999995</ele><time>2026-04-08T16:09:29.999Z</time></trkpt><trkpt lat="44.48170983775811" lon="7.882772237137177"><ele>351.59999999999997</ele><time>2026-04-08T16:09:30.999Z</time></trkpt><trkpt lat="44.481753675584585" lon="7.882870942969727"><ele>350.4</ele><time>2026-04-08T16:09:31.999Z</time></trkpt><trkpt lat="44.48179384379724" lon="7.882987075256832"><ele>349.2</ele><time>2026-04-08T16:09:32.999Z</time></trkpt><trkpt lat="44.481825565397024" lon="7.8831122553758"><ele>348.0</ele><time>2026-04-08T16:09:33.999Z</time></trkpt><trkpt lat="44.481850053527985" lon="7.88321416820428"><ele>348.0</ele><time>2026-04-08T16:09:34.999Z</time></trkpt><trkpt lat="44.48187533112836" lon="7.883302388304897"><ele>348.0</ele><time>2026-04-08T16:09:35.999Z</time></trkpt><trkpt lat="44.48190255588798" lon="7.8834000630531404"><ele>348.0</ele><time>2026-04-08T16:09:36.999Z</time></trkpt><trkpt lat="44.48192948844227" lon="7.883528099432054"><ele>348.0</ele><time>2026-04-08T16:09:37.999Z</time></trkpt><trkpt lat="44.481959786189236" lon="7.88364435288987"><ele>348.0</ele><time>2026-04-08T16:09:38.999Z</time></trkpt><trkpt lat="44.48199207581918" lon="7.883784978921088"><ele>348.0</ele><time>2026-04-08T16:09:39.999Z</time></trkpt><trkpt lat="44.48202317286532" lon="7.883938329162608"><ele>346.5</ele><time>2026-04-08T16:09:40.999Z</time></trkpt><trkpt lat="44.482062255314744" lon="7.884108789240613"><ele>345.0</ele><time>2026-04-08T16:09:41.999Z</time></trkpt><trkpt lat="44.48209911118821" lon="7.884273993441344"><ele>343.5</ele><time>2026-04-08T16:09:42.999Z</time></trkpt><trkpt lat="44.482134714316366" lon="7.8844673079381815"><ele>342.0</ele><time>2026-04-08T16:09:43.999Z</time></trkpt><trkpt lat="44.48216293179743" lon="7.8846248526249045"><ele>341.75</ele><time>2026-04-08T16:09:44.999Z</time></trkpt><trkpt lat="44.48219318337855" lon="7.884782372260299"><ele>341.5</ele><time>2026-04-08T16:09:45.999Z</time></trkpt><trkpt lat="44.482226637936414" lon="7.884938231354071"><ele>341.25</ele><time>2026-04-08T16:09:46.999Z</time></trkpt><trkpt lat="44.48226710363672" lon="7.88510079820122"><ele>341.0</ele><time>2026-04-08T16:09:47.999Z</time></trkpt><trkpt lat="44.48230316910897" lon="7.885271347257691"><ele>340.75</ele><time>2026-04-08T16:09:48.999Z</time></trkpt><trkpt lat="44.4823499320445" lon="7.885436643157887"><ele>340.5</ele><time>2026-04-08T16:09:49.999Z</time></trkpt><trkpt lat="44.48239670064136" lon="7.885582245728374"><ele>340.25</ele><time>2026-04-08T16:09:50.999Z</time></trkpt><trkpt lat="44.482454272109926" lon="7.885729512401605"><ele>340.0</ele><time>2026-04-08T16:09:51.999Z</time></trkpt><trkpt lat="44.4825163709398" lon="7.885866849461381"><ele>339.5</ele><time>2026-04-08T16:09:52.999Z</time></trkpt><trkpt lat="44.48259052176862" lon="7.885966285925041"><ele>339.0</ele><time>2026-04-08T16:09:53.999Z</time></trkpt><trkpt lat="44.482668781521745" lon="7.886075878261264"><ele>338.5</ele><time>2026-04-08T16:09:55Z</time></trkpt><trkpt lat="44.482757143725756" lon="7.886183921017563"><ele>338.0</ele><time>2026-04-08T16:09:56Z</time></trkpt><trkpt lat="44.482856223329264" lon="7.8862831145477585"><ele>338.0</ele><time>2026-04-08T16:09:57Z</time></trkpt><trkpt lat="44.48296932532155" lon="7.886398541579994"><ele>338.0</ele><time>2026-04-08T16:09:58Z</time></trkpt><trkpt lat="44.48307549920594" lon="7.886501502680703"><ele>338.0</ele><time>2026-04-08T16:09:59Z</time></trkpt><trkpt lat="44.48318000539446" lon="7.886601381377351"><ele>338.0</ele><time>2026-04-08T16:10:00Z</time></trkpt><trkpt lat="44.48327765360891" lon="7.886691234912076"><ele>338.0</ele><time>2026-04-08T16:10:01Z</time></trkpt><trkpt lat="44.48336689347231" lon="7.886810418704586"><ele>338.0</ele><time>2026-04-08T16:10:02Z</time></trkpt><trkpt lat="44.483477186748246" lon="7.8869043690470955"><ele>338.0</ele><time>2026-04-08T16:10:03Z</time></trkpt><trkpt lat="44.48356767815147" lon="7.887015935075206"><ele>338.0</ele><time>2026-04-08T16:10:04Z</time></trkpt><trkpt lat="44.48366641971014" lon="7.8871173920299285"><ele>338.0</ele><time>2026-04-08T16:10:05Z</time></trkpt><trkpt lat="44.48375702999734" lon="7.887216935353152"><ele>338.0</ele><time>2026-04-08T16:10:06Z</time></trkpt><trkpt lat="44.48382601455104" lon="7.887303568612734"><ele>338.0</ele><time>2026-04-08T16:10:07Z</time></trkpt><trkpt lat="44.48391777554383" lon="7.887440610788849"><ele>338.0</ele><time>2026-04-08T16:10:09Z</time></trkpt><trkpt lat="44.484006687366254" lon="7.88758199109655"><ele>338.0</ele><time>2026-04-08T16:10:11Z</time></trkpt><trkpt lat="44.484062706387384" lon="7.887643770477338"><ele>338.0</ele><time>2026-04-08T16:10:12Z</time></trkpt><trkpt lat="44.48413617245394" lon="7.887698783210287"><ele>338.0</ele><time>2026-04-08T16:10:13Z</time></trkpt><trkpt lat="44.48422326980178" lon="7.887741105293079"><ele>338.0</ele><time>2026-04-08T16:10:14Z</time></trkpt><trkpt lat="44.48431269240172" lon="7.88779822035133"><ele>338.0</ele><time>2026-04-08T16:10:15Z</time></trkpt><trkpt lat="44.48442072280751" lon="7.88783484534284"><ele>338.0</ele><time>2026-04-08T16:10:16Z</time></trkpt><trkpt lat="44.48450084439196" lon="7.887975881922788"><ele>338.0</ele><time>2026-04-08T16:10:17Z</time></trkpt><trkpt lat="44.48459095551184" lon="7.888092136222992"><ele>338.0</ele><time>2026-04-08T16:10:18Z</time></trkpt><trkpt lat="44.4846981953611" lon="7.888203356918162"><ele>338.0</ele><time>2026-04-08T16:10:19Z</time></trkpt><trkpt lat="44.48480915619356" lon="7.88833834995396"><ele>337.5</ele><time>2026-04-08T16:10:20Z</time></trkpt><trkpt lat="44.48491609282995" lon="7.888455289198466"><ele>337.0</ele><time>2026-04-08T16:10:21Z</time></trkpt><trkpt lat="44.485034755521156" lon="7.888562695331807"><ele>336.5</ele><time>2026-04-08T16:10:22Z</time></trkpt><trkpt lat="44.48516188364333" lon="7.888661548926396"><ele>336.0</ele><time>2026-04-08T16:10:23Z</time></trkpt><trkpt lat="44.48530104349487" lon="7.888758948499135"><ele>336.0</ele><time>2026-04-08T16:10:24Z</time></trkpt><trkpt lat="44.48545467182021" lon="7.888857366685614"><ele>336.0</ele><time>2026-04-08T16:10:25Z</time></trkpt><trkpt lat="44.48561328170788" lon="7.888950390428174"><ele>336.0</ele><time>2026-04-08T16:10:26Z</time></trkpt><trkpt lat="44.485763945612156" lon="7.889049957654709"><ele>336.0</ele><time>2026-04-08T16:10:27Z</time></trkpt><trkpt lat="44.48590871075756" lon="7.889153784383031"><ele>336.0</ele><time>2026-04-08T16:10:28Z</time></trkpt><trkpt lat="44.48606406873851" lon="7.8892562422044925"><ele>336.0</ele><time>2026-04-08T16:10:29Z</time></trkpt><trkpt lat="44.48621710196771" lon="7.889382159902639"><ele>336.3333333333333</ele><time>2026-04-08T16:10:30Z</time></trkpt><trkpt lat="44.48638075282728" lon="7.889497161696904"><ele>336.66666666666663</ele><time>2026-04-08T16:10:31Z</time></trkpt><trkpt lat="44.486543999139215" lon="7.889612055942428"><ele>337.0</ele><time>2026-04-08T16:10:32Z</time></trkpt><trkpt lat="44.4867144095917" lon="7.889733188832559"><ele>337.0</ele><time>2026-04-08T16:10:33Z</time></trkpt><trkpt lat="44.48688695834795" lon="7.889855841644332"><ele>337.0</ele><time>2026-04-08T16:10:34Z</time></trkpt><trkpt lat="44.487070582682186" lon="7.889964855859392"><ele>337.0</ele><time>2026-04-08T16:10:35Z</time></trkpt><trkpt lat="44.487250877437006" lon="7.8900970141888545"><ele>337.0</ele><time>2026-04-08T16:10:36Z</time></trkpt><trkpt lat="44.48743225976104" lon="7.890244297257988"><ele>337.0</ele><time>2026-04-08T16:10:37Z</time></trkpt><trkpt lat="44.48760391763451" lon="7.890364771652294"><ele>337.0</ele><time>2026-04-08T16:10:38Z</time></trkpt><trkpt lat="44.48777934793071" lon="7.890487821298178"><ele>337.0</ele><time>2026-04-08T16:10:39Z</time></trkpt><trkpt lat="44.48794535940774" lon="7.89059609791498"><ele>337.0</ele><time>2026-04-08T16:10:40Z</time></trkpt><trkpt lat="44.488115585092835" lon="7.890718695492477"><ele>337.0</ele><time>2026-04-08T16:10:41Z</time></trkpt><trkpt lat="44.48828442936214" lon="7.890831119227075"><ele>337.0</ele><time>2026-04-08T16:10:42Z</time></trkpt><trkpt lat="44.4884505936608" lon="7.890918083029613"><ele>337.0</ele><time>2026-04-08T16:10:43Z</time></trkpt><trkpt lat="44.488626212217014" lon="7.890994840780077"><ele>337.0</ele><time>2026-04-08T16:10:44Z</time></trkpt><trkpt lat="44.48881430940983" lon="7.891047914145203"><ele>336.3333333333333</ele><time>2026-04-08T16:10:45Z</time></trkpt><trkpt lat="44.488996549266595" lon="7.8911081750189815"><ele>335.6666666666667</ele><time>2026-04-08T16:10:46Z</time></trkpt><trkpt lat="44.48919527392275" lon="7.89113066953616"><ele>335.0</ele><time>2026-04-08T16:10:47Z</time></trkpt><trkpt lat="44.48938583544204" lon="7.891178440505076"><ele>335.0</ele><time>2026-04-08T16:10:47.999Z</time></trkpt><trkpt lat="44.48958042619484" lon="7.891225737051835"><ele>335.0</ele><time>2026-04-08T16:10:48.999Z</time></trkpt><trkpt lat="44.489777511176484" lon="7.891262426761957"><ele>335.0</ele><time>2026-04-08T16:10:49.999Z</time></trkpt><trkpt lat="44.48997284018494" lon="7.89131061392829"><ele>335.0</ele><time>2026-04-08T16:10:50.999Z</time></trkpt><trkpt lat="44.49016413893184" lon="7.891344745131052"><ele>335.0</ele><time>2026-04-08T16:10:51.999Z</time></trkpt><trkpt lat="44.49037387046596" lon="7.891401698891162"><ele>335.0</ele><time>2026-04-08T16:10:52.999Z</time></trkpt><trkpt lat="44.49057707349244" lon="7.891444670670238"><ele>335.0</ele><time>2026-04-08T16:10:53.999Z</time></trkpt><trkpt lat="44.49077903517955" lon="7.891484225050662"><ele>335.0</ele><time>2026-04-08T16:10:54.999Z</time></trkpt><trkpt lat="44.49097354621533" lon="7.891524639089913"><ele>335.0</ele><time>2026-04-08T16:10:55.999Z</time></trkpt><trkpt lat="44.49117868198734" lon="7.891565355708877"><ele>335.6666666666667</ele><time>2026-04-08T16:10:56.999Z</time></trkpt><trkpt lat="44.49137852360497" lon="7.891602773895686"><ele>336.3333333333333</ele><time>2026-04-08T16:10:57.999Z</time></trkpt><trkpt lat="44.49155424214983" lon="7.89166154946519"><ele>337.0</ele><time>2026-04-08T16:10:58.999Z</time></trkpt><trkpt lat="44.49171748338603" lon="7.89169545887515"><ele>337.0</ele><time>2026-04-08T16:10:59.999Z</time></trkpt><trkpt lat="44.49188025425771" lon="7.891729264461617"><ele>337.0</ele><time>2026-04-08T16:11:00.999Z</time></trkpt><trkpt lat="44.49203682742151" lon="7.891764494851529"><ele>337.0</ele><time>2026-04-08T16:11:01.999Z</time></trkpt><trkpt lat="44.49219496680473" lon="7.891782909291192"><ele>336.3333333333333</ele><time>2026-04-08T16:11:02.999Z</time></trkpt><trkpt lat="44.49237254506318" lon="7.891846295583956"><ele>335.6666666666667</ele><time>2026-04-08T16:11:03.999Z</time></trkpt><trkpt lat="44.49253859062085" lon="7.891896524502669"><ele>335.0</ele><time>2026-04-08T16:11:04.999Z</time></trkpt><trkpt lat="44.49269487395869" lon="7.891950837491603"><ele>335.0</ele><time>2026-04-08T16:11:05.999Z</time></trkpt><trkpt lat="44.49283009604763" lon="7.892033532746184"><ele>335.0</ele><time>2026-04-08T16:11:06.999Z</time></trkpt><trkpt lat="44.49298185846943" lon="7.89210833770457"><ele>335.0</ele><time>2026-04-08T16:11:07.999Z</time></trkpt><trkpt lat="44.493109498400116" lon="7.892184464850241"><ele>335.0</ele><time>2026-04-08T16:11:08.999Z</time></trkpt><trkpt lat="44.49323559770516" lon="7.892254333833444"><ele>335.0</ele><time>2026-04-08T16:11:09.999Z</time></trkpt><trkpt lat="44.49334910781178" lon="7.892328390850346"><ele>335.0</ele><time>2026-04-08T16:11:10.999Z</time></trkpt><trkpt lat="44.49347444843179" lon="7.89239928513673"><ele>335.0</ele><time>2026-04-08T16:11:11.999Z</time></trkpt><trkpt lat="44.49359317213797" lon="7.892475374316906"><ele>335.0</ele><time>2026-04-08T16:11:12.999Z</time></trkpt><trkpt lat="44.49370903449784" lon="7.892549147249713"><ele>335.0</ele><time>2026-04-08T16:11:13.999Z</time></trkpt><trkpt lat="44.49381468226883" lon="7.892620605570302"><ele>335.0</ele><time>2026-04-08T16:11:14.999Z</time></trkpt><trkpt lat="44.49393166693812" lon="7.892693838777127"><ele>335.0</ele><time>2026-04-08T16:11:15.999Z</time></trkpt><trkpt lat="44.494056469505935" lon="7.892768041414043"><ele>335.0</ele><time>2026-04-08T16:11:16.999Z</time></trkpt><trkpt lat="44.49417824446944" lon="7.892842668934715"><ele>335.0</ele><time>2026-04-08T16:11:17.999Z</time></trkpt><trkpt lat="44.49429055133445" lon="7.892901621459168"><ele>335.0</ele><time>2026-04-08T16:11:18.999Z</time></trkpt><trkpt lat="44.494405566433926" lon="7.892965518160245"><ele>335.0</ele><time>2026-04-08T16:11:19.999Z</time></trkpt><trkpt lat="44.49452639122505" lon="7.893031182744191"><ele>335.0</ele><time>2026-04-08T16:11:20.999Z</time></trkpt><trkpt lat="44.494626146226565" lon="7.893138202914496"><ele>334.75</ele><time>2026-04-08T16:11:21.999Z</time></trkpt><trkpt lat="44.494741638952725" lon="7.893207388123034"><ele>334.5</ele><time>2026-04-08T16:11:22.999Z</time></trkpt><trkpt lat="44.49486163773949" lon="7.893280573979167"><ele>334.25</ele><time>2026-04-08T16:11:23.999Z</time></trkpt><trkpt lat="44.49499496221938" lon="7.8933576151210945"><ele>334.0</ele><time>2026-04-08T16:11:24.999Z</time></trkpt><trkpt lat="44.49513258143499" lon="7.893431467411925"><ele>334.0</ele><time>2026-04-08T16:11:25.999Z</time></trkpt><trkpt lat="44.49527653832174" lon="7.8934799773263205"><ele>334.0</ele><time>2026-04-08T16:11:26.999Z</time></trkpt><trkpt lat="44.49541300810374" lon="7.8935484700169605"><ele>334.0</ele><time>2026-04-08T16:11:27.999Z</time></trkpt><trkpt lat="44.49556368193339" lon="7.893611918309849"><ele>334.0</ele><time>2026-04-08T16:11:28.999Z</time></trkpt><trkpt lat="44.49571665196072" lon="7.893688040503385"><ele>334.0</ele><time>2026-04-08T16:11:29.999Z</time></trkpt><trkpt lat="44.49585599397684" lon="7.893762911663607"><ele>334.0</ele><time>2026-04-08T16:11:30.999Z</time></trkpt><trkpt lat="44.49601119583302" lon="7.893822923058464"><ele>334.0</ele><time>2026-04-08T16:11:31.999Z</time></trkpt><trkpt lat="44.496150200482134" lon="7.893873745752281"><ele>334.0</ele><time>2026-04-08T16:11:32.999Z</time></trkpt><trkpt lat="44.49627790856878" lon="7.89392026796145"><ele>334.0</ele><time>2026-04-08T16:11:33.999Z</time></trkpt><trkpt lat="44.49640856616258" lon="7.893986543211912"><ele>334.0</ele><time>2026-04-08T16:11:34.999Z</time></trkpt><trkpt lat="44.4965369588267" lon="7.894037858147774"><ele>334.0</ele><time>2026-04-08T16:11:35.999Z</time></trkpt><trkpt lat="44.49665334108533" lon="7.894084857105118"><ele>334.0</ele><time>2026-04-08T16:11:36.999Z</time></trkpt><trkpt lat="44.49676991084038" lon="7.894126038098106"><ele>334.0</ele><time>2026-04-08T16:11:37.999Z</time></trkpt><trkpt lat="44.496877652503755" lon="7.894181912618481"><ele>334.0</ele><time>2026-04-08T16:11:38.999Z</time></trkpt><trkpt lat="44.49696966930528" lon="7.894221634374762"><ele>333.5</ele><time>2026-04-08T16:11:39.999Z</time></trkpt><trkpt lat="44.49707990890404" lon="7.894262111690579"><ele>333.0</ele><time>2026-04-08T16:11:40.999Z</time></trkpt><trkpt lat="44.49718553563112" lon="7.894305001532562"><ele>332.5</ele><time>2026-04-08T16:11:41.999Z</time></trkpt><trkpt lat="44.4973007594169" lon="7.8943588472130335"><ele>332.0</ele><time>2026-04-08T16:11:42.999Z</time></trkpt><trkpt lat="44.49743266304387" lon="7.894418787594484"><ele>331.75</ele><time>2026-04-08T16:11:43.999Z</time></trkpt><trkpt lat="44.49755814033364" lon="7.894471346454324"><ele>331.5</ele><time>2026-04-08T16:11:44.999Z</time></trkpt><trkpt lat="44.49770552089278" lon="7.894523926247548"><ele>331.25</ele><time>2026-04-08T16:11:45.999Z</time></trkpt><trkpt lat="44.49783537091249" lon="7.8945565200443815"><ele>331.0</ele><time>2026-04-08T16:11:46.999Z</time></trkpt><trkpt lat="44.497956778372654" lon="7.894590522953926"><ele>328.3333333333333</ele><time>2026-04-08T16:11:47.999Z</time></trkpt><trkpt lat="44.498086449827824" lon="7.894605401926336"><ele>325.6666666666667</ele><time>2026-04-08T16:11:48.999Z</time></trkpt><trkpt lat="44.4982167722695" lon="7.894599669517393"><ele>323.0</ele><time>2026-04-08T16:11:49.999Z</time></trkpt><trkpt lat="44.49847002275945" lon="7.894533891107792"><ele>323.0</ele><time>2026-04-08T16:11:51.999Z</time></trkpt><trkpt lat="44.498624294611254" lon="7.894473627340386"><ele>323.0</ele><time>2026-04-08T16:11:52.999Z</time></trkpt><trkpt lat="44.49876109502723" lon="7.894402713229064"><ele>323.0</ele><time>2026-04-08T16:11:53.999Z</time></trkpt><trkpt lat="44.49890474567898" lon="7.894329829326837"><ele>323.33333333333337</ele><time>2026-04-08T16:11:54.999Z</time></trkpt><trkpt lat="44.49904843570498" lon="7.894257114846491"><ele>323.6666666666667</ele><time>2026-04-08T16:11:55.999Z</time></trkpt><trkpt lat="44.49921952500826" lon="7.89418094584439"><ele>324.0</ele><time>2026-04-08T16:11:56.999Z</time></trkpt><trkpt lat="44.49938605984269" lon="7.894115735734922"><ele>321.6666666666667</ele><time>2026-04-08T16:11:57.999Z</time></trkpt><trkpt lat="44.49959006372065" lon="7.894104773300608"><ele>319.33333333333337</ele><time>2026-04-08T16:11:58.999Z</time></trkpt><trkpt lat="44.49977917313021" lon="7.894067320444274"><ele>317.0</ele><time>2026-04-08T16:11:59.999Z</time></trkpt><trkpt lat="44.49997998877183" lon="7.894051125357515"><ele>317.0</ele><time>2026-04-08T16:12:01Z</time></trkpt><trkpt lat="44.50019523911592" lon="7.894050908906258"><ele>317.0</ele><time>2026-04-08T16:12:02Z</time></trkpt><trkpt lat="44.50037760687325" lon="7.894057601987515"><ele>317.0</ele><time>2026-04-08T16:12:03Z</time></trkpt><trkpt lat="44.5005683261952" lon="7.894058054290864"><ele>314.0</ele><time>2026-04-08T16:12:04Z</time></trkpt><trkpt lat="44.50077777849339" lon="7.894043956167099"><ele>311.0</ele><time>2026-04-08T16:12:05Z</time></trkpt><trkpt lat="44.500985542782566" lon="7.8940010327965044"><ele>308.0</ele><time>2026-04-08T16:12:06Z</time></trkpt><trkpt lat="44.50117407362552" lon="7.893970684114431"><ele>305.5</ele><time>2026-04-08T16:12:07Z</time></trkpt><trkpt lat="44.50158020548705" lon="7.893968959710723"><ele>303.0</ele><time>2026-04-08T16:12:09Z</time></trkpt><trkpt lat="44.50179027108736" lon="7.893984987593891"><ele>303.0</ele><time>2026-04-08T16:12:10Z</time></trkpt><trkpt lat="44.50200150770412" lon="7.894014245958362"><ele>303.0</ele><time>2026-04-08T16:12:11Z</time></trkpt><trkpt lat="44.502210777747145" lon="7.894050153111748"><ele>303.0</ele><time>2026-04-08T16:12:12Z</time></trkpt><trkpt lat="44.502425770258974" lon="7.894072867631633"><ele>302.6666666666667</ele><time>2026-04-08T16:12:13Z</time></trkpt><trkpt lat="44.50261408076275" lon="7.894112381031984"><ele>302.33333333333337</ele><time>2026-04-08T16:12:14Z</time></trkpt><trkpt lat="44.50281248352499" lon="7.89416227229562"><ele>302.0</ele><time>2026-04-08T16:12:15Z</time></trkpt><trkpt lat="44.50300033453068" lon="7.894167732108373"><ele>301.33333333333337</ele><time>2026-04-08T16:12:16Z</time></trkpt><trkpt lat="44.5031822618911" lon="7.894226439758454"><ele>300.6666666666667</ele><time>2026-04-08T16:12:17Z</time></trkpt><trkpt lat="44.50336752328392" lon="7.89428403531187"><ele>300.0</ele><time>2026-04-08T16:12:18Z</time></trkpt><trkpt lat="44.503555125146605" lon="7.894359736558116"><ele>295.3333333333333</ele><time>2026-04-08T16:12:19Z</time></trkpt><trkpt lat="44.50372802891125" lon="7.8944442580395435"><ele>290.66666666666663</ele><time>2026-04-08T16:12:20Z</time></trkpt><trkpt lat="44.50389962466617" lon="7.894544384012982"><ele>286.0</ele><time>2026-04-08T16:12:21Z</time></trkpt><trkpt lat="44.50407556079343" lon="7.894629381389567"><ele>286.0</ele><time>2026-04-08T16:12:22Z</time></trkpt><trkpt lat="44.5042334441451" lon="7.894753062240951"><ele>286.0</ele><time>2026-04-08T16:12:23Z</time></trkpt><trkpt lat="44.50439544165009" lon="7.894854388298887"><ele>286.0</ele><time>2026-04-08T16:12:24Z</time></trkpt><trkpt lat="44.504534097887486" lon="7.894951909651617"><ele>284.3333333333333</ele><time>2026-04-08T16:12:25Z</time></trkpt><trkpt lat="44.50468427224968" lon="7.89508760563981"><ele>282.6666666666667</ele><time>2026-04-08T16:12:26Z</time></trkpt><trkpt lat="44.50481151892907" lon="7.895242373376261"><ele>281.0</ele><time>2026-04-08T16:12:27Z</time></trkpt><trkpt lat="44.504912639639116" lon="7.895405856095742"><ele>281.0</ele><time>2026-04-08T16:12:28Z</time></trkpt><trkpt lat="44.50499762366804" lon="7.895582444361844"><ele>281.0</ele><time>2026-04-08T16:12:29Z</time></trkpt><trkpt lat="44.50506920161146" lon="7.89577822932767"><ele>281.0</ele><time>2026-04-08T16:12:30Z</time></trkpt><trkpt lat="44.50513363253482" lon="7.895991805367801"><ele>279.33333333333337</ele><time>2026-04-08T16:12:31Z</time></trkpt><trkpt lat="44.50519806224268" lon="7.896225157317945"><ele>277.6666666666667</ele><time>2026-04-08T16:12:32Z</time></trkpt><trkpt lat="44.50527068911439" lon="7.896488197689003"><ele>276.0</ele><time>2026-04-08T16:12:33Z</time></trkpt><trkpt lat="44.505354793936874" lon="7.896738347573821"><ele>278.3333333333333</ele><time>2026-04-08T16:12:34Z</time></trkpt><trkpt lat="44.50542032720561" lon="7.896999413736083"><ele>280.66666666666663</ele><time>2026-04-08T16:12:35Z</time></trkpt><trkpt lat="44.505482512764125" lon="7.89723769607635"><ele>283.0</ele><time>2026-04-08T16:12:36Z</time></trkpt><trkpt lat="44.50552841813453" lon="7.897465313051163"><ele>282.66666666666663</ele><time>2026-04-08T16:12:37Z</time></trkpt><trkpt lat="44.50558846462312" lon="7.897725309803985"><ele>282.3333333333333</ele><time>2026-04-08T16:12:38Z</time></trkpt><trkpt lat="44.50565672949027" lon="7.897946780405753"><ele>282.0</ele><time>2026-04-08T16:12:39Z</time></trkpt><trkpt lat="44.50571786292653" lon="7.89816050917297"><ele>282.0</ele><time>2026-04-08T16:12:40Z</time></trkpt><trkpt lat="44.50577522288216" lon="7.898399940350365"><ele>282.0</ele><time>2026-04-08T16:12:41Z</time></trkpt><trkpt lat="44.50584472680293" lon="7.898622696313843"><ele>282.0</ele><time>2026-04-08T16:12:42Z</time></trkpt><trkpt lat="44.50592225207189" lon="7.898857652245116"><ele>279.3333333333333</ele><time>2026-04-08T16:12:43Z</time></trkpt><trkpt lat="44.505987698736604" lon="7.89909542079007"><ele>276.66666666666663</ele><time>2026-04-08T16:12:44Z</time></trkpt><trkpt lat="44.50606072514535" lon="7.899338242858651"><ele>274.0</ele><time>2026-04-08T16:12:45Z</time></trkpt><trkpt lat="44.50612401486291" lon="7.899584229574445"><ele>273.25</ele><time>2026-04-08T16:12:46Z</time></trkpt><trkpt lat="44.50622244653236" lon="7.8997469274611225"><ele>272.5</ele><time>2026-04-08T16:12:47Z</time></trkpt><trkpt lat="44.506303050602824" lon="7.899933475506637"><ele>271.75</ele><time>2026-04-08T16:12:48Z</time></trkpt><trkpt lat="44.50637604484672" lon="7.900089970688955"><ele>271.0</ele><time>2026-04-08T16:12:49Z</time></trkpt><trkpt lat="44.50644481698549" lon="7.90025038091112"><ele>271.0</ele><time>2026-04-08T16:12:50Z</time></trkpt><trkpt lat="44.50650563981887" lon="7.90042820982375"><ele>271.0</ele><time>2026-04-08T16:12:51Z</time></trkpt><trkpt lat="44.506546299366185" lon="7.900642529373866"><ele>271.0</ele><time>2026-04-08T16:12:51.999Z</time></trkpt><trkpt lat="44.50656760530765" lon="7.90086178978296"><ele>269.0</ele><time>2026-04-08T16:12:52.999Z</time></trkpt><trkpt lat="44.50658733223709" lon="7.9010939373124724"><ele>267.0</ele><time>2026-04-08T16:12:53.999Z</time></trkpt><trkpt lat="44.50660488328567" lon="7.901356037320894"><ele>265.0</ele><time>2026-04-08T16:12:54.999Z</time></trkpt><trkpt lat="44.506622694769746" lon="7.901619019896647"><ele>263.3333333333333</ele><time>2026-04-08T16:12:55.999Z</time></trkpt><trkpt lat="44.50664320437909" lon="7.901877316784474"><ele>261.6666666666667</ele><time>2026-04-08T16:12:56.999Z</time></trkpt><trkpt lat="44.506660428107395" lon="7.90212919518318"><ele>260.0</ele><time>2026-04-08T16:12:57.999Z</time></trkpt><trkpt lat="44.506665918780435" lon="7.902389330181409"><ele>259.33333333333337</ele><time>2026-04-08T16:12:58.999Z</time></trkpt><trkpt lat="44.50666118614311" lon="7.9026440522526284"><ele>258.6666666666667</ele><time>2026-04-08T16:12:59.999Z</time></trkpt><trkpt lat="44.50665389726868" lon="7.902902933068903"><ele>258.0</ele><time>2026-04-08T16:13:00.999Z</time></trkpt><trkpt lat="44.50665318424779" lon="7.903173758705758"><ele>258.6666666666667</ele><time>2026-04-08T16:13:01.999Z</time></trkpt><trkpt lat="44.50665261519413" lon="7.903458787081428"><ele>259.33333333333337</ele><time>2026-04-08T16:13:02.999Z</time></trkpt><trkpt lat="44.50665085340147" lon="7.903719104706887"><ele>260.0</ele><time>2026-04-08T16:13:03.999Z</time></trkpt><trkpt lat="44.50665077043863" lon="7.903955177651306"><ele>260.0</ele><time>2026-04-08T16:13:04.999Z</time></trkpt><trkpt lat="44.506647044704486" lon="7.904201788176535"><ele>260.0</ele><time>2026-04-08T16:13:05.999Z</time></trkpt><trkpt lat="44.50664288111457" lon="7.904439503747535"><ele>260.0</ele><time>2026-04-08T16:13:06.999Z</time></trkpt><trkpt lat="44.506639239808436" lon="7.90468823732849"><ele>259.6666666666667</ele><time>2026-04-08T16:13:07.999Z</time></trkpt><trkpt lat="44.50663785881529" lon="7.90494216353824"><ele>259.3333333333333</ele><time>2026-04-08T16:13:08.999Z</time></trkpt><trkpt lat="44.50663925218698" lon="7.905169198779725"><ele>259.0</ele><time>2026-04-08T16:13:09.999Z</time></trkpt><trkpt lat="44.506649220208445" lon="7.905379173358647"><ele>259.0</ele><time>2026-04-08T16:13:10.999Z</time></trkpt><trkpt lat="44.50667133352447" lon="7.905597565846455"><ele>259.0</ele><time>2026-04-08T16:13:11.999Z</time></trkpt><trkpt lat="44.50671166627423" lon="7.905819181159607"><ele>259.0</ele><time>2026-04-08T16:13:12.999Z</time></trkpt><trkpt lat="44.50675278860888" lon="7.906027396075154"><ele>259.66666666666663</ele><time>2026-04-08T16:13:13.999Z</time></trkpt><trkpt lat="44.506799504035385" lon="7.906233089551653"><ele>260.3333333333333</ele><time>2026-04-08T16:13:14.999Z</time></trkpt><trkpt lat="44.506846023548405" lon="7.906469075697292"><ele>261.0</ele><time>2026-04-08T16:13:15.999Z</time></trkpt><trkpt lat="44.50688769150674" lon="7.906648267437467"><ele>261.3333333333333</ele><time>2026-04-08T16:13:16.999Z</time></trkpt><trkpt lat="44.5069428852129" lon="7.90684550759427"><ele>261.66666666666663</ele><time>2026-04-08T16:13:17.999Z</time></trkpt><trkpt lat="44.507017190309924" lon="7.90704897119556"><ele>262.0</ele><time>2026-04-08T16:13:18.999Z</time></trkpt><trkpt lat="44.5071210491713" lon="7.907255499465447"><ele>262.0</ele><time>2026-04-08T16:13:19.999Z</time></trkpt><trkpt lat="44.50721468350533" lon="7.907442434279909"><ele>262.0</ele><time>2026-04-08T16:13:20.999Z</time></trkpt><trkpt lat="44.50731812151166" lon="7.907610118574199"><ele>262.0</ele><time>2026-04-08T16:13:21.999Z</time></trkpt><trkpt lat="44.50744070797532" lon="7.9077588220143955"><ele>261.3333333333333</ele><time>2026-04-08T16:13:22.999Z</time></trkpt><trkpt lat="44.507580051397916" lon="7.907907438769738"><ele>260.6666666666667</ele><time>2026-04-08T16:13:23.999Z</time></trkpt><trkpt lat="44.507729391477504" lon="7.908028601000207"><ele>260.0</ele><time>2026-04-08T16:13:24.999Z</time></trkpt><trkpt lat="44.50787083595191" lon="7.908134008487283"><ele>256.6666666666667</ele><time>2026-04-08T16:13:25.999Z</time></trkpt><trkpt lat="44.50800976918358" lon="7.908250137224971"><ele>253.33333333333331</ele><time>2026-04-08T16:13:26.999Z</time></trkpt><trkpt lat="44.508146348348845" lon="7.908372492887497"><ele>250.0</ele><time>2026-04-08T16:13:27.999Z</time></trkpt><trkpt lat="44.50829123289762" lon="7.90848718675625"><ele>249.0</ele><time>2026-04-08T16:13:28.999Z</time></trkpt><trkpt lat="44.508440283931435" lon="7.908573751021037"><ele>248.0</ele><time>2026-04-08T16:13:29.999Z</time></trkpt><trkpt lat="44.508584503106164" lon="7.908651002885678"><ele>247.0</ele><time>2026-04-08T16:13:30.999Z</time></trkpt><trkpt lat="44.50872028515882" lon="7.908731887008384"><ele>246.75</ele><time>2026-04-08T16:13:31.999Z</time></trkpt><trkpt lat="44.50884558177336" lon="7.908813218324786"><ele>246.5</ele><time>2026-04-08T16:13:32.999Z</time></trkpt><trkpt lat="44.508955548632706" lon="7.908893726532842"><ele>246.25</ele><time>2026-04-08T16:13:33.999Z</time></trkpt><trkpt lat="44.509061684786104" lon="7.908996292934088"><ele>246.0</ele><time>2026-04-08T16:13:34.999Z</time></trkpt><trkpt lat="44.50915740210262" lon="7.9091287364329395"><ele>245.75</ele><time>2026-04-08T16:13:35.999Z</time></trkpt><trkpt lat="44.5092414604359" lon="7.909255062842691"><ele>245.5</ele><time>2026-04-08T16:13:36.999Z</time></trkpt><trkpt lat="44.50932437080853" lon="7.909389699717707"><ele>245.25</ele><time>2026-04-08T16:13:37.999Z</time></trkpt><trkpt lat="44.50941666634554" lon="7.909485030492795"><ele>245.0</ele><time>2026-04-08T16:13:38.999Z</time></trkpt><trkpt lat="44.50951748074879" lon="7.909580987867425"><ele>244.2</ele><time>2026-04-08T16:13:39.999Z</time></trkpt><trkpt lat="44.50960693544976" lon="7.909653683750474"><ele>243.4</ele><time>2026-04-08T16:13:40.999Z</time></trkpt><trkpt lat="44.509687065085124" lon="7.909757918824299"><ele>242.60000000000002</ele><time>2026-04-08T16:13:41.999Z</time></trkpt><trkpt lat="44.50978397051673" lon="7.909837864404771"><ele>241.8</ele><time>2026-04-08T16:13:42.999Z</time></trkpt><trkpt lat="44.509871025798375" lon="7.9099044811664605"><ele>241.0</ele><time>2026-04-08T16:13:43.999Z</time></trkpt><trkpt lat="44.5099600604587" lon="7.909976430548866"><ele>241.0</ele><time>2026-04-08T16:13:44.999Z</time></trkpt><trkpt lat="44.51005406694133" lon="7.910071273688477"><ele>241.00000000000003</ele><time>2026-04-08T16:13:45.999Z</time></trkpt><trkpt lat="44.510146757287245" lon="7.910160294951212"><ele>241.00000000000003</ele><time>2026-04-08T16:13:46.999Z</time></trkpt><trkpt lat="44.510238332327965" lon="7.91023506085993"><ele>241.0</ele><time>2026-04-08T16:13:47.999Z</time></trkpt><trkpt lat="44.51033003682204" lon="7.910304782051213"><ele>241.0</ele><time>2026-04-08T16:13:48.999Z</time></trkpt><trkpt lat="44.51043538217721" lon="7.910383634730286"><ele>242.0</ele><time>2026-04-08T16:13:49.999Z</time></trkpt><trkpt lat="44.510534637868126" lon="7.910458450353581"><ele>243.00000000000003</ele><time>2026-04-08T16:13:50.999Z</time></trkpt><trkpt lat="44.51063390361119" lon="7.910548463768438"><ele>244.00000000000003</ele><time>2026-04-08T16:13:51.999Z</time></trkpt><trkpt lat="44.51073210737361" lon="7.910605390416037"><ele>245.0</ele><time>2026-04-08T16:13:52.999Z</time></trkpt><trkpt lat="44.51081988056159" lon="7.910695638481066"><ele>246.0</ele><time>2026-04-08T16:13:53.999Z</time></trkpt><trkpt lat="44.51091212046492" lon="7.910776334745377"><ele>246.0</ele><time>2026-04-08T16:13:54.999Z</time></trkpt><trkpt lat="44.511008162099344" lon="7.910874395638816"><ele>246.00000000000003</ele><time>2026-04-08T16:13:55.999Z</time></trkpt><trkpt lat="44.51109492952732" lon="7.910970467306636"><ele>246.00000000000003</ele><time>2026-04-08T16:13:56.999Z</time></trkpt><trkpt lat="44.51116045140854" lon="7.911070210817659"><ele>246.0</ele><time>2026-04-08T16:13:57.999Z</time></trkpt><trkpt lat="44.51120750606943" lon="7.9111875281601325"><ele>246.0</ele><time>2026-04-08T16:13:58.999Z</time></trkpt><trkpt lat="44.51122092092682" lon="7.911298818062397"><ele>246.60000000000002</ele><time>2026-04-08T16:13:59.999Z</time></trkpt><trkpt lat="44.51122395229777" lon="7.911421964440769"><ele>247.20000000000002</ele><time>2026-04-08T16:14:00.999Z</time></trkpt><trkpt lat="44.511199608855385" lon="7.9115607575266305"><ele>247.79999999999998</ele><time>2026-04-08T16:14:01.999Z</time></trkpt><trkpt lat="44.51116015599907" lon="7.911693974334771"><ele>248.39999999999998</ele><time>2026-04-08T16:14:02.999Z</time></trkpt><trkpt lat="44.51112336611081" lon="7.911838655679732"><ele>249.0</ele><time>2026-04-08T16:14:03.999Z</time></trkpt><trkpt lat="44.51109103891285" lon="7.911971294019707"><ele>249.33333333333334</ele><time>2026-04-08T16:14:04.999Z</time></trkpt><trkpt lat="44.511055057115065" lon="7.912102447659619"><ele>249.66666666666669</ele><time>2026-04-08T16:14:05.999Z</time></trkpt><trkpt lat="44.51102154274388" lon="7.912212090087942"><ele>250.0</ele><time>2026-04-08T16:14:07Z</time></trkpt><trkpt lat="44.510987168941206" lon="7.912304858808166"><ele>250.33333333333334</ele><time>2026-04-08T16:14:08Z</time></trkpt><trkpt lat="44.51097207871432" lon="7.912422304070159"><ele>250.66666666666669</ele><time>2026-04-08T16:14:09Z</time></trkpt><trkpt lat="44.51094531475649" lon="7.912539739672251"><ele>251.0</ele><time>2026-04-08T16:14:10Z</time></trkpt><trkpt lat="44.51092412909424" lon="7.912652052797593"><ele>251.71428571428567</ele><time>2026-04-08T16:14:11Z</time></trkpt><trkpt lat="44.51090208158672" lon="7.91275505801902"><ele>252.42857142857142</ele><time>2026-04-08T16:14:12Z</time></trkpt><trkpt lat="44.510862866732246" lon="7.91283487903512"><ele>253.1428571428571</ele><time>2026-04-08T16:14:13Z</time></trkpt><trkpt lat="44.51083409738952" lon="7.9129283874242775"><ele>253.85714285714283</ele><time>2026-04-08T16:14:14Z</time></trkpt><trkpt lat="44.510804421233054" lon="7.913023654008927"><ele>254.57142857142856</ele><time>2026-04-08T16:14:15Z</time></trkpt><trkpt lat="44.51077370418216" lon="7.913122262084726"><ele>255.28571428571428</ele><time>2026-04-08T16:14:16Z</time></trkpt><trkpt lat="44.510744595363086" lon="7.913218880711481"><ele>256.0</ele><time>2026-04-08T16:14:17Z</time></trkpt><trkpt lat="44.510713850978206" lon="7.913325965753205"><ele>257.16666666666663</ele><time>2026-04-08T16:14:18Z</time></trkpt><trkpt lat="44.510706219088945" lon="7.913415736882784"><ele>258.3333333333333</ele><time>2026-04-08T16:14:19Z</time></trkpt><trkpt lat="44.5106788817746" lon="7.913495838008167"><ele>259.5</ele><time>2026-04-08T16:14:20Z</time></trkpt><trkpt lat="44.51065169752853" lon="7.913588777646325"><ele>260.6666666666667</ele><time>2026-04-08T16:14:21Z</time></trkpt><trkpt lat="44.510603030431355" lon="7.913754933104637"><ele>261.83333333333337</ele><time>2026-04-08T16:14:23Z</time></trkpt><trkpt lat="44.51058144726333" lon="7.913846016665629"><ele>263.0</ele><time>2026-04-08T16:14:24Z</time></trkpt><trkpt lat="44.51054171458206" lon="7.914014460083495"><ele>263.0</ele><time>2026-04-08T16:14:26Z</time></trkpt><trkpt lat="44.51051877160977" lon="7.914111724890902"><ele>263.0</ele><time>2026-04-08T16:14:27Z</time></trkpt><trkpt lat="44.510496236248386" lon="7.914215856639459"><ele>263.0</ele><time>2026-04-08T16:14:28Z</time></trkpt><trkpt lat="44.510482740328115" lon="7.914320888093688"><ele>263.0</ele><time>2026-04-08T16:14:29Z</time></trkpt><trkpt lat="44.510477403920824" lon="7.914420548069235"><ele>263.0</ele><time>2026-04-08T16:14:30Z</time></trkpt><trkpt lat="44.51050510159958" lon="7.914527310200876"><ele>263.0</ele><time>2026-04-08T16:14:31Z</time></trkpt><trkpt lat="44.51051723401734" lon="7.91462654018384"><ele>263.57142857142856</ele><time>2026-04-08T16:14:32Z</time></trkpt><trkpt lat="44.5105423557792" lon="7.9147075488470575"><ele>264.1428571428571</ele><time>2026-04-08T16:14:33Z</time></trkpt><trkpt lat="44.51056786489634" lon="7.914804907633336"><ele>264.7142857142857</ele><time>2026-04-08T16:14:34Z</time></trkpt><trkpt lat="44.51061608761174" lon="7.9148856730970305"><ele>265.2857142857143</ele><time>2026-04-08T16:14:35Z</time></trkpt><trkpt lat="44.510669207671405" lon="7.914960508807066"><ele>265.8571428571429</ele><time>2026-04-08T16:14:36Z</time></trkpt><trkpt lat="44.51072377704947" lon="7.915037026851207"><ele>266.42857142857144</ele><time>2026-04-08T16:14:37Z</time></trkpt><trkpt lat="44.510780986895" lon="7.915105943215046"><ele>267.0</ele><time>2026-04-08T16:14:38Z</time></trkpt><trkpt lat="44.51083492547705" lon="7.915187453383788"><ele>267.8333333333333</ele><time>2026-04-08T16:14:39Z</time></trkpt><trkpt lat="44.510891361007516" lon="7.9152530996578205"><ele>268.6666666666667</ele><time>2026-04-08T16:14:40Z</time></trkpt><trkpt lat="44.51094977549295" lon="7.915324669081188"><ele>269.5</ele><time>2026-04-08T16:14:41Z</time></trkpt><trkpt lat="44.511005098500824" lon="7.915397172681306"><ele>270.33333333333337</ele><time>2026-04-08T16:14:42Z</time></trkpt><trkpt lat="44.51106178009092" lon="7.915469942753969"><ele>271.1666666666667</ele><time>2026-04-08T16:14:43Z</time></trkpt><trkpt lat="44.51111729417061" lon="7.915533748660273"><ele>272.0</ele><time>2026-04-08T16:14:44Z</time></trkpt><trkpt lat="44.511166503933914" lon="7.915636779743246"><ele>272.0</ele><time>2026-04-08T16:14:45Z</time></trkpt><trkpt lat="44.51114780480449" lon="7.915758795877844"><ele>272.0</ele><time>2026-04-08T16:14:46Z</time></trkpt><trkpt lat="44.51115188147809" lon="7.9158692044633145"><ele>272.0</ele><time>2026-04-08T16:14:47Z</time></trkpt><trkpt lat="44.51116638174025" lon="7.915977423187795"><ele>272.0</ele><time>2026-04-08T16:14:48Z</time></trkpt><trkpt lat="44.511200897862224" lon="7.91615027527865"><ele>272.0</ele><time>2026-04-08T16:14:50Z</time></trkpt><trkpt lat="44.511224029473425" lon="7.916252338471333"><ele>272.0</ele><time>2026-04-08T16:14:51Z</time></trkpt><trkpt lat="44.511246477515435" lon="7.916349605104669"><ele>272.0</ele><time>2026-04-08T16:14:52Z</time></trkpt><trkpt lat="44.511274262407056" lon="7.916459755642473"><ele>272.0</ele><time>2026-04-08T16:14:53Z</time></trkpt><trkpt lat="44.511284697378585" lon="7.916557749622564"><ele>272.0</ele><time>2026-04-08T16:14:54Z</time></trkpt><trkpt lat="44.51129826931717" lon="7.916648821175306"><ele>272.0</ele><time>2026-04-08T16:14:55Z</time></trkpt><trkpt lat="44.51131414930392" lon="7.916742640021822"><ele>272.0</ele><time>2026-04-08T16:14:56Z</time></trkpt><trkpt lat="44.511343996949115" lon="7.916898253449762"><ele>272.6666666666667</ele><time>2026-04-08T16:14:58Z</time></trkpt><trkpt lat="44.511366070625186" lon="7.917008809988736"><ele>273.33333333333337</ele><time>2026-04-08T16:14:58.999Z</time></trkpt><trkpt lat="44.51138575199209" lon="7.917094117949221"><ele>274.0</ele><time>2026-04-08T16:14:59.999Z</time></trkpt><trkpt lat="44.5114101870027" lon="7.917186765197795"><ele>274.6666666666667</ele><time>2026-04-08T16:15:00.999Z</time></trkpt><trkpt lat="44.511428832419" lon="7.917302722334999"><ele>275.3333333333333</ele><time>2026-04-08T16:15:01.999Z</time></trkpt><trkpt lat="44.51145008924553" lon="7.917402077975586"><ele>276.0</ele><time>2026-04-08T16:15:02.999Z</time></trkpt><trkpt lat="44.511457140920854" lon="7.9175101001201975"><ele>277.0</ele><time>2026-04-08T16:15:03.999Z</time></trkpt><trkpt lat="44.511524299429894" lon="7.91759086852098"><ele>278.0</ele><time>2026-04-08T16:15:04.999Z</time></trkpt><trkpt lat="44.51158867228595" lon="7.917630387253872"><ele>279.0</ele><time>2026-04-08T16:15:05.999Z</time></trkpt><trkpt lat="44.51165119594199" lon="7.917676066403206"><ele>280.0</ele><time>2026-04-08T16:15:06.999Z</time></trkpt><trkpt lat="44.51173444494448" lon="7.917711403770148"><ele>281.0</ele><time>2026-04-08T16:15:07.999Z</time></trkpt><trkpt lat="44.51180535612559" lon="7.917725218232441"><ele>282.0</ele><time>2026-04-08T16:15:08.999Z</time></trkpt><trkpt lat="44.51187452794803" lon="7.917752079051863"><ele>282.0</ele><time>2026-04-08T16:15:09.999Z</time></trkpt><trkpt lat="44.51202340888618" lon="7.917744646166336"><ele>282.0</ele><time>2026-04-08T16:15:11.999Z</time></trkpt><trkpt lat="44.512095711602456" lon="7.917727646915287"><ele>282.0</ele><time>2026-04-08T16:15:12.999Z</time></trkpt><trkpt lat="44.51215493209087" lon="7.917692599962467"><ele>282.0</ele><time>2026-04-08T16:15:13.999Z</time></trkpt><trkpt lat="44.51223643070338" lon="7.9176750497518436"><ele>282.0</ele><time>2026-04-08T16:15:14.999Z</time></trkpt><trkpt lat="44.512311870461915" lon="7.91764590708455"><ele>282.0</ele><time>2026-04-08T16:15:15.999Z</time></trkpt><trkpt lat="44.51237393531237" lon="7.917607125819738"><ele>282.3333333333333</ele><time>2026-04-08T16:15:16.999Z</time></trkpt><trkpt lat="44.51244433218473" lon="7.9175750316952795"><ele>282.6666666666667</ele><time>2026-04-08T16:15:17.999Z</time></trkpt><trkpt lat="44.51253352294577" lon="7.91754805701159"><ele>283.0</ele><time>2026-04-08T16:15:18.999Z</time></trkpt><trkpt lat="44.512608629035654" lon="7.917512399326923"><ele>283.33333333333337</ele><time>2026-04-08T16:15:19.999Z</time></trkpt><trkpt lat="44.51268765481921" lon="7.917481169663633"><ele>283.6666666666667</ele><time>2026-04-08T16:15:20.999Z</time></trkpt><trkpt lat="44.51275595934044" lon="7.917450155645712"><ele>284.0</ele><time>2026-04-08T16:15:21.999Z</time></trkpt><trkpt lat="44.512827625502595" lon="7.917433157919612"><ele>285.4</ele><time>2026-04-08T16:15:22.999Z</time></trkpt><trkpt lat="44.51291628073454" lon="7.917403459223317"><ele>286.79999999999995</ele><time>2026-04-08T16:15:23.999Z</time></trkpt><trkpt lat="44.512988376645986" lon="7.9173780362719075"><ele>288.20000000000005</ele><time>2026-04-08T16:15:24.999Z</time></trkpt><trkpt lat="44.513074648927976" lon="7.917366829084987"><ele>289.6</ele><time>2026-04-08T16:15:25.999Z</time></trkpt><trkpt lat="44.513171998917436" lon="7.917383181674297"><ele>291.0</ele><time>2026-04-08T16:15:26.999Z</time></trkpt><trkpt lat="44.51328008015368" lon="7.917383938650207"><ele>291.0</ele><time>2026-04-08T16:15:27.999Z</time></trkpt><trkpt lat="44.51339445523828" lon="7.917392165570308"><ele>291.0</ele><time>2026-04-08T16:15:28.999Z</time></trkpt><trkpt lat="44.513518365413795" lon="7.917397892266544"><ele>291.0</ele><time>2026-04-08T16:15:29.999Z</time></trkpt><trkpt lat="44.51365034899686" lon="7.917409616697332"><ele>291.0</ele><time>2026-04-08T16:15:30.999Z</time></trkpt><trkpt lat="44.51378351503603" lon="7.917430776390266"><ele>291.75</ele><time>2026-04-08T16:15:31.999Z</time></trkpt><trkpt lat="44.51392807286231" lon="7.917480778676834"><ele>292.5</ele><time>2026-04-08T16:15:32.999Z</time></trkpt><trkpt lat="44.514065548501705" lon="7.917548272714201"><ele>293.25</ele><time>2026-04-08T16:15:33.999Z</time></trkpt><trkpt lat="44.51416815499265" lon="7.917637395680652"><ele>294.0</ele><time>2026-04-08T16:15:34.999Z</time></trkpt><trkpt lat="44.51423764366801" lon="7.9177463424779795"><ele>297.2</ele><time>2026-04-08T16:15:35.999Z</time></trkpt><trkpt lat="44.514328312310624" lon="7.917837816467625"><ele>300.4</ele><time>2026-04-08T16:15:36.999Z</time></trkpt><trkpt lat="44.514390532351456" lon="7.917882475268551"><ele>303.6</ele><time>2026-04-08T16:15:37.999Z</time></trkpt><trkpt lat="44.51446694958663" lon="7.917936579732768"><ele>306.8</ele><time>2026-04-08T16:15:38.999Z</time></trkpt><trkpt lat="44.514575685104504" lon="7.917953874076508"><ele>310.0</ele><time>2026-04-08T16:15:39.999Z</time></trkpt><trkpt lat="44.51469468578193" lon="7.917883697893217"><ele>311.75</ele><time>2026-04-08T16:15:40.999Z</time></trkpt><trkpt lat="44.5147905414185" lon="7.917778277201408"><ele>313.5</ele><time>2026-04-08T16:15:41.999Z</time></trkpt><trkpt lat="44.51491173386209" lon="7.917644395184072"><ele>315.25</ele><time>2026-04-08T16:15:42.999Z</time></trkpt><trkpt lat="44.51501863772967" lon="7.917557930232163"><ele>317.0</ele><time>2026-04-08T16:15:43.999Z</time></trkpt><trkpt lat="44.51511210455067" lon="7.9174880209434155"><ele>315.6</ele><time>2026-04-08T16:15:44.999Z</time></trkpt><trkpt lat="44.51519834531356" lon="7.9174149612631295"><ele>314.2</ele><time>2026-04-08T16:15:45.999Z</time></trkpt><trkpt lat="44.51527546945185" lon="7.917365344735981"><ele>312.8</ele><time>2026-04-08T16:15:46.999Z</time></trkpt><trkpt lat="44.51533790996597" lon="7.917314559622785"><ele>311.4</ele><time>2026-04-08T16:15:47.999Z</time></trkpt><trkpt lat="44.51544004467069" lon="7.917306806945242"><ele>310.0</ele><time>2026-04-08T16:15:49.999Z</time></trkpt><trkpt lat="44.5154832273223" lon="7.917418621860209"><ele>310.0</ele><time>2026-04-08T16:15:51.999Z</time></trkpt><trkpt lat="44.51545970471293" lon="7.917507174071493"><ele>310.0</ele><time>2026-04-08T16:15:52.999Z</time></trkpt><trkpt lat="44.515426870986666" lon="7.917585212628738"><ele>310.0</ele><time>2026-04-08T16:15:53.999Z</time></trkpt><trkpt lat="44.515360625080625" lon="7.917596021797903"><ele>310.0</ele><time>2026-04-08T16:15:54.999Z</time></trkpt><trkpt lat="44.515288241158345" lon="7.917673042356903"><ele>310.0</ele><time>2026-04-08T16:15:55.999Z</time></trkpt><trkpt lat="44.51521370489813" lon="7.917738721082996"><ele>310.0</ele><time>2026-04-08T16:15:56.999Z</time></trkpt><trkpt lat="44.515142276088774" lon="7.917805667832844"><ele>311.4</ele><time>2026-04-08T16:15:57.999Z</time></trkpt><trkpt lat="44.51505818342449" lon="7.917861956166371"><ele>312.8</ele><time>2026-04-08T16:15:58.999Z</time></trkpt><trkpt lat="44.514979364783684" lon="7.917958099549854"><ele>314.2</ele><time>2026-04-08T16:15:59.999Z</time></trkpt><trkpt lat="44.51489687427193" lon="7.918081015573326"><ele>315.6</ele><time>2026-04-08T16:16:00.999Z</time></trkpt><trkpt lat="44.514845682574055" lon="7.918235187987966"><ele>317.0</ele><time>2026-04-08T16:16:01.999Z</time></trkpt><trkpt lat="44.51479758633143" lon="7.918384372965241"><ele>319.0</ele><time>2026-04-08T16:16:02.999Z</time></trkpt><trkpt lat="44.514756792953115" lon="7.9185469793273064"><ele>321.0</ele><time>2026-04-08T16:16:03.999Z</time></trkpt><trkpt lat="44.514718164663314" lon="7.918713809116297"><ele>323.0</ele><time>2026-04-08T16:16:04.999Z</time></trkpt><trkpt lat="44.51466078554325" lon="7.918898629259974"><ele>325.0</ele><time>2026-04-08T16:16:05.999Z</time></trkpt><trkpt lat="44.51461174450618" lon="7.919076250472501"><ele>324.5</ele><time>2026-04-08T16:16:06.999Z</time></trkpt><trkpt lat="44.51455304246318" lon="7.919231159168669"><ele>324.0</ele><time>2026-04-08T16:16:07.999Z</time></trkpt><trkpt lat="44.51448508441261" lon="7.919346712188095"><ele>323.5</ele><time>2026-04-08T16:16:08.999Z</time></trkpt><trkpt lat="44.514390388163704" lon="7.919465868524695"><ele>323.0</ele><time>2026-04-08T16:16:09.999Z</time></trkpt><trkpt lat="44.51427814756863" lon="7.919587544626281"><ele>324.5</ele><time>2026-04-08T16:16:10.999Z</time></trkpt><trkpt lat="44.51417014455799" lon="7.919695144981645"><ele>326.0</ele><time>2026-04-08T16:16:11.999Z</time></trkpt><trkpt lat="44.514080901759975" lon="7.919820838626816"><ele>327.5</ele><time>2026-04-08T16:16:13Z</time></trkpt><trkpt lat="44.51398019940757" lon="7.9199508054569625"><ele>329.0</ele><time>2026-04-08T16:16:14Z</time></trkpt><trkpt lat="44.51389700516032" lon="7.92010690071685"><ele>330.0</ele><time>2026-04-08T16:16:15Z</time></trkpt><trkpt lat="44.51381529663707" lon="7.920283234376755"><ele>331.0</ele><time>2026-04-08T16:16:16Z</time></trkpt><trkpt lat="44.51373600379342" lon="7.9204635188573045"><ele>332.0</ele><time>2026-04-08T16:16:17Z</time></trkpt><trkpt lat="44.51367041761206" lon="7.920663160995487"><ele>332.33333333333337</ele><time>2026-04-08T16:16:18Z</time></trkpt><trkpt lat="44.51362872885321" lon="7.920863349453628"><ele>332.6666666666667</ele><time>2026-04-08T16:16:19Z</time></trkpt><trkpt lat="44.51357500201126" lon="7.9210758960263865"><ele>333.0</ele><time>2026-04-08T16:16:20Z</time></trkpt><trkpt lat="44.513527306106994" lon="7.921311540839906"><ele>333.0</ele><time>2026-04-08T16:16:21Z</time></trkpt><trkpt lat="44.51349048501837" lon="7.921529510782922"><ele>333.0</ele><time>2026-04-08T16:16:22Z</time></trkpt><trkpt lat="44.513442629111495" lon="7.921759926144071"><ele>333.0</ele><time>2026-04-08T16:16:23Z</time></trkpt><trkpt lat="44.51341679315246" lon="7.921972890121347"><ele>332.6666666666667</ele><time>2026-04-08T16:16:24Z</time></trkpt><trkpt lat="44.51337346222345" lon="7.922198408942084"><ele>332.33333333333337</ele><time>2026-04-08T16:16:25Z</time></trkpt><trkpt lat="44.51332760790136" lon="7.922438186697419"><ele>332.0</ele><time>2026-04-08T16:16:26Z</time></trkpt><trkpt lat="44.51328506514962" lon="7.922664983066438"><ele>332.6666666666667</ele><time>2026-04-08T16:16:27Z</time></trkpt><trkpt lat="44.5132398327867" lon="7.922906117710547"><ele>333.3333333333333</ele><time>2026-04-08T16:16:28Z</time></trkpt><trkpt lat="44.51319243539119" lon="7.923158794422964"><ele>334.0</ele><time>2026-04-08T16:16:29Z</time></trkpt><trkpt lat="44.51314576085043" lon="7.923406446411643"><ele>334.0</ele><time>2026-04-08T16:16:30Z</time></trkpt><trkpt lat="44.51309676571771" lon="7.923664388551965"><ele>334.0</ele><time>2026-04-08T16:16:31Z</time></trkpt><trkpt lat="44.5130469195635" lon="7.9239268097859235"><ele>334.0</ele><time>2026-04-08T16:16:32Z</time></trkpt><trkpt lat="44.512997369041564" lon="7.924184334028926"><ele>333.66666666666663</ele><time>2026-04-08T16:16:33Z</time></trkpt><trkpt lat="44.512949224294886" lon="7.924435270257635"><ele>333.3333333333333</ele><time>2026-04-08T16:16:34Z</time></trkpt><trkpt lat="44.51290140205354" lon="7.924684525530111"><ele>333.0</ele><time>2026-04-08T16:16:35Z</time></trkpt><trkpt lat="44.512858330693135" lon="7.924932085961618"><ele>334.3333333333333</ele><time>2026-04-08T16:16:36Z</time></trkpt><trkpt lat="44.512821951036344" lon="7.925168005782177"><ele>335.66666666666663</ele><time>2026-04-08T16:16:37Z</time></trkpt><trkpt lat="44.51279305851292" lon="7.9254109171916545"><ele>337.0</ele><time>2026-04-08T16:16:38Z</time></trkpt><trkpt lat="44.51277747474933" lon="7.925663778367186"><ele>337.0</ele><time>2026-04-08T16:16:39Z</time></trkpt><trkpt lat="44.51277940537204" lon="7.925929372469626"><ele>337.0</ele><time>2026-04-08T16:16:40Z</time></trkpt><trkpt lat="44.51281124600342" lon="7.926195039521003"><ele>337.0</ele><time>2026-04-08T16:16:41Z</time></trkpt><trkpt lat="44.51283579265639" lon="7.926445137578313"><ele>337.0</ele><time>2026-04-08T16:16:42Z</time></trkpt><trkpt lat="44.512851991406194" lon="7.9266961795176"><ele>337.0</ele><time>2026-04-08T16:16:43Z</time></trkpt><trkpt lat="44.51289015368051" lon="7.926958622574322"><ele>337.0</ele><time>2026-04-08T16:16:44Z</time></trkpt><trkpt lat="44.512929180970936" lon="7.927222039107598"><ele>336.66666666666663</ele><time>2026-04-08T16:16:45Z</time></trkpt><trkpt lat="44.512970560221" lon="7.927491386184405"><ele>336.3333333333333</ele><time>2026-04-08T16:16:46Z</time></trkpt><trkpt lat="44.51302834837486" lon="7.927756953332605"><ele>336.0</ele><time>2026-04-08T16:16:47Z</time></trkpt><trkpt lat="44.513071483008005" lon="7.9280445455505015"><ele>336.0</ele><time>2026-04-08T16:16:48Z</time></trkpt><trkpt lat="44.51311292172368" lon="7.928333699538431"><ele>336.0</ele><time>2026-04-08T16:16:49Z</time></trkpt><trkpt lat="44.5131384184237" lon="7.928622442357598"><ele>336.0</ele><time>2026-04-08T16:16:50Z</time></trkpt><trkpt lat="44.51319065080478" lon="7.928870862431787"><ele>335.6666666666667</ele><time>2026-04-08T16:16:51Z</time></trkpt><trkpt lat="44.51321195063127" lon="7.929120542598534"><ele>335.33333333333337</ele><time>2026-04-08T16:16:52Z</time></trkpt><trkpt lat="44.51326428839977" lon="7.929366553728068"><ele>335.0</ele><time>2026-04-08T16:16:53Z</time></trkpt><trkpt lat="44.51329932508665" lon="7.9296324597585635"><ele>335.0</ele><time>2026-04-08T16:16:54Z</time></trkpt><trkpt lat="44.51333654717161" lon="7.929893507798845"><ele>335.0</ele><time>2026-04-08T16:16:55Z</time></trkpt><trkpt lat="44.51337723952274" lon="7.930155094439663"><ele>335.0</ele><time>2026-04-08T16:16:56Z</time></trkpt><trkpt lat="44.513410451965754" lon="7.93039092426468"><ele>334.33333333333337</ele><time>2026-04-08T16:16:57Z</time></trkpt><trkpt lat="44.51344477733008" lon="7.930626400953822"><ele>333.6666666666667</ele><time>2026-04-08T16:16:58Z</time></trkpt><trkpt lat="44.5134766897345" lon="7.930867498772999"><ele>333.0</ele><time>2026-04-08T16:16:59Z</time></trkpt><trkpt lat="44.51350562422199" lon="7.9311185500194545"><ele>332.6666666666667</ele><time>2026-04-08T16:17:00Z</time></trkpt><trkpt lat="44.5135213840151" lon="7.931372735295066"><ele>332.33333333333337</ele><time>2026-04-08T16:17:01Z</time></trkpt><trkpt lat="44.513519930616404" lon="7.931623460541236"><ele>332.0</ele><time>2026-04-08T16:17:02Z</time></trkpt><trkpt lat="44.513512162174216" lon="7.931888344981574"><ele>332.0</ele><time>2026-04-08T16:17:03Z</time></trkpt><trkpt lat="44.51348959411079" lon="7.932137679765341"><ele>332.0</ele><time>2026-04-08T16:17:03.999Z</time></trkpt><trkpt lat="44.51348053017017" lon="7.932385599749276"><ele>332.0</ele><time>2026-04-08T16:17:04.999Z</time></trkpt><trkpt lat="44.51348104633709" lon="7.932631889809006"><ele>333.6666666666667</ele><time>2026-04-08T16:17:05.999Z</time></trkpt><trkpt lat="44.51351302624566" lon="7.932876274515161"><ele>335.3333333333333</ele><time>2026-04-08T16:17:06.999Z</time></trkpt><trkpt lat="44.51356652443668" lon="7.933092100318759"><ele>337.0</ele><time>2026-04-08T16:17:07.999Z</time></trkpt><trkpt lat="44.513625402815244" lon="7.933299266831578"><ele>337.75</ele><time>2026-04-08T16:17:08.999Z</time></trkpt><trkpt lat="44.51370756903252" lon="7.933460895288967"><ele>338.5</ele><time>2026-04-08T16:17:09.999Z</time></trkpt><trkpt lat="44.51378983960256" lon="7.933638585140851"><ele>339.25</ele><time>2026-04-08T16:17:10.999Z</time></trkpt><trkpt lat="44.51388302278589" lon="7.933809128471096"><ele>340.0</ele><time>2026-04-08T16:17:11.999Z</time></trkpt><trkpt lat="44.51395973848887" lon="7.934001900053713"><ele>340.0</ele><time>2026-04-08T16:17:12.999Z</time></trkpt><trkpt lat="44.514045811878105" lon="7.934186900388986"><ele>340.0</ele><time>2026-04-08T16:17:13.999Z</time></trkpt><trkpt lat="44.51412823903672" lon="7.934381654257918"><ele>340.0</ele><time>2026-04-08T16:17:14.999Z</time></trkpt><trkpt lat="44.51420855603942" lon="7.934580679869288"><ele>340.0</ele><time>2026-04-08T16:17:15.999Z</time></trkpt><trkpt lat="44.51428766773176" lon="7.934792491351616"><ele>340.0</ele><time>2026-04-08T16:17:16.999Z</time></trkpt><trkpt lat="44.5143594081473" lon="7.935000344441201"><ele>340.0</ele><time>2026-04-08T16:17:17.999Z</time></trkpt><trkpt lat="44.514422374689964" lon="7.935219930517082"><ele>340.0</ele><time>2026-04-08T16:17:18.999Z</time></trkpt><trkpt lat="44.51447746117351" lon="7.935459467293977"><ele>340.0</ele><time>2026-04-08T16:17:19.999Z</time></trkpt><trkpt lat="44.51452410455263" lon="7.935691922913985"><ele>340.0</ele><time>2026-04-08T16:17:20.999Z</time></trkpt><trkpt lat="44.514570039030595" lon="7.935934492580806"><ele>343.66666666666663</ele><time>2026-04-08T16:17:21.999Z</time></trkpt><trkpt lat="44.51459779396722" lon="7.9361731171138485"><ele>347.3333333333333</ele><time>2026-04-08T16:17:22.999Z</time></trkpt><trkpt lat="44.514625980014664" lon="7.936432426246285"><ele>351.0</ele><time>2026-04-08T16:17:23.999Z</time></trkpt><trkpt lat="44.51465525168356" lon="7.936676159529792"><ele>350.0</ele><time>2026-04-08T16:17:24.999Z</time></trkpt><trkpt lat="44.51468560208781" lon="7.936922619077667"><ele>349.0</ele><time>2026-04-08T16:17:25.999Z</time></trkpt><trkpt lat="44.51471705012225" lon="7.937177437593915"><ele>348.0</ele><time>2026-04-08T16:17:26.999Z</time></trkpt><trkpt lat="44.51474669893536" lon="7.937433906844544"><ele>347.6666666666667</ele><time>2026-04-08T16:17:27.999Z</time></trkpt><trkpt lat="44.514774828150095" lon="7.937686298807866"><ele>347.33333333333337</ele><time>2026-04-08T16:17:28.999Z</time></trkpt><trkpt lat="44.51480076905293" lon="7.937914910991142"><ele>347.0</ele><time>2026-04-08T16:17:29.999Z</time></trkpt><trkpt lat="44.514840452653544" lon="7.938156167923635"><ele>347.33333333333337</ele><time>2026-04-08T16:17:30.999Z</time></trkpt><trkpt lat="44.51490072339826" lon="7.938401081019796"><ele>347.6666666666667</ele><time>2026-04-08T16:17:31.999Z</time></trkpt><trkpt lat="44.514983597017334" lon="7.938618164226453"><ele>348.0</ele><time>2026-04-08T16:17:32.999Z</time></trkpt><trkpt lat="44.51506874363857" lon="7.938847716012846"><ele>348.0</ele><time>2026-04-08T16:17:33.999Z</time></trkpt><trkpt lat="44.51514900893318" lon="7.939074163872864"><ele>348.0</ele><time>2026-04-08T16:17:34.999Z</time></trkpt><trkpt lat="44.51524041058251" lon="7.939288836657835"><ele>348.0</ele><time>2026-04-08T16:17:35.999Z</time></trkpt><trkpt lat="44.51532937823376" lon="7.939507813587554"><ele>350.0</ele><time>2026-04-08T16:17:36.999Z</time></trkpt><trkpt lat="44.51542252392792" lon="7.939743850643612"><ele>352.0</ele><time>2026-04-08T16:17:37.999Z</time></trkpt><trkpt lat="44.515524798012194" lon="7.939950089334868"><ele>354.0</ele><time>2026-04-08T16:17:38.999Z</time></trkpt><trkpt lat="44.51563232214686" lon="7.940160645332146"><ele>354.0</ele><time>2026-04-08T16:17:39.999Z</time></trkpt><trkpt lat="44.515752996366636" lon="7.940356602411889"><ele>354.0</ele><time>2026-04-08T16:17:40.999Z</time></trkpt><trkpt lat="44.515885536246174" lon="7.9405488143018355"><ele>354.0</ele><time>2026-04-08T16:17:41.999Z</time></trkpt><trkpt lat="44.51601709242902" lon="7.940724771307249"><ele>354.6666666666667</ele><time>2026-04-08T16:17:42.999Z</time></trkpt><trkpt lat="44.51616160459687" lon="7.940890301945141"><ele>355.33333333333337</ele><time>2026-04-08T16:17:43.999Z</time></trkpt><trkpt lat="44.51630904055395" lon="7.941035926964021"><ele>356.0</ele><time>2026-04-08T16:17:44.999Z</time></trkpt><trkpt lat="44.51644497088527" lon="7.94121212661184"><ele>357.6666666666667</ele><time>2026-04-08T16:17:45.999Z</time></trkpt><trkpt lat="44.51658585027665" lon="7.941379378903028"><ele>359.3333333333333</ele><time>2026-04-08T16:17:46.999Z</time></trkpt><trkpt lat="44.516727000343884" lon="7.941545717490416"><ele>361.0</ele><time>2026-04-08T16:17:47.999Z</time></trkpt><trkpt lat="44.516865255382484" lon="7.941705899178422"><ele>363.0</ele><time>2026-04-08T16:17:48.999Z</time></trkpt><trkpt lat="44.51700755144291" lon="7.941857260797276"><ele>365.0</ele><time>2026-04-08T16:17:49.999Z</time></trkpt><trkpt lat="44.51715192755689" lon="7.942014395898879"><ele>367.0</ele><time>2026-04-08T16:17:50.999Z</time></trkpt><trkpt lat="44.517302668909295" lon="7.942181129005471"><ele>367.0</ele><time>2026-04-08T16:17:51.999Z</time></trkpt><trkpt lat="44.51745098100278" lon="7.942332081691066"><ele>367.0</ele><time>2026-04-08T16:17:52.999Z</time></trkpt><trkpt lat="44.51759459361247" lon="7.9425029756259695"><ele>367.0</ele><time>2026-04-08T16:17:53.999Z</time></trkpt><trkpt lat="44.51774536859756" lon="7.942661191359723"><ele>367.66666666666663</ele><time>2026-04-08T16:17:54.999Z</time></trkpt><trkpt lat="44.51788925035868" lon="7.9428226750337165"><ele>368.3333333333333</ele><time>2026-04-08T16:17:55.999Z</time></trkpt><trkpt lat="44.51803223675939" lon="7.942992285172667"><ele>369.0</ele><time>2026-04-08T16:17:56.999Z</time></trkpt><trkpt lat="44.518169906574926" lon="7.943166786003682"><ele>370.3333333333333</ele><time>2026-04-08T16:17:57.999Z</time></trkpt><trkpt lat="44.51831583170872" lon="7.9433248517736805"><ele>371.66666666666663</ele><time>2026-04-08T16:17:58.999Z</time></trkpt><trkpt lat="44.51846504059048" lon="7.943493903811339"><ele>373.0</ele><time>2026-04-08T16:17:59.999Z</time></trkpt><trkpt lat="44.518614694414495" lon="7.9436603349755694"><ele>375.3333333333333</ele><time>2026-04-08T16:18:00.999Z</time></trkpt><trkpt lat="44.51875728212455" lon="7.943795693762083"><ele>377.6666666666667</ele><time>2026-04-08T16:18:01.999Z</time></trkpt><trkpt lat="44.518908923280684" lon="7.943922357175418"><ele>380.0</ele><time>2026-04-08T16:18:02.999Z</time></trkpt><trkpt lat="44.51907106733192" lon="7.944023838158296"><ele>380.0</ele><time>2026-04-08T16:18:03.999Z</time></trkpt><trkpt lat="44.51923409376465" lon="7.944120192056102"><ele>380.0</ele><time>2026-04-08T16:18:04.999Z</time></trkpt><trkpt lat="44.519396569660614" lon="7.944221620889524"><ele>380.0</ele><time>2026-04-08T16:18:05.999Z</time></trkpt><trkpt lat="44.51955972241656" lon="7.9443190589377535"><ele>381.0</ele><time>2026-04-08T16:18:06.999Z</time></trkpt><trkpt lat="44.51971452648019" lon="7.9444136038154625"><ele>382.0</ele><time>2026-04-08T16:18:07.999Z</time></trkpt><trkpt lat="44.5198566657814" lon="7.9444807756588185"><ele>383.0</ele><time>2026-04-08T16:18:08.999Z</time></trkpt><trkpt lat="44.51998408277316" lon="7.944553228532179"><ele>383.0</ele><time>2026-04-08T16:18:09.999Z</time></trkpt><trkpt lat="44.520098001605405" lon="7.94461529847805"><ele>383.0</ele><time>2026-04-08T16:18:10.999Z</time></trkpt><trkpt lat="44.52021002464343" lon="7.944657337232765"><ele>383.0</ele><time>2026-04-08T16:18:11.999Z</time></trkpt><trkpt lat="44.52033538745597" lon="7.944663091058478"><ele>383.0</ele><time>2026-04-08T16:18:12.999Z</time></trkpt><trkpt lat="44.52046883910439" lon="7.944628282180669"><ele>386.25</ele><time>2026-04-08T16:18:13.999Z</time></trkpt><trkpt lat="44.5206083090443" lon="7.94456313421391"><ele>389.5</ele><time>2026-04-08T16:18:14.999Z</time></trkpt><trkpt lat="44.52074896579819" lon="7.9445084021608965"><ele>392.75</ele><time>2026-04-08T16:18:15.999Z</time></trkpt><trkpt lat="44.52088482125378" lon="7.94445779925745"><ele>396.0</ele><time>2026-04-08T16:18:16.999Z</time></trkpt><trkpt lat="44.5209804384075" lon="7.944384268082358"><ele>396.0</ele><time>2026-04-08T16:18:17.999Z</time></trkpt><trkpt lat="44.52109814065458" lon="7.944332066700209"><ele>396.0</ele><time>2026-04-08T16:18:19Z</time></trkpt><trkpt lat="44.52120297143723" lon="7.944273495954419"><ele>396.0</ele><time>2026-04-08T16:18:20Z</time></trkpt><trkpt lat="44.52129281682805" lon="7.944221419233507"><ele>396.0</ele><time>2026-04-08T16:18:21Z</time></trkpt><trkpt lat="44.5213690927491" lon="7.944186148406985"><ele>396.0</ele><time>2026-04-08T16:18:22Z</time></trkpt><trkpt lat="44.52144574573983" lon="7.944156008587648"><ele>395.6</ele><time>2026-04-08T16:18:23Z</time></trkpt><trkpt lat="44.52151312017967" lon="7.944173944434591"><ele>395.20000000000005</ele><time>2026-04-08T16:18:24Z</time></trkpt><trkpt lat="44.52157530635952" lon="7.944201212363093"><ele>394.79999999999995</ele><time>2026-04-08T16:18:25Z</time></trkpt><trkpt lat="44.52163652786138" lon="7.944171553396482"><ele>394.4</ele><time>2026-04-08T16:18:26Z</time></trkpt><trkpt lat="44.52176236712851" lon="7.944169180763637"><ele>394.0</ele><time>2026-04-08T16:18:27Z</time></trkpt><trkpt lat="44.5217581643568" lon="7.944400304610256"><ele>394.0</ele><time>2026-04-08T16:18:28Z</time></trkpt><trkpt lat="44.52180669464009" lon="7.944512610702932"><ele>394.0</ele><time>2026-04-08T16:18:29Z</time></trkpt><trkpt lat="44.521852028320666" lon="7.944624936018696"><ele>394.0</ele><time>2026-04-08T16:18:30Z</time></trkpt><trkpt lat="44.52190848947531" lon="7.944744515662656"><ele>394.0</ele><time>2026-04-08T16:18:31Z</time></trkpt><trkpt lat="44.52196066176949" lon="7.944873339244478"><ele>394.0</ele><time>2026-04-08T16:18:32Z</time></trkpt><trkpt lat="44.522013064430745" lon="7.94501749033317"><ele>394.0</ele><time>2026-04-08T16:18:33Z</time></trkpt><trkpt lat="44.522063531718054" lon="7.945136106445268"><ele>394.0</ele><time>2026-04-08T16:18:34Z</time></trkpt><trkpt lat="44.52212024286942" lon="7.945253611016803"><ele>394.0</ele><time>2026-04-08T16:18:35Z</time></trkpt><trkpt lat="44.522167416889324" lon="7.945396276336317"><ele>394.0</ele><time>2026-04-08T16:18:36Z</time></trkpt><trkpt lat="44.52221348865206" lon="7.945528248693126"><ele>394.0</ele><time>2026-04-08T16:18:37Z</time></trkpt><trkpt lat="44.52227556861105" lon="7.945706197443225"><ele>396.5</ele><time>2026-04-08T16:18:38Z</time></trkpt><trkpt lat="44.522335806299346" lon="7.945878865395971"><ele>399.0</ele><time>2026-04-08T16:18:39Z</time></trkpt><trkpt lat="44.52240299021604" lon="7.946062649007341"><ele>401.5</ele><time>2026-04-08T16:18:40Z</time></trkpt><trkpt lat="44.52245681340024" lon="7.946198168652751"><ele>404.0</ele><time>2026-04-08T16:18:41Z</time></trkpt><trkpt lat="44.52251498944683" lon="7.946344043749356"><ele>404.0</ele><time>2026-04-08T16:18:42Z</time></trkpt><trkpt lat="44.52256158754444" lon="7.94647055794687"><ele>404.0</ele><time>2026-04-08T16:18:43Z</time></trkpt><trkpt lat="44.52259169210869" lon="7.946574713803409"><ele>404.0</ele><time>2026-04-08T16:18:44Z</time></trkpt><trkpt lat="44.52261136939755" lon="7.946692919328412"><ele>404.0</ele><time>2026-04-08T16:18:45Z</time></trkpt><trkpt lat="44.52262027181903" lon="7.946817496400075"><ele>404.0</ele><time>2026-04-08T16:18:46Z</time></trkpt><trkpt lat="44.52255026276218" lon="7.946953456463404"><ele>402.5</ele><time>2026-04-08T16:18:47Z</time></trkpt><trkpt lat="44.52248178488457" lon="7.947068819874705"><ele>401.0</ele><time>2026-04-08T16:18:48Z</time></trkpt><trkpt lat="44.52237226480912" lon="7.947170284797352"><ele>399.5</ele><time>2026-04-08T16:18:49Z</time></trkpt><trkpt lat="44.52228941178183" lon="7.947294252665067"><ele>398.0</ele><time>2026-04-08T16:18:50Z</time></trkpt><trkpt lat="44.522200134185155" lon="7.947422700944084"><ele>396.5</ele><time>2026-04-08T16:18:51Z</time></trkpt><trkpt lat="44.52210022721783" lon="7.947554430686264"><ele>395.0</ele><time>2026-04-08T16:18:52Z</time></trkpt><trkpt lat="44.52200805682224" lon="7.9476738414289665"><ele>393.5</ele><time>2026-04-08T16:18:53Z</time></trkpt><trkpt lat="44.521910367053536" lon="7.947811020323056"><ele>392.0</ele><time>2026-04-08T16:18:54Z</time></trkpt><trkpt lat="44.52181620942357" lon="7.947946984664549"><ele>396.25</ele><time>2026-04-08T16:18:55Z</time></trkpt><trkpt lat="44.52172579593053" lon="7.948093501422479"><ele>400.5</ele><time>2026-04-08T16:18:56Z</time></trkpt><trkpt lat="44.52163604647951" lon="7.948231738119265"><ele>404.75</ele><time>2026-04-08T16:18:57Z</time></trkpt><trkpt lat="44.521571087187795" lon="7.948355728554025"><ele>409.0</ele><time>2026-04-08T16:18:58Z</time></trkpt><trkpt lat="44.52150190482964" lon="7.948530400341558"><ele>409.75</ele><time>2026-04-08T16:18:59Z</time></trkpt><trkpt lat="44.521466027911686" lon="7.948711908300392"><ele>410.5</ele><time>2026-04-08T16:19:00Z</time></trkpt><trkpt lat="44.52146885106419" lon="7.948907937939468"><ele>411.25</ele><time>2026-04-08T16:19:01Z</time></trkpt><trkpt lat="44.52145170009896" lon="7.949112194899464"><ele>412.0</ele><time>2026-04-08T16:19:02Z</time></trkpt><trkpt lat="44.52143423757576" lon="7.949324376905822"><ele>412.5</ele><time>2026-04-08T16:19:03Z</time></trkpt><trkpt lat="44.521418735940856" lon="7.949527244461965"><ele>413.0</ele><time>2026-04-08T16:19:04Z</time></trkpt><trkpt lat="44.52139276532926" lon="7.949734138182712"><ele>413.5</ele><time>2026-04-08T16:19:05Z</time></trkpt><trkpt lat="44.521357298469404" lon="7.949942667958768"><ele>414.0</ele><time>2026-04-08T16:19:06Z</time></trkpt><trkpt lat="44.52132345771913" lon="7.95014696219472"><ele>415.0</ele><time>2026-04-08T16:19:07Z</time></trkpt><trkpt lat="44.52128570825155" lon="7.950344225535451"><ele>416.0</ele><time>2026-04-08T16:19:08Z</time></trkpt><trkpt lat="44.52129479386041" lon="7.9505031512214694"><ele>417.0</ele><time>2026-04-08T16:19:09Z</time></trkpt><trkpt lat="44.52131253292453" lon="7.95067057484667"><ele>418.0</ele><time>2026-04-08T16:19:09.999Z</time></trkpt><trkpt lat="44.52132942700467" lon="7.950814524515455"><ele>418.33333333333337</ele><time>2026-04-08T16:19:10.999Z</time></trkpt><trkpt lat="44.52133910980972" lon="7.950904267722564"><ele>418.6666666666667</ele><time>2026-04-08T16:19:11.999Z</time></trkpt><trkpt lat="44.521328046455935" lon="7.951020505209347"><ele>419.0</ele><time>2026-04-08T16:19:12.999Z</time></trkpt><trkpt lat="44.52129545422052" lon="7.951134818684039"><ele>419.33333333333337</ele><time>2026-04-08T16:19:13.999Z</time></trkpt><trkpt lat="44.521236204817" lon="7.9512446168837885"><ele>419.6666666666667</ele><time>2026-04-08T16:19:14.999Z</time></trkpt><trkpt lat="44.521158709282965" lon="7.9513008429316105"><ele>420.0</ele><time>2026-04-08T16:19:15.999Z</time></trkpt><trkpt lat="44.52106732243929" lon="7.951359523310923"><ele>424.0</ele><time>2026-04-08T16:19:16.999Z</time></trkpt><trkpt lat="44.52097379473445" lon="7.951445396017865"><ele>428.0</ele><time>2026-04-08T16:19:17.999Z</time></trkpt><trkpt lat="44.52086827902197" lon="7.951501025165318"><ele>432.0</ele><time>2026-04-08T16:19:18.999Z</time></trkpt><trkpt lat="44.52076509610673" lon="7.951605109818029"><ele>436.0</ele><time>2026-04-08T16:19:19.999Z</time></trkpt><trkpt lat="44.52064663022056" lon="7.951682940407587"><ele>437.75</ele><time>2026-04-08T16:19:20.999Z</time></trkpt><trkpt lat="44.520520142986236" lon="7.951774423307258"><ele>439.5</ele><time>2026-04-08T16:19:21.999Z</time></trkpt><trkpt lat="44.52039220616164" lon="7.951867367819701"><ele>441.25</ele><time>2026-04-08T16:19:22.999Z</time></trkpt><trkpt lat="44.520259388011226" lon="7.951972365462543"><ele>443.0</ele><time>2026-04-08T16:19:23.999Z</time></trkpt><trkpt lat="44.52012758634017" lon="7.952076559505352"><ele>443.0</ele><time>2026-04-08T16:19:24.999Z</time></trkpt><trkpt lat="44.52001990671373" lon="7.952178480366363"><ele>443.0</ele><time>2026-04-08T16:19:25.999Z</time></trkpt><trkpt lat="44.51992356031529" lon="7.9523179581959695"><ele>443.0</ele><time>2026-04-08T16:19:26.999Z</time></trkpt><trkpt lat="44.51982334963538" lon="7.952450266432743"><ele>443.0</ele><time>2026-04-08T16:19:27.999Z</time></trkpt><trkpt lat="44.519730628179616" lon="7.952588815757864"><ele>441.5</ele><time>2026-04-08T16:19:28.999Z</time></trkpt><trkpt lat="44.5196648963628" lon="7.952726574390348"><ele>440.0</ele><time>2026-04-08T16:19:29.999Z</time></trkpt><trkpt lat="44.519579506603186" lon="7.952895704873001"><ele>438.5</ele><time>2026-04-08T16:19:30.999Z</time></trkpt><trkpt lat="44.51948607996632" lon="7.953057579265862"><ele>437.0</ele><time>2026-04-08T16:19:31.999Z</time></trkpt><trkpt lat="44.51939040480749" lon="7.953221555465832"><ele>440.75</ele><time>2026-04-08T16:19:32.999Z</time></trkpt><trkpt lat="44.519303902716" lon="7.953352036338507"><ele>444.5</ele><time>2026-04-08T16:19:33.999Z</time></trkpt><trkpt lat="44.51922004670918" lon="7.9534965458389655"><ele>448.25</ele><time>2026-04-08T16:19:34.999Z</time></trkpt><trkpt lat="44.51915314769781" lon="7.953673272556876"><ele>452.0</ele><time>2026-04-08T16:19:35.999Z</time></trkpt><trkpt lat="44.519095670339475" lon="7.953849118485717"><ele>452.0</ele><time>2026-04-08T16:19:36.999Z</time></trkpt><trkpt lat="44.51905932022527" lon="7.954033116459248"><ele>452.0</ele><time>2026-04-08T16:19:37.999Z</time></trkpt><trkpt lat="44.51902701422928" lon="7.954235810301149"><ele>452.0</ele><time>2026-04-08T16:19:38.999Z</time></trkpt><trkpt lat="44.51899023874325" lon="7.954422832416773"><ele>452.0</ele><time>2026-04-08T16:19:39.999Z</time></trkpt><trkpt lat="44.51895687899989" lon="7.954631778276644"><ele>452.0</ele><time>2026-04-08T16:19:40.999Z</time></trkpt><trkpt lat="44.51890939977877" lon="7.9548367873155"><ele>452.0</ele><time>2026-04-08T16:19:41.999Z</time></trkpt><trkpt lat="44.518867992648715" lon="7.955065240955538"><ele>452.0</ele><time>2026-04-08T16:19:42.999Z</time></trkpt><trkpt lat="44.51882606050074" lon="7.955295273625207"><ele>452.0</ele><time>2026-04-08T16:19:43.999Z</time></trkpt><trkpt lat="44.51878657086369" lon="7.955521091879282"><ele>452.0</ele><time>2026-04-08T16:19:44.999Z</time></trkpt><trkpt lat="44.518754728526176" lon="7.95572604322212"><ele>452.0</ele><time>2026-04-08T16:19:45.999Z</time></trkpt><trkpt lat="44.51872397968126" lon="7.955920047737435"><ele>456.25</ele><time>2026-04-08T16:19:46.999Z</time></trkpt><trkpt lat="44.5186897727697" lon="7.956124500939475"><ele>460.5</ele><time>2026-04-08T16:19:47.999Z</time></trkpt><trkpt lat="44.51866364638745" lon="7.956290185961302"><ele>464.75</ele><time>2026-04-08T16:19:48.999Z</time></trkpt><trkpt lat="44.51863389229552" lon="7.956432923242715"><ele>469.0</ele><time>2026-04-08T16:19:49.999Z</time></trkpt><trkpt lat="44.51856993713153" lon="7.956546276703804"><ele>469.0</ele><time>2026-04-08T16:19:50.999Z</time></trkpt><trkpt lat="44.51850796906827" lon="7.956609818138856"><ele>469.0</ele><time>2026-04-08T16:19:51.999Z</time></trkpt><trkpt lat="44.5184233995311" lon="7.956666675978642"><ele>469.0</ele><time>2026-04-08T16:19:52.999Z</time></trkpt><trkpt lat="44.51834006314941" lon="7.95674491627788"><ele>469.0</ele><time>2026-04-08T16:19:53.999Z</time></trkpt><trkpt lat="44.51822977407429" lon="7.9567559488970465"><ele>469.0</ele><time>2026-04-08T16:19:54.999Z</time></trkpt><trkpt lat="44.518176382005045" lon="7.956892516607114"><ele>470.6</ele><time>2026-04-08T16:19:55.999Z</time></trkpt><trkpt lat="44.51814228666279" lon="7.957036375405532"><ele>472.2</ele><time>2026-04-08T16:19:56.999Z</time></trkpt><trkpt lat="44.518118943225474" lon="7.957208407508912"><ele>473.80000000000007</ele><time>2026-04-08T16:19:57.999Z</time></trkpt><trkpt lat="44.51811211190045" lon="7.957351857476464"><ele>475.40000000000003</ele><time>2026-04-08T16:19:58.999Z</time></trkpt><trkpt lat="44.51808755430896" lon="7.957496859245606"><ele>477.0</ele><time>2026-04-08T16:19:59.999Z</time></trkpt><trkpt lat="44.518068004607045" lon="7.957637981564808"><ele>479.0</ele><time>2026-04-08T16:20:00.999Z</time></trkpt><trkpt lat="44.5180392918761" lon="7.957776437808482"><ele>481.0</ele><time>2026-04-08T16:20:01.999Z</time></trkpt><trkpt lat="44.5180138649371" lon="7.957947036274952"><ele>483.0</ele><time>2026-04-08T16:20:02.999Z</time></trkpt><trkpt lat="44.51796434197924" lon="7.958107093847786"><ele>485.0</ele><time>2026-04-08T16:20:03.999Z</time></trkpt><trkpt lat="44.51792050880933" lon="7.958286608974185"><ele>483.75</ele><time>2026-04-08T16:20:04.999Z</time></trkpt><trkpt lat="44.51787800863462" lon="7.9584683363818876"><ele>482.5</ele><time>2026-04-08T16:20:05.999Z</time></trkpt><trkpt lat="44.51783923810159" lon="7.958661909424352"><ele>481.25</ele><time>2026-04-08T16:20:06.999Z</time></trkpt><trkpt lat="44.517800824449324" lon="7.958860563607536"><ele>480.0</ele><time>2026-04-08T16:20:07.999Z</time></trkpt><trkpt lat="44.51777876695321" lon="7.95907499323512"><ele>483.33333333333337</ele><time>2026-04-08T16:20:08.999Z</time></trkpt><trkpt lat="44.51773452465405" lon="7.959279998080389"><ele>486.6666666666667</ele><time>2026-04-08T16:20:09.999Z</time></trkpt><trkpt lat="44.517666158829655" lon="7.959477942370881"><ele>490.0</ele><time>2026-04-08T16:20:10.999Z</time></trkpt><trkpt lat="44.51757569646241" lon="7.959664589032912"><ele>490.0</ele><time>2026-04-08T16:20:11.999Z</time></trkpt><trkpt lat="44.51751888082291" lon="7.959866630203375"><ele>490.0</ele><time>2026-04-08T16:20:12.999Z</time></trkpt><trkpt lat="44.51745637115548" lon="7.96005278983656"><ele>490.0</ele><time>2026-04-08T16:20:13.999Z</time></trkpt><trkpt lat="44.517401116995124" lon="7.96025936742721"><ele>492.75</ele><time>2026-04-08T16:20:14.999Z</time></trkpt><trkpt lat="44.51738348577727" lon="7.960459786734767"><ele>495.5</ele><time>2026-04-08T16:20:15.999Z</time></trkpt><trkpt lat="44.517349896039086" lon="7.960624241272354"><ele>498.25</ele><time>2026-04-08T16:20:16.999Z</time></trkpt><trkpt lat="44.517287710741684" lon="7.9607574532948675"><ele>501.0</ele><time>2026-04-08T16:20:17.999Z</time></trkpt><trkpt lat="44.51720959984852" lon="7.960884691287321"><ele>501.25</ele><time>2026-04-08T16:20:18.999Z</time></trkpt><trkpt lat="44.51712032956393" lon="7.960994253621607"><ele>501.5</ele><time>2026-04-08T16:20:19.999Z</time></trkpt><trkpt lat="44.5170109925938" lon="7.961097092878204"><ele>501.75</ele><time>2026-04-08T16:20:20.999Z</time></trkpt><trkpt lat="44.51690280416572" lon="7.961138491982698"><ele>502.0</ele><time>2026-04-08T16:20:21.999Z</time></trkpt><trkpt lat="44.51678355491297" lon="7.96118255685153"><ele>503.25</ele><time>2026-04-08T16:20:22.999Z</time></trkpt><trkpt lat="44.51666489381302" lon="7.961214897770857"><ele>504.5</ele><time>2026-04-08T16:20:23.999Z</time></trkpt><trkpt lat="44.516534761585675" lon="7.961260234626444"><ele>505.75</ele><time>2026-04-08T16:20:25Z</time></trkpt><trkpt lat="44.51640332047319" lon="7.9612539173678165"><ele>507.0</ele><time>2026-04-08T16:20:26Z</time></trkpt><trkpt lat="44.51628845324492" lon="7.961243742178317"><ele>508.40000000000003</ele><time>2026-04-08T16:20:27Z</time></trkpt><trkpt lat="44.51617192876295" lon="7.961237095929691"><ele>509.80000000000007</ele><time>2026-04-08T16:20:28Z</time></trkpt><trkpt lat="44.51607147358843" lon="7.961225097715425"><ele>511.2</ele><time>2026-04-08T16:20:29Z</time></trkpt><trkpt lat="44.51597097124841" lon="7.9612613094022455"><ele>512.6</ele><time>2026-04-08T16:20:30Z</time></trkpt><trkpt lat="44.51586325135149" lon="7.961342301987566"><ele>514.0</ele><time>2026-04-08T16:20:31Z</time></trkpt><trkpt lat="44.51577268111164" lon="7.961474788920814"><ele>514.0</ele><time>2026-04-08T16:20:32Z</time></trkpt><trkpt lat="44.51566361660469" lon="7.9615534092265134"><ele>514.0</ele><time>2026-04-08T16:20:33Z</time></trkpt><trkpt lat="44.51555381719321" lon="7.961611267535613"><ele>514.0</ele><time>2026-04-08T16:20:34Z</time></trkpt><trkpt lat="44.51543583508356" lon="7.961653392316655"><ele>514.0</ele><time>2026-04-08T16:20:35Z</time></trkpt><trkpt lat="44.51531927460284" lon="7.9616575478296445"><ele>515.4</ele><time>2026-04-08T16:20:36Z</time></trkpt><trkpt lat="44.51521333719686" lon="7.961637760233592"><ele>516.8</ele><time>2026-04-08T16:20:37Z</time></trkpt><trkpt lat="44.51511486216627" lon="7.961583438361306"><ele>518.2</ele><time>2026-04-08T16:20:38Z</time></trkpt><trkpt lat="44.515014827995934" lon="7.961528665914693"><ele>519.6</ele><time>2026-04-08T16:20:39Z</time></trkpt><trkpt lat="44.514943703990085" lon="7.96140402630046"><ele>521.0</ele><time>2026-04-08T16:20:40Z</time></trkpt><trkpt lat="44.514839942471816" lon="7.961274576225015"><ele>521.0</ele><time>2026-04-08T16:20:41Z</time></trkpt><trkpt lat="44.51472033056433" lon="7.961107038273398"><ele>521.0</ele><time>2026-04-08T16:20:42Z</time></trkpt><trkpt lat="44.51462086528785" lon="7.960960820531681"><ele>521.0</ele><time>2026-04-08T16:20:43Z</time></trkpt><trkpt lat="44.51451143152791" lon="7.960815677672074"><ele>523.25</ele><time>2026-04-08T16:20:44Z</time></trkpt><trkpt lat="44.51441398993269" lon="7.960641984800428"><ele>525.5</ele><time>2026-04-08T16:20:45Z</time></trkpt><trkpt lat="44.51432034989352" lon="7.960495652156664"><ele>527.75</ele><time>2026-04-08T16:20:46Z</time></trkpt><trkpt lat="44.51424668971226" lon="7.960353951969238"><ele>530.0</ele><time>2026-04-08T16:20:47Z</time></trkpt><trkpt lat="44.51415565059143" lon="7.96022388480549"><ele>530.0</ele><time>2026-04-08T16:20:48Z</time></trkpt><trkpt lat="44.51408232567978" lon="7.96011780749264"><ele>530.0</ele><time>2026-04-08T16:20:49Z</time></trkpt><trkpt lat="44.51399492667071" lon="7.960024926822763"><ele>530.0</ele><time>2026-04-08T16:20:50Z</time></trkpt><trkpt lat="44.51389231219361" lon="7.959982212174157"><ele>530.0</ele><time>2026-04-08T16:20:51Z</time></trkpt><trkpt lat="44.51376917557183" lon="7.959960588457122"><ele>530.0</ele><time>2026-04-08T16:20:52Z</time></trkpt><trkpt lat="44.513648127037285" lon="7.960015913132396"><ele>532.0</ele><time>2026-04-08T16:20:53Z</time></trkpt><trkpt lat="44.51351815578872" lon="7.96007113160503"><ele>534.0</ele><time>2026-04-08T16:20:54Z</time></trkpt><trkpt lat="44.51335734508178" lon="7.9601307125621545"><ele>536.0</ele><time>2026-04-08T16:20:55Z</time></trkpt><trkpt lat="44.51322398651519" lon="7.960181482217078"><ele>538.0</ele><time>2026-04-08T16:20:56Z</time></trkpt><trkpt lat="44.51307135119389" lon="7.960233556175288"><ele>538.0</ele><time>2026-04-08T16:20:57Z</time></trkpt><trkpt lat="44.51291070212781" lon="7.96029419834831"><ele>538.0</ele><time>2026-04-08T16:20:58Z</time></trkpt><trkpt lat="44.512744823443846" lon="7.960353259396418"><ele>538.0</ele><time>2026-04-08T16:20:59Z</time></trkpt><trkpt lat="44.51258238622393" lon="7.960415726732868"><ele>537.0</ele><time>2026-04-08T16:21:00Z</time></trkpt><trkpt lat="44.51241212343856" lon="7.960477871264511"><ele>536.0</ele><time>2026-04-08T16:21:01Z</time></trkpt><trkpt lat="44.512236919667245" lon="7.960547772165304"><ele>535.0</ele><time>2026-04-08T16:21:02Z</time></trkpt><trkpt lat="44.51205654285512" lon="7.960619388942473"><ele>534.6666666666667</ele><time>2026-04-08T16:21:03Z</time></trkpt><trkpt lat="44.51186725398791" lon="7.960681485551368"><ele>534.3333333333334</ele><time>2026-04-08T16:21:04Z</time></trkpt><trkpt lat="44.5116861340966" lon="7.960764254394803"><ele>534.0</ele><time>2026-04-08T16:21:05Z</time></trkpt><trkpt lat="44.511504908458036" lon="7.9608148688102105"><ele>532.3333333333334</ele><time>2026-04-08T16:21:06Z</time></trkpt><trkpt lat="44.511320735866185" lon="7.960868068102296"><ele>530.6666666666667</ele><time>2026-04-08T16:21:07Z</time></trkpt><trkpt lat="44.51113828997741" lon="7.9609396968175306"><ele>529.0</ele><time>2026-04-08T16:21:08Z</time></trkpt><trkpt lat="44.51094406854734" lon="7.960998211462483"><ele>529.0</ele><time>2026-04-08T16:21:09Z</time></trkpt><trkpt lat="44.51074221554067" lon="7.961059701346518"><ele>529.0</ele><time>2026-04-08T16:21:10Z</time></trkpt><trkpt lat="44.51054017816998" lon="7.961124763807111"><ele>529.0</ele><time>2026-04-08T16:21:11Z</time></trkpt><trkpt lat="44.5103333541866" lon="7.961175388892773"><ele>533.3333333333334</ele><time>2026-04-08T16:21:12Z</time></trkpt><trkpt lat="44.510113378346716" lon="7.961222743880099"><ele>537.6666666666666</ele><time>2026-04-08T16:21:13Z</time></trkpt><trkpt lat="44.509890702427775" lon="7.961237657221187"><ele>542.0</ele><time>2026-04-08T16:21:14Z</time></trkpt><trkpt lat="44.50967483666581" lon="7.961271462856722"><ele>541.6666666666666</ele><time>2026-04-08T16:21:15Z</time></trkpt><trkpt lat="44.509461691790776" lon="7.961303861942153"><ele>541.3333333333334</ele><time>2026-04-08T16:21:16Z</time></trkpt><trkpt lat="44.50924539234289" lon="7.961336723654237"><ele>541.0</ele><time>2026-04-08T16:21:17Z</time></trkpt><trkpt lat="44.50902451557604" lon="7.961370023801111"><ele>541.0</ele><time>2026-04-08T16:21:17.999Z</time></trkpt><trkpt lat="44.50882260685315" lon="7.961400464228684"><ele>541.0</ele><time>2026-04-08T16:21:18.999Z</time></trkpt><trkpt lat="44.50862201576099" lon="7.961454066849891"><ele>541.0</ele><time>2026-04-08T16:21:19.999Z</time></trkpt><trkpt lat="44.508431513358815" lon="7.961489075204101"><ele>540.0</ele><time>2026-04-08T16:21:20.999Z</time></trkpt><trkpt lat="44.508241535171734" lon="7.961511290567133"><ele>539.0</ele><time>2026-04-08T16:21:21.999Z</time></trkpt><trkpt lat="44.50804877783997" lon="7.961558884750735"><ele>538.0</ele><time>2026-04-08T16:21:22.999Z</time></trkpt><trkpt lat="44.50785436591044" lon="7.961607205814319"><ele>536.3333333333334</ele><time>2026-04-08T16:21:23.999Z</time></trkpt><trkpt lat="44.50766095536124" lon="7.961655588756337"><ele>534.6666666666666</ele><time>2026-04-08T16:21:24.999Z</time></trkpt><trkpt lat="44.507467452131216" lon="7.961703994925244"><ele>533.0</ele><time>2026-04-08T16:21:25.999Z</time></trkpt><trkpt lat="44.507268145025336" lon="7.9617770843484355"><ele>530.3333333333333</ele><time>2026-04-08T16:21:26.999Z</time></trkpt><trkpt lat="44.507054838755224" lon="7.9618183356997285"><ele>527.6666666666666</ele><time>2026-04-08T16:21:27.999Z</time></trkpt><trkpt lat="44.50684278129449" lon="7.961855834986222"><ele>525.0</ele><time>2026-04-08T16:21:28.999Z</time></trkpt><trkpt lat="44.50662967810586" lon="7.961909067264025"><ele>525.0</ele><time>2026-04-08T16:21:29.999Z</time></trkpt><trkpt lat="44.50641027998852" lon="7.961965996715026"><ele>525.0</ele><time>2026-04-08T16:21:30.999Z</time></trkpt><trkpt lat="44.50619178138908" lon="7.962019445069281"><ele>525.0</ele><time>2026-04-08T16:21:31.999Z</time></trkpt><trkpt lat="44.50597702889944" lon="7.962073172931616"><ele>527.6666666666666</ele><time>2026-04-08T16:21:32.999Z</time></trkpt><trkpt lat="44.50578653340627" lon="7.962118973243857"><ele>530.3333333333333</ele><time>2026-04-08T16:21:33.999Z</time></trkpt><trkpt lat="44.50561857249556" lon="7.962161085021202"><ele>533.0</ele><time>2026-04-08T16:21:34.999Z</time></trkpt><trkpt lat="44.50547124034408" lon="7.962207550155492"><ele>534.0</ele><time>2026-04-08T16:21:35.999Z</time></trkpt><trkpt lat="44.505321878804054" lon="7.962218006615184"><ele>535.0</ele><time>2026-04-08T16:21:36.999Z</time></trkpt><trkpt lat="44.505159304066446" lon="7.96221828334885"><ele>536.0</ele><time>2026-04-08T16:21:37.999Z</time></trkpt><trkpt lat="44.504987074126355" lon="7.9621887113426695"><ele>536.0</ele><time>2026-04-08T16:21:38.999Z</time></trkpt><trkpt lat="44.504821952051124" lon="7.96215792300552"><ele>536.0</ele><time>2026-04-08T16:21:39.999Z</time></trkpt><trkpt lat="44.50466324294909" lon="7.962129490330245"><ele>536.0</ele><time>2026-04-08T16:21:40.999Z</time></trkpt><trkpt lat="44.5044921195421" lon="7.962124840176702"><ele>535.3333333333333</ele><time>2026-04-08T16:21:41.999Z</time></trkpt><trkpt lat="44.50431883036726" lon="7.9621548679415195"><ele>534.6666666666666</ele><time>2026-04-08T16:21:42.999Z</time></trkpt><trkpt lat="44.504137042689635" lon="7.962191664012477"><ele>534.0</ele><time>2026-04-08T16:21:43.999Z</time></trkpt><trkpt lat="44.503948156069306" lon="7.96222843569828"><ele>534.0</ele><time>2026-04-08T16:21:44.999Z</time></trkpt><trkpt lat="44.50375449652704" lon="7.962267031100631"><ele>534.0</ele><time>2026-04-08T16:21:45.999Z</time></trkpt><trkpt lat="44.50356438253636" lon="7.962314124925574"><ele>534.0</ele><time>2026-04-08T16:21:46.999Z</time></trkpt><trkpt lat="44.503369278805536" lon="7.9623630340374625"><ele>537.0</ele><time>2026-04-08T16:21:47.999Z</time></trkpt><trkpt lat="44.50318103983853" lon="7.962413813836977"><ele>540.0</ele><time>2026-04-08T16:21:48.999Z</time></trkpt><trkpt lat="44.503003670578124" lon="7.962491587146854"><ele>543.0</ele><time>2026-04-08T16:21:49.999Z</time></trkpt><trkpt lat="44.50282760795977" lon="7.962576814225822"><ele>543.0</ele><time>2026-04-08T16:21:50.999Z</time></trkpt><trkpt lat="44.50265226193338" lon="7.962685432866112"><ele>543.0</ele><time>2026-04-08T16:21:51.999Z</time></trkpt><trkpt lat="44.502484798919156" lon="7.96281366695009"><ele>543.0</ele><time>2026-04-08T16:21:52.999Z</time></trkpt><trkpt lat="44.50231729934066" lon="7.962923563555212"><ele>543.0</ele><time>2026-04-08T16:21:53.999Z</time></trkpt><trkpt lat="44.502169786666116" lon="7.963025264785117"><ele>543.0</ele><time>2026-04-08T16:21:54.999Z</time></trkpt><trkpt lat="44.50203614231249" lon="7.963126480031484"><ele>543.0</ele><time>2026-04-08T16:21:55.999Z</time></trkpt><trkpt lat="44.50189001210926" lon="7.96320996488594"><ele>546.5</ele><time>2026-04-08T16:21:56.999Z</time></trkpt><trkpt lat="44.501746222371004" lon="7.963277052482634"><ele>550.0</ele><time>2026-04-08T16:21:57.999Z</time></trkpt><trkpt lat="44.50160892604931" lon="7.963332108836686"><ele>553.5</ele><time>2026-04-08T16:21:58.999Z</time></trkpt><trkpt lat="44.50146338194933" lon="7.963369992686653"><ele>557.0</ele><time>2026-04-08T16:21:59.999Z</time></trkpt><trkpt lat="44.501321801192766" lon="7.963407879629039"><ele>561.0</ele><time>2026-04-08T16:22:00.999Z</time></trkpt><trkpt lat="44.50119615763189" lon="7.963443401436654"><ele>565.0</ele><time>2026-04-08T16:22:01.999Z</time></trkpt><trkpt lat="44.50105979508001" lon="7.963479624860373"><ele>569.0</ele><time>2026-04-08T16:22:02.999Z</time></trkpt><trkpt lat="44.50091173585428" lon="7.963527743452034"><ele>573.0</ele><time>2026-04-08T16:22:03.999Z</time></trkpt><trkpt lat="44.500756370840655" lon="7.963587363299553"><ele>573.0</ele><time>2026-04-08T16:22:04.999Z</time></trkpt><trkpt lat="44.500599228775215" lon="7.963629838578498"><ele>573.0</ele><time>2026-04-08T16:22:05.999Z</time></trkpt><trkpt lat="44.50044692024176" lon="7.9636646142718"><ele>573.0</ele><time>2026-04-08T16:22:06.999Z</time></trkpt><trkpt lat="44.50029059044159" lon="7.963684402055328"><ele>574.25</ele><time>2026-04-08T16:22:07.999Z</time></trkpt><trkpt lat="44.5001460029283" lon="7.963675287141202"><ele>575.5</ele><time>2026-04-08T16:22:08.999Z</time></trkpt><trkpt lat="44.500011937349704" lon="7.963631974246015"><ele>576.75</ele><time>2026-04-08T16:22:09.999Z</time></trkpt><trkpt lat="44.49987851901129" lon="7.963559492232737"><ele>578.0</ele><time>2026-04-08T16:22:10.999Z</time></trkpt><trkpt lat="44.499757813142" lon="7.96348498638424"><ele>578.0</ele><time>2026-04-08T16:22:11.999Z</time></trkpt><trkpt lat="44.49965144049294" lon="7.96341207537525"><ele>578.0</ele><time>2026-04-08T16:22:12.999Z</time></trkpt><trkpt lat="44.49955700141227" lon="7.963329432846694"><ele>578.0</ele><time>2026-04-08T16:22:13.999Z</time></trkpt><trkpt lat="44.49948006426403" lon="7.963273999763585"><ele>578.0</ele><time>2026-04-08T16:22:14.999Z</time></trkpt><trkpt lat="44.49940727122165" lon="7.963225550331887"><ele>578.0</ele><time>2026-04-08T16:22:15.999Z</time></trkpt><trkpt lat="44.49929785698748" lon="7.963179262717111"><ele>577.8</ele><time>2026-04-08T16:22:17.999Z</time></trkpt><trkpt lat="44.49921944873257" lon="7.963265726103661"><ele>577.5999999999999</ele><time>2026-04-08T16:22:19.999Z</time></trkpt><trkpt lat="44.499188208650054" lon="7.963408999429988"><ele>577.4000000000001</ele><time>2026-04-08T16:22:21.999Z</time></trkpt><trkpt lat="44.499240229272246" lon="7.9635037816525385"><ele>577.2</ele><time>2026-04-08T16:22:22.999Z</time></trkpt><trkpt lat="44.499279559478786" lon="7.963624921427645"><ele>577.0</ele><time>2026-04-08T16:22:23.999Z</time></trkpt><trkpt lat="44.49930765977444" lon="7.963756522994432"><ele>577.0</ele><time>2026-04-08T16:22:24.999Z</time></trkpt><trkpt lat="44.49932687513155" lon="7.963901526152814"><ele>577.0</ele><time>2026-04-08T16:22:25.999Z</time></trkpt><trkpt lat="44.499319064991035" lon="7.964056628440279"><ele>577.0</ele><time>2026-04-08T16:22:26.999Z</time></trkpt><trkpt lat="44.49932321182255" lon="7.964219995733632"><ele>577.0</ele><time>2026-04-08T16:22:27.999Z</time></trkpt><trkpt lat="44.499346810306236" lon="7.96441069733549"><ele>577.5</ele><time>2026-04-08T16:22:28.999Z</time></trkpt><trkpt lat="44.499383218298405" lon="7.964591047709101"><ele>578.0</ele><time>2026-04-08T16:22:29.999Z</time></trkpt><trkpt lat="44.49942612553216" lon="7.964775411877338"><ele>578.5</ele><time>2026-04-08T16:22:31Z</time></trkpt><trkpt lat="44.49946585413795" lon="7.964942458359323"><ele>579.0</ele><time>2026-04-08T16:22:32Z</time></trkpt><trkpt lat="44.49950303037536" lon="7.965083509126358"><ele>579.0</ele><time>2026-04-08T16:22:33Z</time></trkpt><trkpt lat="44.49953776109544" lon="7.965225740766954"><ele>579.0</ele><time>2026-04-08T16:22:34Z</time></trkpt><trkpt lat="44.499558326906865" lon="7.965347680759446"><ele>579.0</ele><time>2026-04-08T16:22:35Z</time></trkpt><trkpt lat="44.49956795049263" lon="7.965472109649644"><ele>579.0</ele><time>2026-04-08T16:22:36Z</time></trkpt><trkpt lat="44.49955801376405" lon="7.965595861736949"><ele>579.0</ele><time>2026-04-08T16:22:37Z</time></trkpt><trkpt lat="44.49948969363428" lon="7.965690288536156"><ele>579.0</ele><time>2026-04-08T16:22:38Z</time></trkpt><trkpt lat="44.49942120588913" lon="7.9657682468129725"><ele>579.0</ele><time>2026-04-08T16:22:39Z</time></trkpt><trkpt lat="44.49934675752454" lon="7.965873181985998"><ele>579.0</ele><time>2026-04-08T16:22:40Z</time></trkpt><trkpt lat="44.49926092325542" lon="7.965994887844641"><ele>579.0</ele><time>2026-04-08T16:22:41Z</time></trkpt><trkpt lat="44.49916666051621" lon="7.966129950220315"><ele>582.25</ele><time>2026-04-08T16:22:42Z</time></trkpt><trkpt lat="44.49908367599946" lon="7.966272498523719"><ele>585.5</ele><time>2026-04-08T16:22:43Z</time></trkpt><trkpt lat="44.49900160628303" lon="7.966387692304113"><ele>588.75</ele><time>2026-04-08T16:22:44Z</time></trkpt><trkpt lat="44.49890175613981" lon="7.966501299226533"><ele>592.0</ele><time>2026-04-08T16:22:45Z</time></trkpt><trkpt lat="44.49881563250449" lon="7.966609348749789"><ele>592.0</ele><time>2026-04-08T16:22:46Z</time></trkpt><trkpt lat="44.49872399514806" lon="7.9667109115407815"><ele>592.0</ele><time>2026-04-08T16:22:47Z</time></trkpt><trkpt lat="44.49863302970282" lon="7.966799962388518"><ele>592.0</ele><time>2026-04-08T16:22:48Z</time></trkpt><trkpt lat="44.49854015916441" lon="7.966892011843455"><ele>592.0</ele><time>2026-04-08T16:22:49Z</time></trkpt><trkpt lat="44.49844575085913" lon="7.966985585451458"><ele>592.0</ele><time>2026-04-08T16:22:50Z</time></trkpt><trkpt lat="44.49835054435442" lon="7.9670840018703055"><ele>592.0</ele><time>2026-04-08T16:22:51Z</time></trkpt><trkpt lat="44.49825556607873" lon="7.967193081751557"><ele>592.0</ele><time>2026-04-08T16:22:52Z</time></trkpt><trkpt lat="44.49816615107894" lon="7.96730121310415"><ele>592.0</ele><time>2026-04-08T16:22:53Z</time></trkpt><trkpt lat="44.49807700180111" lon="7.967409023090631"><ele>592.0</ele><time>2026-04-08T16:22:54Z</time></trkpt><trkpt lat="44.49800006228652" lon="7.96750206758826"><ele>592.0</ele><time>2026-04-08T16:22:55Z</time></trkpt><trkpt lat="44.49790826898219" lon="7.967607115170043"><ele>592.0</ele><time>2026-04-08T16:22:56Z</time></trkpt><trkpt lat="44.49783477001733" lon="7.967706241876973"><ele>592.0</ele><time>2026-04-08T16:22:57Z</time></trkpt><trkpt lat="44.49775995128832" lon="7.9678056466328515"><ele>592.0</ele><time>2026-04-08T16:22:58Z</time></trkpt><trkpt lat="44.49768506728802" lon="7.967906039050542"><ele>592.0</ele><time>2026-04-08T16:22:59Z</time></trkpt><trkpt lat="44.49760253867142" lon="7.968004196266253"><ele>592.0</ele><time>2026-04-08T16:23:00Z</time></trkpt><trkpt lat="44.497519738230494" lon="7.968096697549534"><ele>592.0</ele><time>2026-04-08T16:23:01Z</time></trkpt><trkpt lat="44.497427388310996" lon="7.968179509427029"><ele>592.0</ele><time>2026-04-08T16:23:02Z</time></trkpt><trkpt lat="44.49732957102484" lon="7.968264111624494"><ele>592.0</ele><time>2026-04-08T16:23:03Z</time></trkpt><trkpt lat="44.497247822109735" lon="7.96835762736433"><ele>591.8000000000001</ele><time>2026-04-08T16:23:04Z</time></trkpt><trkpt lat="44.49716450766594" lon="7.968451038417676"><ele>591.6</ele><time>2026-04-08T16:23:05Z</time></trkpt><trkpt lat="44.49706934952273" lon="7.968544114697536"><ele>591.4000000000001</ele><time>2026-04-08T16:23:06Z</time></trkpt><trkpt lat="44.49697753705511" lon="7.968636079860304"><ele>591.2</ele><time>2026-04-08T16:23:07Z</time></trkpt><trkpt lat="44.49688621047202" lon="7.968712333963937"><ele>591.0</ele><time>2026-04-08T16:23:08Z</time></trkpt><trkpt lat="44.49679593418176" lon="7.968797798908738"><ele>591.0</ele><time>2026-04-08T16:23:09Z</time></trkpt><trkpt lat="44.49670299477914" lon="7.968877575600175"><ele>591.0</ele><time>2026-04-08T16:23:10Z</time></trkpt><trkpt lat="44.49661039514336" lon="7.9689590045570275"><ele>591.0</ele><time>2026-04-08T16:23:11Z</time></trkpt><trkpt lat="44.49651600340755" lon="7.969040781002781"><ele>591.0</ele><time>2026-04-08T16:23:12Z</time></trkpt><trkpt lat="44.49641770373191" lon="7.969125295796033"><ele>591.0</ele><time>2026-04-08T16:23:13Z</time></trkpt><trkpt lat="44.49631583193661" lon="7.969211417213986"><ele>591.6</ele><time>2026-04-08T16:23:14Z</time></trkpt><trkpt lat="44.49622096334687" lon="7.969294134133808"><ele>592.2</ele><time>2026-04-08T16:23:15Z</time></trkpt><trkpt lat="44.496123269604716" lon="7.969376766860207"><ele>592.8</ele><time>2026-04-08T16:23:16Z</time></trkpt><trkpt lat="44.49602551873352" lon="7.969457241140991"><ele>593.4</ele><time>2026-04-08T16:23:17Z</time></trkpt><trkpt lat="44.495933450332764" lon="7.96953624605936"><ele>594.0</ele><time>2026-04-08T16:23:18Z</time></trkpt><trkpt lat="44.49584218182729" lon="7.969616691861199"><ele>594.0</ele><time>2026-04-08T16:23:19Z</time></trkpt><trkpt lat="44.49574320525193" lon="7.969699126583883"><ele>594.0</ele><time>2026-04-08T16:23:20Z</time></trkpt><trkpt lat="44.49565024290849" lon="7.969775952383703"><ele>594.0</ele><time>2026-04-08T16:23:21Z</time></trkpt><trkpt lat="44.49555298718831" lon="7.969862933221727"><ele>594.0</ele><time>2026-04-08T16:23:22Z</time></trkpt><trkpt lat="44.495456989392146" lon="7.96994826760176"><ele>596.0</ele><time>2026-04-08T16:23:23Z</time></trkpt><trkpt lat="44.49536535097257" lon="7.970042499593749"><ele>598.0</ele><time>2026-04-08T16:23:23.999Z</time></trkpt><trkpt lat="44.49528029623259" lon="7.970158445994825"><ele>600.0</ele><time>2026-04-08T16:23:24.999Z</time></trkpt><trkpt lat="44.49520509857495" lon="7.970289380411839"><ele>602.0</ele><time>2026-04-08T16:23:25.999Z</time></trkpt><trkpt lat="44.495131939359204" lon="7.970414048558902"><ele>602.0</ele><time>2026-04-08T16:23:26.999Z</time></trkpt><trkpt lat="44.495059569343965" lon="7.9705251663968335"><ele>602.0</ele><time>2026-04-08T16:23:27.999Z</time></trkpt><trkpt lat="44.494987674751435" lon="7.97064908015846"><ele>602.0</ele><time>2026-04-08T16:23:28.999Z</time></trkpt><trkpt lat="44.49491707814241" lon="7.970762930798468"><ele>602.0</ele><time>2026-04-08T16:23:29.999Z</time></trkpt><trkpt lat="44.49484351893301" lon="7.970876976714288"><ele>602.0</ele><time>2026-04-08T16:23:30.999Z</time></trkpt><trkpt lat="44.49476661685861" lon="7.970995817060587"><ele>603.25</ele><time>2026-04-08T16:23:31.999Z</time></trkpt><trkpt lat="44.494684141295956" lon="7.971114904858455"><ele>604.5</ele><time>2026-04-08T16:23:32.999Z</time></trkpt><trkpt lat="44.49460273898956" lon="7.971231205862235"><ele>605.75</ele><time>2026-04-08T16:23:33.999Z</time></trkpt><trkpt lat="44.49450345789691" lon="7.97133336570076"><ele>607.0</ele><time>2026-04-08T16:23:34.999Z</time></trkpt><trkpt lat="44.49440415479069" lon="7.97145617720682"><ele>607.5</ele><time>2026-04-08T16:23:35.999Z</time></trkpt><trkpt lat="44.494297053203084" lon="7.9715567208871985"><ele>608.0</ele><time>2026-04-08T16:23:36.999Z</time></trkpt><trkpt lat="44.494168057802376" lon="7.971667366090633"><ele>608.5</ele><time>2026-04-08T16:23:37.999Z</time></trkpt><trkpt lat="44.49403538334217" lon="7.97177261955846"><ele>609.0</ele><time>2026-04-08T16:23:38.999Z</time></trkpt><trkpt lat="44.49389352350198" lon="7.971856966617214"><ele>611.6666666666666</ele><time>2026-04-08T16:23:39.999Z</time></trkpt><trkpt lat="44.49375487725638" lon="7.971964504155222"><ele>614.3333333333333</ele><time>2026-04-08T16:23:40.999Z</time></trkpt><trkpt lat="44.493614053926564" lon="7.972086667115232"><ele>617.0</ele><time>2026-04-08T16:23:41.999Z</time></trkpt><trkpt lat="44.493498449599045" lon="7.972202541581062"><ele>617.0</ele><time>2026-04-08T16:23:42.999Z</time></trkpt><trkpt lat="44.493400167068266" lon="7.972342877402827"><ele>617.0</ele><time>2026-04-08T16:23:43.999Z</time></trkpt><trkpt lat="44.493296326993004" lon="7.972417602318551"><ele>617.0</ele><time>2026-04-08T16:23:44.999Z</time></trkpt><trkpt lat="44.49319710720045" lon="7.972467218376178"><ele>617.0</ele><time>2026-04-08T16:23:45.999Z</time></trkpt><trkpt lat="44.49310239983997" lon="7.972477361449143"><ele>617.0</ele><time>2026-04-08T16:23:46.999Z</time></trkpt><trkpt lat="44.49301044180788" lon="7.972411774940212"><ele>617.0</ele><time>2026-04-08T16:23:47.999Z</time></trkpt><trkpt lat="44.49290418137117" lon="7.972381926546745"><ele>617.0</ele><time>2026-04-08T16:23:48.999Z</time></trkpt><trkpt lat="44.49278064174248" lon="7.972342304778488"><ele>617.0</ele><time>2026-04-08T16:23:49.999Z</time></trkpt><trkpt lat="44.49265323224861" lon="7.972315136866478"><ele>617.2</ele><time>2026-04-08T16:23:50.999Z</time></trkpt><trkpt lat="44.49254256743963" lon="7.972307499258073"><ele>617.4000000000001</ele><time>2026-04-08T16:23:51.999Z</time></trkpt><trkpt lat="44.492435326017265" lon="7.972299126320614"><ele>617.5999999999999</ele><time>2026-04-08T16:23:52.999Z</time></trkpt><trkpt lat="44.49233239261179" lon="7.972321824229886"><ele>617.8</ele><time>2026-04-08T16:23:53.999Z</time></trkpt><trkpt lat="44.492230162262786" lon="7.972389047380418"><ele>618.0</ele><time>2026-04-08T16:23:54.999Z</time></trkpt><trkpt lat="44.49213880959556" lon="7.972466471367517"><ele>618.0</ele><time>2026-04-08T16:23:55.999Z</time></trkpt><trkpt lat="44.49206204284694" lon="7.97255824418402"><ele>618.0</ele><time>2026-04-08T16:23:56.999Z</time></trkpt><trkpt lat="44.49198788749784" lon="7.972658477376224"><ele>618.0</ele><time>2026-04-08T16:23:57.999Z</time></trkpt><trkpt lat="44.49193197193542" lon="7.972790236958054"><ele>618.0</ele><time>2026-04-08T16:23:58.999Z</time></trkpt><trkpt lat="44.49194528131363" lon="7.972982273159068"><ele>618.0</ele><time>2026-04-08T16:23:59.999Z</time></trkpt><trkpt lat="44.491938272176974" lon="7.973166247296164"><ele>618.0</ele><time>2026-04-08T16:24:00.999Z</time></trkpt><trkpt lat="44.49190408296249" lon="7.973326312889845"><ele>618.0</ele><time>2026-04-08T16:24:01.999Z</time></trkpt><trkpt lat="44.491872354809594" lon="7.973470268025068"><ele>618.0</ele><time>2026-04-08T16:24:02.999Z</time></trkpt><trkpt lat="44.49183464501556" lon="7.9736157323616155"><ele>620.0</ele><time>2026-04-08T16:24:03.999Z</time></trkpt><trkpt lat="44.49179302662883" lon="7.973766610488784"><ele>622.0</ele><time>2026-04-08T16:24:04.999Z</time></trkpt><trkpt lat="44.491748171300536" lon="7.973915553518244"><ele>624.0</ele><time>2026-04-08T16:24:05.999Z</time></trkpt><trkpt lat="44.49171501107744" lon="7.974073302116508"><ele>626.0</ele><time>2026-04-08T16:24:06.999Z</time></trkpt><trkpt lat="44.49165346690559" lon="7.974208749007424"><ele>626.8</ele><time>2026-04-08T16:24:07.999Z</time></trkpt><trkpt lat="44.491602987994405" lon="7.9743493910294125"><ele>627.6</ele><time>2026-04-08T16:24:08.999Z</time></trkpt><trkpt lat="44.491567370873014" lon="7.97449547303863"><ele>628.4</ele><time>2026-04-08T16:24:09.999Z</time></trkpt><trkpt lat="44.4915099294848" lon="7.974622238772181"><ele>629.2</ele><time>2026-04-08T16:24:10.999Z</time></trkpt><trkpt lat="44.49145543405419" lon="7.974741150218383"><ele>630.0</ele><time>2026-04-08T16:24:11.999Z</time></trkpt><trkpt lat="44.49139186990222" lon="7.974843567031896"><ele>630.0</ele><time>2026-04-08T16:24:12.999Z</time></trkpt><trkpt lat="44.491301164415916" lon="7.974909229895215"><ele>630.0</ele><time>2026-04-08T16:24:13.999Z</time></trkpt><trkpt lat="44.491211903014424" lon="7.97496508242415"><ele>630.0</ele><time>2026-04-08T16:24:14.999Z</time></trkpt><trkpt lat="44.491117806531044" lon="7.975002762902646"><ele>630.0</ele><time>2026-04-08T16:24:15.999Z</time></trkpt><trkpt lat="44.49099607740095" lon="7.975051470837667"><ele>630.0</ele><time>2026-04-08T16:24:16.999Z</time></trkpt><trkpt lat="44.490896209660264" lon="7.975090257843357"><ele>630.4</ele><time>2026-04-08T16:24:17.999Z</time></trkpt><trkpt lat="44.49080372061888" lon="7.975110258980029"><ele>630.8</ele><time>2026-04-08T16:24:18.999Z</time></trkpt><trkpt lat="44.49071564840321" lon="7.975160535548945"><ele>631.2</ele><time>2026-04-08T16:24:19.999Z</time></trkpt><trkpt lat="44.49062405670205" lon="7.975213470347257"><ele>631.6</ele><time>2026-04-08T16:24:20.999Z</time></trkpt><trkpt lat="44.49051809607831" lon="7.975257099857392"><ele>632.0</ele><time>2026-04-08T16:24:21.999Z</time></trkpt><trkpt lat="44.490416263801116" lon="7.975306388198373"><ele>632.0</ele><time>2026-04-08T16:24:22.999Z</time></trkpt><trkpt lat="44.49031289200967" lon="7.9753450867065165"><ele>632.0</ele><time>2026-04-08T16:24:23.999Z</time></trkpt><trkpt lat="44.49019858874504" lon="7.9753924377301235"><ele>632.0</ele><time>2026-04-08T16:24:24.999Z</time></trkpt><trkpt lat="44.49008814543266" lon="7.9754350829998515"><ele>632.0</ele><time>2026-04-08T16:24:25.999Z</time></trkpt><trkpt lat="44.4899735468814" lon="7.975440485137012"><ele>632.0</ele><time>2026-04-08T16:24:26.999Z</time></trkpt><trkpt lat="44.48986330676586" lon="7.975492997481718"><ele>632.0</ele><time>2026-04-08T16:24:27.999Z</time></trkpt><trkpt lat="44.48975360420393" lon="7.9755356997612035"><ele>632.0</ele><time>2026-04-08T16:24:28.999Z</time></trkpt><trkpt lat="44.489633172077056" lon="7.97558450515384"><ele>632.0</ele><time>2026-04-08T16:24:29.999Z</time></trkpt><trkpt lat="44.489499503827766" lon="7.975647402911732"><ele>628.6666666666666</ele><time>2026-04-08T16:24:30.999Z</time></trkpt><trkpt lat="44.48935835439234" lon="7.975703912973749"><ele>625.3333333333334</ele><time>2026-04-08T16:24:31.999Z</time></trkpt><trkpt lat="44.48920643724866" lon="7.975772375616533"><ele>622.0</ele><time>2026-04-08T16:24:32.999Z</time></trkpt><trkpt lat="44.489054130007496" lon="7.975847146659847"><ele>626.3333333333334</ele><time>2026-04-08T16:24:33.999Z</time></trkpt><trkpt lat="44.488893372982524" lon="7.975913884525113"><ele>630.6666666666666</ele><time>2026-04-08T16:24:34.999Z</time></trkpt><trkpt lat="44.488736364296436" lon="7.975992815827739"><ele>635.0</ele><time>2026-04-08T16:24:35.999Z</time></trkpt><trkpt lat="44.48857040089412" lon="7.9760789664202205"><ele>635.0</ele><time>2026-04-08T16:24:37Z</time></trkpt><trkpt lat="44.48839221154601" lon="7.976157108837934"><ele>635.0</ele><time>2026-04-08T16:24:38Z</time></trkpt><trkpt lat="44.48823035804356" lon="7.976234102619788"><ele>635.0</ele><time>2026-04-08T16:24:39Z</time></trkpt><trkpt lat="44.48805999204025" lon="7.97628434506813"><ele>636.3333333333333</ele><time>2026-04-08T16:24:40Z</time></trkpt><trkpt lat="44.48790091532289" lon="7.976351365714524"><ele>637.6666666666666</ele><time>2026-04-08T16:24:41Z</time></trkpt><trkpt lat="44.4877556089933" lon="7.976413916377868"><ele>639.0</ele><time>2026-04-08T16:24:42Z</time></trkpt><trkpt lat="44.48762814502007" lon="7.976472307165305"><ele>639.0</ele><time>2026-04-08T16:24:43Z</time></trkpt><trkpt lat="44.48751408125632" lon="7.976525124628526"><ele>639.0</ele><time>2026-04-08T16:24:44Z</time></trkpt><trkpt lat="44.48740950433542" lon="7.976581218398194"><ele>639.0</ele><time>2026-04-08T16:24:45Z</time></trkpt><trkpt lat="44.48730843996687" lon="7.976669966074949"><ele>639.0</ele><time>2026-04-08T16:24:46Z</time></trkpt><trkpt lat="44.487237850875545" lon="7.976795812629361"><ele>637.75</ele><time>2026-04-08T16:24:47Z</time></trkpt><trkpt lat="44.48718285774693" lon="7.976940345264943"><ele>636.5</ele><time>2026-04-08T16:24:48Z</time></trkpt><trkpt lat="44.48715503864421" lon="7.977105654369872"><ele>635.25</ele><time>2026-04-08T16:24:49Z</time></trkpt><trkpt lat="44.487111144468784" lon="7.977266348808222"><ele>634.0</ele><time>2026-04-08T16:24:50Z</time></trkpt><trkpt lat="44.48706398916471" lon="7.977436890827943"><ele>634.0</ele><time>2026-04-08T16:24:51Z</time></trkpt><trkpt lat="44.487013665762866" lon="7.977621963984247"><ele>634.0</ele><time>2026-04-08T16:24:52Z</time></trkpt><trkpt lat="44.48695653394799" lon="7.9778172433782535"><ele>634.0</ele><time>2026-04-08T16:24:53Z</time></trkpt><trkpt lat="44.48691159325041" lon="7.978019894010224"><ele>634.0</ele><time>2026-04-08T16:24:54Z</time></trkpt><trkpt lat="44.486863019674736" lon="7.9782120702693895"><ele>635.0</ele><time>2026-04-08T16:24:55Z</time></trkpt><trkpt lat="44.48680844294626" lon="7.978425336981869"><ele>636.0</ele><time>2026-04-08T16:24:56Z</time></trkpt><trkpt lat="44.48675098735258" lon="7.978653078893656"><ele>637.0</ele><time>2026-04-08T16:24:57Z</time></trkpt><trkpt lat="44.486690738464624" lon="7.978892956018631"><ele>637.0</ele><time>2026-04-08T16:24:58Z</time></trkpt><trkpt lat="44.48663337312057" lon="7.979128048303901"><ele>637.0</ele><time>2026-04-08T16:24:59Z</time></trkpt><trkpt lat="44.48657808049398" lon="7.979369020611802"><ele>637.0</ele><time>2026-04-08T16:25:00Z</time></trkpt><trkpt lat="44.4865148770383" lon="7.979617494139454"><ele>638.6666666666667</ele><time>2026-04-08T16:25:01Z</time></trkpt><trkpt lat="44.48644002704823" lon="7.979862626614049"><ele>640.3333333333334</ele><time>2026-04-08T16:25:02Z</time></trkpt><trkpt lat="44.486381085401476" lon="7.980119306319812"><ele>642.0</ele><time>2026-04-08T16:25:03Z</time></trkpt><trkpt lat="44.48630599163669" lon="7.980375627787588"><ele>642.0</ele><time>2026-04-08T16:25:04Z</time></trkpt><trkpt lat="44.48622771509812" lon="7.980628476268144"><ele>642.0</ele><time>2026-04-08T16:25:05Z</time></trkpt><trkpt lat="44.486144892312005" lon="7.980882419448642"><ele>642.0</ele><time>2026-04-08T16:25:06Z</time></trkpt><trkpt lat="44.48606766963523" lon="7.981135698875662"><ele>644.0</ele><time>2026-04-08T16:25:07Z</time></trkpt><trkpt lat="44.48599109091497" lon="7.98139391638469"><ele>646.0</ele><time>2026-04-08T16:25:08Z</time></trkpt><trkpt lat="44.485907455222566" lon="7.98162777991635"><ele>648.0</ele><time>2026-04-08T16:25:09Z</time></trkpt><trkpt lat="44.48583253166983" lon="7.981836622360224"><ele>648.0</ele><time>2026-04-08T16:25:10Z</time></trkpt><trkpt lat="44.48575448039308" lon="7.982049493319654"><ele>648.0</ele><time>2026-04-08T16:25:11Z</time></trkpt><trkpt lat="44.485663233282814" lon="7.982261617598192"><ele>648.0</ele><time>2026-04-08T16:25:12Z</time></trkpt><trkpt lat="44.48554700022149" lon="7.982447422521588"><ele>650.3333333333334</ele><time>2026-04-08T16:25:13Z</time></trkpt><trkpt lat="44.485423533127324" lon="7.982609829867476"><ele>652.6666666666667</ele><time>2026-04-08T16:25:14Z</time></trkpt><trkpt lat="44.485299750466034" lon="7.982782924309779"><ele>655.0</ele><time>2026-04-08T16:25:15Z</time></trkpt><trkpt lat="44.485187747047654" lon="7.982950810348425"><ele>655.0</ele><time>2026-04-08T16:25:16Z</time></trkpt><trkpt lat="44.485071540464254" lon="7.983111206085887"><ele>655.0</ele><time>2026-04-08T16:25:17Z</time></trkpt><trkpt lat="44.48494967784971" lon="7.983301760109322"><ele>655.0</ele><time>2026-04-08T16:25:18Z</time></trkpt><trkpt lat="44.484833713036764" lon="7.983493946456557"><ele>655.3333333333334</ele><time>2026-04-08T16:25:19Z</time></trkpt><trkpt lat="44.48471851529588" lon="7.983677101742807"><ele>655.6666666666666</ele><time>2026-04-08T16:25:20Z</time></trkpt><trkpt lat="44.484623229824486" lon="7.983852897588981"><ele>656.0</ele><time>2026-04-08T16:25:21Z</time></trkpt><trkpt lat="44.484528474556264" lon="7.984015851457245"><ele>655.5</ele><time>2026-04-08T16:25:22Z</time></trkpt><trkpt lat="44.484444838361455" lon="7.984173478099761"><ele>655.0</ele><time>2026-04-08T16:25:23Z</time></trkpt><trkpt lat="44.48436178590112" lon="7.984321732590142"><ele>654.5</ele><time>2026-04-08T16:25:24Z</time></trkpt><trkpt lat="44.4842827674416" lon="7.984453586217409"><ele>654.0</ele><time>2026-04-08T16:25:25Z</time></trkpt><trkpt lat="44.4842130794707" lon="7.984575129830982"><ele>655.6</ele><time>2026-04-08T16:25:26Z</time></trkpt><trkpt lat="44.484157826999336" lon="7.984692607293584"><ele>657.2</ele><time>2026-04-08T16:25:27Z</time></trkpt><trkpt lat="44.48410922833738" lon="7.984827787957378"><ele>658.8000000000001</ele><time>2026-04-08T16:25:28Z</time></trkpt><trkpt lat="44.4840772341504" lon="7.984968723359593"><ele>660.4000000000001</ele><time>2026-04-08T16:25:29Z</time></trkpt><trkpt lat="44.484055211730194" lon="7.985119722377174"><ele>662.0</ele><time>2026-04-08T16:25:30Z</time></trkpt><trkpt lat="44.48404464520154" lon="7.985285275855459"><ele>662.0</ele><time>2026-04-08T16:25:31Z</time></trkpt><trkpt lat="44.48403655234813" lon="7.985474061323397"><ele>662.0</ele><time>2026-04-08T16:25:32Z</time></trkpt><trkpt lat="44.48403300954283" lon="7.9856834058352515"><ele>662.0</ele><time>2026-04-08T16:25:32.999Z</time></trkpt><trkpt lat="44.4840236884256" lon="7.985871209535671"><ele>662.0</ele><time>2026-04-08T16:25:33.999Z</time></trkpt><trkpt lat="44.48400741475892" lon="7.986052651795917"><ele>659.6666666666666</ele><time>2026-04-08T16:25:34.999Z</time></trkpt><trkpt lat="44.483985872598765" lon="7.9862551775921915"><ele>657.3333333333334</ele><time>2026-04-08T16:25:35.999Z</time></trkpt><trkpt lat="44.4839537481386" lon="7.986462029523447"><ele>655.0</ele><time>2026-04-08T16:25:36.999Z</time></trkpt><trkpt lat="44.48391695804296" lon="7.986680243002187"><ele>653.6666666666667</ele><time>2026-04-08T16:25:37.999Z</time></trkpt><trkpt lat="44.48387432545099" lon="7.986895417982711"><ele>652.3333333333334</ele><time>2026-04-08T16:25:38.999Z</time></trkpt><trkpt lat="44.48384102288498" lon="7.987116076982898"><ele>651.0</ele><time>2026-04-08T16:25:39.999Z</time></trkpt><trkpt lat="44.48379243886932" lon="7.987382904824925"><ele>656.6666666666666</ele><time>2026-04-08T16:25:40.999Z</time></trkpt><trkpt lat="44.48374378815095" lon="7.9876401317047145"><ele>662.3333333333333</ele><time>2026-04-08T16:25:41.999Z</time></trkpt><trkpt lat="44.48369972718164" lon="7.9878927853059984"><ele>668.0</ele><time>2026-04-08T16:25:42.999Z</time></trkpt><trkpt lat="44.48366431651476" lon="7.98814940809489"><ele>670.3333333333333</ele><time>2026-04-08T16:25:43.999Z</time></trkpt><trkpt lat="44.48362493551835" lon="7.98840495533533"><ele>672.6666666666666</ele><time>2026-04-08T16:25:44.999Z</time></trkpt><trkpt lat="44.4835774585854" lon="7.988664222341724"><ele>675.0</ele><time>2026-04-08T16:25:45.999Z</time></trkpt><trkpt lat="44.483543906392676" lon="7.9889273225082835"><ele>675.0</ele><time>2026-04-08T16:25:46.999Z</time></trkpt><trkpt lat="44.483489002562855" lon="7.989174408150027"><ele>675.0</ele><time>2026-04-08T16:25:47.999Z</time></trkpt><trkpt lat="44.483437594215026" lon="7.989424307089299"><ele>675.0</ele><time>2026-04-08T16:25:48.999Z</time></trkpt><trkpt lat="44.48340985680243" lon="7.989684691189679"><ele>677.0</ele><time>2026-04-08T16:25:49.999Z</time></trkpt><trkpt lat="44.48335035134113" lon="7.989918389580161"><ele>679.0</ele><time>2026-04-08T16:25:50.999Z</time></trkpt><trkpt lat="44.48330977446247" lon="7.990154097195335"><ele>681.0</ele><time>2026-04-08T16:25:51.999Z</time></trkpt><trkpt lat="44.48325443336134" lon="7.990351101116133"><ele>682.0</ele><time>2026-04-08T16:25:52.999Z</time></trkpt><trkpt lat="44.48318291136189" lon="7.990554839860829"><ele>683.0</ele><time>2026-04-08T16:25:53.999Z</time></trkpt><trkpt lat="44.48308963508486" lon="7.9907789026691995"><ele>684.0</ele><time>2026-04-08T16:25:54.999Z</time></trkpt><trkpt lat="44.48302220318399" lon="7.990947327513727"><ele>684.6666666666666</ele><time>2026-04-08T16:25:55.999Z</time></trkpt><trkpt lat="44.48296534774414" lon="7.99113447618873"><ele>685.3333333333333</ele><time>2026-04-08T16:25:56.999Z</time></trkpt><trkpt lat="44.48291693740778" lon="7.991343056258895"><ele>686.0</ele><time>2026-04-08T16:25:57.999Z</time></trkpt><trkpt lat="44.482885633732" lon="7.991573596872988"><ele>680.3333333333333</ele><time>2026-04-08T16:25:58.999Z</time></trkpt><trkpt lat="44.482859726723504" lon="7.991828047568688"><ele>674.6666666666666</ele><time>2026-04-08T16:25:59.999Z</time></trkpt><trkpt lat="44.48283719868392" lon="7.992087823344924"><ele>669.0</ele><time>2026-04-08T16:26:00.999Z</time></trkpt><trkpt lat="44.48281564303615" lon="7.992358092581789"><ele>669.3333333333334</ele><time>2026-04-08T16:26:01.999Z</time></trkpt><trkpt lat="44.482801760633365" lon="7.99263886119564"><ele>669.6666666666667</ele><time>2026-04-08T16:26:02.999Z</time></trkpt><trkpt lat="44.48278342898174" lon="7.992910773362952"><ele>670.0</ele><time>2026-04-08T16:26:03.999Z</time></trkpt><trkpt lat="44.482771874578" lon="7.993189674607609"><ele>672.0</ele><time>2026-04-08T16:26:04.999Z</time></trkpt><trkpt lat="44.48275572551555" lon="7.993445010970676"><ele>674.0</ele><time>2026-04-08T16:26:05.999Z</time></trkpt><trkpt lat="44.48273666500894" lon="7.9936814331711235"><ele>676.0</ele><time>2026-04-08T16:26:06.999Z</time></trkpt><trkpt lat="44.4827195721145" lon="7.993894774041897"><ele>676.0</ele><time>2026-04-08T16:26:07.999Z</time></trkpt><trkpt lat="44.48270545295088" lon="7.994110061925418"><ele>676.0</ele><time>2026-04-08T16:26:08.999Z</time></trkpt><trkpt lat="44.48267911816721" lon="7.994312960703815"><ele>676.0</ele><time>2026-04-08T16:26:09.999Z</time></trkpt><trkpt lat="44.482623390252066" lon="7.99452355996113"><ele>676.3333333333334</ele><time>2026-04-08T16:26:10.999Z</time></trkpt><trkpt lat="44.48252269896765" lon="7.994703471462593"><ele>676.6666666666666</ele><time>2026-04-08T16:26:11.999Z</time></trkpt><trkpt lat="44.48241620285097" lon="7.994888282950964"><ele>677.0</ele><time>2026-04-08T16:26:12.999Z</time></trkpt><trkpt lat="44.48230306836281" lon="7.995068697090026"><ele>677.0</ele><time>2026-04-08T16:26:13.999Z</time></trkpt><trkpt lat="44.48218209023982" lon="7.995260581710537"><ele>677.0</ele><time>2026-04-08T16:26:14.999Z</time></trkpt><trkpt lat="44.48206089919625" lon="7.995459176186313"><ele>677.0</ele><time>2026-04-08T16:26:15.999Z</time></trkpt><trkpt lat="44.481951562379514" lon="7.99566857684113"><ele>676.0</ele><time>2026-04-08T16:26:16.999Z</time></trkpt><trkpt lat="44.48182418630483" lon="7.9958290650711135"><ele>675.0</ele><time>2026-04-08T16:26:17.999Z</time></trkpt><trkpt lat="44.481695702245474" lon="7.995994858233129"><ele>674.0</ele><time>2026-04-08T16:26:18.999Z</time></trkpt><trkpt lat="44.48155991808832" lon="7.996137158432585"><ele>674.3333333333333</ele><time>2026-04-08T16:26:19.999Z</time></trkpt><trkpt lat="44.481430325056465" lon="7.996263514793998"><ele>674.6666666666666</ele><time>2026-04-08T16:26:20.999Z</time></trkpt><trkpt lat="44.48130721394831" lon="7.996383369442824"><ele>675.0</ele><time>2026-04-08T16:26:21.999Z</time></trkpt><trkpt lat="44.481186631339" lon="7.996501265782796"><ele>675.0</ele><time>2026-04-08T16:26:22.999Z</time></trkpt><trkpt lat="44.48106411908858" lon="7.996621617722195"><ele>675.0</ele><time>2026-04-08T16:26:23.999Z</time></trkpt><trkpt lat="44.480950870249266" lon="7.996773227512324"><ele>675.0</ele><time>2026-04-08T16:26:24.999Z</time></trkpt><trkpt lat="44.48081979587903" lon="7.996896839100594"><ele>676.3333333333334</ele><time>2026-04-08T16:26:25.999Z</time></trkpt><trkpt lat="44.48068759811284" lon="7.99701875402434"><ele>677.6666666666667</ele><time>2026-04-08T16:26:26.999Z</time></trkpt><trkpt lat="44.480557923800376" lon="7.9971451633143955"><ele>679.0</ele><time>2026-04-08T16:26:27.999Z</time></trkpt><trkpt lat="44.48043644737923" lon="7.997268604584008"><ele>680.0</ele><time>2026-04-08T16:26:28.999Z</time></trkpt><trkpt lat="44.480306249450415" lon="7.997390783564283"><ele>681.0</ele><time>2026-04-08T16:26:29.999Z</time></trkpt><trkpt lat="44.48017510853564" lon="7.997516892102145"><ele>682.0</ele><time>2026-04-08T16:26:30.999Z</time></trkpt><trkpt lat="44.480051376172824" lon="7.9976453536522305"><ele>684.0</ele><time>2026-04-08T16:26:31.999Z</time></trkpt><trkpt lat="44.479923749315475" lon="7.997771292161149"><ele>686.0</ele><time>2026-04-08T16:26:32.999Z</time></trkpt><trkpt lat="44.479797412293124" lon="7.997893235043076"><ele>688.0</ele><time>2026-04-08T16:26:33.999Z</time></trkpt><trkpt lat="44.479688501657655" lon="7.99799682481278"><ele>690.0</ele><time>2026-04-08T16:26:34.999Z</time></trkpt><trkpt lat="44.47958808588924" lon="7.998092587758157"><ele>690.75</ele><time>2026-04-08T16:26:35.999Z</time></trkpt><trkpt lat="44.47948075010018" lon="7.998183775113075"><ele>691.5</ele><time>2026-04-08T16:26:36.999Z</time></trkpt><trkpt lat="44.479356391679026" lon="7.998232848149337"><ele>692.25</ele><time>2026-04-08T16:26:37.999Z</time></trkpt><trkpt lat="44.47922029843368" lon="7.998278852959805"><ele>693.0</ele><time>2026-04-08T16:26:38.999Z</time></trkpt><trkpt lat="44.47907728987893" lon="7.998345187808525"><ele>696.6666666666666</ele><time>2026-04-08T16:26:39.999Z</time></trkpt><trkpt lat="44.47893473601227" lon="7.9983946452822705"><ele>700.3333333333333</ele><time>2026-04-08T16:26:40.999Z</time></trkpt><trkpt lat="44.478776492494625" lon="7.998422937329628"><ele>704.0</ele><time>2026-04-08T16:26:41.999Z</time></trkpt><trkpt lat="44.47861359155761" lon="7.998475112473665"><ele>704.0</ele><time>2026-04-08T16:26:43Z</time></trkpt><trkpt lat="44.47845723141335" lon="7.99852507617844"><ele>704.0</ele><time>2026-04-08T16:26:44Z</time></trkpt><trkpt lat="44.47828728920041" lon="7.998579379930758"><ele>704.0</ele><time>2026-04-08T16:26:45Z</time></trkpt><trkpt lat="44.47812274954534" lon="7.998625006531432"><ele>704.0</ele><time>2026-04-08T16:26:46Z</time></trkpt><trkpt lat="44.47795913851382" lon="7.998666160121822"><ele>704.0</ele><time>2026-04-08T16:26:47Z</time></trkpt><trkpt lat="44.47780954244413" lon="7.998719205959148"><ele>704.0</ele><time>2026-04-08T16:26:48Z</time></trkpt><trkpt lat="44.47766157657303" lon="7.998730606304614"><ele>705.0</ele><time>2026-04-08T16:26:49Z</time></trkpt><trkpt lat="44.4775495297439" lon="7.9987537664463435"><ele>706.0</ele><time>2026-04-08T16:26:50Z</time></trkpt><trkpt lat="44.47746033901161" lon="7.998778511840536"><ele>707.0</ele><time>2026-04-08T16:26:51Z</time></trkpt><trkpt lat="44.477390103997436" lon="7.9988105845597"><ele>708.0</ele><time>2026-04-08T16:26:52Z</time></trkpt><trkpt lat="44.47730376901351" lon="7.998885920241622"><ele>709.0</ele><time>2026-04-08T16:26:54Z</time></trkpt><trkpt lat="44.47727874252812" lon="7.999010300577722"><ele>709.0</ele><time>2026-04-08T16:26:56Z</time></trkpt><trkpt lat="44.47735586079589" lon="7.999151619468342"><ele>709.0</ele><time>2026-04-08T16:26:58Z</time></trkpt><trkpt lat="44.47741517265268" lon="7.9992162350126"><ele>709.0</ele><time>2026-04-08T16:26:59Z</time></trkpt><trkpt lat="44.477495771665005" lon="7.999272756183569"><ele>709.0</ele><time>2026-04-08T16:27:00Z</time></trkpt><trkpt lat="44.47756969512215" lon="7.999323184423195"><ele>709.0</ele><time>2026-04-08T16:27:01Z</time></trkpt><trkpt lat="44.477652692564654" lon="7.999391279908797"><ele>710.6666666666667</ele><time>2026-04-08T16:27:02Z</time></trkpt><trkpt lat="44.4777308168297" lon="7.999470054695416"><ele>712.3333333333334</ele><time>2026-04-08T16:27:03Z</time></trkpt><trkpt lat="44.47780431858155" lon="7.999545565615134"><ele>714.0</ele><time>2026-04-08T16:27:04Z</time></trkpt><trkpt lat="44.477866711234526" lon="7.999624189618635"><ele>715.6666666666666</ele><time>2026-04-08T16:27:05Z</time></trkpt><trkpt lat="44.47789517342483" lon="7.999732912158188"><ele>717.3333333333333</ele><time>2026-04-08T16:27:06Z</time></trkpt><trkpt lat="44.477891179625665" lon="7.9998444907963355"><ele>719.0</ele><time>2026-04-08T16:27:07Z</time></trkpt><trkpt lat="44.47786593767557" lon="7.999950991605728"><ele>719.0</ele><time>2026-04-08T16:27:08Z</time></trkpt><trkpt lat="44.47782443337986" lon="8.000073455941243"><ele>719.0</ele><time>2026-04-08T16:27:09Z</time></trkpt><trkpt lat="44.47776939118588" lon="8.000187694045426"><ele>719.0</ele><time>2026-04-08T16:27:10Z</time></trkpt><trkpt lat="44.4776925416339" lon="8.000361501656835"><ele>719.0</ele><time>2026-04-08T16:27:11Z</time></trkpt><trkpt lat="44.477614913691205" lon="8.000522208681469"><ele>719.0</ele><time>2026-04-08T16:27:12Z</time></trkpt><trkpt lat="44.47753467884631" lon="8.000648239375126"><ele>719.0</ele><time>2026-04-08T16:27:13Z</time></trkpt><trkpt lat="44.47745969345815" lon="8.000817046685441"><ele>719.0</ele><time>2026-04-08T16:27:14Z</time></trkpt><trkpt lat="44.47738184391403" lon="8.000997841456233"><ele>719.0</ele><time>2026-04-08T16:27:15Z</time></trkpt><trkpt lat="44.47730375038566" lon="8.001170473119375"><ele>716.6666666666666</ele><time>2026-04-08T16:27:16Z</time></trkpt><trkpt lat="44.477217885340856" lon="8.001337902131686"><ele>714.3333333333334</ele><time>2026-04-08T16:27:17Z</time></trkpt><trkpt lat="44.47712104329017" lon="8.001527197162684"><ele>712.0</ele><time>2026-04-08T16:27:18Z</time></trkpt><trkpt lat="44.47703721814351" lon="8.001700653769117"><ele>711.75</ele><time>2026-04-08T16:27:19Z</time></trkpt><trkpt lat="44.476948922231" lon="8.001866410883082"><ele>711.5</ele><time>2026-04-08T16:27:20Z</time></trkpt><trkpt lat="44.47687684317059" lon="8.002022408688443"><ele>711.25</ele><time>2026-04-08T16:27:21Z</time></trkpt><trkpt lat="44.4767953480804" lon="8.002188765794594"><ele>711.0</ele><time>2026-04-08T16:27:22Z</time></trkpt><trkpt lat="44.47672614016677" lon="8.002345087658917"><ele>710.5</ele><time>2026-04-08T16:27:23Z</time></trkpt><trkpt lat="44.47665985518962" lon="8.00250122874633"><ele>710.0</ele><time>2026-04-08T16:27:24Z</time></trkpt><trkpt lat="44.47660838199997" lon="8.0026446924883"><ele>709.5</ele><time>2026-04-08T16:27:25Z</time></trkpt><trkpt lat="44.47656620349854" lon="8.002797420010848"><ele>709.0</ele><time>2026-04-08T16:27:26Z</time></trkpt><trkpt lat="44.47653839028981" lon="8.002945623224852"><ele>709.0</ele><time>2026-04-08T16:27:27Z</time></trkpt><trkpt lat="44.47652056923836" lon="8.003108267780812"><ele>709.0</ele><time>2026-04-08T16:27:28Z</time></trkpt><trkpt lat="44.476508143843965" lon="8.003265604430686"><ele>709.0</ele><time>2026-04-08T16:27:29Z</time></trkpt><trkpt lat="44.47649368538594" lon="8.00341388971939"><ele>709.0</ele><time>2026-04-08T16:27:30Z</time></trkpt><trkpt lat="44.47648140082853" lon="8.003579288712778"><ele>707.6</ele><time>2026-04-08T16:27:31Z</time></trkpt><trkpt lat="44.47646200427636" lon="8.003724307259576"><ele>706.2</ele><time>2026-04-08T16:27:32Z</time></trkpt><trkpt lat="44.47644491561999" lon="8.003863977683556"><ele>704.8000000000001</ele><time>2026-04-08T16:27:33Z</time></trkpt><trkpt lat="44.476427575008" lon="8.004015064327527"><ele>703.4000000000001</ele><time>2026-04-08T16:27:34Z</time></trkpt><trkpt lat="44.476411630985105" lon="8.00416306995609"><ele>702.0</ele><time>2026-04-08T16:27:35Z</time></trkpt><trkpt lat="44.476391131277275" lon="8.004314541712331"><ele>700.75</ele><time>2026-04-08T16:27:36Z</time></trkpt><trkpt lat="44.476370077504626" lon="8.004471119367883"><ele>699.5</ele><time>2026-04-08T16:27:37Z</time></trkpt><trkpt lat="44.476346817224375" lon="8.004626547258392"><ele>698.25</ele><time>2026-04-08T16:27:38Z</time></trkpt><trkpt lat="44.47632807936456" lon="8.004777379180377"><ele>697.0</ele><time>2026-04-08T16:27:39Z</time></trkpt><trkpt lat="44.47630340677362" lon="8.004937828115452"><ele>696.6</ele><time>2026-04-08T16:27:39.999Z</time></trkpt><trkpt lat="44.47628386896377" lon="8.005089582969948"><ele>696.2</ele><time>2026-04-08T16:27:40.999Z</time></trkpt><trkpt lat="44.47626391366827" lon="8.005225726172677"><ele>695.8</ele><time>2026-04-08T16:27:41.999Z</time></trkpt><trkpt lat="44.47622799404886" lon="8.005375600055947"><ele>695.4</ele><time>2026-04-08T16:27:42.999Z</time></trkpt><trkpt lat="44.4762010044006" lon="8.005517823482672"><ele>695.0</ele><time>2026-04-08T16:27:43.999Z</time></trkpt><trkpt lat="44.476169068013775" lon="8.00566536975704"><ele>694.6</ele><time>2026-04-08T16:27:44.999Z</time></trkpt><trkpt lat="44.47613537649217" lon="8.005815125458852"><ele>694.2</ele><time>2026-04-08T16:27:45.999Z</time></trkpt><trkpt lat="44.47610874707808" lon="8.005965794485874"><ele>693.8</ele><time>2026-04-08T16:27:46.999Z</time></trkpt><trkpt lat="44.47607362321424" lon="8.006110133087734"><ele>693.4</ele><time>2026-04-08T16:27:47.999Z</time></trkpt><trkpt lat="44.476040894057405" lon="8.00626608447993"><ele>693.0</ele><time>2026-04-08T16:27:48.999Z</time></trkpt><trkpt lat="44.47600908895858" lon="8.006413219452785"><ele>693.0</ele><time>2026-04-08T16:27:49.999Z</time></trkpt><trkpt lat="44.475977345508056" lon="8.006570136700542"><ele>693.0</ele><time>2026-04-08T16:27:50.999Z</time></trkpt><trkpt lat="44.47593967011793" lon="8.00671913452597"><ele>693.0</ele><time>2026-04-08T16:27:51.999Z</time></trkpt><trkpt lat="44.47590463618405" lon="8.006873401153541"><ele>693.0</ele><time>2026-04-08T16:27:52.999Z</time></trkpt><trkpt lat="44.475874966310315" lon="8.00703227523674"><ele>694.5</ele><time>2026-04-08T16:27:53.999Z</time></trkpt><trkpt lat="44.47584783030599" lon="8.007191254115902"><ele>696.0</ele><time>2026-04-08T16:27:54.999Z</time></trkpt><trkpt lat="44.47581842489389" lon="8.007348568807322"><ele>697.5</ele><time>2026-04-08T16:27:55.999Z</time></trkpt><trkpt lat="44.47578939857466" lon="8.007497315676982"><ele>699.0</ele><time>2026-04-08T16:27:56.999Z</time></trkpt><trkpt lat="44.475763867381794" lon="8.007656732092748"><ele>700.75</ele><time>2026-04-08T16:27:57.999Z</time></trkpt><trkpt lat="44.475744823167815" lon="8.007819211774091"><ele>702.5</ele><time>2026-04-08T16:27:58.999Z</time></trkpt><trkpt lat="44.475716613753285" lon="8.0079942935273"><ele>704.25</ele><time>2026-04-08T16:27:59.999Z</time></trkpt><trkpt lat="44.47570395209536" lon="8.00814637067158"><ele>706.0</ele><time>2026-04-08T16:28:00.999Z</time></trkpt><trkpt lat="44.47569390725487" lon="8.008308145068577"><ele>705.5</ele><time>2026-04-08T16:28:01.999Z</time></trkpt><trkpt lat="44.47565873864322" lon="8.008471164440087"><ele>705.0</ele><time>2026-04-08T16:28:02.999Z</time></trkpt><trkpt lat="44.47561656504978" lon="8.008637577056545"><ele>704.5</ele><time>2026-04-08T16:28:03.999Z</time></trkpt><trkpt lat="44.47556206277248" lon="8.008793515505445"><ele>704.0</ele><time>2026-04-08T16:28:04.999Z</time></trkpt><trkpt lat="44.475501406242195" lon="8.008923431331601"><ele>704.0</ele><time>2026-04-08T16:28:05.999Z</time></trkpt><trkpt lat="44.475466015791255" lon="8.009083514765713"><ele>704.0</ele><time>2026-04-08T16:28:06.999Z</time></trkpt><trkpt lat="44.4754221938697" lon="8.00924169194294"><ele>704.0</ele><time>2026-04-08T16:28:07.999Z</time></trkpt><trkpt lat="44.475380691644865" lon="8.009407086299198"><ele>704.0</ele><time>2026-04-08T16:28:08.999Z</time></trkpt><trkpt lat="44.47534371387239" lon="8.009568966756104"><ele>704.75</ele><time>2026-04-08T16:28:09.999Z</time></trkpt><trkpt lat="44.47529221373842" lon="8.009715611005781"><ele>705.5</ele><time>2026-04-08T16:28:10.999Z</time></trkpt><trkpt lat="44.47525910594878" lon="8.009868287629686"><ele>706.25</ele><time>2026-04-08T16:28:11.999Z</time></trkpt><trkpt lat="44.4752257364132" lon="8.010025521558696"><ele>707.0</ele><time>2026-04-08T16:28:12.999Z</time></trkpt><trkpt lat="44.4751944956619" lon="8.01017620726622"><ele>707.0</ele><time>2026-04-08T16:28:13.999Z</time></trkpt><trkpt lat="44.475162946234256" lon="8.010326683266255"><ele>707.0</ele><time>2026-04-08T16:28:14.999Z</time></trkpt><trkpt lat="44.47513054688315" lon="8.010480266376755"><ele>707.0</ele><time>2026-04-08T16:28:15.999Z</time></trkpt><trkpt lat="44.47510166516185" lon="8.010624165060573"><ele>707.0</ele><time>2026-04-08T16:28:16.999Z</time></trkpt><trkpt lat="44.47507234779081" lon="8.010762831569684"><ele>707.0</ele><time>2026-04-08T16:28:17.999Z</time></trkpt><trkpt lat="44.47504094382589" lon="8.010905563904089"><ele>707.2</ele><time>2026-04-08T16:28:18.999Z</time></trkpt><trkpt lat="44.475003527983496" lon="8.011057263464567"><ele>707.4000000000001</ele><time>2026-04-08T16:28:19.999Z</time></trkpt><trkpt lat="44.47496556318869" lon="8.011196670558999"><ele>707.5999999999999</ele><time>2026-04-08T16:28:20.999Z</time></trkpt><trkpt lat="44.474927688750455" lon="8.011341324342556"><ele>707.8</ele><time>2026-04-08T16:28:21.999Z</time></trkpt><trkpt lat="44.4748693241086" lon="8.011477208020503"><ele>708.0</ele><time>2026-04-08T16:28:22.999Z</time></trkpt><trkpt lat="44.474824684344355" lon="8.011608450944989"><ele>707.8</ele><time>2026-04-08T16:28:23.999Z</time></trkpt><trkpt lat="44.47478452559849" lon="8.011737097432462"><ele>707.5999999999999</ele><time>2026-04-08T16:28:24.999Z</time></trkpt><trkpt lat="44.4747096734017" lon="8.011860152062498"><ele>707.4000000000001</ele><time>2026-04-08T16:28:25.999Z</time></trkpt><trkpt lat="44.47466117671269" lon="8.011981880462416"><ele>707.2</ele><time>2026-04-08T16:28:26.999Z</time></trkpt><trkpt lat="44.474608128874486" lon="8.012118679140622"><ele>707.0</ele><time>2026-04-08T16:28:27.999Z</time></trkpt><trkpt lat="44.47455990409356" lon="8.01225356448426"><ele>707.6</ele><time>2026-04-08T16:28:28.999Z</time></trkpt><trkpt lat="44.4745101955051" lon="8.012388704957933"><ele>708.2</ele><time>2026-04-08T16:28:29.999Z</time></trkpt><trkpt lat="44.474458244889824" lon="8.012519215766906"><ele>708.8</ele><time>2026-04-08T16:28:30.999Z</time></trkpt><trkpt lat="44.474413604897244" lon="8.012644614655557"><ele>709.4</ele><time>2026-04-08T16:28:31.999Z</time></trkpt><trkpt lat="44.47436804788788" lon="8.01276554923029"><ele>710.0</ele><time>2026-04-08T16:28:32.999Z</time></trkpt><trkpt lat="44.47432171658765" lon="8.012894495715699"><ele>710.0</ele><time>2026-04-08T16:28:33.999Z</time></trkpt><trkpt lat="44.474272378630594" lon="8.013028144022215"><ele>710.0</ele><time>2026-04-08T16:28:34.999Z</time></trkpt><trkpt lat="44.474223343005384" lon="8.01316637021427"><ele>710.0</ele><time>2026-04-08T16:28:35.999Z</time></trkpt><trkpt lat="44.47417099651422" lon="8.01329452648545"><ele>710.0</ele><time>2026-04-08T16:28:36.999Z</time></trkpt><trkpt lat="44.47412478146363" lon="8.013419160378676"><ele>710.0</ele><time>2026-04-08T16:28:37.999Z</time></trkpt><trkpt lat="44.4740813245837" lon="8.01355050907109"><ele>710.4</ele><time>2026-04-08T16:28:38.999Z</time></trkpt><trkpt lat="44.474028434693146" lon="8.013682352812463"><ele>710.8</ele><time>2026-04-08T16:28:39.999Z</time></trkpt><trkpt lat="44.47398334841653" lon="8.013799599341663"><ele>711.2</ele><time>2026-04-08T16:28:40.999Z</time></trkpt><trkpt lat="44.473943053767435" lon="8.013909839117824"><ele>711.6</ele><time>2026-04-08T16:28:41.999Z</time></trkpt><trkpt lat="44.473908375942656" lon="8.014023436160729"><ele>712.0</ele><time>2026-04-08T16:28:42.999Z</time></trkpt><trkpt lat="44.4738694974763" lon="8.014130385633159"><ele>712.2</ele><time>2026-04-08T16:28:43.999Z</time></trkpt><trkpt lat="44.47383257186316" lon="8.014232769162943"><ele>712.4000000000001</ele><time>2026-04-08T16:28:44.999Z</time></trkpt><trkpt lat="44.473788397125965" lon="8.014345754314423"><ele>712.5999999999999</ele><time>2026-04-08T16:28:45.999Z</time></trkpt><trkpt lat="44.473732247316185" lon="8.014454070795749"><ele>712.8</ele><time>2026-04-08T16:28:46.999Z</time></trkpt><trkpt lat="44.47367804744638" lon="8.01456536754968"><ele>713.0</ele><time>2026-04-08T16:28:47.999Z</time></trkpt><trkpt lat="44.47362484321091" lon="8.014695074400608"><ele>712.0</ele><time>2026-04-08T16:28:49Z</time></trkpt><trkpt lat="44.473575217711115" lon="8.014827277242123"><ele>711.0</ele><time>2026-04-08T16:28:50Z</time></trkpt><trkpt lat="44.473521327636526" lon="8.0149654787184"><ele>710.0</ele><time>2026-04-08T16:28:51Z</time></trkpt><trkpt lat="44.473439040882674" lon="8.015095372545545"><ele>709.0</ele><time>2026-04-08T16:28:52Z</time></trkpt><trkpt lat="44.47338825074219" lon="8.015232826478776"><ele>709.0</ele><time>2026-04-08T16:28:53Z</time></trkpt><trkpt lat="44.473340617479046" lon="8.015371416884555"><ele>709.0</ele><time>2026-04-08T16:28:54Z</time></trkpt><trkpt lat="44.47329676420193" lon="8.015520473215929"><ele>709.0</ele><time>2026-04-08T16:28:55Z</time></trkpt><trkpt lat="44.473262755045475" lon="8.015674294300124"><ele>709.0</ele><time>2026-04-08T16:28:56Z</time></trkpt><trkpt lat="44.473241812856315" lon="8.015838325131066"><ele>709.2</ele><time>2026-04-08T16:28:57Z</time></trkpt><trkpt lat="44.47321723964064" lon="8.015997191816991"><ele>709.4000000000001</ele><time>2026-04-08T16:28:58Z</time></trkpt><trkpt lat="44.47320688828405" lon="8.01614846329548"><ele>709.6</ele><time>2026-04-08T16:28:59Z</time></trkpt><trkpt lat="44.473193835036085" lon="8.016293822121485"><ele>709.8</ele><time>2026-04-08T16:29:00Z</time></trkpt><trkpt lat="44.473174398551386" lon="8.016452143640372"><ele>710.0</ele><time>2026-04-08T16:29:01Z</time></trkpt><trkpt lat="44.473138949596574" lon="8.01660072808451"><ele>710.0</ele><time>2026-04-08T16:29:02Z</time></trkpt><trkpt lat="44.47311901599435" lon="8.016760347112777"><ele>710.0</ele><time>2026-04-08T16:29:03Z</time></trkpt><trkpt lat="44.47309990163392" lon="8.016913405918652"><ele>710.0</ele><time>2026-04-08T16:29:04Z</time></trkpt><trkpt lat="44.47307858225041" lon="8.017084121635731"><ele>710.0</ele><time>2026-04-08T16:29:05Z</time></trkpt><trkpt lat="44.47305794490759" lon="8.017249735197876"><ele>710.0</ele><time>2026-04-08T16:29:06Z</time></trkpt><trkpt lat="44.47303934565201" lon="8.01740093277574"><ele>710.0</ele><time>2026-04-08T16:29:07Z</time></trkpt><trkpt lat="44.473036030906606" lon="8.017554247497136"><ele>710.0</ele><time>2026-04-08T16:29:08Z</time></trkpt><trkpt lat="44.47298531174323" lon="8.017721273347728"><ele>710.0</ele><time>2026-04-08T16:29:09Z</time></trkpt><trkpt lat="44.47295119675188" lon="8.017874974775248"><ele>707.5</ele><time>2026-04-08T16:29:10Z</time></trkpt><trkpt lat="44.47290932876154" lon="8.018041465061577"><ele>705.0</ele><time>2026-04-08T16:29:11Z</time></trkpt><trkpt lat="44.47284635456444" lon="8.018196474403217"><ele>702.5</ele><time>2026-04-08T16:29:12Z</time></trkpt><trkpt lat="44.47276352032689" lon="8.018347709272357"><ele>700.0</ele><time>2026-04-08T16:29:13Z</time></trkpt><trkpt lat="44.47266846257351" lon="8.018477725981187"><ele>700.0</ele><time>2026-04-08T16:29:14Z</time></trkpt><trkpt lat="44.47258542304182" lon="8.01861017166743"><ele>700.0</ele><time>2026-04-08T16:29:15Z</time></trkpt><trkpt lat="44.4725078825473" lon="8.018736673970196"><ele>700.0</ele><time>2026-04-08T16:29:16Z</time></trkpt><trkpt lat="44.47243946507158" lon="8.018837586817762"><ele>700.0</ele><time>2026-04-08T16:29:17Z</time></trkpt><trkpt lat="44.47237800962125" lon="8.018931152321793"><ele>700.0</ele><time>2026-04-08T16:29:18Z</time></trkpt><trkpt lat="44.472328289802604" lon="8.019034660921527"><ele>700.0</ele><time>2026-04-08T16:29:19Z</time></trkpt><trkpt lat="44.47230157886315" lon="8.019149799132189"><ele>700.0</ele><time>2026-04-08T16:29:20Z</time></trkpt><trkpt lat="44.47230221609586" lon="8.019267123065637"><ele>700.0</ele><time>2026-04-08T16:29:21Z</time></trkpt><trkpt lat="44.472325904529725" lon="8.019385485827057"><ele>700.0</ele><time>2026-04-08T16:29:22Z</time></trkpt><trkpt lat="44.47235912298903" lon="8.019521228099308"><ele>700.0</ele><time>2026-04-08T16:29:23Z</time></trkpt><trkpt lat="44.47243663642985" lon="8.019631741348956"><ele>701.6</ele><time>2026-04-08T16:29:24Z</time></trkpt><trkpt lat="44.47251669688168" lon="8.019743508039795"><ele>703.2</ele><time>2026-04-08T16:29:25Z</time></trkpt><trkpt lat="44.47259787525221" lon="8.019830654365057"><ele>704.8</ele><time>2026-04-08T16:29:26Z</time></trkpt><trkpt lat="44.47265269025548" lon="8.019914743882431"><ele>706.4</ele><time>2026-04-08T16:29:27Z</time></trkpt><trkpt lat="44.47270545128001" lon="8.020016661824837"><ele>708.0</ele><time>2026-04-08T16:29:28Z</time></trkpt><trkpt lat="44.47275277451023" lon="8.020122293323203"><ele>708.0</ele><time>2026-04-08T16:29:29Z</time></trkpt><trkpt lat="44.472776108361984" lon="8.020249360689387"><ele>708.0</ele><time>2026-04-08T16:29:30Z</time></trkpt><trkpt lat="44.472791339532236" lon="8.020391817015609"><ele>708.0</ele><time>2026-04-08T16:29:31Z</time></trkpt><trkpt lat="44.47278099056454" lon="8.020528583673148"><ele>708.0</ele><time>2026-04-08T16:29:32Z</time></trkpt><trkpt lat="44.472753370835306" lon="8.020673489463661"><ele>708.0</ele><time>2026-04-08T16:29:33Z</time></trkpt><trkpt lat="44.47270708605586" lon="8.020821398263312"><ele>707.8</ele><time>2026-04-08T16:29:34Z</time></trkpt><trkpt lat="44.47262367918973" lon="8.02092317997745"><ele>707.5999999999999</ele><time>2026-04-08T16:29:35Z</time></trkpt><trkpt lat="44.47254540790787" lon="8.021039312781218"><ele>707.4000000000001</ele><time>2026-04-08T16:29:36Z</time></trkpt><trkpt lat="44.47247108277482" lon="8.02115051256357"><ele>707.2</ele><time>2026-04-08T16:29:37Z</time></trkpt><trkpt lat="44.472411882465394" lon="8.021272734119396"><ele>707.0</ele><time>2026-04-08T16:29:38Z</time></trkpt><trkpt lat="44.47233064603511" lon="8.021372707379506"><ele>707.0</ele><time>2026-04-08T16:29:39Z</time></trkpt><trkpt lat="44.47225565233982" lon="8.021481368950363"><ele>707.0</ele><time>2026-04-08T16:29:40Z</time></trkpt><trkpt lat="44.4721843639096" lon="8.021595767851212"><ele>707.0</ele><time>2026-04-08T16:29:41Z</time></trkpt><trkpt lat="44.47211202531998" lon="8.021705249951262"><ele>707.0</ele><time>2026-04-08T16:29:42Z</time></trkpt><trkpt lat="44.47203833848386" lon="8.021814548055158"><ele>707.0</ele><time>2026-04-08T16:29:43Z</time></trkpt><trkpt lat="44.47196738070236" lon="8.021921150136867"><ele>704.4000000000001</ele><time>2026-04-08T16:29:43.999Z</time></trkpt><trkpt lat="44.47189691885152" lon="8.022030597638315"><ele>701.8000000000001</ele><time>2026-04-08T16:29:44.999Z</time></trkpt><trkpt lat="44.47182993726883" lon="8.022131114823047"><ele>699.2</ele><time>2026-04-08T16:29:45.999Z</time></trkpt><trkpt lat="44.47176151346349" lon="8.022230131728325"><ele>696.6</ele><time>2026-04-08T16:29:46.999Z</time></trkpt><trkpt lat="44.471696570411915" lon="8.022333572206328"><ele>694.0</ele><time>2026-04-08T16:29:47.999Z</time></trkpt><trkpt lat="44.47163574617793" lon="8.02243003894107"><ele>695.8000000000001</ele><time>2026-04-08T16:29:48.999Z</time></trkpt><trkpt lat="44.471574352388366" lon="8.022526823907786"><ele>697.6</ele><time>2026-04-08T16:29:49.999Z</time></trkpt><trkpt lat="44.47151176718494" lon="8.022628282930194"><ele>699.4</ele><time>2026-04-08T16:29:50.999Z</time></trkpt><trkpt lat="44.47144373765822" lon="8.02273372540223"><ele>701.2</ele><time>2026-04-08T16:29:51.999Z</time></trkpt><trkpt lat="44.47134960323501" lon="8.022826285285594"><ele>703.0</ele><time>2026-04-08T16:29:52.999Z</time></trkpt><trkpt lat="44.47128072356253" lon="8.02293484837638"><ele>702.2</ele><time>2026-04-08T16:29:53.999Z</time></trkpt><trkpt lat="44.47121538563124" lon="8.023034592773156"><ele>701.4</ele><time>2026-04-08T16:29:54.999Z</time></trkpt><trkpt lat="44.47114429675584" lon="8.023140765849616"><ele>700.6</ele><time>2026-04-08T16:29:55.999Z</time></trkpt><trkpt lat="44.471071801682996" lon="8.023251704227505"><ele>699.8000000000001</ele><time>2026-04-08T16:29:56.999Z</time></trkpt><trkpt lat="44.471002314125904" lon="8.023365205734152"><ele>699.0</ele><time>2026-04-08T16:29:57.999Z</time></trkpt><trkpt lat="44.47092959612503" lon="8.023481566066035"><ele>699.0</ele><time>2026-04-08T16:29:58.999Z</time></trkpt><trkpt lat="44.47085974644648" lon="8.02359908503562"><ele>699.0</ele><time>2026-04-08T16:29:59.999Z</time></trkpt><trkpt lat="44.47079428372642" lon="8.023715414132083"><ele>699.0</ele><time>2026-04-08T16:30:00.999Z</time></trkpt><trkpt lat="44.47072890252035" lon="8.023842145994264"><ele>699.0</ele><time>2026-04-08T16:30:01.999Z</time></trkpt><trkpt lat="44.47067206429327" lon="8.023972288599206"><ele>699.0</ele><time>2026-04-08T16:30:02.999Z</time></trkpt><trkpt lat="44.47062105304165" lon="8.024119146036742"><ele>700.0</ele><time>2026-04-08T16:30:03.999Z</time></trkpt><trkpt lat="44.470582474576645" lon="8.024259641996021"><ele>701.0</ele><time>2026-04-08T16:30:04.999Z</time></trkpt><trkpt lat="44.470547489479095" lon="8.024402275836605"><ele>702.0</ele><time>2026-04-08T16:30:05.999Z</time></trkpt><trkpt lat="44.470511748276806" lon="8.024548812153249"><ele>703.0</ele><time>2026-04-08T16:30:06.999Z</time></trkpt><trkpt lat="44.470476088974905" lon="8.024700889312717"><ele>704.0</ele><time>2026-04-08T16:30:07.999Z</time></trkpt><trkpt lat="44.47044744438776" lon="8.024853914813662"><ele>700.2</ele><time>2026-04-08T16:30:08.999Z</time></trkpt><trkpt lat="44.47041140612276" lon="8.024996615283818"><ele>696.4000000000001</ele><time>2026-04-08T16:30:09.999Z</time></trkpt><trkpt lat="44.47037704167356" lon="8.025142453862832"><ele>692.6</ele><time>2026-04-08T16:30:10.999Z</time></trkpt><trkpt lat="44.470330431413565" lon="8.025281356067486"><ele>688.8</ele><time>2026-04-08T16:30:11.999Z</time></trkpt><trkpt lat="44.47029435961326" lon="8.025425196126346"><ele>685.0</ele><time>2026-04-08T16:30:12.999Z</time></trkpt><trkpt lat="44.4702710170224" lon="8.025585229564243"><ele>685.0</ele><time>2026-04-08T16:30:13.999Z</time></trkpt><trkpt lat="44.47023082734977" lon="8.025731379768683"><ele>685.0</ele><time>2026-04-08T16:30:14.999Z</time></trkpt><trkpt lat="44.470186420544636" lon="8.025877408193729"><ele>685.0</ele><time>2026-04-08T16:30:15.999Z</time></trkpt><trkpt lat="44.4701141319019" lon="8.025999466546004"><ele>685.0</ele><time>2026-04-08T16:30:16.999Z</time></trkpt><trkpt lat="44.47003943482922" lon="8.026119725544993"><ele>689.0</ele><time>2026-04-08T16:30:17.999Z</time></trkpt><trkpt lat="44.46998038047799" lon="8.026252349091823"><ele>693.0</ele><time>2026-04-08T16:30:18.999Z</time></trkpt><trkpt lat="44.46989100313563" lon="8.02636163020342"><ele>697.0</ele><time>2026-04-08T16:30:19.999Z</time></trkpt><trkpt lat="44.46979636171866" lon="8.026468239040605"><ele>701.0</ele><time>2026-04-08T16:30:20.999Z</time></trkpt><trkpt lat="44.46970571715421" lon="8.02657984473215"><ele>701.75</ele><time>2026-04-08T16:30:21.999Z</time></trkpt><trkpt lat="44.4696175520291" lon="8.026698702015914"><ele>702.5</ele><time>2026-04-08T16:30:22.999Z</time></trkpt><trkpt lat="44.46953621002459" lon="8.026823736254006"><ele>703.25</ele><time>2026-04-08T16:30:23.999Z</time></trkpt><trkpt lat="44.46946646664325" lon="8.026945424991748"><ele>704.0</ele><time>2026-04-08T16:30:24.999Z</time></trkpt><trkpt lat="44.469401635911865" lon="8.027070618920986"><ele>704.0</ele><time>2026-04-08T16:30:25.999Z</time></trkpt><trkpt lat="44.469342551101114" lon="8.027212545731754"><ele>704.0</ele><time>2026-04-08T16:30:26.999Z</time></trkpt><trkpt lat="44.469294567859166" lon="8.027367935334084"><ele>704.0</ele><time>2026-04-08T16:30:27.999Z</time></trkpt><trkpt lat="44.469224615199536" lon="8.027517755925734"><ele>704.0</ele><time>2026-04-08T16:30:28.999Z</time></trkpt><trkpt lat="44.469190646000605" lon="8.027683689524515"><ele>706.2</ele><time>2026-04-08T16:30:29.999Z</time></trkpt><trkpt lat="44.46916490265966" lon="8.027844399051592"><ele>708.4000000000001</ele><time>2026-04-08T16:30:30.999Z</time></trkpt><trkpt lat="44.469163212165626" lon="8.028000878113408"><ele>710.6</ele><time>2026-04-08T16:30:31.999Z</time></trkpt><trkpt lat="44.46913536242603" lon="8.02815739230783"><ele>712.8</ele><time>2026-04-08T16:30:32.999Z</time></trkpt><trkpt lat="44.469128701272076" lon="8.028295630385992"><ele>715.0</ele><time>2026-04-08T16:30:33.999Z</time></trkpt><trkpt lat="44.469117169604836" lon="8.028429177533194"><ele>716.4</ele><time>2026-04-08T16:30:34.999Z</time></trkpt><trkpt lat="44.46908436289235" lon="8.028542276200724"><ele>717.8</ele><time>2026-04-08T16:30:35.999Z</time></trkpt><trkpt lat="44.469036222325315" lon="8.028641101822668"><ele>719.2</ele><time>2026-04-08T16:30:36.999Z</time></trkpt><trkpt lat="44.46896657639779" lon="8.028723126834322"><ele>720.6</ele><time>2026-04-08T16:30:37.999Z</time></trkpt><trkpt lat="44.46888132385985" lon="8.028780730750286"><ele>722.0</ele><time>2026-04-08T16:30:38.999Z</time></trkpt><trkpt lat="44.468783474373375" lon="8.028783912081877"><ele>721.2</ele><time>2026-04-08T16:30:39.999Z</time></trkpt><trkpt lat="44.468693574434276" lon="8.028807841439317"><ele>720.4000000000001</ele><time>2026-04-08T16:30:40.999Z</time></trkpt><trkpt lat="44.468590415252464" lon="8.028732183378313"><ele>719.5999999999999</ele><time>2026-04-08T16:30:41.999Z</time></trkpt><trkpt lat="44.46848707246931" lon="8.028713308907234"><ele>718.8</ele><time>2026-04-08T16:30:42.999Z</time></trkpt><trkpt lat="44.46840405511871" lon="8.02873082347596"><ele>718.0</ele><time>2026-04-08T16:30:43.999Z</time></trkpt><trkpt lat="44.46830451331408" lon="8.028753396617184"><ele>718.0</ele><time>2026-04-08T16:30:44.999Z</time></trkpt><trkpt lat="44.46819774599558" lon="8.028806675554758"><ele>718.0</ele><time>2026-04-08T16:30:45.999Z</time></trkpt><trkpt lat="44.46809740630641" lon="8.028870959560418"><ele>718.0</ele><time>2026-04-08T16:30:46.999Z</time></trkpt><trkpt lat="44.46800357808519" lon="8.028968252662409"><ele>718.0</ele><time>2026-04-08T16:30:47.999Z</time></trkpt><trkpt lat="44.46791886351712" lon="8.029087213168989"><ele>720.25</ele><time>2026-04-08T16:30:48.999Z</time></trkpt><trkpt lat="44.46783666005799" lon="8.029220380988741"><ele>722.5</ele><time>2026-04-08T16:30:49.999Z</time></trkpt><trkpt lat="44.46775904377798" lon="8.029365630759889"><ele>724.75</ele><time>2026-04-08T16:30:50.999Z</time></trkpt><trkpt lat="44.467695807067365" lon="8.029509954082965"><ele>727.0</ele><time>2026-04-08T16:30:51.999Z</time></trkpt><trkpt lat="44.467616235391084" lon="8.029599245400371"><ele>727.0</ele><time>2026-04-08T16:30:52.999Z</time></trkpt><trkpt lat="44.467544526667176" lon="8.02967690829479"><ele>727.0</ele><time>2026-04-08T16:30:53.999Z</time></trkpt><trkpt lat="44.46745512352826" lon="8.029721451092517"><ele>727.0</ele><time>2026-04-08T16:30:55Z</time></trkpt><trkpt lat="44.46736196275952" lon="8.02974699743047"><ele>727.0</ele><time>2026-04-08T16:30:56Z</time></trkpt><trkpt lat="44.4672410792246" lon="8.029747996460085"><ele>727.0</ele><time>2026-04-08T16:30:57Z</time></trkpt><trkpt lat="44.467121223682625" lon="8.029749775259054"><ele>728.0</ele><time>2026-04-08T16:30:58Z</time></trkpt><trkpt lat="44.46699131013008" lon="8.029752181077644"><ele>729.0</ele><time>2026-04-08T16:30:59Z</time></trkpt><trkpt lat="44.4668537897003" lon="8.029755461512407"><ele>730.0</ele><time>2026-04-08T16:31:00Z</time></trkpt><trkpt lat="44.46670774975227" lon="8.029784733261947"><ele>731.0</ele><time>2026-04-08T16:31:01Z</time></trkpt><trkpt lat="44.466593276847036" lon="8.029813840766234"><ele>731.0</ele><time>2026-04-08T16:31:02Z</time></trkpt><trkpt lat="44.46648729458491" lon="8.02983908662049"><ele>731.0</ele><time>2026-04-08T16:31:03Z</time></trkpt><trkpt lat="44.46640613440732" lon="8.029852496077027"><ele>731.0</ele><time>2026-04-08T16:31:04Z</time></trkpt><trkpt lat="44.46633847501372" lon="8.029919159161746"><ele>731.0</ele><time>2026-04-08T16:31:05Z</time></trkpt><trkpt lat="44.46626827168911" lon="8.029990919011446"><ele>731.0</ele><time>2026-04-08T16:31:06Z</time></trkpt><trkpt lat="44.46621237427802" lon="8.030059825146793"><ele>731.0</ele><time>2026-04-08T16:31:07Z</time></trkpt><trkpt lat="44.466166379729785" lon="8.03015450000071"><ele>731.4</ele><time>2026-04-08T16:31:08Z</time></trkpt><trkpt lat="44.46613208027659" lon="8.030277345550013"><ele>731.8</ele><time>2026-04-08T16:31:09Z</time></trkpt><trkpt lat="44.46611809215386" lon="8.030406369932896"><ele>732.1999999999999</ele><time>2026-04-08T16:31:10Z</time></trkpt><trkpt lat="44.466129922513566" lon="8.030547421529036"><ele>732.5999999999999</ele><time>2026-04-08T16:31:11Z</time></trkpt><trkpt lat="44.466161063957" lon="8.030701701592724"><ele>733.0</ele><time>2026-04-08T16:31:12Z</time></trkpt><trkpt lat="44.46620137401865" lon="8.03086524445749"><ele>733.0</ele><time>2026-04-08T16:31:13Z</time></trkpt><trkpt lat="44.46623862996748" lon="8.031029605212716"><ele>733.0</ele><time>2026-04-08T16:31:14Z</time></trkpt><trkpt lat="44.46627558442911" lon="8.031198149418433"><ele>733.0</ele><time>2026-04-08T16:31:15Z</time></trkpt><trkpt lat="44.4663273188907" lon="8.031384442541505"><ele>733.0</ele><time>2026-04-08T16:31:16Z</time></trkpt><trkpt lat="44.46637099704154" lon="8.031553425464518"><ele>740.5</ele><time>2026-04-08T16:31:17Z</time></trkpt><trkpt lat="44.46640680417028" lon="8.031707661667838"><ele>748.0</ele><time>2026-04-08T16:31:18Z</time></trkpt><trkpt lat="44.46643379082376" lon="8.031852828762363"><ele>755.5</ele><time>2026-04-08T16:31:19Z</time></trkpt><trkpt lat="44.466434994410015" lon="8.032014529783861"><ele>763.0</ele><time>2026-04-08T16:31:20Z</time></trkpt><trkpt lat="44.466417623644475" lon="8.032170901848318"><ele>763.0</ele><time>2026-04-08T16:31:21Z</time></trkpt><trkpt lat="44.46638720270588" lon="8.032326817217243"><ele>763.0</ele><time>2026-04-08T16:31:22Z</time></trkpt><trkpt lat="44.466331477516796" lon="8.032460995963579"><ele>763.0</ele><time>2026-04-08T16:31:23Z</time></trkpt><trkpt lat="44.466256168910874" lon="8.032581453209687"><ele>763.0</ele><time>2026-04-08T16:31:24Z</time></trkpt><trkpt lat="44.46616003282325" lon="8.032676794038187"><ele>760.0</ele><time>2026-04-08T16:31:25Z</time></trkpt><trkpt lat="44.46605978873877" lon="8.032764473192175"><ele>757.0</ele><time>2026-04-08T16:31:26Z</time></trkpt><trkpt lat="44.465941821352224" lon="8.032844445244825"><ele>754.0</ele><time>2026-04-08T16:31:27Z</time></trkpt><trkpt lat="44.4658405230597" lon="8.032957272738491"><ele>751.0</ele><time>2026-04-08T16:31:28Z</time></trkpt><trkpt lat="44.465739998858936" lon="8.03309119267682"><ele>751.0</ele><time>2026-04-08T16:31:29Z</time></trkpt><trkpt lat="44.46566003771138" lon="8.033260863050058"><ele>751.0</ele><time>2026-04-08T16:31:30Z</time></trkpt><trkpt lat="44.465579068473964" lon="8.033440013095456"><ele>751.0</ele><time>2026-04-08T16:31:31Z</time></trkpt><trkpt lat="44.465483722295005" lon="8.03361327410976"><ele>749.0</ele><time>2026-04-08T16:31:32Z</time></trkpt><trkpt lat="44.46537735517605" lon="8.033787312205172"><ele>747.0</ele><time>2026-04-08T16:31:33Z</time></trkpt><trkpt lat="44.46527891689672" lon="8.033951285782821"><ele>745.0</ele><time>2026-04-08T16:31:34Z</time></trkpt><trkpt lat="44.46517111332963" lon="8.034079081736758"><ele>750.6666666666667</ele><time>2026-04-08T16:31:35Z</time></trkpt><trkpt lat="44.465050835630784" lon="8.034216764569983"><ele>756.3333333333334</ele><time>2026-04-08T16:31:36Z</time></trkpt><trkpt lat="44.46492490046175" lon="8.03435184640416"><ele>762.0</ele><time>2026-04-08T16:31:37Z</time></trkpt><trkpt lat="44.464796239551596" lon="8.034475064219404"><ele>762.0</ele><time>2026-04-08T16:31:38Z</time></trkpt><trkpt lat="44.464653730131815" lon="8.03460334008995"><ele>762.0</ele><time>2026-04-08T16:31:39Z</time></trkpt><trkpt lat="44.46451407473409" lon="8.034731963782066"><ele>762.0</ele><time>2026-04-08T16:31:40Z</time></trkpt><trkpt lat="44.46437041528733" lon="8.034864209990765"><ele>764.3333333333333</ele><time>2026-04-08T16:31:41Z</time></trkpt><trkpt lat="44.46422186683517" lon="8.03500095693239"><ele>766.6666666666666</ele><time>2026-04-08T16:31:42Z</time></trkpt><trkpt lat="44.46407365163565" lon="8.035137396846018"><ele>769.0</ele><time>2026-04-08T16:31:43Z</time></trkpt><trkpt lat="44.46392231541056" lon="8.035282092615835"><ele>769.0</ele><time>2026-04-08T16:31:44Z</time></trkpt><trkpt lat="44.46380610997302" lon="8.035427720865414"><ele>769.0</ele><time>2026-04-08T16:31:45Z</time></trkpt><trkpt lat="44.46368274365309" lon="8.035540662456269"><ele>769.0</ele><time>2026-04-08T16:31:46Z</time></trkpt><trkpt lat="44.46355324095969" lon="8.035616860889082"><ele>769.0</ele><time>2026-04-08T16:31:47Z</time></trkpt><trkpt lat="44.46342356146247" lon="8.035696566824402"><ele>767.25</ele><time>2026-04-08T16:31:48Z</time></trkpt><trkpt lat="44.46328205307753" lon="8.035756942527824"><ele>765.5</ele><time>2026-04-08T16:31:49Z</time></trkpt><trkpt lat="44.463136137774015" lon="8.035772520390083"><ele>763.75</ele><time>2026-04-08T16:31:49.999Z</time></trkpt><trkpt lat="44.462991713615985" lon="8.035785932557422"><ele>762.0</ele><time>2026-04-08T16:31:50.999Z</time></trkpt><trkpt lat="44.46283264760569" lon="8.035799370857852"><ele>762.0</ele><time>2026-04-08T16:31:51.999Z</time></trkpt><trkpt lat="44.46265773308764" lon="8.03580234038808"><ele>762.0</ele><time>2026-04-08T16:31:52.999Z</time></trkpt><trkpt lat="44.46251134956768" lon="8.035871665741022"><ele>762.0</ele><time>2026-04-08T16:31:53.999Z</time></trkpt><trkpt lat="44.46237313794425" lon="8.035958739419936"><ele>768.6666666666667</ele><time>2026-04-08T16:31:54.999Z</time></trkpt><trkpt lat="44.46222483604234" lon="8.036042997953583"><ele>775.3333333333334</ele><time>2026-04-08T16:31:55.999Z</time></trkpt><trkpt lat="44.46206880000091" lon="8.036120690721186"><ele>782.0</ele><time>2026-04-08T16:31:56.999Z</time></trkpt><trkpt lat="44.46190668332007" lon="8.036188851554773"><ele>782.0</ele><time>2026-04-08T16:31:57.999Z</time></trkpt><trkpt lat="44.4617538237083" lon="8.036268391718526"><ele>782.0</ele><time>2026-04-08T16:31:58.999Z</time></trkpt><trkpt lat="44.46159845038601" lon="8.036340560193588"><ele>782.0</ele><time>2026-04-08T16:31:59.999Z</time></trkpt><trkpt lat="44.46145927683992" lon="8.036407158427764"><ele>782.0</ele><time>2026-04-08T16:32:00.999Z</time></trkpt><trkpt lat="44.4613259374677" lon="8.036453412370227"><ele>782.0</ele><time>2026-04-08T16:32:01.999Z</time></trkpt><trkpt lat="44.46119352561841" lon="8.036460932140223"><ele>782.0</ele><time>2026-04-08T16:32:02.999Z</time></trkpt><trkpt lat="44.46109293821996" lon="8.036496955650762"><ele>782.0</ele><time>2026-04-08T16:32:03.999Z</time></trkpt><trkpt lat="44.46100405770894" lon="8.036556513816446"><ele>782.6</ele><time>2026-04-08T16:32:04.999Z</time></trkpt><trkpt lat="44.460929130658634" lon="8.036609881552174"><ele>783.2</ele><time>2026-04-08T16:32:05.999Z</time></trkpt><trkpt lat="44.46086065516633" lon="8.0366871997259"><ele>783.8</ele><time>2026-04-08T16:32:06.999Z</time></trkpt><trkpt lat="44.460805909315724" lon="8.0367879745198"><ele>784.4</ele><time>2026-04-08T16:32:07.999Z</time></trkpt><trkpt lat="44.46075664722736" lon="8.036920459421218"><ele>785.0</ele><time>2026-04-08T16:32:08.999Z</time></trkpt><trkpt lat="44.46070047258138" lon="8.03707712885355"><ele>786.0</ele><time>2026-04-08T16:32:09.999Z</time></trkpt><trkpt lat="44.46062721248289" lon="8.0372376755119"><ele>787.0</ele><time>2026-04-08T16:32:10.999Z</time></trkpt><trkpt lat="44.460537785912386" lon="8.037384629835476"><ele>788.0</ele><time>2026-04-08T16:32:11.999Z</time></trkpt><trkpt lat="44.46042492622742" lon="8.03752261379346"><ele>789.0</ele><time>2026-04-08T16:32:12.999Z</time></trkpt><trkpt lat="44.46031453206328" lon="8.037647037617887"><ele>789.0</ele><time>2026-04-08T16:32:13.999Z</time></trkpt><trkpt lat="44.46020038108653" lon="8.037763449429846"><ele>789.0</ele><time>2026-04-08T16:32:14.999Z</time></trkpt><trkpt lat="44.460085177182506" lon="8.037871179225329"><ele>789.0</ele><time>2026-04-08T16:32:15.999Z</time></trkpt><trkpt lat="44.459960054689745" lon="8.037962692983177"><ele>789.0</ele><time>2026-04-08T16:32:16.999Z</time></trkpt><trkpt lat="44.45981443417597" lon="8.038034967700533"><ele>789.0</ele><time>2026-04-08T16:32:17.999Z</time></trkpt><trkpt lat="44.459673809724436" lon="8.038088591413748"><ele>789.0</ele><time>2026-04-08T16:32:18.999Z</time></trkpt><trkpt lat="44.45952743149286" lon="8.038101978449431"><ele>789.0</ele><time>2026-04-08T16:32:19.999Z</time></trkpt><trkpt lat="44.45939193614036" lon="8.038144084650243"><ele>789.0</ele><time>2026-04-08T16:32:20.999Z</time></trkpt><trkpt lat="44.459248705469044" lon="8.038157370329989"><ele>786.75</ele><time>2026-04-08T16:32:21.999Z</time></trkpt><trkpt lat="44.45911758083532" lon="8.038160462073886"><ele>784.5</ele><time>2026-04-08T16:32:22.999Z</time></trkpt><trkpt lat="44.45898517524117" lon="8.03814821165119"><ele>782.25</ele><time>2026-04-08T16:32:23.999Z</time></trkpt><trkpt lat="44.458852365380615" lon="8.038093693087706"><ele>780.0</ele><time>2026-04-08T16:32:24.999Z</time></trkpt><trkpt lat="44.45873373807868" lon="8.038064944754897"><ele>779.6</ele><time>2026-04-08T16:32:25.999Z</time></trkpt><trkpt lat="44.458622155766996" lon="8.038040641730413"><ele>779.2</ele><time>2026-04-08T16:32:26.999Z</time></trkpt><trkpt lat="44.45852892523907" lon="8.03803495758702"><ele>778.8</ele><time>2026-04-08T16:32:27.999Z</time></trkpt><trkpt lat="44.458438960439416" lon="8.03806300627945"><ele>778.4</ele><time>2026-04-08T16:32:28.999Z</time></trkpt><trkpt lat="44.458350215143234" lon="8.038077594314961"><ele>778.0</ele><time>2026-04-08T16:32:29.999Z</time></trkpt><trkpt lat="44.45826559878843" lon="8.03811708265749"><ele>778.0</ele><time>2026-04-08T16:32:30.999Z</time></trkpt><trkpt lat="44.4581965279432" lon="8.038188983369384"><ele>778.0</ele><time>2026-04-08T16:32:31.999Z</time></trkpt><trkpt lat="44.4581305155793" lon="8.038283181361322"><ele>778.0</ele><time>2026-04-08T16:32:32.999Z</time></trkpt><trkpt lat="44.458084861762806" lon="8.038391141674985"><ele>778.0</ele><time>2026-04-08T16:32:33.999Z</time></trkpt><trkpt lat="44.45805221357315" lon="8.038512032599456"><ele>778.0</ele><time>2026-04-08T16:32:34.999Z</time></trkpt><trkpt lat="44.45803952514405" lon="8.038633666450195"><ele>780.75</ele><time>2026-04-08T16:32:35.999Z</time></trkpt><trkpt lat="44.45805268491015" lon="8.038759171398265"><ele>783.5</ele><time>2026-04-08T16:32:36.999Z</time></trkpt><trkpt lat="44.458094131687474" lon="8.03891069075613"><ele>786.25</ele><time>2026-04-08T16:32:37.999Z</time></trkpt><trkpt lat="44.458145122319586" lon="8.039061858479887"><ele>789.0</ele><time>2026-04-08T16:32:38.999Z</time></trkpt><trkpt lat="44.45820539263581" lon="8.03922699032978"><ele>789.0</ele><time>2026-04-08T16:32:39.999Z</time></trkpt><trkpt lat="44.45825244823463" lon="8.03938567692534"><ele>789.0</ele><time>2026-04-08T16:32:40.999Z</time></trkpt><trkpt lat="44.45829783952761" lon="8.039554135717228"><ele>789.0</ele><time>2026-04-08T16:32:41.999Z</time></trkpt><trkpt lat="44.4583342565345" lon="8.039720704489556"><ele>789.0</ele><time>2026-04-08T16:32:42.999Z</time></trkpt><trkpt lat="44.45837096437546" lon="8.039893699935714"><ele>786.75</ele><time>2026-04-08T16:32:43.999Z</time></trkpt><trkpt lat="44.458397130050315" lon="8.040050449007447"><ele>784.5</ele><time>2026-04-08T16:32:44.999Z</time></trkpt><trkpt lat="44.458404314834" lon="8.04023633892991"><ele>782.25</ele><time>2026-04-08T16:32:45.999Z</time></trkpt><trkpt lat="44.45839568496545" lon="8.040418596470658"><ele>780.0</ele><time>2026-04-08T16:32:46.999Z</time></trkpt><trkpt lat="44.45837764681261" lon="8.040594348925953"><ele>780.0</ele><time>2026-04-08T16:32:47.999Z</time></trkpt><trkpt lat="44.45835595897077" lon="8.040767993686021"><ele>780.0</ele><time>2026-04-08T16:32:48.999Z</time></trkpt><trkpt lat="44.458327418590514" lon="8.040937884723087"><ele>780.0</ele><time>2026-04-08T16:32:49.999Z</time></trkpt><trkpt lat="44.45829214709779" lon="8.041092880089458"><ele>780.0</ele><time>2026-04-08T16:32:50.999Z</time></trkpt><trkpt lat="44.45827348860453" lon="8.041244701722613"><ele>779.4</ele><time>2026-04-08T16:32:51.999Z</time></trkpt><trkpt lat="44.45821399501367" lon="8.041374503241128"><ele>778.8</ele><time>2026-04-08T16:32:52.999Z</time></trkpt><trkpt lat="44.45816296826186" lon="8.041505261679115"><ele>778.2</ele><time>2026-04-08T16:32:53.999Z</time></trkpt><trkpt lat="44.4581106229762" lon="8.04162524374324"><ele>777.6</ele><time>2026-04-08T16:32:54.999Z</time></trkpt><trkpt lat="44.45805625785319" lon="8.041736872957777"><ele>777.0</ele><time>2026-04-08T16:32:55.999Z</time></trkpt><trkpt lat="44.457996155156295" lon="8.041855032291718"><ele>773.4000000000001</ele><time>2026-04-08T16:32:56.999Z</time></trkpt><trkpt lat="44.457926695003586" lon="8.04196615980839"><ele>769.8000000000001</ele><time>2026-04-08T16:32:57.999Z</time></trkpt><trkpt lat="44.45785805066055" lon="8.042060766959837"><ele>766.2</ele><time>2026-04-08T16:32:58.999Z</time></trkpt><trkpt lat="44.457783098565855" lon="8.042152961916084"><ele>762.6</ele><time>2026-04-08T16:32:59.998Z</time></trkpt><trkpt lat="44.45771036042802" lon="8.042240616011934"><ele>759.0</ele><time>2026-04-08T16:33:01Z</time></trkpt><trkpt lat="44.45763125040514" lon="8.042336532960983"><ele>759.0</ele><time>2026-04-08T16:33:02Z</time></trkpt><trkpt lat="44.457543657091925" lon="8.04244090166056"><ele>759.0</ele><time>2026-04-08T16:33:03Z</time></trkpt><trkpt lat="44.45745230395988" lon="8.042548627535865"><ele>759.0</ele><time>2026-04-08T16:33:04Z</time></trkpt><trkpt lat="44.457364791924334" lon="8.042658140803557"><ele>759.0</ele><time>2026-04-08T16:33:05Z</time></trkpt><trkpt lat="44.45729486894753" lon="8.042780064831135"><ele>758.0</ele><time>2026-04-08T16:33:06Z</time></trkpt><trkpt lat="44.45720583504492" lon="8.04288962226084"><ele>757.0</ele><time>2026-04-08T16:33:07Z</time></trkpt><trkpt lat="44.45712937582597" lon="8.043017056227384"><ele>756.0</ele><time>2026-04-08T16:33:08Z</time></trkpt><trkpt lat="44.457051564629" lon="8.043166184231794"><ele>755.0</ele><time>2026-04-08T16:33:09Z</time></trkpt><trkpt lat="44.4569813876853" lon="8.043342993768961"><ele>755.0</ele><time>2026-04-08T16:33:10Z</time></trkpt><trkpt lat="44.456918214017854" lon="8.04354427898279"><ele>755.0</ele><time>2026-04-08T16:33:11Z</time></trkpt><trkpt lat="44.456858883127246" lon="8.043746409144417"><ele>755.0</ele><time>2026-04-08T16:33:12Z</time></trkpt><trkpt lat="44.45680396110152" lon="8.043968148715084"><ele>757.3333333333333</ele><time>2026-04-08T16:33:13Z</time></trkpt><trkpt lat="44.45673897475266" lon="8.044168498350533"><ele>759.6666666666666</ele><time>2026-04-08T16:33:14Z</time></trkpt><trkpt lat="44.456652737289154" lon="8.04437166536841"><ele>762.0</ele><time>2026-04-08T16:33:15Z</time></trkpt><trkpt lat="44.45654462575202" lon="8.044563560863175"><ele>762.0</ele><time>2026-04-08T16:33:16Z</time></trkpt><trkpt lat="44.45643121915112" lon="8.044764378992864"><ele>762.0</ele><time>2026-04-08T16:33:17Z</time></trkpt><trkpt lat="44.45632740978352" lon="8.044953986586597"><ele>762.0</ele><time>2026-04-08T16:33:18Z</time></trkpt><trkpt lat="44.456225732794806" lon="8.04512839916023"><ele>761.25</ele><time>2026-04-08T16:33:19Z</time></trkpt><trkpt lat="44.45613229983406" lon="8.045310352552285"><ele>760.5</ele><time>2026-04-08T16:33:20Z</time></trkpt><trkpt lat="44.45605291174348" lon="8.04548643008165"><ele>759.75</ele><time>2026-04-08T16:33:21Z</time></trkpt><trkpt lat="44.45597993508029" lon="8.045652730103434"><ele>759.0</ele><time>2026-04-08T16:33:22Z</time></trkpt><trkpt lat="44.455905320043996" lon="8.045812299643744"><ele>759.0</ele><time>2026-04-08T16:33:23Z</time></trkpt><trkpt lat="44.45583133591619" lon="8.04596018972006"><ele>759.0</ele><time>2026-04-08T16:33:24Z</time></trkpt><trkpt lat="44.45575921198276" lon="8.046098172037492"><ele>759.0</ele><time>2026-04-08T16:33:25Z</time></trkpt><trkpt lat="44.45567527937315" lon="8.046235018188993"><ele>759.0</ele><time>2026-04-08T16:33:26Z</time></trkpt><trkpt lat="44.455554571419945" lon="8.046323157188452"><ele>759.0</ele><time>2026-04-08T16:33:27Z</time></trkpt><trkpt lat="44.45543530373845" lon="8.046417565906035"><ele>759.0</ele><time>2026-04-08T16:33:28Z</time></trkpt><trkpt lat="44.455330026495574" lon="8.046495116254663"><ele>759.0</ele><time>2026-04-08T16:33:29Z</time></trkpt><trkpt lat="44.45524438033571" lon="8.046595908588621"><ele>759.0</ele><time>2026-04-08T16:33:30Z</time></trkpt><trkpt lat="44.45516676303211" lon="8.046702124048903"><ele>759.0</ele><time>2026-04-08T16:33:31Z</time></trkpt><trkpt lat="44.45510129716513" lon="8.04682953815781"><ele>759.0</ele><time>2026-04-08T16:33:32Z</time></trkpt><trkpt lat="44.45503729953845" lon="8.046970165191986"><ele>759.0</ele><time>2026-04-08T16:33:33Z</time></trkpt><trkpt lat="44.45501495661326" lon="8.047145264977184"><ele>759.0</ele><time>2026-04-08T16:33:34Z</time></trkpt><trkpt lat="44.454987358953154" lon="8.04733056096832"><ele>761.0</ele><time>2026-04-08T16:33:35Z</time></trkpt><trkpt lat="44.45495585901757" lon="8.047529410615207"><ele>763.0</ele><time>2026-04-08T16:33:36Z</time></trkpt><trkpt lat="44.454886781655354" lon="8.047728605758758"><ele>765.0</ele><time>2026-04-08T16:33:37Z</time></trkpt><trkpt lat="44.45483352921511" lon="8.047940544668274"><ele>765.0</ele><time>2026-04-08T16:33:38Z</time></trkpt><trkpt lat="44.45476320673623" lon="8.04816116841247"><ele>765.0</ele><time>2026-04-08T16:33:39Z</time></trkpt><trkpt lat="44.454702495062826" lon="8.04835916546653"><ele>765.0</ele><time>2026-04-08T16:33:40Z</time></trkpt><trkpt lat="44.4546309888078" lon="8.048522566676313"><ele>761.75</ele><time>2026-04-08T16:33:41Z</time></trkpt><trkpt lat="44.45455150780488" lon="8.048667891004905"><ele>758.5</ele><time>2026-04-08T16:33:42Z</time></trkpt><trkpt lat="44.45447781112302" lon="8.048808319010226"><ele>755.25</ele><time>2026-04-08T16:33:43Z</time></trkpt><trkpt lat="44.45442042362224" lon="8.04894881064684"><ele>752.0</ele><time>2026-04-08T16:33:44Z</time></trkpt><trkpt lat="44.454374306049814" lon="8.049085029511733"><ele>754.4000000000001</ele><time>2026-04-08T16:33:45Z</time></trkpt><trkpt lat="44.45432634581537" lon="8.049227224746792"><ele>756.8000000000001</ele><time>2026-04-08T16:33:46Z</time></trkpt><trkpt lat="44.454283696080516" lon="8.04936727070512"><ele>759.2</ele><time>2026-04-08T16:33:47Z</time></trkpt><trkpt lat="44.45424009054994" lon="8.049501917902546"><ele>761.6</ele><time>2026-04-08T16:33:48Z</time></trkpt><trkpt lat="44.45419819632719" lon="8.04962483491691"><ele>764.0</ele><time>2026-04-08T16:33:49Z</time></trkpt><trkpt lat="44.45414672736308" lon="8.049744330803316"><ele>764.0</ele><time>2026-04-08T16:33:50Z</time></trkpt><trkpt lat="44.45409616471586" lon="8.049873323266334"><ele>764.0</ele><time>2026-04-08T16:33:51Z</time></trkpt><trkpt lat="44.454042940286" lon="8.049999145629508"><ele>764.0</ele><time>2026-04-08T16:33:52Z</time></trkpt><trkpt lat="44.453987572755224" lon="8.050116487227701"><ele>764.0</ele><time>2026-04-08T16:33:53Z</time></trkpt><trkpt lat="44.453922204192544" lon="8.050230281984625"><ele>764.0</ele><time>2026-04-08T16:33:54Z</time></trkpt><trkpt lat="44.45384109900043" lon="8.050336351072936"><ele>763.0</ele><time>2026-04-08T16:33:54.999Z</time></trkpt><trkpt lat="44.45376861940663" lon="8.05044547971776"><ele>762.0</ele><time>2026-04-08T16:33:55.999Z</time></trkpt><trkpt lat="44.453687953526796" lon="8.050532195450117"><ele>761.0</ele><time>2026-04-08T16:33:56.999Z</time></trkpt><trkpt lat="44.45359086656003" lon="8.050620051809103"><ele>760.0</ele><time>2026-04-08T16:33:57.999Z</time></trkpt><trkpt lat="44.45348852184969" lon="8.050698327328583"><ele>759.0</ele><time>2026-04-08T16:33:58.999Z</time></trkpt><trkpt lat="44.453370941073324" lon="8.050740043913695"><ele>760.75</ele><time>2026-04-08T16:33:59.999Z</time></trkpt><trkpt lat="44.45326221790925" lon="8.050810746892925"><ele>762.5</ele><time>2026-04-08T16:34:00.999Z</time></trkpt><trkpt lat="44.45315628280369" lon="8.050874832669944"><ele>764.25</ele><time>2026-04-08T16:34:01.999Z</time></trkpt><trkpt lat="44.45304975852387" lon="8.050916421906065"><ele>766.0</ele><time>2026-04-08T16:34:02.999Z</time></trkpt><trkpt lat="44.45293442896639" lon="8.050937680098267"><ele>766.0</ele><time>2026-04-08T16:34:03.999Z</time></trkpt><trkpt lat="44.452819038533036" lon="8.050947275135771"><ele>766.0</ele><time>2026-04-08T16:34:04.999Z</time></trkpt><trkpt lat="44.45271027792264" lon="8.05095024269282"><ele>766.0</ele><time>2026-04-08T16:34:05.999Z</time></trkpt><trkpt lat="44.45260277863054" lon="8.050954779263625"><ele>766.0</ele><time>2026-04-08T16:34:06.999Z</time></trkpt><trkpt lat="44.45249864963144" lon="8.050936676173455"><ele>766.0</ele><time>2026-04-08T16:34:07.999Z</time></trkpt><trkpt lat="44.45239517380792" lon="8.050972505859123"><ele>766.0</ele><time>2026-04-08T16:34:08.999Z</time></trkpt><trkpt lat="44.45229912465727" lon="8.051034023524908"><ele>766.0</ele><time>2026-04-08T16:34:09.999Z</time></trkpt><trkpt lat="44.45221214083382" lon="8.05111112360094"><ele>766.0</ele><time>2026-04-08T16:34:10.999Z</time></trkpt><trkpt lat="44.452130932422" lon="8.051192713715098"><ele>766.0</ele><time>2026-04-08T16:34:11.999Z</time></trkpt><trkpt lat="44.452062898135146" lon="8.051306767087054"><ele>766.0</ele><time>2026-04-08T16:34:12.999Z</time></trkpt><trkpt lat="44.45199531806504" lon="8.05143236692805"><ele>764.0</ele><time>2026-04-08T16:34:13.999Z</time></trkpt><trkpt lat="44.45193613796719" lon="8.051566465804028"><ele>762.0</ele><time>2026-04-08T16:34:14.999Z</time></trkpt><trkpt lat="44.451882596829044" lon="8.051728985722022"><ele>760.0</ele><time>2026-04-08T16:34:15.999Z</time></trkpt><trkpt lat="44.45183479001392" lon="8.051910381807524"><ele>758.0</ele><time>2026-04-08T16:34:16.999Z</time></trkpt><trkpt lat="44.451794281685146" lon="8.052106447990676"><ele>758.0</ele><time>2026-04-08T16:34:17.999Z</time></trkpt><trkpt lat="44.45172717956522" lon="8.052302662886525"><ele>758.0</ele><time>2026-04-08T16:34:18.999Z</time></trkpt><trkpt lat="44.4516638731461" lon="8.052489448604593"><ele>758.0</ele><time>2026-04-08T16:34:19.999Z</time></trkpt><trkpt lat="44.451583134064215" lon="8.052658154408922"><ele>758.0</ele><time>2026-04-08T16:34:20.999Z</time></trkpt><trkpt lat="44.45150498800326" lon="8.052807017346435"><ele>756.25</ele><time>2026-04-08T16:34:21.999Z</time></trkpt><trkpt lat="44.45142427577906" lon="8.052951729869529"><ele>754.5</ele><time>2026-04-08T16:34:22.999Z</time></trkpt><trkpt lat="44.4513561971178" lon="8.0530759098744"><ele>752.75</ele><time>2026-04-08T16:34:23.999Z</time></trkpt><trkpt lat="44.451288846415" lon="8.053208195684991"><ele>751.0</ele><time>2026-04-08T16:34:24.999Z</time></trkpt><trkpt lat="44.45123254509865" lon="8.053329904551267"><ele>751.0</ele><time>2026-04-08T16:34:25.999Z</time></trkpt><trkpt lat="44.45118016912824" lon="8.053492119690404"><ele>751.0</ele><time>2026-04-08T16:34:26.999Z</time></trkpt><trkpt lat="44.45114556862483" lon="8.053671160397938"><ele>751.0</ele><time>2026-04-08T16:34:27.999Z</time></trkpt><trkpt lat="44.45111882864856" lon="8.05385318982569"><ele>751.0</ele><time>2026-04-08T16:34:28.999Z</time></trkpt><trkpt lat="44.45109039902336" lon="8.054042843965547"><ele>752.0</ele><time>2026-04-08T16:34:29.999Z</time></trkpt><trkpt lat="44.451056457424976" lon="8.05423391468544"><ele>753.0</ele><time>2026-04-08T16:34:30.999Z</time></trkpt><trkpt lat="44.4510092038088" lon="8.05444983103316"><ele>754.0</ele><time>2026-04-08T16:34:31.999Z</time></trkpt><trkpt lat="44.45096350210001" lon="8.054655933212974"><ele>754.0</ele><time>2026-04-08T16:34:32.999Z</time></trkpt><trkpt lat="44.450905991125445" lon="8.054846085821293"><ele>754.0</ele><time>2026-04-08T16:34:33.999Z</time></trkpt><trkpt lat="44.45081969159629" lon="8.055008035829546"><ele>754.0</ele><time>2026-04-08T16:34:34.999Z</time></trkpt><trkpt lat="44.45074339897675" lon="8.055190641585865"><ele>754.0</ele><time>2026-04-08T16:34:35.999Z</time></trkpt><trkpt lat="44.4506437606714" lon="8.055349968892777"><ele>755.3333333333334</ele><time>2026-04-08T16:34:36.999Z</time></trkpt><trkpt lat="44.450532165437366" lon="8.05551147565108"><ele>756.6666666666666</ele><time>2026-04-08T16:34:37.999Z</time></trkpt><trkpt lat="44.45041019995981" lon="8.055655995976608"><ele>758.0</ele><time>2026-04-08T16:34:38.999Z</time></trkpt><trkpt lat="44.450272777134465" lon="8.055783334729732"><ele>758.6666666666666</ele><time>2026-04-08T16:34:39.999Z</time></trkpt><trkpt lat="44.450110067705374" lon="8.055863869312844"><ele>759.3333333333334</ele><time>2026-04-08T16:34:40.999Z</time></trkpt><trkpt lat="44.44995042842169" lon="8.05595720086711"><ele>760.0</ele><time>2026-04-08T16:34:41.999Z</time></trkpt><trkpt lat="44.4497885727735" lon="8.056072541859535"><ele>759.0</ele><time>2026-04-08T16:34:42.999Z</time></trkpt><trkpt lat="44.449609316916735" lon="8.05616347867139"><ele>758.0</ele><time>2026-04-08T16:34:43.999Z</time></trkpt><trkpt lat="44.44945645154359" lon="8.056263150725501"><ele>757.0</ele><time>2026-04-08T16:34:44.999Z</time></trkpt><trkpt lat="44.4492974819246" lon="8.056316453780168"><ele>757.0</ele><time>2026-04-08T16:34:45.999Z</time></trkpt><trkpt lat="44.44916010872198" lon="8.056363558121234"><ele>757.0</ele><time>2026-04-08T16:34:46.999Z</time></trkpt><trkpt lat="44.44902126666461" lon="8.0564016191199"><ele>757.0</ele><time>2026-04-08T16:34:47.999Z</time></trkpt><trkpt lat="44.44888615599624" lon="8.056451276733917"><ele>757.0</ele><time>2026-04-08T16:34:48.999Z</time></trkpt><trkpt lat="44.448762460247266" lon="8.056533530222904"><ele>755.75</ele><time>2026-04-08T16:34:49.999Z</time></trkpt><trkpt lat="44.44864049537266" lon="8.056611458123118"><ele>754.5</ele><time>2026-04-08T16:34:50.999Z</time></trkpt><trkpt lat="44.44850745327971" lon="8.056695946606016"><ele>753.25</ele><time>2026-04-08T16:34:51.999Z</time></trkpt><trkpt lat="44.448384600722854" lon="8.056803325436254"><ele>752.0</ele><time>2026-04-08T16:34:52.999Z</time></trkpt><trkpt lat="44.44826888332715" lon="8.056940708213741"><ele>755.6666666666666</ele><time>2026-04-08T16:34:53.999Z</time></trkpt><trkpt lat="44.448146435989585" lon="8.057061168161528"><ele>759.3333333333334</ele><time>2026-04-08T16:34:54.999Z</time></trkpt><trkpt lat="44.44803269736351" lon="8.05720600492811"><ele>763.0</ele><time>2026-04-08T16:34:55.999Z</time></trkpt><trkpt lat="44.44792335199679" lon="8.05735448810005"><ele>768.0</ele><time>2026-04-08T16:34:56.999Z</time></trkpt><trkpt lat="44.447803750068516" lon="8.057510468885017"><ele>773.0</ele><time>2026-04-08T16:34:57.999Z</time></trkpt><trkpt lat="44.44768278825667" lon="8.057648061956078"><ele>778.0</ele><time>2026-04-08T16:34:58.999Z</time></trkpt><trkpt lat="44.44757299360404" lon="8.057767902672891"><ele>778.0</ele><time>2026-04-08T16:34:59.999Z</time></trkpt><trkpt lat="44.447466265878326" lon="8.057880585292006"><ele>778.0</ele><time>2026-04-08T16:35:00.999Z</time></trkpt><trkpt lat="44.447365338441486" lon="8.058013377610198"><ele>778.0</ele><time>2026-04-08T16:35:01.999Z</time></trkpt><trkpt lat="44.44725504345537" lon="8.058095816540673"><ele>778.0</ele><time>2026-04-08T16:35:02.998Z</time></trkpt><trkpt lat="44.447145966456766" lon="8.058203649379697"><ele>780.4</ele><time>2026-04-08T16:35:03.998Z</time></trkpt><trkpt lat="44.44706184344464" lon="8.058286812591748"><ele>782.8</ele><time>2026-04-08T16:35:04.998Z</time></trkpt><trkpt lat="44.446983620279774" lon="8.05837495501683"><ele>785.2</ele><time>2026-04-08T16:35:05.998Z</time></trkpt><trkpt lat="44.44690725001123" lon="8.058470186940411"><ele>787.6</ele><time>2026-04-08T16:35:07Z</time></trkpt><trkpt lat="44.44684126486609" lon="8.058578795961738"><ele>790.0</ele><time>2026-04-08T16:35:08Z</time></trkpt><trkpt lat="44.44678088511806" lon="8.058722087268155"><ele>790.0</ele><time>2026-04-08T16:35:09Z</time></trkpt><trkpt lat="44.44675994169269" lon="8.058872511024987"><ele>790.0</ele><time>2026-04-08T16:35:10Z</time></trkpt><trkpt lat="44.44672475178588" lon="8.059008974592478"><ele>790.0</ele><time>2026-04-08T16:35:11Z</time></trkpt><trkpt lat="44.44671635455138" lon="8.059134911533917"><ele>790.0</ele><time>2026-04-08T16:35:12Z</time></trkpt><trkpt lat="44.44673175128764" lon="8.0592676628362"><ele>790.0</ele><time>2026-04-08T16:35:13Z</time></trkpt><trkpt lat="44.44673464047863" lon="8.05941195955712"><ele>790.5</ele><time>2026-04-08T16:35:14Z</time></trkpt><trkpt lat="44.4467543727332" lon="8.059566787568007"><ele>791.0</ele><time>2026-04-08T16:35:15Z</time></trkpt><trkpt lat="44.44678031052185" lon="8.059729292481645"><ele>791.5</ele><time>2026-04-08T16:35:16Z</time></trkpt><trkpt lat="44.44679889155797" lon="8.05990523569383"><ele>792.0</ele><time>2026-04-08T16:35:17Z</time></trkpt><trkpt lat="44.446815153295944" lon="8.060089540942485"><ele>790.75</ele><time>2026-04-08T16:35:18Z</time></trkpt><trkpt lat="44.446841780911605" lon="8.06025642074772"><ele>789.5</ele><time>2026-04-08T16:35:19Z</time></trkpt><trkpt lat="44.44686931148079" lon="8.06041009252483"><ele>788.25</ele><time>2026-04-08T16:35:20Z</time></trkpt><trkpt lat="44.44691036523188" lon="8.060559270584347"><ele>787.0</ele><time>2026-04-08T16:35:21Z</time></trkpt><trkpt lat="44.446968462244755" lon="8.060710012711123"><ele>788.4000000000001</ele><time>2026-04-08T16:35:22Z</time></trkpt><trkpt lat="44.44701068562307" lon="8.060852436552837"><ele>789.8000000000001</ele><time>2026-04-08T16:35:23Z</time></trkpt><trkpt lat="44.44706946099614" lon="8.060958728047808"><ele>791.2</ele><time>2026-04-08T16:35:24Z</time></trkpt><trkpt lat="44.44714042420677" lon="8.06109295226961"><ele>792.6</ele><time>2026-04-08T16:35:25Z</time></trkpt><trkpt lat="44.44720452758977" lon="8.061229216687597"><ele>794.0</ele><time>2026-04-08T16:35:26Z</time></trkpt><trkpt lat="44.44722058041928" lon="8.06142151514814"><ele>791.0</ele><time>2026-04-08T16:35:27Z</time></trkpt><trkpt lat="44.44722163607264" lon="8.061629812455855"><ele>788.0</ele><time>2026-04-08T16:35:28Z</time></trkpt><trkpt lat="44.447208107492635" lon="8.061848802127477"><ele>785.0</ele><time>2026-04-08T16:35:29Z</time></trkpt><trkpt lat="44.44718185884026" lon="8.062058599729697"><ele>785.0</ele><time>2026-04-08T16:35:30Z</time></trkpt><trkpt lat="44.447172853555514" lon="8.062305256586598"><ele>785.0</ele><time>2026-04-08T16:35:31Z</time></trkpt><trkpt lat="44.44715853430586" lon="8.062536409581005"><ele>785.0</ele><time>2026-04-08T16:35:32Z</time></trkpt><trkpt lat="44.447145296297535" lon="8.062784355471635"><ele>784.3333333333334</ele><time>2026-04-08T16:35:33Z</time></trkpt><trkpt lat="44.44712912723934" lon="8.063026761952734"><ele>783.6666666666667</ele><time>2026-04-08T16:35:34Z</time></trkpt><trkpt lat="44.447099769659886" lon="8.063289738195802"><ele>783.0</ele><time>2026-04-08T16:35:35Z</time></trkpt><trkpt lat="44.447100778540815" lon="8.063526021524416"><ele>780.25</ele><time>2026-04-08T16:35:36Z</time></trkpt><trkpt lat="44.447081044228284" lon="8.06375194719995"><ele>777.5</ele><time>2026-04-08T16:35:37Z</time></trkpt><trkpt lat="44.44706167681896" lon="8.0639619303499"><ele>774.75</ele><time>2026-04-08T16:35:38Z</time></trkpt><trkpt lat="44.44704364196578" lon="8.064147191977026"><ele>772.0</ele><time>2026-04-08T16:35:39Z</time></trkpt><trkpt lat="44.447022572175364" lon="8.064315958297907"><ele>772.0</ele><time>2026-04-08T16:35:40Z</time></trkpt><trkpt lat="44.44697503416454" lon="8.064475804954823"><ele>772.0</ele><time>2026-04-08T16:35:41Z</time></trkpt><trkpt lat="44.446919717835726" lon="8.064630349114582"><ele>772.0</ele><time>2026-04-08T16:35:42Z</time></trkpt><trkpt lat="44.44685242808278" lon="8.064777095265134"><ele>772.0</ele><time>2026-04-08T16:35:43Z</time></trkpt><trkpt lat="44.44678417788506" lon="8.064925150067744"><ele>773.75</ele><time>2026-04-08T16:35:44Z</time></trkpt><trkpt lat="44.4467276862452" lon="8.06506158016711"><ele>775.5</ele><time>2026-04-08T16:35:45Z</time></trkpt><trkpt lat="44.446681630823605" lon="8.065205115449864"><ele>777.25</ele><time>2026-04-08T16:35:46Z</time></trkpt><trkpt lat="44.44663757087355" lon="8.065370703268508"><ele>779.0</ele><time>2026-04-08T16:35:47Z</time></trkpt><trkpt lat="44.446611431336436" lon="8.06556691346287"><ele>780.0</ele><time>2026-04-08T16:35:48Z</time></trkpt><trkpt lat="44.44660680138719" lon="8.065780868701736"><ele>781.0</ele><time>2026-04-08T16:35:49Z</time></trkpt><trkpt lat="44.44660106542757" lon="8.066006936035604"><ele>782.0</ele><time>2026-04-08T16:35:50Z</time></trkpt><trkpt lat="44.4466050088111" lon="8.066240529751097"><ele>782.0</ele><time>2026-04-08T16:35:51Z</time></trkpt><trkpt lat="44.446611619825035" lon="8.066474797412859"><ele>782.0</ele><time>2026-04-08T16:35:52Z</time></trkpt><trkpt lat="44.446616967361535" lon="8.066709529318285"><ele>782.0</ele><time>2026-04-08T16:35:53Z</time></trkpt><trkpt lat="44.4466245913806" lon="8.066924228285695"><ele>781.75</ele><time>2026-04-08T16:35:54Z</time></trkpt><trkpt lat="44.44662542174699" lon="8.067123784881012"><ele>781.5</ele><time>2026-04-08T16:35:55Z</time></trkpt><trkpt lat="44.446611751588875" lon="8.06731036030414"><ele>781.25</ele><time>2026-04-08T16:35:56Z</time></trkpt><trkpt lat="44.446559609403636" lon="8.067501514027903"><ele>781.0</ele><time>2026-04-08T16:35:57Z</time></trkpt><trkpt lat="44.44649885886766" lon="8.067701082335201"><ele>781.0</ele><time>2026-04-08T16:35:57.999Z</time></trkpt><trkpt lat="44.44643708022022" lon="8.067878073126842"><ele>781.0</ele><time>2026-04-08T16:35:58.999Z</time></trkpt><trkpt lat="44.44635372381883" lon="8.068026588790259"><ele>781.0</ele><time>2026-04-08T16:35:59.999Z</time></trkpt><trkpt lat="44.44629250999583" lon="8.068190147348883"><ele>781.0</ele><time>2026-04-08T16:36:00.999Z</time></trkpt><trkpt lat="44.44623781615662" lon="8.068340012080084"><ele>777.25</ele><time>2026-04-08T16:36:01.999Z</time></trkpt><trkpt lat="44.44620428336392" lon="8.068494496736408"><ele>773.5</ele><time>2026-04-08T16:36:02.999Z</time></trkpt><trkpt lat="44.446181131120994" lon="8.068686928241528"><ele>769.75</ele><time>2026-04-08T16:36:03.999Z</time></trkpt><trkpt lat="44.446196185635074" lon="8.068895261061705"><ele>766.0</ele><time>2026-04-08T16:36:04.999Z</time></trkpt><trkpt lat="44.44621791153021" lon="8.069105853545771"><ele>767.6666666666667</ele><time>2026-04-08T16:36:05.999Z</time></trkpt><trkpt lat="44.446238127375146" lon="8.06932984779593"><ele>769.3333333333334</ele><time>2026-04-08T16:36:06.999Z</time></trkpt><trkpt lat="44.44625936022955" lon="8.069559158203683"><ele>771.0</ele><time>2026-04-08T16:36:07.999Z</time></trkpt><trkpt lat="44.446287246634476" lon="8.069791385267587"><ele>774.6666666666667</ele><time>2026-04-08T16:36:08.999Z</time></trkpt><trkpt lat="44.446326411317166" lon="8.070046159768868"><ele>778.3333333333334</ele><time>2026-04-08T16:36:09.999Z</time></trkpt><trkpt lat="44.4463526648464" lon="8.070287829513658"><ele>782.0</ele><time>2026-04-08T16:36:10.999Z</time></trkpt><trkpt lat="44.44638493026577" lon="8.070504106243174"><ele>782.0</ele><time>2026-04-08T16:36:11.999Z</time></trkpt><trkpt lat="44.4464103033806" lon="8.070713523434403"><ele>782.0</ele><time>2026-04-08T16:36:12.999Z</time></trkpt><trkpt lat="44.446440638090905" lon="8.07092433537977"><ele>782.0</ele><time>2026-04-08T16:36:13.999Z</time></trkpt><trkpt lat="44.446476275683686" lon="8.07115183762936"><ele>782.0</ele><time>2026-04-08T16:36:14.999Z</time></trkpt><trkpt lat="44.4465113717572" lon="8.071381349733448"><ele>782.0</ele><time>2026-04-08T16:36:15.999Z</time></trkpt><trkpt lat="44.446551864120345" lon="8.07159423622454"><ele>782.0</ele><time>2026-04-08T16:36:16.999Z</time></trkpt><trkpt lat="44.44660203972836" lon="8.071827868682814"><ele>780.6666666666667</ele><time>2026-04-08T16:36:17.999Z</time></trkpt><trkpt lat="44.44665749279996" lon="8.072032834583066"><ele>779.3333333333333</ele><time>2026-04-08T16:36:18.999Z</time></trkpt><trkpt lat="44.44671619141361" lon="8.072262554131015"><ele>778.0</ele><time>2026-04-08T16:36:19.999Z</time></trkpt><trkpt lat="44.446768741607066" lon="8.072497069579708"><ele>777.0</ele><time>2026-04-08T16:36:20.999Z</time></trkpt><trkpt lat="44.446819330536194" lon="8.072741343883374"><ele>776.0</ele><time>2026-04-08T16:36:21.999Z</time></trkpt><trkpt lat="44.446860976903956" lon="8.072992248996124"><ele>775.0</ele><time>2026-04-08T16:36:22.999Z</time></trkpt><trkpt lat="44.44690056183461" lon="8.073268288144586"><ele>772.6666666666666</ele><time>2026-04-08T16:36:23.999Z</time></trkpt><trkpt lat="44.4469335185543" lon="8.073550873448731"><ele>770.3333333333333</ele><time>2026-04-08T16:36:24.999Z</time></trkpt><trkpt lat="44.446973693871065" lon="8.07381965761507"><ele>768.0</ele><time>2026-04-08T16:36:25.999Z</time></trkpt><trkpt lat="44.44700068674737" lon="8.07406642305604"><ele>766.6666666666666</ele><time>2026-04-08T16:36:26.999Z</time></trkpt><trkpt lat="44.44702309379272" lon="8.074298863027918"><ele>765.3333333333333</ele><time>2026-04-08T16:36:27.999Z</time></trkpt><trkpt lat="44.44703800282399" lon="8.074523826525713"><ele>764.0</ele><time>2026-04-08T16:36:28.999Z</time></trkpt><trkpt lat="44.44705310881684" lon="8.074724064452797"><ele>764.0</ele><time>2026-04-08T16:36:29.999Z</time></trkpt><trkpt lat="44.44704480616131" lon="8.074919551807444"><ele>764.0</ele><time>2026-04-08T16:36:30.999Z</time></trkpt><trkpt lat="44.44700530636608" lon="8.075119962165926"><ele>764.0</ele><time>2026-04-08T16:36:31.999Z</time></trkpt><trkpt lat="44.44694215610737" lon="8.075326580020702"><ele>764.0</ele><time>2026-04-08T16:36:32.999Z</time></trkpt><trkpt lat="44.44686030397684" lon="8.075536205743916"><ele>764.5</ele><time>2026-04-08T16:36:33.999Z</time></trkpt><trkpt lat="44.4467824334131" lon="8.075719104799367"><ele>765.0</ele><time>2026-04-08T16:36:34.999Z</time></trkpt><trkpt lat="44.44670223763775" lon="8.07586092749061"><ele>765.5</ele><time>2026-04-08T16:36:35.999Z</time></trkpt><trkpt lat="44.44664459485925" lon="8.076000821311366"><ele>766.0</ele><time>2026-04-08T16:36:36.999Z</time></trkpt><trkpt lat="44.446612198446346" lon="8.076152239826348"><ele>768.25</ele><time>2026-04-08T16:36:37.999Z</time></trkpt><trkpt lat="44.446581403218126" lon="8.07631571791464"><ele>770.5</ele><time>2026-04-08T16:36:38.999Z</time></trkpt><trkpt lat="44.44657112678958" lon="8.076506688018101"><ele>772.75</ele><time>2026-04-08T16:36:39.999Z</time></trkpt><trkpt lat="44.446556443498736" lon="8.07670430170747"><ele>775.0</ele><time>2026-04-08T16:36:40.999Z</time></trkpt><trkpt lat="44.4465074576441" lon="8.076910128314061"><ele>777.6666666666666</ele><time>2026-04-08T16:36:41.999Z</time></trkpt><trkpt lat="44.44646479279193" lon="8.077122492336452"><ele>780.3333333333333</ele><time>2026-04-08T16:36:42.999Z</time></trkpt><trkpt lat="44.44642716848038" lon="8.07734787460271"><ele>783.0</ele><time>2026-04-08T16:36:43.999Z</time></trkpt><trkpt lat="44.44642091379811" lon="8.077561980452337"><ele>786.0</ele><time>2026-04-08T16:36:44.999Z</time></trkpt><trkpt lat="44.44640986859677" lon="8.077785669258526"><ele>789.0</ele><time>2026-04-08T16:36:45.999Z</time></trkpt><trkpt lat="44.44638074688452" lon="8.078004388605356"><ele>792.0</ele><time>2026-04-08T16:36:46.999Z</time></trkpt><trkpt lat="44.44636700306292" lon="8.078217563945628"><ele>792.25</ele><time>2026-04-08T16:36:47.999Z</time></trkpt><trkpt lat="44.44635544774038" lon="8.078415154754241"><ele>792.5</ele><time>2026-04-08T16:36:48.999Z</time></trkpt><trkpt lat="44.44634284169991" lon="8.078591584978614"><ele>792.75</ele><time>2026-04-08T16:36:49.999Z</time></trkpt><trkpt lat="44.446323440091994" lon="8.078769253499892"><ele>793.0</ele><time>2026-04-08T16:36:50.999Z</time></trkpt><trkpt lat="44.44627968828628" lon="8.078955157768396"><ele>784.6666666666666</ele><time>2026-04-08T16:36:51.999Z</time></trkpt><trkpt lat="44.44621336426956" lon="8.079135059210694"><ele>776.3333333333333</ele><time>2026-04-08T16:36:52.999Z</time></trkpt><trkpt lat="44.44613784266623" lon="8.079321925444788"><ele>768.0</ele><time>2026-04-08T16:36:53.999Z</time></trkpt><trkpt lat="44.446054920345986" lon="8.079525621203036"><ele>768.0</ele><time>2026-04-08T16:36:54.999Z</time></trkpt><trkpt lat="44.44596723239041" lon="8.079741936709745"><ele>768.0</ele><time>2026-04-08T16:36:55.999Z</time></trkpt><trkpt lat="44.445876989578316" lon="8.079964554196605"><ele>768.0</ele><time>2026-04-08T16:36:56.999Z</time></trkpt><trkpt lat="44.44578930737067" lon="8.080179198045155"><ele>771.3333333333333</ele><time>2026-04-08T16:36:57.999Z</time></trkpt><trkpt lat="44.44568899780315" lon="8.080419164354996"><ele>774.6666666666666</ele><time>2026-04-08T16:36:58.999Z</time></trkpt><trkpt lat="44.44558720744349" lon="8.080655067828879"><ele>778.0</ele><time>2026-04-08T16:36:59.999Z</time></trkpt><trkpt lat="44.4454938132078" lon="8.08086935542614"><ele>773.75</ele><time>2026-04-08T16:37:00.999Z</time></trkpt><trkpt lat="44.445418598060705" lon="8.081080626222628"><ele>769.5</ele><time>2026-04-08T16:37:01.999Z</time></trkpt><trkpt lat="44.44534568357173" lon="8.08121393457405"><ele>765.25</ele><time>2026-04-08T16:37:02.999Z</time></trkpt><trkpt lat="44.44529641476186" lon="8.081333326547906"><ele>761.0</ele><time>2026-04-08T16:37:03.998Z</time></trkpt><trkpt lat="44.44523589733055" lon="8.081490116896394"><ele>763.0</ele><time>2026-04-08T16:37:04.998Z</time></trkpt><trkpt lat="44.44518643855125" lon="8.081640585169378"><ele>765.0</ele><time>2026-04-08T16:37:05.998Z</time></trkpt><trkpt lat="44.44514483614618" lon="8.08181903077854"><ele>767.0</ele><time>2026-04-08T16:37:06.998Z</time></trkpt><trkpt lat="44.44512074745758" lon="8.082012485480666"><ele>769.0</ele><time>2026-04-08T16:37:07.998Z</time></trkpt><trkpt lat="44.44511450339338" lon="8.08221940886293"><ele>769.0</ele><time>2026-04-08T16:37:08.998Z</time></trkpt><trkpt lat="44.44506443992152" lon="8.08242451900262"><ele>769.0</ele><time>2026-04-08T16:37:09.998Z</time></trkpt><trkpt lat="44.44504877785392" lon="8.082649056007051"><ele>769.0</ele><time>2026-04-08T16:37:10.998Z</time></trkpt><trkpt lat="44.44503444331831" lon="8.082855219604909"><ele>770.25</ele><time>2026-04-08T16:37:11.998Z</time></trkpt><trkpt lat="44.445015294819356" lon="8.083052054948526"><ele>771.5</ele><time>2026-04-08T16:37:13Z</time></trkpt><trkpt lat="44.444999761053616" lon="8.08323942703925"><ele>772.75</ele><time>2026-04-08T16:37:14Z</time></trkpt><trkpt lat="44.445004428622454" lon="8.083415675219177"><ele>774.0</ele><time>2026-04-08T16:37:15Z</time></trkpt><trkpt lat="44.44498699789101" lon="8.083594384102236"><ele>774.75</ele><time>2026-04-08T16:37:16Z</time></trkpt><trkpt lat="44.44496940739486" lon="8.083748589525111"><ele>775.5</ele><time>2026-04-08T16:37:17Z</time></trkpt><trkpt lat="44.44494020201835" lon="8.083898572238333"><ele>776.25</ele><time>2026-04-08T16:37:18Z</time></trkpt><trkpt lat="44.44489093834654" lon="8.084042502365868"><ele>777.0</ele><time>2026-04-08T16:37:19Z</time></trkpt><trkpt lat="44.444816608401396" lon="8.08418082545302"><ele>778.5</ele><time>2026-04-08T16:37:20Z</time></trkpt><trkpt lat="44.4447210810457" lon="8.08430282412487"><ele>780.0</ele><time>2026-04-08T16:37:21Z</time></trkpt><trkpt lat="44.444605515369325" lon="8.084412652438358"><ele>781.5</ele><time>2026-04-08T16:37:22Z</time></trkpt><trkpt lat="44.4444758817691" lon="8.084528963344436"><ele>783.0</ele><time>2026-04-08T16:37:23Z</time></trkpt><trkpt lat="44.44435758943321" lon="8.084647006547879"><ele>780.3333333333333</ele><time>2026-04-08T16:37:24Z</time></trkpt><trkpt lat="44.44423817143518" lon="8.084796160308084"><ele>777.6666666666666</ele><time>2026-04-08T16:37:25Z</time></trkpt><trkpt lat="44.444125921552235" lon="8.084964494256077"><ele>775.0</ele><time>2026-04-08T16:37:26Z</time></trkpt><trkpt lat="44.444025991988156" lon="8.085113331130534"><ele>775.0</ele><time>2026-04-08T16:37:27Z</time></trkpt><trkpt lat="44.4439495778767" lon="8.085241266257542"><ele>775.0</ele><time>2026-04-08T16:37:28Z</time></trkpt><trkpt lat="44.443858611990066" lon="8.085309850837167"><ele>775.0</ele><time>2026-04-08T16:37:29Z</time></trkpt><trkpt lat="44.44375974596469" lon="8.08535880977769"><ele>775.0</ele><time>2026-04-08T16:37:30Z</time></trkpt><trkpt lat="44.443687749006756" lon="8.085458637661908"><ele>775.0</ele><time>2026-04-08T16:37:31Z</time></trkpt><trkpt lat="44.443513330102576" lon="8.08538172528057"><ele>771.25</ele><time>2026-04-08T16:37:32Z</time></trkpt><trkpt lat="44.443368369933886" lon="8.085394291892062"><ele>767.5</ele><time>2026-04-08T16:37:33Z</time></trkpt><trkpt lat="44.44324290982134" lon="8.085407632678754"><ele>763.75</ele><time>2026-04-08T16:37:34Z</time></trkpt><trkpt lat="44.4431205334589" lon="8.08542064554185"><ele>760.0</ele><time>2026-04-08T16:37:35Z</time></trkpt><trkpt lat="44.442994217404134" lon="8.085438296222216"><ele>758.0</ele><time>2026-04-08T16:37:36Z</time></trkpt><trkpt lat="44.44285529782903" lon="8.085489830107951"><ele>756.0</ele><time>2026-04-08T16:37:37Z</time></trkpt><trkpt lat="44.44270194462305" lon="8.085548488620189"><ele>754.0</ele><time>2026-04-08T16:37:38Z</time></trkpt><trkpt lat="44.44257124167829" lon="8.08562230670414"><ele>752.0</ele><time>2026-04-08T16:37:39Z</time></trkpt><trkpt lat="44.44244044362253" lon="8.085687480680443"><ele>752.0</ele><time>2026-04-08T16:37:40Z</time></trkpt><trkpt lat="44.44231210034239" lon="8.085751970232623"><ele>752.0</ele><time>2026-04-08T16:37:41Z</time></trkpt><trkpt lat="44.442192820619354" lon="8.085811923331672"><ele>752.0</ele><time>2026-04-08T16:37:42Z</time></trkpt><trkpt lat="44.44208819126669" lon="8.085832889595778"><ele>752.0</ele><time>2026-04-08T16:37:43Z</time></trkpt><trkpt lat="44.44199798826524" lon="8.085895262405938"><ele>753.0</ele><time>2026-04-08T16:37:44Z</time></trkpt><trkpt lat="44.44191406881847" lon="8.085942833371075"><ele>754.0</ele><time>2026-04-08T16:37:45Z</time></trkpt><trkpt lat="44.44182855387135" lon="8.086015121270892"><ele>755.0</ele><time>2026-04-08T16:37:46Z</time></trkpt><trkpt lat="44.44173741187689" lon="8.086128861800159"><ele>756.0</ele><time>2026-04-08T16:37:47Z</time></trkpt><trkpt lat="44.44166952938966" lon="8.086292398953479"><ele>757.0</ele><time>2026-04-08T16:37:48Z</time></trkpt><trkpt lat="44.441603156086465" lon="8.08646751171611"><ele>760.3333333333334</ele><time>2026-04-08T16:37:49Z</time></trkpt><trkpt lat="44.4415317159954" lon="8.086654082869243"><ele>763.6666666666666</ele><time>2026-04-08T16:37:50Z</time></trkpt><trkpt lat="44.441468401285555" lon="8.086854090062932"><ele>767.0</ele><time>2026-04-08T16:37:51Z</time></trkpt><trkpt lat="44.44135302470914" lon="8.087048145057949"><ele>760.0</ele><time>2026-04-08T16:37:52Z</time></trkpt><trkpt lat="44.44129137486655" lon="8.087266309090579"><ele>753.0</ele><time>2026-04-08T16:37:53Z</time></trkpt><trkpt lat="44.44123758258715" lon="8.087485656064233"><ele>746.0</ele><time>2026-04-08T16:37:54Z</time></trkpt><trkpt lat="44.44112543977003" lon="8.08769710963092"><ele>746.0</ele><time>2026-04-08T16:37:55Z</time></trkpt><trkpt lat="44.44104661492634" lon="8.087926069311202"><ele>746.0</ele><time>2026-04-08T16:37:56Z</time></trkpt><trkpt lat="44.44096620512301" lon="8.08816477493952"><ele>746.0</ele><time>2026-04-08T16:37:57Z</time></trkpt><trkpt lat="44.44090361359475" lon="8.088428363457226"><ele>748.0</ele><time>2026-04-08T16:37:58Z</time></trkpt><trkpt lat="44.440841779573745" lon="8.088699222839182"><ele>750.0</ele><time>2026-04-08T16:37:59Z</time></trkpt><trkpt lat="44.44076206334091" lon="8.088965621029054"><ele>752.0</ele><time>2026-04-08T16:38:00Z</time></trkpt><trkpt lat="44.44068964236859" lon="8.089221317396522"><ele>753.3333333333333</ele><time>2026-04-08T16:38:01Z</time></trkpt><trkpt lat="44.44061418552793" lon="8.08944994190413"><ele>754.6666666666666</ele><time>2026-04-08T16:38:02Z</time></trkpt><trkpt lat="44.4405390543854" lon="8.089661449032741"><ele>756.0</ele><time>2026-04-08T16:38:03Z</time></trkpt><trkpt lat="44.44047162287237" lon="8.089855743814105"><ele>752.75</ele><time>2026-04-08T16:38:04Z</time></trkpt><trkpt lat="44.44040760020445" lon="8.09002843402843"><ele>749.5</ele><time>2026-04-08T16:38:04.999Z</time></trkpt><trkpt lat="44.44032285637855" lon="8.090186176891711"><ele>746.25</ele><time>2026-04-08T16:38:05.999Z</time></trkpt><trkpt lat="44.440250479185536" lon="8.090331442766685"><ele>743.0</ele><time>2026-04-08T16:38:06.999Z</time></trkpt><trkpt lat="44.440165466410676" lon="8.090448307138363"><ele>743.0</ele><time>2026-04-08T16:38:07.999Z</time></trkpt><trkpt lat="44.44009616430768" lon="8.090560069403201"><ele>743.0</ele><time>2026-04-08T16:38:08.999Z</time></trkpt><trkpt lat="44.44003387358593" lon="8.090670048488734"><ele>743.0</ele><time>2026-04-08T16:38:09.999Z</time></trkpt><trkpt lat="44.43998313155069" lon="8.090793542759283"><ele>743.0</ele><time>2026-04-08T16:38:10.999Z</time></trkpt><trkpt lat="44.43994680760267" lon="8.090940519640338"><ele>743.0</ele><time>2026-04-08T16:38:11.999Z</time></trkpt><trkpt lat="44.43996172461293" lon="8.091117363141235"><ele>744.6666666666666</ele><time>2026-04-08T16:38:12.999Z</time></trkpt><trkpt lat="44.43995685575193" lon="8.091321703622302"><ele>746.3333333333334</ele><time>2026-04-08T16:38:13.999Z</time></trkpt><trkpt lat="44.43996160644637" lon="8.09152302604823"><ele>748.0</ele><time>2026-04-08T16:38:14.999Z</time></trkpt><trkpt lat="44.43995229222245" lon="8.09174723424344"><ele>748.0</ele><time>2026-04-08T16:38:15.999Z</time></trkpt><trkpt lat="44.43993833318574" lon="8.091943852979783"><ele>748.0</ele><time>2026-04-08T16:38:16.999Z</time></trkpt><trkpt lat="44.43993914308845" lon="8.092104453288751"><ele>748.0</ele><time>2026-04-08T16:38:17.999Z</time></trkpt><trkpt lat="44.43992565682706" lon="8.092266903546747"><ele>748.0</ele><time>2026-04-08T16:38:18.999Z</time></trkpt><trkpt lat="44.43989046777695" lon="8.09243689580385"><ele>747.5</ele><time>2026-04-08T16:38:19.999Z</time></trkpt><trkpt lat="44.439829554513146" lon="8.09260144622687"><ele>747.0</ele><time>2026-04-08T16:38:20.999Z</time></trkpt><trkpt lat="44.439744462678625" lon="8.092783707558867"><ele>746.5</ele><time>2026-04-08T16:38:21.999Z</time></trkpt><trkpt lat="44.43964899464888" lon="8.092964362646098"><ele>746.0</ele><time>2026-04-08T16:38:22.999Z</time></trkpt><trkpt lat="44.439542580427066" lon="8.093145827844102"><ele>743.0</ele><time>2026-04-08T16:38:23.999Z</time></trkpt><trkpt lat="44.439430185422026" lon="8.093338527890042"><ele>740.0</ele><time>2026-04-08T16:38:24.999Z</time></trkpt><trkpt lat="44.43931630925196" lon="8.093506005492003"><ele>737.0</ele><time>2026-04-08T16:38:25.999Z</time></trkpt><trkpt lat="44.43917052935516" lon="8.093649159455223"><ele>737.0</ele><time>2026-04-08T16:38:26.999Z</time></trkpt><trkpt lat="44.43903298614973" lon="8.093825828588693"><ele>737.0</ele><time>2026-04-08T16:38:27.999Z</time></trkpt><trkpt lat="44.438873854233044" lon="8.093984262319973"><ele>737.0</ele><time>2026-04-08T16:38:28.999Z</time></trkpt><trkpt lat="44.43872413717988" lon="8.094148824201046"><ele>737.3333333333333</ele><time>2026-04-08T16:38:29.999Z</time></trkpt><trkpt lat="44.43858381591376" lon="8.094299362187385"><ele>737.6666666666666</ele><time>2026-04-08T16:38:30.999Z</time></trkpt><trkpt lat="44.43845052988438" lon="8.094435560371505"><ele>738.0</ele><time>2026-04-08T16:38:31.999Z</time></trkpt><trkpt lat="44.438328429236364" lon="8.094521451910929"><ele>738.0</ele><time>2026-04-08T16:38:32.999Z</time></trkpt><trkpt lat="44.438199540076226" lon="8.09458136155652"><ele>738.0</ele><time>2026-04-08T16:38:33.999Z</time></trkpt><trkpt lat="44.438047542689134" lon="8.094618930225801"><ele>738.0</ele><time>2026-04-08T16:38:34.999Z</time></trkpt><trkpt lat="44.43787246508611" lon="8.094620676618602"><ele>735.6666666666666</ele><time>2026-04-08T16:38:35.999Z</time></trkpt><trkpt lat="44.43769285403819" lon="8.094609159527952"><ele>733.3333333333333</ele><time>2026-04-08T16:38:36.999Z</time></trkpt><trkpt lat="44.43750950983117" lon="8.094593963999158"><ele>731.0</ele><time>2026-04-08T16:38:37.999Z</time></trkpt><trkpt lat="44.43733193527793" lon="8.094599532324048"><ele>731.0</ele><time>2026-04-08T16:38:38.999Z</time></trkpt><trkpt lat="44.43715987189049" lon="8.0945820044956"><ele>731.0</ele><time>2026-04-08T16:38:39.999Z</time></trkpt><trkpt lat="44.4370014265694" lon="8.0945632778526"><ele>731.0</ele><time>2026-04-08T16:38:40.999Z</time></trkpt><trkpt lat="44.43685403877756" lon="8.09454188763845"><ele>730.75</ele><time>2026-04-08T16:38:41.999Z</time></trkpt><trkpt lat="44.43672586393174" lon="8.094509650047545"><ele>730.5</ele><time>2026-04-08T16:38:42.999Z</time></trkpt><trkpt lat="44.436611877279056" lon="8.094442197655406"><ele>730.25</ele><time>2026-04-08T16:38:43.999Z</time></trkpt><trkpt lat="44.43651221586015" lon="8.09440636565295"><ele>730.0</ele><time>2026-04-08T16:38:44.999Z</time></trkpt><trkpt lat="44.436406054092075" lon="8.094401188973718"><ele>730.0</ele><time>2026-04-08T16:38:45.999Z</time></trkpt><trkpt lat="44.43631945182137" lon="8.094366807661702"><ele>730.0</ele><time>2026-04-08T16:38:46.999Z</time></trkpt><trkpt lat="44.43623309908404" lon="8.094393773976"><ele>730.0</ele><time>2026-04-08T16:38:47.999Z</time></trkpt><trkpt lat="44.43613774003245" lon="8.094431654433096"><ele>730.0</ele><time>2026-04-08T16:38:48.999Z</time></trkpt><trkpt lat="44.436048098364026" lon="8.094499769869236"><ele>730.0</ele><time>2026-04-08T16:38:49.999Z</time></trkpt><trkpt lat="44.435953706722664" lon="8.094606157925828"><ele>729.0</ele><time>2026-04-08T16:38:50.999Z</time></trkpt><trkpt lat="44.43586528015807" lon="8.094744044756178"><ele>728.0</ele><time>2026-04-08T16:38:51.999Z</time></trkpt><trkpt lat="44.435778254082884" lon="8.094912582043975"><ele>727.0</ele><time>2026-04-08T16:38:52.999Z</time></trkpt><trkpt lat="44.435728726272295" lon="8.095077121685726"><ele>726.0</ele><time>2026-04-08T16:38:53.999Z</time></trkpt><trkpt lat="44.43566649710044" lon="8.095226549991033"><ele>724.5</ele><time>2026-04-08T16:38:54.999Z</time></trkpt><trkpt lat="44.435577569329794" lon="8.095354383990443"><ele>723.0</ele><time>2026-04-08T16:38:55.999Z</time></trkpt><trkpt lat="44.435477893971594" lon="8.095478381095571"><ele>721.5</ele><time>2026-04-08T16:38:56.999Z</time></trkpt><trkpt lat="44.43536763624245" lon="8.095549504540807"><ele>720.0</ele><time>2026-04-08T16:38:57.999Z</time></trkpt><trkpt lat="44.43523462777046" lon="8.095611856624071"><ele>720.0</ele><time>2026-04-08T16:38:58.999Z</time></trkpt><trkpt lat="44.435099963106126" lon="8.09565695676745"><ele>720.0</ele><time>2026-04-08T16:38:59.999Z</time></trkpt><trkpt lat="44.43498444141007" lon="8.09569490744475"><ele>720.0</ele><time>2026-04-08T16:39:00.999Z</time></trkpt><trkpt lat="44.43488241453107" lon="8.095735325570436"><ele>720.0</ele><time>2026-04-08T16:39:01.999Z</time></trkpt><trkpt lat="44.434788699081274" lon="8.095782243993531"><ele>720.0</ele><time>2026-04-08T16:39:02.999Z</time></trkpt><trkpt lat="44.43469647925479" lon="8.095889909675877"><ele>720.0</ele><time>2026-04-08T16:39:03.999Z</time></trkpt><trkpt lat="44.43459101748183" lon="8.096013030323128"><ele>720.0</ele><time>2026-04-08T16:39:04.999Z</time></trkpt><trkpt lat="44.43449350866656" lon="8.09618125424275"><ele>720.0</ele><time>2026-04-08T16:39:05.999Z</time></trkpt><trkpt lat="44.43439307305305" lon="8.096359543161975"><ele>720.0</ele><time>2026-04-08T16:39:06.999Z</time></trkpt><trkpt lat="44.43430043070933" lon="8.096555689932526"><ele>720.0</ele><time>2026-04-08T16:39:07.999Z</time></trkpt><trkpt lat="44.43419075522021" lon="8.09672941944604"><ele>720.0</ele><time>2026-04-08T16:39:08.999Z</time></trkpt><trkpt lat="44.43408597409355" lon="8.096924780605141"><ele>721.25</ele><time>2026-04-08T16:39:09.998Z</time></trkpt><trkpt lat="44.4339907539043" lon="8.097099999576301"><ele>722.5</ele><time>2026-04-08T16:39:10.998Z</time></trkpt><trkpt lat="44.43390449578337" lon="8.09725373674024"><ele>723.75</ele><time>2026-04-08T16:39:11.998Z</time></trkpt><trkpt lat="44.433837606689046" lon="8.09740008765666"><ele>725.0</ele><time>2026-04-08T16:39:12.998Z</time></trkpt><trkpt lat="44.43375189992033" lon="8.097528313408906"><ele>725.0</ele><time>2026-04-08T16:39:13.998Z</time></trkpt><trkpt lat="44.433650506142065" lon="8.09763170606659"><ele>725.0</ele><time>2026-04-08T16:39:14.998Z</time></trkpt><trkpt lat="44.43353270636091" lon="8.09770002236752"><ele>725.0</ele><time>2026-04-08T16:39:15.998Z</time></trkpt><trkpt lat="44.4334011769883" lon="8.097741996654811"><ele>725.0</ele><time>2026-04-08T16:39:16.998Z</time></trkpt><trkpt lat="44.433267087853416" lon="8.097795117564786"><ele>725.0</ele><time>2026-04-08T16:39:17.998Z</time></trkpt><trkpt lat="44.43312366417144" lon="8.097866547304754"><ele>725.0</ele><time>2026-04-08T16:39:19Z</time></trkpt><trkpt lat="44.43298143307141" lon="8.097890427764403"><ele>725.0</ele><time>2026-04-08T16:39:20Z</time></trkpt><trkpt lat="44.43285226343747" lon="8.097865937180979"><ele>725.0</ele><time>2026-04-08T16:39:21Z</time></trkpt><trkpt lat="44.43271751164747" lon="8.097811555818733"><ele>724.4</ele><time>2026-04-08T16:39:22Z</time></trkpt><trkpt lat="44.43258617913799" lon="8.097769831394018"><ele>723.8</ele><time>2026-04-08T16:39:23Z</time></trkpt><trkpt lat="44.43248064550438" lon="8.097748589258616"><ele>723.2</ele><time>2026-04-08T16:39:24Z</time></trkpt><trkpt lat="44.432387743625384" lon="8.097765997103087"><ele>722.6</ele><time>2026-04-08T16:39:25Z</time></trkpt><trkpt lat="44.432274444202704" lon="8.097780436842713"><ele>722.0</ele><time>2026-04-08T16:39:26Z</time></trkpt><trkpt lat="44.43215974047778" lon="8.097817570311637"><ele>718.3333333333333</ele><time>2026-04-08T16:39:27Z</time></trkpt><trkpt lat="44.43202381813329" lon="8.09789811933404"><ele>714.6666666666666</ele><time>2026-04-08T16:39:28Z</time></trkpt><trkpt lat="44.4319061801722" lon="8.098016106520634"><ele>711.0</ele><time>2026-04-08T16:39:29Z</time></trkpt><trkpt lat="44.431770614848084" lon="8.098139465618393"><ele>717.0</ele><time>2026-04-08T16:39:30Z</time></trkpt><trkpt lat="44.43163644877687" lon="8.098269189452363"><ele>723.0</ele><time>2026-04-08T16:39:31Z</time></trkpt><trkpt lat="44.43149611213156" lon="8.09838840226433"><ele>729.0</ele><time>2026-04-08T16:39:32Z</time></trkpt><trkpt lat="44.4313701300994" lon="8.098500309043214"><ele>727.75</ele><time>2026-04-08T16:39:33Z</time></trkpt><trkpt lat="44.431253001359195" lon="8.098586446448044"><ele>726.5</ele><time>2026-04-08T16:39:34Z</time></trkpt><trkpt lat="44.43114693498231" lon="8.098675007381443"><ele>725.25</ele><time>2026-04-08T16:39:35Z</time></trkpt><trkpt lat="44.43104042810139" lon="8.098754286068653"><ele>724.0</ele><time>2026-04-08T16:39:36Z</time></trkpt><trkpt lat="44.43093511930437" lon="8.098804069549635"><ele>724.0</ele><time>2026-04-08T16:39:37Z</time></trkpt><trkpt lat="44.43082877741887" lon="8.098831530920984"><ele>724.0</ele><time>2026-04-08T16:39:38Z</time></trkpt><trkpt lat="44.43071169912853" lon="8.098809357295018"><ele>724.0</ele><time>2026-04-08T16:39:39Z</time></trkpt><trkpt lat="44.43057149388539" lon="8.098778709703916"><ele>724.0</ele><time>2026-04-08T16:39:40Z</time></trkpt><trkpt lat="44.43039607302383" lon="8.098731279178923"><ele>725.3333333333334</ele><time>2026-04-08T16:39:41Z</time></trkpt><trkpt lat="44.43022327023523" lon="8.09869777675596"><ele>726.6666666666666</ele><time>2026-04-08T16:39:42Z</time></trkpt><trkpt lat="44.43004742092411" lon="8.09869183009184"><ele>728.0</ele><time>2026-04-08T16:39:43Z</time></trkpt><trkpt lat="44.42988944259855" lon="8.098702565950617"><ele>728.0</ele><time>2026-04-08T16:39:44Z</time></trkpt><trkpt lat="44.42972927293227" lon="8.098710914521485"><ele>728.0</ele><time>2026-04-08T16:39:45Z</time></trkpt><trkpt lat="44.42958652561617" lon="8.098767619992223"><ele>728.0</ele><time>2026-04-08T16:39:46Z</time></trkpt><trkpt lat="44.42947389760789" lon="8.098811805208072"><ele>728.0</ele><time>2026-04-08T16:39:47Z</time></trkpt><trkpt lat="44.429348157430134" lon="8.0988040738212"><ele>727.75</ele><time>2026-04-08T16:39:48Z</time></trkpt><trkpt lat="44.42922061830178" lon="8.098771221645295"><ele>727.5</ele><time>2026-04-08T16:39:49Z</time></trkpt><trkpt lat="44.429098131962334" lon="8.098710495438505"><ele>727.25</ele><time>2026-04-08T16:39:50Z</time></trkpt><trkpt lat="44.42899625879155" lon="8.098603566327954"><ele>727.0</ele><time>2026-04-08T16:39:51Z</time></trkpt><trkpt lat="44.42887449129114" lon="8.098499276982766"><ele>727.0</ele><time>2026-04-08T16:39:52Z</time></trkpt><trkpt lat="44.428735697590625" lon="8.098372423261601"><ele>727.0</ele><time>2026-04-08T16:39:53Z</time></trkpt><trkpt lat="44.428584033189644" lon="8.098207885488497"><ele>727.0</ele><time>2026-04-08T16:39:54Z</time></trkpt><trkpt lat="44.42845929361829" lon="8.098057853087147"><ele>727.3333333333334</ele><time>2026-04-08T16:39:55Z</time></trkpt><trkpt lat="44.42833883504568" lon="8.097907353835353"><ele>727.6666666666666</ele><time>2026-04-08T16:39:56Z</time></trkpt><trkpt lat="44.428221418706244" lon="8.09775695619902"><ele>728.0</ele><time>2026-04-08T16:39:57Z</time></trkpt><trkpt lat="44.428106809706456" lon="8.097637723058712"><ele>728.0</ele><time>2026-04-08T16:39:58Z</time></trkpt><trkpt lat="44.42799777576346" lon="8.097493866630861"><ele>728.0</ele><time>2026-04-08T16:39:59Z</time></trkpt><trkpt lat="44.42787850231834" lon="8.09736493624452"><ele>728.0</ele><time>2026-04-08T16:40:00Z</time></trkpt><trkpt lat="44.42775025437988" lon="8.097264097526384"><ele>728.0</ele><time>2026-04-08T16:40:01Z</time></trkpt><trkpt lat="44.42760182373534" lon="8.097192334758176"><ele>728.0</ele><time>2026-04-08T16:40:02Z</time></trkpt><trkpt lat="44.42745395981098" lon="8.09712804310886"><ele>728.0</ele><time>2026-04-08T16:40:03Z</time></trkpt><trkpt lat="44.4272945124945" lon="8.097082552476676"><ele>728.0</ele><time>2026-04-08T16:40:04Z</time></trkpt><trkpt lat="44.427145108534475" lon="8.09708590097985"><ele>729.0</ele><time>2026-04-08T16:40:05Z</time></trkpt><trkpt lat="44.42699188099485" lon="8.097054563975183"><ele>730.0</ele><time>2026-04-08T16:40:06Z</time></trkpt><trkpt lat="44.42685275541642" lon="8.097034129497144"><ele>731.0</ele><time>2026-04-08T16:40:07Z</time></trkpt><trkpt lat="44.42671329670827" lon="8.097011364889253"><ele>732.0</ele><time>2026-04-08T16:40:08Z</time></trkpt><trkpt lat="44.42658850679193" lon="8.096985723708071"><ele>732.0</ele><time>2026-04-08T16:40:09Z</time></trkpt><trkpt lat="44.42646135423976" lon="8.096950261912363"><ele>732.0</ele><time>2026-04-08T16:40:09.999Z</time></trkpt><trkpt lat="44.42633681405035" lon="8.09691004179925"><ele>732.0</ele><time>2026-04-08T16:40:10.999Z</time></trkpt><trkpt lat="44.42621480974574" lon="8.096835557717203"><ele>732.0</ele><time>2026-04-08T16:40:11.999Z</time></trkpt><trkpt lat="44.42610778032049" lon="8.09677434045119"><ele>732.4000000000001</ele><time>2026-04-08T16:40:12.999Z</time></trkpt><trkpt lat="44.426013464489515" lon="8.096705623575378"><ele>732.8000000000001</ele><time>2026-04-08T16:40:13.999Z</time></trkpt><trkpt lat="44.425916954682904" lon="8.096634686803858"><ele>733.2</ele><time>2026-04-08T16:40:14.999Z</time></trkpt><trkpt lat="44.4258281178934" lon="8.096568411521947"><ele>733.6</ele><time>2026-04-08T16:40:15.999Z</time></trkpt><trkpt lat="44.425754918422605" lon="8.096496733726378"><ele>734.0</ele><time>2026-04-08T16:40:16.999Z</time></trkpt><trkpt lat="44.42568490695159" lon="8.096438064674297"><ele>734.1666666666666</ele><time>2026-04-08T16:40:17.999Z</time></trkpt><trkpt lat="44.425619710803105" lon="8.096381930123657"><ele>734.3333333333333</ele><time>2026-04-08T16:40:18.999Z</time></trkpt><trkpt lat="44.42555662552082" lon="8.096319208844895"><ele>734.5</ele><time>2026-04-08T16:40:19.999Z</time></trkpt><trkpt lat="44.42549707594484" lon="8.096257708189261"><ele>734.6666666666666</ele><time>2026-04-08T16:40:20.999Z</time></trkpt><trkpt lat="44.42541549460139" lon="8.096108488961574"><ele>734.8333333333334</ele><time>2026-04-08T16:40:22.999Z</time></trkpt><trkpt lat="44.42537164939089" lon="8.096036589016085"><ele>735.0</ele><time>2026-04-08T16:40:23.999Z</time></trkpt><trkpt lat="44.425315132718204" lon="8.095977846191767"><ele>734.6</ele><time>2026-04-08T16:40:24.999Z</time></trkpt><trkpt lat="44.42523311344697" lon="8.09593733437464"><ele>734.2</ele><time>2026-04-08T16:40:25.999Z</time></trkpt><trkpt lat="44.42513760145322" lon="8.095924170601966"><ele>733.8</ele><time>2026-04-08T16:40:26.999Z</time></trkpt><trkpt lat="44.42502370017608" lon="8.095893438424735"><ele>733.4</ele><time>2026-04-08T16:40:27.999Z</time></trkpt><trkpt lat="44.42490643588549" lon="8.09583813549759"><ele>733.0</ele><time>2026-04-08T16:40:28.999Z</time></trkpt><trkpt lat="44.42478155571693" lon="8.095783302043756"><ele>731.75</ele><time>2026-04-08T16:40:29.999Z</time></trkpt><trkpt lat="44.42463801940965" lon="8.095721116011523"><ele>730.5</ele><time>2026-04-08T16:40:30.999Z</time></trkpt><trkpt lat="44.42449376196933" lon="8.095647081109716"><ele>729.25</ele><time>2026-04-08T16:40:31.999Z</time></trkpt><trkpt lat="44.424371667029426" lon="8.095557338911005"><ele>728.0</ele><time>2026-04-08T16:40:32.999Z</time></trkpt><trkpt lat="44.42425139710393" lon="8.095478857121897"><ele>728.0</ele><time>2026-04-08T16:40:33.999Z</time></trkpt><trkpt lat="44.42412478114565" lon="8.095431296496843"><ele>728.0</ele><time>2026-04-08T16:40:34.999Z</time></trkpt><trkpt lat="44.42400890173729" lon="8.095342840471005"><ele>728.0</ele><time>2026-04-08T16:40:35.999Z</time></trkpt><trkpt lat="44.42389579585571" lon="8.095234865062228"><ele>728.0</ele><time>2026-04-08T16:40:36.999Z</time></trkpt><trkpt lat="44.423782256370615" lon="8.095135840703879"><ele>727.75</ele><time>2026-04-08T16:40:37.999Z</time></trkpt><trkpt lat="44.42368082255097" lon="8.095019825402309"><ele>727.5</ele><time>2026-04-08T16:40:38.999Z</time></trkpt><trkpt lat="44.42357628853776" lon="8.094917760062945"><ele>727.25</ele><time>2026-04-08T16:40:39.999Z</time></trkpt><trkpt lat="44.42345910183774" lon="8.094818197146294"><ele>727.0</ele><time>2026-04-08T16:40:40.999Z</time></trkpt><trkpt lat="44.42335253195338" lon="8.09467649440328"><ele>727.0</ele><time>2026-04-08T16:40:41.999Z</time></trkpt><trkpt lat="44.42325313943795" lon="8.094518805076513"><ele>727.0</ele><time>2026-04-08T16:40:42.999Z</time></trkpt><trkpt lat="44.42316215635282" lon="8.094380397399483"><ele>727.0</ele><time>2026-04-08T16:40:43.999Z</time></trkpt><trkpt lat="44.42308214598326" lon="8.094241065177698"><ele>727.0</ele><time>2026-04-08T16:40:44.999Z</time></trkpt><trkpt lat="44.4230132098911" lon="8.094113007040965"><ele>726.75</ele><time>2026-04-08T16:40:45.999Z</time></trkpt><trkpt lat="44.42293681261032" lon="8.093989530972875"><ele>726.5</ele><time>2026-04-08T16:40:46.999Z</time></trkpt><trkpt lat="44.42287833525939" lon="8.09387132904623"><ele>726.25</ele><time>2026-04-08T16:40:47.999Z</time></trkpt><trkpt lat="44.42279335746149" lon="8.093760673809676"><ele>726.0</ele><time>2026-04-08T16:40:48.999Z</time></trkpt><trkpt lat="44.422691411204404" lon="8.093656860267933"><ele>726.0</ele><time>2026-04-08T16:40:49.999Z</time></trkpt><trkpt lat="44.42257121333396" lon="8.093580518410192"><ele>726.0</ele><time>2026-04-08T16:40:50.999Z</time></trkpt><trkpt lat="44.42243256943328" lon="8.09352635790949"><ele>726.0</ele><time>2026-04-08T16:40:51.999Z</time></trkpt><trkpt lat="44.42226545516762" lon="8.093506984186838"><ele>726.0</ele><time>2026-04-08T16:40:52.999Z</time></trkpt><trkpt lat="44.42211808558714" lon="8.093440676729543"><ele>727.25</ele><time>2026-04-08T16:40:53.999Z</time></trkpt><trkpt lat="44.42197940246637" lon="8.093410701648533"><ele>728.5</ele><time>2026-04-08T16:40:54.999Z</time></trkpt><trkpt lat="44.42185644415299" lon="8.093379766729745"><ele>729.75</ele><time>2026-04-08T16:40:55.999Z</time></trkpt><trkpt lat="44.421741503836415" lon="8.093338640819695"><ele>731.0</ele><time>2026-04-08T16:40:56.999Z</time></trkpt><trkpt lat="44.42164249867565" lon="8.093279797361712"><ele>729.25</ele><time>2026-04-08T16:40:57.999Z</time></trkpt><trkpt lat="44.42154207564604" lon="8.09319691419894"><ele>727.5</ele><time>2026-04-08T16:40:58.999Z</time></trkpt><trkpt lat="44.42146363677912" lon="8.093072330181855"><ele>725.75</ele><time>2026-04-08T16:40:59.999Z</time></trkpt><trkpt lat="44.42138922597054" lon="8.092944672476085"><ele>724.0</ele><time>2026-04-08T16:41:00.999Z</time></trkpt><trkpt lat="44.42131565359389" lon="8.092820037781145"><ele>724.6</ele><time>2026-04-08T16:41:01.999Z</time></trkpt><trkpt lat="44.421293957584446" lon="8.092655895765875"><ele>725.2</ele><time>2026-04-08T16:41:02.999Z</time></trkpt><trkpt lat="44.42126306586391" lon="8.09248547023753"><ele>725.8000000000001</ele><time>2026-04-08T16:41:03.999Z</time></trkpt><trkpt lat="44.42123712241055" lon="8.09234475318169"><ele>726.4000000000001</ele><time>2026-04-08T16:41:04.999Z</time></trkpt><trkpt lat="44.42121169915114" lon="8.092216036261021"><ele>727.0</ele><time>2026-04-08T16:41:05.999Z</time></trkpt><trkpt lat="44.421168614130956" lon="8.09210629664874"><ele>727.0</ele><time>2026-04-08T16:41:06.999Z</time></trkpt><trkpt lat="44.4211256248369" lon="8.091987381910371"><ele>727.0</ele><time>2026-04-08T16:41:07.999Z</time></trkpt><trkpt lat="44.421070791247146" lon="8.091875121605046"><ele>727.0</ele><time>2026-04-08T16:41:08.999Z</time></trkpt><trkpt lat="44.42098650155556" lon="8.0917961280671"><ele>727.0</ele><time>2026-04-08T16:41:09.999Z</time></trkpt><trkpt lat="44.42088730108194" lon="8.091752543498101"><ele>727.0</ele><time>2026-04-08T16:41:10.999Z</time></trkpt><trkpt lat="44.42078916598079" lon="8.09174655575199"><ele>727.0</ele><time>2026-04-08T16:41:11.999Z</time></trkpt><trkpt lat="44.42065511417966" lon="8.09178227062142"><ele>727.0</ele><time>2026-04-08T16:41:12.999Z</time></trkpt><trkpt lat="44.42053041917755" lon="8.091858985947571"><ele>727.0</ele><time>2026-04-08T16:41:13.998Z</time></trkpt><trkpt lat="44.42039792017818" lon="8.091918770587233"><ele>727.0</ele><time>2026-04-08T16:41:14.998Z</time></trkpt><trkpt lat="44.420263567535" lon="8.09197187123987"><ele>725.0</ele><time>2026-04-08T16:41:15.998Z</time></trkpt><trkpt lat="44.42011086990777" lon="8.092051544223331"><ele>723.0</ele><time>2026-04-08T16:41:16.998Z</time></trkpt><trkpt lat="44.4199691413043" lon="8.092114968496013"><ele>721.0</ele><time>2026-04-08T16:41:17.998Z</time></trkpt><trkpt lat="44.41984110132103" lon="8.092166154445025"><ele>719.0</ele><time>2026-04-08T16:41:18.998Z</time></trkpt><trkpt lat="44.41971166172359" lon="8.092221011787718"><ele>719.0</ele><time>2026-04-08T16:41:19.998Z</time></trkpt><trkpt lat="44.41959596177191" lon="8.092256861460212"><ele>719.0</ele><time>2026-04-08T16:41:20.998Z</time></trkpt><trkpt lat="44.41945980389908" lon="8.092243741123482"><ele>719.0</ele><time>2026-04-08T16:41:21.998Z</time></trkpt><trkpt lat="44.41932686907647" lon="8.092212864687621"><ele>719.0</ele><time>2026-04-08T16:41:22.998Z</time></trkpt><trkpt lat="44.41919107455221" lon="8.092149626968979"><ele>719.0</ele><time>2026-04-08T16:41:23.998Z</time></trkpt><trkpt lat="44.41904347491827" lon="8.092071662470193"><ele>719.0</ele><time>2026-04-08T16:41:25Z</time></trkpt><trkpt lat="44.41890233735523" lon="8.091995488343041"><ele>719.0</ele><time>2026-04-08T16:41:26Z</time></trkpt><trkpt lat="44.41878399964608" lon="8.091913476064507"><ele>719.0</ele><time>2026-04-08T16:41:27Z</time></trkpt><trkpt lat="44.41865963930432" lon="8.091784497039916"><ele>720.3333333333333</ele><time>2026-04-08T16:41:28Z</time></trkpt><trkpt lat="44.41855237316433" lon="8.091648673058529"><ele>721.6666666666666</ele><time>2026-04-08T16:41:29Z</time></trkpt><trkpt lat="44.41844887868103" lon="8.09146822762577"><ele>723.0</ele><time>2026-04-08T16:41:30Z</time></trkpt><trkpt lat="44.418347197237" lon="8.09130888329086"><ele>723.0</ele><time>2026-04-08T16:41:31Z</time></trkpt><trkpt lat="44.418268199288846" lon="8.091151973484182"><ele>723.0</ele><time>2026-04-08T16:41:32Z</time></trkpt><trkpt lat="44.41820361182181" lon="8.091009016303001"><ele>723.0</ele><time>2026-04-08T16:41:33Z</time></trkpt><trkpt lat="44.41815136134941" lon="8.090862437016783"><ele>723.0</ele><time>2026-04-08T16:41:34Z</time></trkpt><trkpt lat="44.418118246758816" lon="8.090710074037839"><ele>722.0</ele><time>2026-04-08T16:41:35Z</time></trkpt><trkpt lat="44.418123769137125" lon="8.0905259636678"><ele>721.0</ele><time>2026-04-08T16:41:36Z</time></trkpt><trkpt lat="44.41813637662734" lon="8.090323248072385"><ele>720.0</ele><time>2026-04-08T16:41:37Z</time></trkpt><trkpt lat="44.4181299349823" lon="8.09014851057016"><ele>719.0</ele><time>2026-04-08T16:41:38Z</time></trkpt><trkpt lat="44.41814226893511" lon="8.090000574324963"><ele>717.4000000000001</ele><time>2026-04-08T16:41:39Z</time></trkpt><trkpt lat="44.41813745745312" lon="8.089852735922168"><ele>715.8</ele><time>2026-04-08T16:41:40Z</time></trkpt><trkpt lat="44.41810454752612" lon="8.089724780938589"><ele>714.2</ele><time>2026-04-08T16:41:41Z</time></trkpt><trkpt lat="44.418084365301766" lon="8.089597613190412"><ele>712.5999999999999</ele><time>2026-04-08T16:41:42Z</time></trkpt><trkpt lat="44.418045102030646" lon="8.089482381686816"><ele>711.0</ele><time>2026-04-08T16:41:43Z</time></trkpt><trkpt lat="44.41796562652905" lon="8.089358460643265"><ele>711.75</ele><time>2026-04-08T16:41:44Z</time></trkpt><trkpt lat="44.417843357026335" lon="8.08927319902274"><ele>712.5</ele><time>2026-04-08T16:41:45Z</time></trkpt><trkpt lat="44.41773765911958" lon="8.08916979644401"><ele>713.25</ele><time>2026-04-08T16:41:46Z</time></trkpt><trkpt lat="44.417628506178346" lon="8.089059241711203"><ele>714.0</ele><time>2026-04-08T16:41:47Z</time></trkpt><trkpt lat="44.41752406490485" lon="8.088941467029398"><ele>714.0</ele><time>2026-04-08T16:41:48Z</time></trkpt><trkpt lat="44.41743092012708" lon="8.088815560389522"><ele>714.0</ele><time>2026-04-08T16:41:49Z</time></trkpt><trkpt lat="44.417343078233294" lon="8.088646991744355"><ele>714.0</ele><time>2026-04-08T16:41:50Z</time></trkpt><trkpt lat="44.41726656835216" lon="8.088537175311862"><ele>714.0</ele><time>2026-04-08T16:41:51Z</time></trkpt><trkpt lat="44.417188518112575" lon="8.088435646163246"><ele>714.3333333333334</ele><time>2026-04-08T16:41:52Z</time></trkpt><trkpt lat="44.417130168721975" lon="8.088375046566615"><ele>714.6666666666666</ele><time>2026-04-08T16:41:53Z</time></trkpt><trkpt lat="44.417058491871174" lon="8.088326850035807"><ele>715.0</ele><time>2026-04-08T16:41:54Z</time></trkpt><trkpt lat="44.41697885273387" lon="8.088301376342628"><ele>715.3333333333333</ele><time>2026-04-08T16:41:55Z</time></trkpt><trkpt lat="44.416908194467965" lon="8.088298475326868"><ele>715.6666666666666</ele><time>2026-04-08T16:41:56Z</time></trkpt><trkpt lat="44.416825660606285" lon="8.088327530357292"><ele>716.0</ele><time>2026-04-08T16:41:57Z</time></trkpt><trkpt lat="44.41672453349783" lon="8.088382768754473"><ele>716.0</ele><time>2026-04-08T16:41:58Z</time></trkpt><trkpt lat="44.41662406734361" lon="8.0884905428068"><ele>716.0</ele><time>2026-04-08T16:41:59Z</time></trkpt><trkpt lat="44.41651643902542" lon="8.088615908887448"><ele>716.0</ele><time>2026-04-08T16:42:00Z</time></trkpt><trkpt lat="44.41639706659092" lon="8.088724706241047"><ele>716.0</ele><time>2026-04-08T16:42:01Z</time></trkpt><trkpt lat="44.41628231421126" lon="8.088828742955213"><ele>716.0</ele><time>2026-04-08T16:42:02Z</time></trkpt><trkpt lat="44.41617098102515" lon="8.088932317426853"><ele>716.0</ele><time>2026-04-08T16:42:03Z</time></trkpt><trkpt lat="44.41607031005315" lon="8.089041732080869"><ele>716.0</ele><time>2026-04-08T16:42:04Z</time></trkpt><trkpt lat="44.41597154550417" lon="8.089168809803722"><ele>716.0</ele><time>2026-04-08T16:42:05Z</time></trkpt><trkpt lat="44.41588295425339" lon="8.089293567329612"><ele>716.0</ele><time>2026-04-08T16:42:06Z</time></trkpt><trkpt lat="44.41579156630376" lon="8.089407152209327"><ele>716.0</ele><time>2026-04-08T16:42:07Z</time></trkpt><trkpt lat="44.415676240508496" lon="8.089477064486662"><ele>716.0</ele><time>2026-04-08T16:42:08Z</time></trkpt><trkpt lat="44.415549450655405" lon="8.089541570557348"><ele>716.0</ele><time>2026-04-08T16:42:09Z</time></trkpt><trkpt lat="44.41541393395998" lon="8.089598056319096"><ele>712.0</ele><time>2026-04-08T16:42:10Z</time></trkpt><trkpt lat="44.415261326430716" lon="8.089651328411962"><ele>708.0</ele><time>2026-04-08T16:42:11Z</time></trkpt><trkpt lat="44.415137031640164" lon="8.089685509560384"><ele>704.0</ele><time>2026-04-08T16:42:12Z</time></trkpt><trkpt lat="44.415020404854374" lon="8.089711316519605"><ele>700.0</ele><time>2026-04-08T16:42:12.999Z</time></trkpt><trkpt lat="44.41490889099986" lon="8.089736106047196"><ele>700.0</ele><time>2026-04-08T16:42:13.999Z</time></trkpt><trkpt lat="44.4148191486183" lon="8.089788092673794"><ele>700.0</ele><time>2026-04-08T16:42:14.999Z</time></trkpt><trkpt lat="44.414719186144474" lon="8.089832645739692"><ele>700.0</ele><time>2026-04-08T16:42:15.999Z</time></trkpt><trkpt lat="44.414611410300495" lon="8.089919569655024"><ele>700.0</ele><time>2026-04-08T16:42:16.999Z</time></trkpt><trkpt lat="44.41451467470558" lon="8.090053837415514"><ele>701.5</ele><time>2026-04-08T16:42:17.999Z</time></trkpt><trkpt lat="44.41441750062464" lon="8.090210871732477"><ele>703.0</ele><time>2026-04-08T16:42:18.999Z</time></trkpt><trkpt lat="44.41431329009297" lon="8.090318888306431"><ele>704.5</ele><time>2026-04-08T16:42:19.999Z</time></trkpt><trkpt lat="44.414202534753" lon="8.090423222537993"><ele>706.0</ele><time>2026-04-08T16:42:20.999Z</time></trkpt><trkpt lat="44.414083758637496" lon="8.090502027983288"><ele>706.0</ele><time>2026-04-08T16:42:21.999Z</time></trkpt><trkpt lat="44.413937078610736" lon="8.090583707859178"><ele>706.0</ele><time>2026-04-08T16:42:22.999Z</time></trkpt><trkpt lat="44.413791138849525" lon="8.090659959127233"><ele>706.0</ele><time>2026-04-08T16:42:23.999Z</time></trkpt><trkpt lat="44.413672714751364" lon="8.090726402037664"><ele>706.0</ele><time>2026-04-08T16:42:24.999Z</time></trkpt><trkpt lat="44.41354880404891" lon="8.090807128800785"><ele>707.25</ele><time>2026-04-08T16:42:25.999Z</time></trkpt><trkpt lat="44.41343812668018" lon="8.090907091295785"><ele>708.5</ele><time>2026-04-08T16:42:26.999Z</time></trkpt><trkpt lat="44.41333335044907" lon="8.091039670686774"><ele>709.75</ele><time>2026-04-08T16:42:27.999Z</time></trkpt><trkpt lat="44.41323717602912" lon="8.091166459430742"><ele>711.0</ele><time>2026-04-08T16:42:28.999Z</time></trkpt><trkpt lat="44.413138251098985" lon="8.091295262820253"><ele>711.0</ele><time>2026-04-08T16:42:29.999Z</time></trkpt><trkpt lat="44.413041891439946" lon="8.091410511005607"><ele>711.0</ele><time>2026-04-08T16:42:30.999Z</time></trkpt><trkpt lat="44.41293790907587" lon="8.091506053861913"><ele>711.0</ele><time>2026-04-08T16:42:31.999Z</time></trkpt><trkpt lat="44.4128132202851" lon="8.091574418701462"><ele>711.0</ele><time>2026-04-08T16:42:32.999Z</time></trkpt><trkpt lat="44.4126738064631" lon="8.091627526112154"><ele>710.75</ele><time>2026-04-08T16:42:33.999Z</time></trkpt><trkpt lat="44.41253597576807" lon="8.09167615258833"><ele>710.5</ele><time>2026-04-08T16:42:34.999Z</time></trkpt><trkpt lat="44.412398979296036" lon="8.091724484772168"><ele>710.25</ele><time>2026-04-08T16:42:35.999Z</time></trkpt><trkpt lat="44.41228304563584" lon="8.09176915413479"><ele>710.0</ele><time>2026-04-08T16:42:36.999Z</time></trkpt><trkpt lat="44.4121746161083" lon="8.091818275887727"><ele>706.4</ele><time>2026-04-08T16:42:37.999Z</time></trkpt><trkpt lat="44.41206429691441" lon="8.091884468325096"><ele>702.8</ele><time>2026-04-08T16:42:38.999Z</time></trkpt><trkpt lat="44.4119642165235" lon="8.09195471216166"><ele>699.2</ele><time>2026-04-08T16:42:39.999Z</time></trkpt><trkpt lat="44.41187090365043" lon="8.09203275476858"><ele>695.6</ele><time>2026-04-08T16:42:40.999Z</time></trkpt><trkpt lat="44.41178864286425" lon="8.092122506187692"><ele>692.0</ele><time>2026-04-08T16:42:41.999Z</time></trkpt><trkpt lat="44.41171961466395" lon="8.092217081997523"><ele>692.0</ele><time>2026-04-08T16:42:42.999Z</time></trkpt><trkpt lat="44.41165774251181" lon="8.092370485148711"><ele>692.0</ele><time>2026-04-08T16:42:43.999Z</time></trkpt><trkpt lat="44.4116028792345" lon="8.092529910069466"><ele>692.0</ele><time>2026-04-08T16:42:44.999Z</time></trkpt><trkpt lat="44.41156548259062" lon="8.092727036202087"><ele>692.0</ele><time>2026-04-08T16:42:45.999Z</time></trkpt><trkpt lat="44.41151756667288" lon="8.09292971585698"><ele>692.0</ele><time>2026-04-08T16:42:46.999Z</time></trkpt><trkpt lat="44.411458870207035" lon="8.09312705813767"><ele>692.0</ele><time>2026-04-08T16:42:47.999Z</time></trkpt><trkpt lat="44.41136261758868" lon="8.093313954362968"><ele>692.0</ele><time>2026-04-08T16:42:48.999Z</time></trkpt><trkpt lat="44.41126387660162" lon="8.093519414782842"><ele>692.0</ele><time>2026-04-08T16:42:49.999Z</time></trkpt><trkpt lat="44.41115960947184" lon="8.09372444141525"><ele>692.0</ele><time>2026-04-08T16:42:50.999Z</time></trkpt><trkpt lat="44.4110543928817" lon="8.093930991280615"><ele>692.0</ele><time>2026-04-08T16:42:51.999Z</time></trkpt><trkpt lat="44.41094540846222" lon="8.094144937826899"><ele>694.6666666666666</ele><time>2026-04-08T16:42:52.999Z</time></trkpt><trkpt lat="44.41083582593745" lon="8.094359517641275"><ele>697.3333333333334</ele><time>2026-04-08T16:42:53.999Z</time></trkpt><trkpt lat="44.410720575415155" lon="8.094583203325856"><ele>700.0</ele><time>2026-04-08T16:42:54.999Z</time></trkpt><trkpt lat="44.410607077916545" lon="8.094803486881366"><ele>700.6666666666667</ele><time>2026-04-08T16:42:55.999Z</time></trkpt><trkpt lat="44.4105006013616" lon="8.095011772201357"><ele>701.3333333333334</ele><time>2026-04-08T16:42:56.999Z</time></trkpt><trkpt lat="44.41040351485962" lon="8.095202986412364"><ele>702.0</ele><time>2026-04-08T16:42:57.999Z</time></trkpt><trkpt lat="44.410313368049195" lon="8.095381838459051"><ele>702.0</ele><time>2026-04-08T16:42:58.999Z</time></trkpt><trkpt lat="44.4102189617203" lon="8.095588060450837"><ele>702.0</ele><time>2026-04-08T16:42:59.999Z</time></trkpt><trkpt lat="44.41014362059677" lon="8.095800646402575"><ele>702.0</ele><time>2026-04-08T16:43:00.999Z</time></trkpt><trkpt lat="44.410079007224745" lon="8.096010927241194"><ele>704.75</ele><time>2026-04-08T16:43:01.999Z</time></trkpt><trkpt lat="44.41002153981471" lon="8.096220444634515"><ele>707.5</ele><time>2026-04-08T16:43:02.999Z</time></trkpt><trkpt lat="44.40997578366745" lon="8.096400742464027"><ele>710.25</ele><time>2026-04-08T16:43:03.999Z</time></trkpt><trkpt lat="44.409935971079705" lon="8.096586229353322"><ele>713.0</ele><time>2026-04-08T16:43:04.999Z</time></trkpt><trkpt lat="44.409923999228035" lon="8.09678092058525"><ele>715.0</ele><time>2026-04-08T16:43:05.999Z</time></trkpt><trkpt lat="44.40992696616023" lon="8.096976224327795"><ele>717.0</ele><time>2026-04-08T16:43:06.999Z</time></trkpt><trkpt lat="44.409953839305906" lon="8.097168339754477"><ele>719.0</ele><time>2026-04-08T16:43:07.999Z</time></trkpt><trkpt lat="44.40999630409139" lon="8.097356382878864"><ele>721.0</ele><time>2026-04-08T16:43:08.999Z</time></trkpt><trkpt lat="44.41004784376358" lon="8.097547483590358"><ele>722.3333333333334</ele><time>2026-04-08T16:43:09.999Z</time></trkpt><trkpt lat="44.41011288828499" lon="8.09773771187639"><ele>723.6666666666666</ele><time>2026-04-08T16:43:10.999Z</time></trkpt><trkpt lat="44.41017431995117" lon="8.097927477670416"><ele>725.0</ele><time>2026-04-08T16:43:11.999Z</time></trkpt><trkpt lat="44.41024341823863" lon="8.098113953321551"><ele>724.6666666666666</ele><time>2026-04-08T16:43:12.999Z</time></trkpt><trkpt lat="44.41031155049621" lon="8.098302158255311"><ele>724.3333333333334</ele><time>2026-04-08T16:43:13.999Z</time></trkpt><trkpt lat="44.41038772998241" lon="8.098483188663133"><ele>724.0</ele><time>2026-04-08T16:43:14.999Z</time></trkpt><trkpt lat="44.41045926903766" lon="8.098666464441909"><ele>724.75</ele><time>2026-04-08T16:43:15.998Z</time></trkpt><trkpt lat="44.410522374507195" lon="8.098815266275254"><ele>725.5</ele><time>2026-04-08T16:43:16.998Z</time></trkpt><trkpt lat="44.410567800432496" lon="8.098960852826934"><ele>726.25</ele><time>2026-04-08T16:43:17.998Z</time></trkpt><trkpt lat="44.41059970436285" lon="8.099108630698204"><ele>727.0</ele><time>2026-04-08T16:43:18.998Z</time></trkpt><trkpt lat="44.41061406389886" lon="8.09927866683494"><ele>727.0</ele><time>2026-04-08T16:43:19.998Z</time></trkpt><trkpt lat="44.410602758728324" lon="8.099456645915499"><ele>727.0</ele><time>2026-04-08T16:43:20.998Z</time></trkpt><trkpt lat="44.4105661048267" lon="8.0996266770865"><ele>727.0</ele><time>2026-04-08T16:43:21.998Z</time></trkpt><trkpt lat="44.410496415693636" lon="8.099793921191079"><ele>727.0</ele><time>2026-04-08T16:43:22.998Z</time></trkpt><trkpt lat="44.41043393722388" lon="8.099987411992327"><ele>721.6666666666667</ele><time>2026-04-08T16:43:23.998Z</time></trkpt><trkpt lat="44.41037425088996" lon="8.100173403351619"><ele>716.3333333333334</ele><time>2026-04-08T16:43:24.998Z</time></trkpt><trkpt lat="44.4103097796801" lon="8.10036938578316"><ele>711.0</ele><time>2026-04-08T16:43:25.998Z</time></trkpt><trkpt lat="44.410244124193035" lon="8.100560807629076"><ele>711.0</ele><time>2026-04-08T16:43:26.998Z</time></trkpt><trkpt lat="44.41018756702211" lon="8.100735642681217"><ele>711.0</ele><time>2026-04-08T16:43:27.998Z</time></trkpt><trkpt lat="44.410115202224034" lon="8.100903858379013"><ele>711.0</ele><time>2026-04-08T16:43:28.998Z</time></trkpt><trkpt lat="44.41003289756296" lon="8.101049807775023"><ele>711.0</ele><time>2026-04-08T16:43:29.998Z</time></trkpt><trkpt lat="44.40995769424441" lon="8.101179118596356"><ele>713.75</ele><time>2026-04-08T16:43:31Z</time></trkpt><trkpt lat="44.40988714801683" lon="8.101320433355204"><ele>716.5</ele><time>2026-04-08T16:43:32Z</time></trkpt><trkpt lat="44.40983294511789" lon="8.10147485939169"><ele>719.25</ele><time>2026-04-08T16:43:33Z</time></trkpt><trkpt lat="44.40979135370432" lon="8.10164766610624"><ele>722.0</ele><time>2026-04-08T16:43:34Z</time></trkpt><trkpt lat="44.40975904669819" lon="8.101807377321935"><ele>722.2</ele><time>2026-04-08T16:43:35Z</time></trkpt><trkpt lat="44.40973124760732" lon="8.101967476140773"><ele>722.4000000000001</ele><time>2026-04-08T16:43:36Z</time></trkpt><trkpt lat="44.40970301719886" lon="8.102118181177362"><ele>722.5999999999999</ele><time>2026-04-08T16:43:37Z</time></trkpt><trkpt lat="44.40966197079338" lon="8.102267713740268"><ele>722.8</ele><time>2026-04-08T16:43:38Z</time></trkpt><trkpt lat="44.409639765631056" lon="8.102406245125886"><ele>723.0</ele><time>2026-04-08T16:43:39Z</time></trkpt><trkpt lat="44.4096184053632" lon="8.102551651786172"><ele>720.5999999999999</ele><time>2026-04-08T16:43:40Z</time></trkpt><trkpt lat="44.40959993322286" lon="8.10269145243593"><ele>718.1999999999999</ele><time>2026-04-08T16:43:41Z</time></trkpt><trkpt lat="44.40958416971869" lon="8.102841065078493"><ele>715.8</ele><time>2026-04-08T16:43:42Z</time></trkpt><trkpt lat="44.409582994436015" lon="8.10299515847662"><ele>713.4</ele><time>2026-04-08T16:43:43Z</time></trkpt><trkpt lat="44.40955710614739" lon="8.103145368530065"><ele>711.0</ele><time>2026-04-08T16:43:44Z</time></trkpt><trkpt lat="44.4095368704112" lon="8.103297349767233"><ele>711.0</ele><time>2026-04-08T16:43:45Z</time></trkpt><trkpt lat="44.409517063180914" lon="8.103437907956375"><ele>711.0</ele><time>2026-04-08T16:43:46Z</time></trkpt><trkpt lat="44.409472365132416" lon="8.10357489741536"><ele>711.0</ele><time>2026-04-08T16:43:47Z</time></trkpt><trkpt lat="44.40946139665359" lon="8.10372431299077"><ele>711.0</ele><time>2026-04-08T16:43:48Z</time></trkpt><trkpt lat="44.40944551816498" lon="8.103868171649536"><ele>711.0</ele><time>2026-04-08T16:43:49Z</time></trkpt><trkpt lat="44.409436323552434" lon="8.104023750020595"><ele>712.0</ele><time>2026-04-08T16:43:50Z</time></trkpt><trkpt lat="44.409433219774584" lon="8.10416168847217"><ele>713.0</ele><time>2026-04-08T16:43:51Z</time></trkpt><trkpt lat="44.409426509993175" lon="8.104303255107473"><ele>714.0</ele><time>2026-04-08T16:43:52Z</time></trkpt><trkpt lat="44.40941161278209" lon="8.104432528254149"><ele>715.0</ele><time>2026-04-08T16:43:53Z</time></trkpt><trkpt lat="44.40938562442362" lon="8.104594333581748"><ele>716.0</ele><time>2026-04-08T16:43:54Z</time></trkpt><trkpt lat="44.40935609354141" lon="8.104739858444622"><ele>716.0</ele><time>2026-04-08T16:43:55Z</time></trkpt><trkpt lat="44.40931796876621" lon="8.104854623524922"><ele>716.0</ele><time>2026-04-08T16:43:56Z</time></trkpt><trkpt lat="44.40926052717903" lon="8.104978683566443"><ele>716.0</ele><time>2026-04-08T16:43:57Z</time></trkpt><trkpt lat="44.40918636439677" lon="8.10510397732325"><ele>716.0</ele><time>2026-04-08T16:43:58Z</time></trkpt><trkpt lat="44.409115151007654" lon="8.1052340886766"><ele>716.0</ele><time>2026-04-08T16:43:59Z</time></trkpt><trkpt lat="44.40906270773005" lon="8.105366262949454"><ele>715.4</ele><time>2026-04-08T16:44:00Z</time></trkpt><trkpt lat="44.40900216051818" lon="8.105507318369465"><ele>714.8</ele><time>2026-04-08T16:44:01Z</time></trkpt><trkpt lat="44.4089586872798" lon="8.105629326126992"><ele>714.1999999999999</ele><time>2026-04-08T16:44:02Z</time></trkpt><trkpt lat="44.408898150946754" lon="8.105722845209865"><ele>713.5999999999999</ele><time>2026-04-08T16:44:03Z</time></trkpt><trkpt lat="44.408824920277006" lon="8.105813692743293"><ele>713.0</ele><time>2026-04-08T16:44:04Z</time></trkpt><trkpt lat="44.408738973744605" lon="8.105893537202464"><ele>713.0</ele><time>2026-04-08T16:44:05Z</time></trkpt><trkpt lat="44.40863725906235" lon="8.105956482624494"><ele>713.0</ele><time>2026-04-08T16:44:06Z</time></trkpt><trkpt lat="44.408529652932614" lon="8.10599658550038"><ele>713.0</ele><time>2026-04-08T16:44:07Z</time></trkpt><trkpt lat="44.408440157693036" lon="8.106035895853362"><ele>713.0</ele><time>2026-04-08T16:44:08Z</time></trkpt><trkpt lat="44.408351508131304" lon="8.10607882185602"><ele>713.0</ele><time>2026-04-08T16:44:09Z</time></trkpt><trkpt lat="44.408262377081805" lon="8.106154693228884"><ele>713.0</ele><time>2026-04-08T16:44:10Z</time></trkpt><trkpt lat="44.40816172880138" lon="8.106278902471024"><ele>713.0</ele><time>2026-04-08T16:44:11Z</time></trkpt><trkpt lat="44.408065120146055" lon="8.106422447243522"><ele>713.0</ele><time>2026-04-08T16:44:12Z</time></trkpt><trkpt lat="44.407968240477835" lon="8.106561160448083"><ele>713.0</ele><time>2026-04-08T16:44:13Z</time></trkpt><trkpt lat="44.40787631436999" lon="8.106681637338754"><ele>712.25</ele><time>2026-04-08T16:44:14Z</time></trkpt><trkpt lat="44.4077788493232" lon="8.10676138779251"><ele>711.5</ele><time>2026-04-08T16:44:15Z</time></trkpt><trkpt lat="44.40764923713728" lon="8.106849671907787"><ele>710.75</ele><time>2026-04-08T16:44:16Z</time></trkpt><trkpt lat="44.40752525249882" lon="8.106929032232436"><ele>710.0</ele><time>2026-04-08T16:44:17Z</time></trkpt><trkpt lat="44.40739814162855" lon="8.107008768413069"><ele>710.0</ele><time>2026-04-08T16:44:17.999Z</time></trkpt><trkpt lat="44.407275671182354" lon="8.107090795779113"><ele>710.0</ele><time>2026-04-08T16:44:18.999Z</time></trkpt><trkpt lat="44.40716527043752" lon="8.107172387229593"><ele>710.0</ele><time>2026-04-08T16:44:19.999Z</time></trkpt><trkpt lat="44.40705534753783" lon="8.107262285078765"><ele>710.0</ele><time>2026-04-08T16:44:20.999Z</time></trkpt><trkpt lat="44.40694553086018" lon="8.10737493494455"><ele>710.3333333333333</ele><time>2026-04-08T16:44:21.999Z</time></trkpt><trkpt lat="44.40684382544855" lon="8.107527704619915"><ele>710.6666666666666</ele><time>2026-04-08T16:44:22.999Z</time></trkpt><trkpt lat="44.4067443836786" lon="8.107681694028717"><ele>711.0</ele><time>2026-04-08T16:44:23.999Z</time></trkpt><trkpt lat="44.40664135636587" lon="8.107847837953795"><ele>711.0</ele><time>2026-04-08T16:44:24.999Z</time></trkpt><trkpt lat="44.40653781161062" lon="8.108025603695681"><ele>711.0</ele><time>2026-04-08T16:44:25.999Z</time></trkpt><trkpt lat="44.40643628285282" lon="8.108202288302705"><ele>711.0</ele><time>2026-04-08T16:44:26.999Z</time></trkpt><trkpt lat="44.406323552824325" lon="8.108389318234396"><ele>707.6666666666666</ele><time>2026-04-08T16:44:27.999Z</time></trkpt><trkpt lat="44.40620294553415" lon="8.108580152701721"><ele>704.3333333333333</ele><time>2026-04-08T16:44:28.999Z</time></trkpt><trkpt lat="44.406087423916155" lon="8.108752533416375"><ele>701.0</ele><time>2026-04-08T16:44:29.999Z</time></trkpt><trkpt lat="44.40596399024028" lon="8.108926630537809"><ele>704.6666666666666</ele><time>2026-04-08T16:44:30.999Z</time></trkpt><trkpt lat="44.405845828461075" lon="8.109113632936603"><ele>708.3333333333334</ele><time>2026-04-08T16:44:31.999Z</time></trkpt><trkpt lat="44.40571359216113" lon="8.109261124326204"><ele>712.0</ele><time>2026-04-08T16:44:32.999Z</time></trkpt><trkpt lat="44.405590172479954" lon="8.109408835429157"><ele>711.0</ele><time>2026-04-08T16:44:33.999Z</time></trkpt><trkpt lat="44.40547786108404" lon="8.109547515691718"><ele>710.0</ele><time>2026-04-08T16:44:34.999Z</time></trkpt><trkpt lat="44.40537183315543" lon="8.109675156006045"><ele>709.0</ele><time>2026-04-08T16:44:35.999Z</time></trkpt><trkpt lat="44.40527266730578" lon="8.109794169112458"><ele>708.0</ele><time>2026-04-08T16:44:36.999Z</time></trkpt><trkpt lat="44.40517538900838" lon="8.109929928956284"><ele>708.0</ele><time>2026-04-08T16:44:37.999Z</time></trkpt><trkpt lat="44.40508504276449" lon="8.110095397586525"><ele>708.0</ele><time>2026-04-08T16:44:38.999Z</time></trkpt><trkpt lat="44.40501031847915" lon="8.11029970993059"><ele>708.0</ele><time>2026-04-08T16:44:39.999Z</time></trkpt><trkpt lat="44.404930692386976" lon="8.110503330753124"><ele>708.0</ele><time>2026-04-08T16:44:40.999Z</time></trkpt><trkpt lat="44.404863554235675" lon="8.11068422159836"><ele>708.0</ele><time>2026-04-08T16:44:41.999Z</time></trkpt><trkpt lat="44.40479065485499" lon="8.110860988938338"><ele>708.0</ele><time>2026-04-08T16:44:42.999Z</time></trkpt><trkpt lat="44.40470812801813" lon="8.111032812522845"><ele>708.0</ele><time>2026-04-08T16:44:43.999Z</time></trkpt><trkpt lat="44.40460859994258" lon="8.111198750065004"><ele>706.3333333333334</ele><time>2026-04-08T16:44:44.999Z</time></trkpt><trkpt lat="44.40451692648172" lon="8.111352115113874"><ele>704.6666666666667</ele><time>2026-04-08T16:44:45.999Z</time></trkpt><trkpt lat="44.40439626528027" lon="8.111493236739415"><ele>703.0</ele><time>2026-04-08T16:44:46.999Z</time></trkpt><trkpt lat="44.4042986144736" lon="8.11165802618114"><ele>703.0</ele><time>2026-04-08T16:44:47.999Z</time></trkpt><trkpt lat="44.40420756089614" lon="8.11181100437222"><ele>703.0</ele><time>2026-04-08T16:44:48.999Z</time></trkpt><trkpt lat="44.40411885454979" lon="8.111962478588127"><ele>703.0</ele><time>2026-04-08T16:44:49.999Z</time></trkpt><trkpt lat="44.404027903874024" lon="8.112102209610786"><ele>703.0</ele><time>2026-04-08T16:44:50.999Z</time></trkpt><trkpt lat="44.403933190533856" lon="8.112240309370145"><ele>703.0</ele><time>2026-04-08T16:44:51.999Z</time></trkpt><trkpt lat="44.40384807474334" lon="8.112365063416316"><ele>703.0</ele><time>2026-04-08T16:44:52.999Z</time></trkpt><trkpt lat="44.40376693960632" lon="8.112479512511795"><ele>703.0</ele><time>2026-04-08T16:44:53.999Z</time></trkpt><trkpt lat="44.40369335950184" lon="8.112597342942514"><ele>703.0</ele><time>2026-04-08T16:44:54.999Z</time></trkpt><trkpt lat="44.40362763491338" lon="8.112722717479077"><ele>702.5</ele><time>2026-04-08T16:44:55.999Z</time></trkpt><trkpt lat="44.40357005122768" lon="8.11287643348229"><ele>702.0</ele><time>2026-04-08T16:44:56.999Z</time></trkpt><trkpt lat="44.40353689974631" lon="8.113046363205848"><ele>701.5</ele><time>2026-04-08T16:44:57.999Z</time></trkpt><trkpt lat="44.40350281858781" lon="8.113251632124268"><ele>701.0</ele><time>2026-04-08T16:44:58.999Z</time></trkpt><trkpt lat="44.40347443999137" lon="8.113461443552286"><ele>701.0</ele><time>2026-04-08T16:44:59.999Z</time></trkpt><trkpt lat="44.403442759764076" lon="8.113698480268543"><ele>701.0</ele><time>2026-04-08T16:45:00.999Z</time></trkpt><trkpt lat="44.403410036493185" lon="8.113917207622663"><ele>701.0</ele><time>2026-04-08T16:45:01.999Z</time></trkpt><trkpt lat="44.40338367495369" lon="8.114120058005039"><ele>700.5</ele><time>2026-04-08T16:45:02.999Z</time></trkpt><trkpt lat="44.40336137779716" lon="8.114318205322077"><ele>700.0</ele><time>2026-04-08T16:45:03.999Z</time></trkpt><trkpt lat="44.40334555254343" lon="8.114506862322564"><ele>699.5</ele><time>2026-04-08T16:45:04.999Z</time></trkpt><trkpt lat="44.403332872062364" lon="8.114665615307954"><ele>699.0</ele><time>2026-04-08T16:45:05.999Z</time></trkpt><trkpt lat="44.4033134823279" lon="8.114818267437586"><ele>699.0</ele><time>2026-04-08T16:45:06.999Z</time></trkpt><trkpt lat="44.403293409404206" lon="8.114964005704786"><ele>699.0</ele><time>2026-04-08T16:45:07.999Z</time></trkpt><trkpt lat="44.40325669368038" lon="8.115133670799988"><ele>699.0</ele><time>2026-04-08T16:45:08.999Z</time></trkpt><trkpt lat="44.403188839255556" lon="8.115305656609326"><ele>699.0</ele><time>2026-04-08T16:45:09.999Z</time></trkpt><trkpt lat="44.40307930568534" lon="8.115434829764865"><ele>698.5</ele><time>2026-04-08T16:45:10.999Z</time></trkpt><trkpt lat="44.40296887302105" lon="8.11555575004936"><ele>698.0</ele><time>2026-04-08T16:45:11.999Z</time></trkpt><trkpt lat="44.402845822832425" lon="8.115692933152975"><ele>697.5</ele><time>2026-04-08T16:45:12.999Z</time></trkpt><trkpt lat="44.40274898710227" lon="8.115836875635106"><ele>697.0</ele><time>2026-04-08T16:45:13.999Z</time></trkpt><trkpt lat="44.402648099570975" lon="8.115970177465888"><ele>697.0</ele><time>2026-04-08T16:45:14.999Z</time></trkpt><trkpt lat="44.402554055807755" lon="8.11612749160156"><ele>697.0</ele><time>2026-04-08T16:45:15.999Z</time></trkpt><trkpt lat="44.40246711360877" lon="8.116301346491555"><ele>697.0</ele><time>2026-04-08T16:45:16.999Z</time></trkpt><trkpt lat="44.402398069115" lon="8.116463217200526"><ele>697.0</ele><time>2026-04-08T16:45:17.999Z</time></trkpt><trkpt lat="44.402312803206364" lon="8.11661986948952"><ele>697.5</ele><time>2026-04-08T16:45:18.999Z</time></trkpt><trkpt lat="44.402214010380206" lon="8.116767678086703"><ele>698.0</ele><time>2026-04-08T16:45:19.999Z</time></trkpt><trkpt lat="44.402113054764015" lon="8.116889524216989"><ele>698.5</ele><time>2026-04-08T16:45:20.998Z</time></trkpt><trkpt lat="44.402020228466725" lon="8.11699148240499"><ele>699.0</ele><time>2026-04-08T16:45:21.998Z</time></trkpt><trkpt lat="44.40194172482275" lon="8.11709188547092"><ele>699.5</ele><time>2026-04-08T16:45:22.998Z</time></trkpt><trkpt lat="44.401855946306334" lon="8.117172561916163"><ele>700.0</ele><time>2026-04-08T16:45:23.998Z</time></trkpt><trkpt lat="44.40178196584942" lon="8.117244246826283"><ele>700.5</ele><time>2026-04-08T16:45:24.998Z</time></trkpt><trkpt lat="44.401716131355954" lon="8.117297120828388"><ele>701.0</ele><time>2026-04-08T16:45:25.998Z</time></trkpt><trkpt lat="44.40165300201706" lon="8.117337876853354"><ele>701.5</ele><time>2026-04-08T16:45:26.998Z</time></trkpt><trkpt lat="44.4015682742964" lon="8.117362239612874"><ele>702.0</ele><time>2026-04-08T16:45:27.998Z</time></trkpt><trkpt lat="44.401486420660056" lon="8.117404980772767"><ele>702.0</ele><time>2026-04-08T16:45:28.998Z</time></trkpt><trkpt lat="44.401410917190304" lon="8.11748692212939"><ele>702.0</ele><time>2026-04-08T16:45:29.998Z</time></trkpt><trkpt lat="44.4013516100507" lon="8.11758189433993"><ele>702.0</ele><time>2026-04-08T16:45:30.998Z</time></trkpt><trkpt lat="44.40128844519569" lon="8.117683081200802"><ele>702.0</ele><time>2026-04-08T16:45:31.998Z</time></trkpt><trkpt lat="44.401204123379785" lon="8.117761670846175"><ele>702.0</ele><time>2026-04-08T16:45:32.998Z</time></trkpt><trkpt lat="44.40111495919799" lon="8.117845754375592"><ele>701.8</ele><time>2026-04-08T16:45:33.998Z</time></trkpt><trkpt lat="44.4010177095365" lon="8.117929359733628"><ele>701.6</ele><time>2026-04-08T16:45:34.998Z</time></trkpt><trkpt lat="44.40092756115284" lon="8.11800875690211"><ele>701.4</ele><time>2026-04-08T16:45:35.998Z</time></trkpt><trkpt lat="44.40084340782142" lon="8.118103704012288"><ele>701.1999999999999</ele><time>2026-04-08T16:45:37Z</time></trkpt><trkpt lat="44.40077005372783" lon="8.118212924676003"><ele>701.0</ele><time>2026-04-08T16:45:38Z</time></trkpt><trkpt lat="44.400680419242946" lon="8.11833563611747"><ele>701.0</ele><time>2026-04-08T16:45:39Z</time></trkpt><trkpt lat="44.40060365195686" lon="8.118471315017658"><ele>701.0</ele><time>2026-04-08T16:45:40Z</time></trkpt><trkpt lat="44.40051764091271" lon="8.118621735282602"><ele>701.0</ele><time>2026-04-08T16:45:41Z</time></trkpt><trkpt lat="44.400447200073934" lon="8.118799780227551"><ele>701.0</ele><time>2026-04-08T16:45:42Z</time></trkpt><trkpt lat="44.4003752327153" lon="8.119009160232613"><ele>706.0</ele><time>2026-04-08T16:45:43Z</time></trkpt><trkpt lat="44.40031194457185" lon="8.119233655679253"><ele>711.0</ele><time>2026-04-08T16:45:44Z</time></trkpt><trkpt lat="44.400261215730694" lon="8.11947886666989"><ele>716.0</ele><time>2026-04-08T16:45:45Z</time></trkpt><trkpt lat="44.40021790246478" lon="8.119731879204124"><ele>714.6666666666666</ele><time>2026-04-08T16:45:46Z</time></trkpt><trkpt lat="44.40017247750562" lon="8.1199599049576"><ele>713.3333333333334</ele><time>2026-04-08T16:45:47Z</time></trkpt><trkpt lat="44.40012425963365" lon="8.12015389825441"><ele>712.0</ele><time>2026-04-08T16:45:48Z</time></trkpt><trkpt lat="44.40008066121399" lon="8.12033629907605"><ele>712.0</ele><time>2026-04-08T16:45:49Z</time></trkpt><trkpt lat="44.40003642775271" lon="8.12051111023922"><ele>712.0</ele><time>2026-04-08T16:45:50Z</time></trkpt><trkpt lat="44.39999015256018" lon="8.120665177955924"><ele>712.0</ele><time>2026-04-08T16:45:51Z</time></trkpt><trkpt lat="44.399926106105106" lon="8.120822689705427"><ele>712.0</ele><time>2026-04-08T16:45:52Z</time></trkpt><trkpt lat="44.39984058809838" lon="8.12097756816319"><ele>712.0</ele><time>2026-04-08T16:45:53Z</time></trkpt><trkpt lat="44.39972388044469" lon="8.121114957530384"><ele>712.0</ele><time>2026-04-08T16:45:54Z</time></trkpt><trkpt lat="44.39960627457377" lon="8.121281079506993"><ele>712.0</ele><time>2026-04-08T16:45:55Z</time></trkpt><trkpt lat="44.399509276335884" lon="8.121443555542884"><ele>710.6666666666667</ele><time>2026-04-08T16:45:56Z</time></trkpt><trkpt lat="44.39939940209879" lon="8.121595209632845"><ele>709.3333333333334</ele><time>2026-04-08T16:45:57Z</time></trkpt><trkpt lat="44.39928986572048" lon="8.121720526172258"><ele>708.0</ele><time>2026-04-08T16:45:58Z</time></trkpt><trkpt lat="44.39916107290573" lon="8.121869029492919"><ele>708.0</ele><time>2026-04-08T16:45:59Z</time></trkpt><trkpt lat="44.3990186590457" lon="8.121999143022311"><ele>708.0</ele><time>2026-04-08T16:46:00Z</time></trkpt><trkpt lat="44.39889552806748" lon="8.122116804106968"><ele>708.0</ele><time>2026-04-08T16:46:01Z</time></trkpt><trkpt lat="44.39877396247952" lon="8.122246599083125"><ele>705.3333333333334</ele><time>2026-04-08T16:46:02Z</time></trkpt><trkpt lat="44.398644716069064" lon="8.122358884357192"><ele>702.6666666666667</ele><time>2026-04-08T16:46:03Z</time></trkpt><trkpt lat="44.398518676986754" lon="8.12247612180686"><ele>700.0</ele><time>2026-04-08T16:46:04Z</time></trkpt><trkpt lat="44.39838299244588" lon="8.12255364356105"><ele>700.0</ele><time>2026-04-08T16:46:05Z</time></trkpt><trkpt lat="44.398275895958704" lon="8.122657028233757"><ele>700.0</ele><time>2026-04-08T16:46:06Z</time></trkpt><trkpt lat="44.39818515820856" lon="8.122739394509972"><ele>700.0</ele><time>2026-04-08T16:46:07Z</time></trkpt><trkpt lat="44.398097838564944" lon="8.122819198203706"><ele>700.0</ele><time>2026-04-08T16:46:08Z</time></trkpt><trkpt lat="44.39800538015217" lon="8.122903815556754"><ele>698.2</ele><time>2026-04-08T16:46:09Z</time></trkpt><trkpt lat="44.397930150916885" lon="8.122982491861942"><ele>696.4</ele><time>2026-04-08T16:46:10Z</time></trkpt><trkpt lat="44.39786237812484" lon="8.123070641193019"><ele>694.5999999999999</ele><time>2026-04-08T16:46:11Z</time></trkpt><trkpt lat="44.39779414855663" lon="8.123170668842139"><ele>692.8</ele><time>2026-04-08T16:46:12Z</time></trkpt><trkpt lat="44.39773409192603" lon="8.123293384837721"><ele>691.0</ele><time>2026-04-08T16:46:13Z</time></trkpt><trkpt lat="44.397697766521546" lon="8.123423104210465"><ele>691.0</ele><time>2026-04-08T16:46:14Z</time></trkpt><trkpt lat="44.397678672257285" lon="8.12356466424652"><ele>691.0</ele><time>2026-04-08T16:46:15Z</time></trkpt><trkpt lat="44.397676994159845" lon="8.123729586706903"><ele>691.0</ele><time>2026-04-08T16:46:16Z</time></trkpt><trkpt lat="44.39768848387325" lon="8.123896965588653"><ele>691.0</ele><time>2026-04-08T16:46:17Z</time></trkpt><trkpt lat="44.397685574589005" lon="8.124050450394458"><ele>690.25</ele><time>2026-04-08T16:46:18Z</time></trkpt><trkpt lat="44.39767588774704" lon="8.124195179911519"><ele>689.5</ele><time>2026-04-08T16:46:19Z</time></trkpt><trkpt lat="44.39765491569738" lon="8.124341140657343"><ele>688.75</ele><time>2026-04-08T16:46:20Z</time></trkpt><trkpt lat="44.39759582294885" lon="8.124490266024626"><ele>688.0</ele><time>2026-04-08T16:46:21Z</time></trkpt><trkpt lat="44.39752089451711" lon="8.12463050733883"><ele>688.0</ele><time>2026-04-08T16:46:22Z</time></trkpt><trkpt lat="44.39740821862103" lon="8.12475800297914"><ele>688.0</ele><time>2026-04-08T16:46:23Z</time></trkpt><trkpt lat="44.39728056703149" lon="8.124883620124262"><ele>688.0</ele><time>2026-04-08T16:46:23.999Z</time></trkpt><trkpt lat="44.39715674756226" lon="8.12499452272611"><ele>688.0</ele><time>2026-04-08T16:46:24.999Z</time></trkpt><trkpt lat="44.3970125047534" lon="8.125110742070385"><ele>686.5</ele><time>2026-04-08T16:46:25.999Z</time></trkpt><trkpt lat="44.39689280726677" lon="8.125218299353154"><ele>685.0</ele><time>2026-04-08T16:46:26.999Z</time></trkpt><trkpt lat="44.39678439273918" lon="8.1253181606875"><ele>683.5</ele><time>2026-04-08T16:46:27.999Z</time></trkpt><trkpt lat="44.396684421074696" lon="8.125406914193174"><ele>682.0</ele><time>2026-04-08T16:46:28.999Z</time></trkpt><trkpt lat="44.39660084142217" lon="8.125500869260478"><ele>682.0</ele><time>2026-04-08T16:46:29.999Z</time></trkpt><trkpt lat="44.39651981971547" lon="8.125612388647385"><ele>682.0</ele><time>2026-04-08T16:46:30.999Z</time></trkpt><trkpt lat="44.396444077527285" lon="8.125752238358388"><ele>682.0</ele><time>2026-04-08T16:46:31.999Z</time></trkpt><trkpt lat="44.39638778902865" lon="8.125917923473553"><ele>682.0</ele><time>2026-04-08T16:46:32.999Z</time></trkpt><trkpt lat="44.396325117501895" lon="8.126105503445704"><ele>681.6666666666667</ele><time>2026-04-08T16:46:33.999Z</time></trkpt><trkpt lat="44.39629838981587" lon="8.126313151752337"><ele>681.3333333333334</ele><time>2026-04-08T16:46:34.999Z</time></trkpt><trkpt lat="44.396276663558076" lon="8.126536007575952"><ele>681.0</ele><time>2026-04-08T16:46:35.999Z</time></trkpt><trkpt lat="44.39625828689505" lon="8.126737260298613"><ele>681.0</ele><time>2026-04-08T16:46:36.999Z</time></trkpt><trkpt lat="44.39622218016588" lon="8.126924934158575"><ele>681.0</ele><time>2026-04-08T16:46:37.999Z</time></trkpt><trkpt lat="44.39618426598357" lon="8.127117375626721"><ele>681.0</ele><time>2026-04-08T16:46:38.999Z</time></trkpt><trkpt lat="44.39612275768727" lon="8.127294535326358"><ele>681.0</ele><time>2026-04-08T16:46:39.999Z</time></trkpt><trkpt lat="44.39604330945123" lon="8.127467416074813"><ele>680.25</ele><time>2026-04-08T16:46:40.999Z</time></trkpt><trkpt lat="44.39594776801856" lon="8.127636961373058"><ele>679.5</ele><time>2026-04-08T16:46:41.999Z</time></trkpt><trkpt lat="44.39585965588296" lon="8.127781027555633"><ele>678.75</ele><time>2026-04-08T16:46:42.999Z</time></trkpt><trkpt lat="44.39573878134104" lon="8.127925983687334"><ele>678.0</ele><time>2026-04-08T16:46:43.999Z</time></trkpt><trkpt lat="44.395605414421475" lon="8.12806769818902"><ele>674.3333333333334</ele><time>2026-04-08T16:46:44.999Z</time></trkpt><trkpt lat="44.395457404521736" lon="8.128189868813202"><ele>670.6666666666667</ele><time>2026-04-08T16:46:45.999Z</time></trkpt><trkpt lat="44.39529389739459" lon="8.12830160322402"><ele>667.0</ele><time>2026-04-08T16:46:46.999Z</time></trkpt><trkpt lat="44.39512744940608" lon="8.128400875736274"><ele>667.0</ele><time>2026-04-08T16:46:47.999Z</time></trkpt><trkpt lat="44.394976175727855" lon="8.128492112691006"><ele>667.0</ele><time>2026-04-08T16:46:48.999Z</time></trkpt><trkpt lat="44.394820675276385" lon="8.128568281633171"><ele>667.0</ele><time>2026-04-08T16:46:49.999Z</time></trkpt><trkpt lat="44.394658020298245" lon="8.128637099797345"><ele>667.75</ele><time>2026-04-08T16:46:50.999Z</time></trkpt><trkpt lat="44.39451502759226" lon="8.128662014765997"><ele>668.5</ele><time>2026-04-08T16:46:51.999Z</time></trkpt><trkpt lat="44.39436368339007" lon="8.128671594607448"><ele>669.25</ele><time>2026-04-08T16:46:52.999Z</time></trkpt><trkpt lat="44.39424186660208" lon="8.128673934915742"><ele>670.0</ele><time>2026-04-08T16:46:53.999Z</time></trkpt><trkpt lat="44.39411866516329" lon="8.128704598490566"><ele>670.0</ele><time>2026-04-08T16:46:54.999Z</time></trkpt><trkpt lat="44.393992782098316" lon="8.128732596815231"><ele>670.0</ele><time>2026-04-08T16:46:55.999Z</time></trkpt><trkpt lat="44.39387100186753" lon="8.128792505186519"><ele>670.0</ele><time>2026-04-08T16:46:56.999Z</time></trkpt><trkpt lat="44.39374247262296" lon="8.128876797962961"><ele>670.0</ele><time>2026-04-08T16:46:57.999Z</time></trkpt><trkpt lat="44.39361674066922" lon="8.128988448910961"><ele>672.0</ele><time>2026-04-08T16:46:58.999Z</time></trkpt><trkpt lat="44.39349353647199" lon="8.129096993765184"><ele>674.0</ele><time>2026-04-08T16:46:59.999Z</time></trkpt><trkpt lat="44.39336449952622" lon="8.12921869741183"><ele>676.0</ele><time>2026-04-08T16:47:00.999Z</time></trkpt><trkpt lat="44.39325050319271" lon="8.12937230814129"><ele>676.0</ele><time>2026-04-08T16:47:01.999Z</time></trkpt><trkpt lat="44.39314354377467" lon="8.129550401371986"><ele>676.0</ele><time>2026-04-08T16:47:02.999Z</time></trkpt><trkpt lat="44.393032853391716" lon="8.129714355163205"><ele>676.0</ele><time>2026-04-08T16:47:03.999Z</time></trkpt><trkpt lat="44.392909430666165" lon="8.129864983698038"><ele>679.3333333333334</ele><time>2026-04-08T16:47:04.999Z</time></trkpt><trkpt lat="44.392769887002906" lon="8.130000249545704"><ele>682.6666666666666</ele><time>2026-04-08T16:47:05.999Z</time></trkpt><trkpt lat="44.392633569818734" lon="8.130111802816067"><ele>686.0</ele><time>2026-04-08T16:47:06.999Z</time></trkpt><trkpt lat="44.39251591767458" lon="8.130201338589155"><ele>686.0</ele><time>2026-04-08T16:47:07.999Z</time></trkpt><trkpt lat="44.392402588519104" lon="8.13027557354521"><ele>686.0</ele><time>2026-04-08T16:47:08.999Z</time></trkpt><trkpt lat="44.392285748042035" lon="8.130348761187769"><ele>686.0</ele><time>2026-04-08T16:47:09.999Z</time></trkpt><trkpt lat="44.392164706925165" lon="8.130407921970571"><ele>686.0</ele><time>2026-04-08T16:47:10.999Z</time></trkpt><trkpt lat="44.39203735181727" lon="8.130448512706824"><ele>687.75</ele><time>2026-04-08T16:47:11.999Z</time></trkpt><trkpt lat="44.3919158231422" lon="8.13042442749838"><ele>689.5</ele><time>2026-04-08T16:47:12.999Z</time></trkpt><trkpt lat="44.391809298769374" lon="8.130382870997016"><ele>691.25</ele><time>2026-04-08T16:47:13.999Z</time></trkpt><trkpt lat="44.391705050755135" lon="8.130330613262293"><ele>693.0</ele><time>2026-04-08T16:47:14.999Z</time></trkpt><trkpt lat="44.39158090825855" lon="8.130241985701186"><ele>693.0</ele><time>2026-04-08T16:47:15.999Z</time></trkpt><trkpt lat="44.39145942430025" lon="8.13016253535381"><ele>693.0</ele><time>2026-04-08T16:47:16.999Z</time></trkpt><trkpt lat="44.39136028406997" lon="8.130097697834191"><ele>693.0</ele><time>2026-04-08T16:47:17.999Z</time></trkpt><trkpt lat="44.39127466819397" lon="8.130041704682691"><ele>693.0</ele><time>2026-04-08T16:47:18.999Z</time></trkpt><trkpt lat="44.39117988659744" lon="8.13002114109034"><ele>693.0</ele><time>2026-04-08T16:47:19.999Z</time></trkpt><trkpt lat="44.39109061457123" lon="8.129995163436956"><ele>694.0</ele><time>2026-04-08T16:47:20.999Z</time></trkpt><trkpt lat="44.39099885824116" lon="8.129979800290133"><ele>695.0</ele><time>2026-04-08T16:47:21.999Z</time></trkpt><trkpt lat="44.39087658769961" lon="8.130077549598337"><ele>696.0</ele><time>2026-04-08T16:47:22.999Z</time></trkpt><trkpt lat="44.390778988179434" lon="8.130157465120474"><ele>697.0</ele><time>2026-04-08T16:47:23.999Z</time></trkpt><trkpt lat="44.39070210244961" lon="8.130257216841219"><ele>697.0</ele><time>2026-04-08T16:47:24.999Z</time></trkpt><trkpt lat="44.39063548594258" lon="8.130392032112177"><ele>697.0</ele><time>2026-04-08T16:47:25.999Z</time></trkpt><trkpt lat="44.39058995432712" lon="8.130550553590787"><ele>697.0</ele><time>2026-04-08T16:47:26.998Z</time></trkpt><trkpt lat="44.39050933035489" lon="8.130707473712294"><ele>697.0</ele><time>2026-04-08T16:47:27.998Z</time></trkpt><trkpt lat="44.39043515254746" lon="8.130849262957524"><ele>698.0</ele><time>2026-04-08T16:47:28.998Z</time></trkpt><trkpt lat="44.39033211173882" lon="8.130971667149403"><ele>699.0</ele><time>2026-04-08T16:47:29.998Z</time></trkpt><trkpt lat="44.390212064842835" lon="8.131098790315706"><ele>700.0</ele><time>2026-04-08T16:47:30.998Z</time></trkpt><trkpt lat="44.390079121630826" lon="8.131219327967104"><ele>701.0</ele><time>2026-04-08T16:47:31.998Z</time></trkpt><trkpt lat="44.389950430200685" lon="8.13135940988364"><ele>701.0</ele><time>2026-04-08T16:47:32.998Z</time></trkpt><trkpt lat="44.38982656148015" lon="8.13148078999259"><ele>701.0</ele><time>2026-04-08T16:47:33.998Z</time></trkpt><trkpt lat="44.389701674759266" lon="8.13159318282565"><ele>701.0</ele><time>2026-04-08T16:47:34.998Z</time></trkpt><trkpt lat="44.38955572259175" lon="8.131659723396053"><ele>703.3333333333333</ele><time>2026-04-08T16:47:35.998Z</time></trkpt><trkpt lat="44.389404407372865" lon="8.131736425443528"><ele>705.6666666666666</ele><time>2026-04-08T16:47:36.998Z</time></trkpt><trkpt lat="44.38924925466482" lon="8.131815962875665"><ele>708.0</ele><time>2026-04-08T16:47:37.998Z</time></trkpt><trkpt lat="44.3890918823512" lon="8.131918795270677"><ele>708.0</ele><time>2026-04-08T16:47:38.998Z</time></trkpt><trkpt lat="44.388938315130055" lon="8.132000207277816"><ele>708.0</ele><time>2026-04-08T16:47:39.998Z</time></trkpt><trkpt lat="44.388811407991774" lon="8.132067735360028"><ele>708.0</ele><time>2026-04-08T16:47:40.998Z</time></trkpt><trkpt lat="44.38868139464356" lon="8.132108951952718"><ele>708.0</ele><time>2026-04-08T16:47:41.998Z</time></trkpt><trkpt lat="44.38857697383576" lon="8.132156419063367"><ele>710.25</ele><time>2026-04-08T16:47:43Z</time></trkpt><trkpt lat="44.38847591590507" lon="8.132212808583416"><ele>712.5</ele><time>2026-04-08T16:47:44Z</time></trkpt><trkpt lat="44.38836012808434" lon="8.13222768053296"><ele>714.75</ele><time>2026-04-08T16:47:45Z</time></trkpt><trkpt lat="44.38823590451484" lon="8.132178019706865"><ele>717.0</ele><time>2026-04-08T16:47:46Z</time></trkpt><trkpt lat="44.38809602035787" lon="8.13212405835389"><ele>717.75</ele><time>2026-04-08T16:47:47Z</time></trkpt><trkpt lat="44.38796418270175" lon="8.13206463739124"><ele>718.5</ele><time>2026-04-08T16:47:48Z</time></trkpt><trkpt lat="44.38782882223678" lon="8.13200146911846"><ele>719.25</ele><time>2026-04-08T16:47:49Z</time></trkpt><trkpt lat="44.38766768891703" lon="8.131934148110608"><ele>720.0</ele><time>2026-04-08T16:47:50Z</time></trkpt><trkpt lat="44.38754035976629" lon="8.131895118368778"><ele>720.0</ele><time>2026-04-08T16:47:51Z</time></trkpt><trkpt lat="44.387376396557" lon="8.131843065297842"><ele>720.0</ele><time>2026-04-08T16:47:52Z</time></trkpt><trkpt lat="44.3872301064718" lon="8.131805700629613"><ele>720.0</ele><time>2026-04-08T16:47:53Z</time></trkpt><trkpt lat="44.38709561595643" lon="8.131711063696448"><ele>719.0</ele><time>2026-04-08T16:47:54Z</time></trkpt><trkpt lat="44.38696789693567" lon="8.131731309536667"><ele>718.0</ele><time>2026-04-08T16:47:55Z</time></trkpt><trkpt lat="44.38679596939705" lon="8.131707545988085"><ele>717.0</ele><time>2026-04-08T16:47:56Z</time></trkpt><trkpt lat="44.38664988563482" lon="8.131625070377925"><ele>716.75</ele><time>2026-04-08T16:47:57Z</time></trkpt><trkpt lat="44.386536808379105" lon="8.131526786518199"><ele>716.5</ele><time>2026-04-08T16:47:58Z</time></trkpt><trkpt lat="44.386442958383114" lon="8.131434464148287"><ele>716.25</ele><time>2026-04-08T16:47:59Z</time></trkpt><trkpt lat="44.38634339679655" lon="8.131354032702104"><ele>716.0</ele><time>2026-04-08T16:48:00Z</time></trkpt><trkpt lat="44.38624095141647" lon="8.131302737339457"><ele>717.0</ele><time>2026-04-08T16:48:01Z</time></trkpt><trkpt lat="44.38614333804849" lon="8.131270399647507"><ele>718.0</ele><time>2026-04-08T16:48:02Z</time></trkpt><trkpt lat="44.386039036765986" lon="8.131232351915049"><ele>719.0</ele><time>2026-04-08T16:48:03Z</time></trkpt><trkpt lat="44.38592889494994" lon="8.131228676987451"><ele>720.0</ele><time>2026-04-08T16:48:04Z</time></trkpt><trkpt lat="44.38582440005181" lon="8.131229879034532"><ele>721.0</ele><time>2026-04-08T16:48:05Z</time></trkpt><trkpt lat="44.385724682921364" lon="8.131231174914612"><ele>721.0</ele><time>2026-04-08T16:48:06Z</time></trkpt><trkpt lat="44.38562817649533" lon="8.131235114068145"><ele>721.0</ele><time>2026-04-08T16:48:07Z</time></trkpt><trkpt lat="44.385532865043466" lon="8.131246378891605"><ele>721.0</ele><time>2026-04-08T16:48:08Z</time></trkpt><trkpt lat="44.38542841777468" lon="8.131252664183398"><ele>721.0</ele><time>2026-04-08T16:48:09Z</time></trkpt><trkpt lat="44.385321803164125" lon="8.131252283410557"><ele>721.0</ele><time>2026-04-08T16:48:10Z</time></trkpt><trkpt lat="44.38521077384804" lon="8.131266168933502"><ele>723.0</ele><time>2026-04-08T16:48:11Z</time></trkpt><trkpt lat="44.38510212879366" lon="8.131287830064647"><ele>725.0</ele><time>2026-04-08T16:48:12Z</time></trkpt><trkpt lat="44.38498816464269" lon="8.131302542647992"><ele>727.0</ele><time>2026-04-08T16:48:13Z</time></trkpt><trkpt lat="44.38488849739825" lon="8.131324205701338"><ele>729.0</ele><time>2026-04-08T16:48:14Z</time></trkpt><trkpt lat="44.38478172884747" lon="8.131350446830302"><ele>731.0</ele><time>2026-04-08T16:48:15Z</time></trkpt><trkpt lat="44.38468182180766" lon="8.131369935117396"><ele>732.0</ele><time>2026-04-08T16:48:16Z</time></trkpt><trkpt lat="44.38458241183962" lon="8.131395421644763"><ele>733.0</ele><time>2026-04-08T16:48:17Z</time></trkpt><trkpt lat="44.38447421938233" lon="8.131432353159989"><ele>734.0</ele><time>2026-04-08T16:48:18Z</time></trkpt><trkpt lat="44.384381576555256" lon="8.131436405548428"><ele>735.0</ele><time>2026-04-08T16:48:19Z</time></trkpt><trkpt lat="44.384279383948765" lon="8.13146376690199"><ele>736.0</ele><time>2026-04-08T16:48:20Z</time></trkpt><trkpt lat="44.38418740676395" lon="8.131477661174719"><ele>736.0</ele><time>2026-04-08T16:48:21Z</time></trkpt><trkpt lat="44.384110247413076" lon="8.131506748352852"><ele>736.0</ele><time>2026-04-08T16:48:22Z</time></trkpt><trkpt lat="44.38402184618902" lon="8.131538619217084"><ele>736.0</ele><time>2026-04-08T16:48:23Z</time></trkpt><trkpt lat="44.38390899424226" lon="8.131590509400102"><ele>736.0</ele><time>2026-04-08T16:48:24Z</time></trkpt><trkpt lat="44.38380749875878" lon="8.131656657066856"><ele>736.0</ele><time>2026-04-08T16:48:25Z</time></trkpt><trkpt lat="44.383700008233575" lon="8.131717711651099"><ele>734.5999999999999</ele><time>2026-04-08T16:48:26Z</time></trkpt><trkpt lat="44.38360988841184" lon="8.131761616835478"><ele>733.2</ele><time>2026-04-08T16:48:27Z</time></trkpt><trkpt lat="44.383527905321586" lon="8.131803098136176"><ele>731.8</ele><time>2026-04-08T16:48:28Z</time></trkpt><trkpt lat="44.38342839304963" lon="8.131850178240988"><ele>730.4000000000001</ele><time>2026-04-08T16:48:29Z</time></trkpt><trkpt lat="44.383334526836215" lon="8.131870985447392"><ele>729.0</ele><time>2026-04-08T16:48:29.999Z</time></trkpt><trkpt lat="44.383249653196536" lon="8.131903859733502"><ele>729.0</ele><time>2026-04-08T16:48:30.999Z</time></trkpt><trkpt lat="44.38315855081833" lon="8.131944112601666"><ele>729.0</ele><time>2026-04-08T16:48:31.999Z</time></trkpt><trkpt lat="44.383078310281405" lon="8.131981503331652"><ele>729.0</ele><time>2026-04-08T16:48:32.999Z</time></trkpt><trkpt lat="44.382978463997816" lon="8.132058764361867"><ele>729.0</ele><time>2026-04-08T16:48:33.999Z</time></trkpt><trkpt lat="44.38289058324944" lon="8.132144078302836"><ele>729.0</ele><time>2026-04-08T16:48:34.999Z</time></trkpt><trkpt lat="44.382803853821386" lon="8.1322284778043"><ele>729.0</ele><time>2026-04-08T16:48:35.999Z</time></trkpt><trkpt lat="44.382731223188195" lon="8.132304367791813"><ele>729.0</ele><time>2026-04-08T16:48:36.999Z</time></trkpt><trkpt lat="44.382663828329314" lon="8.132378197860362"><ele>729.0</ele><time>2026-04-08T16:48:37.999Z</time></trkpt><trkpt lat="44.38260516845402" lon="8.132448747630658"><ele>729.0</ele><time>2026-04-08T16:48:38.999Z</time></trkpt><trkpt lat="44.38254151706028" lon="8.132526956762147"><ele>729.0</ele><time>2026-04-08T16:48:39.999Z</time></trkpt><trkpt lat="44.382474696516276" lon="8.132627002412272"><ele>729.0</ele><time>2026-04-08T16:48:40.999Z</time></trkpt><trkpt lat="44.382416320436434" lon="8.132743882318781"><ele>729.0</ele><time>2026-04-08T16:48:41.999Z</time></trkpt><trkpt lat="44.382355073024534" lon="8.132858158074665"><ele>729.0</ele><time>2026-04-08T16:48:42.999Z</time></trkpt><trkpt lat="44.38230670393782" lon="8.132948929885645"><ele>729.0</ele><time>2026-04-08T16:48:43.999Z</time></trkpt><trkpt lat="44.3822396706876" lon="8.133049310312224"><ele>729.0</ele><time>2026-04-08T16:48:44.999Z</time></trkpt><trkpt lat="44.382159011699464" lon="8.133161979181184"><ele>729.0</ele><time>2026-04-08T16:48:45.999Z</time></trkpt><trkpt lat="44.382081365270544" lon="8.133257942596632"><ele>727.75</ele><time>2026-04-08T16:48:46.999Z</time></trkpt><trkpt lat="44.38199054468408" lon="8.133387871036412"><ele>726.5</ele><time>2026-04-08T16:48:47.999Z</time></trkpt><trkpt lat="44.38191342627478" lon="8.13350612184412"><ele>725.25</ele><time>2026-04-08T16:48:48.999Z</time></trkpt><trkpt lat="44.381843217496595" lon="8.133617017073613"><ele>724.0</ele><time>2026-04-08T16:48:49.999Z</time></trkpt><trkpt lat="44.38176864502114" lon="8.13372297203548"><ele>724.0</ele><time>2026-04-08T16:48:50.999Z</time></trkpt><trkpt lat="44.381696220353255" lon="8.133820428843363"><ele>724.0</ele><time>2026-04-08T16:48:51.999Z</time></trkpt><trkpt lat="44.38161041521917" lon="8.133929015943067"><ele>724.0</ele><time>2026-04-08T16:48:52.999Z</time></trkpt><trkpt lat="44.38151152640729" lon="8.134010660057491"><ele>724.0</ele><time>2026-04-08T16:48:53.999Z</time></trkpt><trkpt lat="44.38141743353173" lon="8.134091446956868"><ele>724.0</ele><time>2026-04-08T16:48:54.999Z</time></trkpt><trkpt lat="44.38132664584897" lon="8.134180805701423"><ele>723.8000000000001</ele><time>2026-04-08T16:48:55.999Z</time></trkpt><trkpt lat="44.38123933082798" lon="8.134265610960686"><ele>723.6</ele><time>2026-04-08T16:48:56.999Z</time></trkpt><trkpt lat="44.381150257616206" lon="8.134341625023758"><ele>723.4</ele><time>2026-04-08T16:48:57.999Z</time></trkpt><trkpt lat="44.38106336968706" lon="8.134419274991206"><ele>723.2</ele><time>2026-04-08T16:48:58.999Z</time></trkpt><trkpt lat="44.380978643100825" lon="8.134509531037544"><ele>723.0</ele><time>2026-04-08T16:48:59.999Z</time></trkpt><trkpt lat="44.380902842942916" lon="8.134614745552275"><ele>723.0</ele><time>2026-04-08T16:49:00.999Z</time></trkpt><trkpt lat="44.380845910712615" lon="8.134740451807003"><ele>723.0</ele><time>2026-04-08T16:49:01.999Z</time></trkpt><trkpt lat="44.38079588797154" lon="8.13487186388089"><ele>723.0</ele><time>2026-04-08T16:49:02.999Z</time></trkpt><trkpt lat="44.38075230480983" lon="8.135017574261953"><ele>723.0</ele><time>2026-04-08T16:49:03.999Z</time></trkpt><trkpt lat="44.38071305361398" lon="8.135153515626593"><ele>723.0</ele><time>2026-04-08T16:49:04.999Z</time></trkpt><trkpt lat="44.380679259568126" lon="8.135301244798734"><ele>725.0</ele><time>2026-04-08T16:49:05.999Z</time></trkpt><trkpt lat="44.38066091288168" lon="8.135464630779769"><ele>727.0</ele><time>2026-04-08T16:49:06.999Z</time></trkpt><trkpt lat="44.38064218105441" lon="8.135611888689402"><ele>729.0</ele><time>2026-04-08T16:49:07.999Z</time></trkpt><trkpt lat="44.380633967551425" lon="8.13575442538955"><ele>731.0</ele><time>2026-04-08T16:49:08.999Z</time></trkpt><trkpt lat="44.380621817783286" lon="8.135894503749972"><ele>733.0</ele><time>2026-04-08T16:49:09.999Z</time></trkpt><trkpt lat="44.380610606227336" lon="8.13603615101056"><ele>734.5999999999999</ele><time>2026-04-08T16:49:10.999Z</time></trkpt><trkpt lat="44.380606092923486" lon="8.136173902843066"><ele>736.1999999999999</ele><time>2026-04-08T16:49:11.999Z</time></trkpt><trkpt lat="44.380588526867236" lon="8.136303877240866"><ele>737.8</ele><time>2026-04-08T16:49:12.999Z</time></trkpt><trkpt lat="44.380569930374534" lon="8.136442428342114"><ele>739.4</ele><time>2026-04-08T16:49:13.999Z</time></trkpt><trkpt lat="44.380540938898356" lon="8.136592814826615"><ele>741.0</ele><time>2026-04-08T16:49:14.999Z</time></trkpt><trkpt lat="44.380496985719184" lon="8.13672518398534"><ele>739.1999999999999</ele><time>2026-04-08T16:49:15.999Z</time></trkpt><trkpt lat="44.380447347323695" lon="8.136850347027856"><ele>737.4</ele><time>2026-04-08T16:49:16.999Z</time></trkpt><trkpt lat="44.38039075255271" lon="8.136980277471084"><ele>735.6</ele><time>2026-04-08T16:49:17.999Z</time></trkpt><trkpt lat="44.38033251743354" lon="8.137120616999264"><ele>733.8</ele><time>2026-04-08T16:49:18.999Z</time></trkpt><trkpt lat="44.38028566010558" lon="8.137260270653924"><ele>732.0</ele><time>2026-04-08T16:49:19.999Z</time></trkpt><trkpt lat="44.38024829487199" lon="8.13740563701303"><ele>732.0</ele><time>2026-04-08T16:49:20.999Z</time></trkpt><trkpt lat="44.38020871729772" lon="8.13754035142818"><ele>732.0</ele><time>2026-04-08T16:49:21.999Z</time></trkpt><trkpt lat="44.38017237386683" lon="8.137679158354338"><ele>732.0</ele><time>2026-04-08T16:49:22.999Z</time></trkpt><trkpt lat="44.380131041970486" lon="8.137819077812349"><ele>732.0</ele><time>2026-04-08T16:49:23.999Z</time></trkpt><trkpt lat="44.38008816401317" lon="8.137950535116369"><ele>732.0</ele><time>2026-04-08T16:49:24.999Z</time></trkpt><trkpt lat="44.38003073313492" lon="8.13807319078514"><ele>732.0</ele><time>2026-04-08T16:49:25.999Z</time></trkpt><trkpt lat="44.37996155193882" lon="8.13819199886302"><ele>732.0</ele><time>2026-04-08T16:49:26.999Z</time></trkpt><trkpt lat="44.37987174858784" lon="8.138295895802738"><ele>732.0</ele><time>2026-04-08T16:49:27.999Z</time></trkpt><trkpt lat="44.37977809176641" lon="8.138381290831978"><ele>732.0</ele><time>2026-04-08T16:49:28.999Z</time></trkpt><trkpt lat="44.37968116003238" lon="8.138446460606445"><ele>732.0</ele><time>2026-04-08T16:49:29.999Z</time></trkpt><trkpt lat="44.379588002625724" lon="8.138497902287536"><ele>731.6</ele><time>2026-04-08T16:49:30.998Z</time></trkpt><trkpt lat="44.379476795231334" lon="8.138512459935516"><ele>731.2</ele><time>2026-04-08T16:49:31.998Z</time></trkpt><trkpt lat="44.37938080311033" lon="8.138550655617497"><ele>730.8</ele><time>2026-04-08T16:49:32.998Z</time></trkpt><trkpt lat="44.379291997685364" lon="8.138591093449635"><ele>730.4</ele><time>2026-04-08T16:49:33.998Z</time></trkpt><trkpt lat="44.37920723870192" lon="8.138635033195646"><ele>730.0</ele><time>2026-04-08T16:49:34.998Z</time></trkpt><trkpt lat="44.379128081639664" lon="8.138709686499691"><ele>730.0</ele><time>2026-04-08T16:49:35.998Z</time></trkpt><trkpt lat="44.37905703596386" lon="8.138794978653898"><ele>730.0</ele><time>2026-04-08T16:49:36.998Z</time></trkpt><trkpt lat="44.3789870466803" lon="8.138892132894135"><ele>730.0</ele><time>2026-04-08T16:49:37.998Z</time></trkpt><trkpt lat="44.3789213888132" lon="8.139014541285015"><ele>730.0</ele><time>2026-04-08T16:49:38.998Z</time></trkpt><trkpt lat="44.378870009826386" lon="8.139135828302972"><ele>730.0</ele><time>2026-04-08T16:49:39.998Z</time></trkpt><trkpt lat="44.37882688639894" lon="8.139252861650528"><ele>730.0</ele><time>2026-04-08T16:49:40.998Z</time></trkpt><trkpt lat="44.378785036113456" lon="8.139374746335507"><ele>730.0</ele><time>2026-04-08T16:49:41.998Z</time></trkpt><trkpt lat="44.378745971138216" lon="8.139501610928075"><ele>730.0</ele><time>2026-04-08T16:49:42.998Z</time></trkpt><trkpt lat="44.37871739242496" lon="8.139628544543024"><ele>730.0</ele><time>2026-04-08T16:49:43.998Z</time></trkpt><trkpt lat="44.37869797704338" lon="8.139766872257326"><ele>730.0</ele><time>2026-04-08T16:49:44.998Z</time></trkpt><trkpt lat="44.3786714148857" lon="8.13989493247878"><ele>730.0</ele><time>2026-04-08T16:49:45.998Z</time></trkpt><trkpt lat="44.37864997737768" lon="8.140033888904009"><ele>730.0</ele><time>2026-04-08T16:49:46.998Z</time></trkpt><trkpt lat="44.37862942606618" lon="8.140177501103164"><ele>730.0</ele><time>2026-04-08T16:49:47.998Z</time></trkpt><trkpt lat="44.37860641599403" lon="8.140319387013115"><ele>730.0</ele><time>2026-04-08T16:49:49Z</time></trkpt><trkpt lat="44.37857700730444" lon="8.140460905376733"><ele>730.0</ele><time>2026-04-08T16:49:50Z</time></trkpt><trkpt lat="44.37854563422756" lon="8.140593097700977"><ele>730.0</ele><time>2026-04-08T16:49:51Z</time></trkpt><trkpt lat="44.37850919384785" lon="8.140707248409315"><ele>730.0</ele><time>2026-04-08T16:49:52Z</time></trkpt><trkpt lat="44.37846517211063" lon="8.140822158841372"><ele>730.0</ele><time>2026-04-08T16:49:53Z</time></trkpt><trkpt lat="44.37841596653677" lon="8.140934134840744"><ele>730.0</ele><time>2026-04-08T16:49:54Z</time></trkpt><trkpt lat="44.37836938681704" lon="8.141033108473456"><ele>730.0</ele><time>2026-04-08T16:49:55Z</time></trkpt><trkpt lat="44.37832334889781" lon="8.141128357342916"><ele>730.0</ele><time>2026-04-08T16:49:56Z</time></trkpt><trkpt lat="44.37827588526233" lon="8.141211963706187"><ele>730.6</ele><time>2026-04-08T16:49:57Z</time></trkpt><trkpt lat="44.37823408228884" lon="8.14128441883523"><ele>731.2</ele><time>2026-04-08T16:49:58Z</time></trkpt><trkpt lat="44.378154401210374" lon="8.141382615483378"><ele>731.8</ele><time>2026-04-08T16:50:00Z</time></trkpt><trkpt lat="44.378022656519455" lon="8.141428608585958"><ele>732.4</ele><time>2026-04-08T16:50:02Z</time></trkpt><trkpt lat="44.37794805617276" lon="8.141435653908072"><ele>733.0</ele><time>2026-04-08T16:50:03Z</time></trkpt><trkpt lat="44.37786928999571" lon="8.141438866368208"><ele>733.0</ele><time>2026-04-08T16:50:04Z</time></trkpt><trkpt lat="44.37778613213055" lon="8.141445847204432"><ele>733.0</ele><time>2026-04-08T16:50:05Z</time></trkpt><trkpt lat="44.37768464387102" lon="8.14145714556407"><ele>733.0</ele><time>2026-04-08T16:50:06Z</time></trkpt><trkpt lat="44.377582212917595" lon="8.141487834557315"><ele>733.0</ele><time>2026-04-08T16:50:07Z</time></trkpt><trkpt lat="44.377479119659064" lon="8.141504455081284"><ele>733.0</ele><time>2026-04-08T16:50:08Z</time></trkpt><trkpt lat="44.377383524386076" lon="8.141492364154653"><ele>733.0</ele><time>2026-04-08T16:50:09Z</time></trkpt><trkpt lat="44.37728350386007" lon="8.141470782980267"><ele>733.0</ele><time>2026-04-08T16:50:10Z</time></trkpt><trkpt lat="44.37716203280954" lon="8.1414096130655"><ele>733.0</ele><time>2026-04-08T16:50:11Z</time></trkpt><trkpt lat="44.37704155252366" lon="8.141339424102364"><ele>733.0</ele><time>2026-04-08T16:50:12Z</time></trkpt><trkpt lat="44.37692149312093" lon="8.141268966113401"><ele>733.25</ele><time>2026-04-08T16:50:13Z</time></trkpt><trkpt lat="44.37680299451582" lon="8.141207680525238"><ele>733.5</ele><time>2026-04-08T16:50:14Z</time></trkpt><trkpt lat="44.37669901547625" lon="8.141147128816558"><ele>733.75</ele><time>2026-04-08T16:50:15Z</time></trkpt><trkpt lat="44.37659024833865" lon="8.141089069855479"><ele>734.0</ele><time>2026-04-08T16:50:16Z</time></trkpt><trkpt lat="44.37648615561821" lon="8.141029877688522"><ele>734.0</ele><time>2026-04-08T16:50:17Z</time></trkpt><trkpt lat="44.376391522579056" lon="8.140960702074551"><ele>734.0</ele><time>2026-04-08T16:50:18Z</time></trkpt><trkpt lat="44.37628777051219" lon="8.140891790709432"><ele>734.0</ele><time>2026-04-08T16:50:19Z</time></trkpt><trkpt lat="44.37618589233976" lon="8.140813540891052"><ele>734.0</ele><time>2026-04-08T16:50:20Z</time></trkpt><trkpt lat="44.37608644126663" lon="8.140734138280703"><ele>733.8000000000001</ele><time>2026-04-08T16:50:21Z</time></trkpt><trkpt lat="44.375997733318115" lon="8.140636400289278"><ele>733.6</ele><time>2026-04-08T16:50:22Z</time></trkpt><trkpt lat="44.37591610959921" lon="8.140556034843451"><ele>733.4</ele><time>2026-04-08T16:50:23Z</time></trkpt><trkpt lat="44.37583070008798" lon="8.140470216114979"><ele>733.2</ele><time>2026-04-08T16:50:24Z</time></trkpt><trkpt lat="44.3757505159948" lon="8.140388219255904"><ele>733.0</ele><time>2026-04-08T16:50:25Z</time></trkpt><trkpt lat="44.37567771415071" lon="8.1403239359199"><ele>733.0</ele><time>2026-04-08T16:50:26Z</time></trkpt><trkpt lat="44.37560321726663" lon="8.140254790164686"><ele>733.0</ele><time>2026-04-08T16:50:27Z</time></trkpt><trkpt lat="44.37553561453857" lon="8.140193889208081"><ele>733.0</ele><time>2026-04-08T16:50:28Z</time></trkpt><trkpt lat="44.37546959196272" lon="8.140130098335202"><ele>733.0</ele><time>2026-04-08T16:50:29Z</time></trkpt><trkpt lat="44.375404720777674" lon="8.140057349850402"><ele>733.0</ele><time>2026-04-08T16:50:30Z</time></trkpt><trkpt lat="44.37534780663348" lon="8.139991202228046"><ele>733.0</ele><time>2026-04-08T16:50:31Z</time></trkpt><trkpt lat="44.37528761286406" lon="8.139926410908524"><ele>731.8</ele><time>2026-04-08T16:50:32Z</time></trkpt><trkpt lat="44.37518851551407" lon="8.139815471183105"><ele>730.5999999999999</ele><time>2026-04-08T16:50:33.999Z</time></trkpt><trkpt lat="44.37513199759005" lon="8.139692909261818"><ele>729.4000000000001</ele><time>2026-04-08T16:50:35.999Z</time></trkpt><trkpt lat="44.375105809907915" lon="8.139599596879064"><ele>728.2</ele><time>2026-04-08T16:50:36.999Z</time></trkpt><trkpt lat="44.37507410309567" lon="8.139504777111494"><ele>727.0</ele><time>2026-04-08T16:50:37.999Z</time></trkpt><trkpt lat="44.37502501817994" lon="8.139425273125804"><ele>727.0</ele><time>2026-04-08T16:50:38.999Z</time></trkpt><trkpt lat="44.374946022253425" lon="8.139381797714373"><ele>727.0</ele><time>2026-04-08T16:50:39.999Z</time></trkpt><trkpt lat="44.37486697828865" lon="8.139315923345558"><ele>727.0</ele><time>2026-04-08T16:50:40.999Z</time></trkpt><trkpt lat="44.374771132878045" lon="8.139262399092758"><ele>727.0</ele><time>2026-04-08T16:50:41.999Z</time></trkpt><trkpt lat="44.37468950055039" lon="8.139226610360332"><ele>727.0</ele><time>2026-04-08T16:50:42.999Z</time></trkpt><trkpt lat="44.37461245564202" lon="8.139182643247931"><ele>727.0</ele><time>2026-04-08T16:50:43.999Z</time></trkpt><trkpt lat="44.37453027965136" lon="8.139146221932162"><ele>726.4000000000001</ele><time>2026-04-08T16:50:44.999Z</time></trkpt><trkpt lat="44.37444636308571" lon="8.13910090578008"><ele>725.8000000000001</ele><time>2026-04-08T16:50:45.999Z</time></trkpt><trkpt lat="44.374361580994425" lon="8.1390530683544"><ele>725.2</ele><time>2026-04-08T16:50:46.999Z</time></trkpt><trkpt lat="44.37427575000646" lon="8.139008121336499"><ele>724.6</ele><time>2026-04-08T16:50:47.999Z</time></trkpt><trkpt lat="44.3741971770888" lon="8.13895901042787"><ele>724.0</ele><time>2026-04-08T16:50:48.999Z</time></trkpt><trkpt lat="44.37411178590272" lon="8.138904397814766"><ele>724.0</ele><time>2026-04-08T16:50:49.999Z</time></trkpt><trkpt lat="44.374025551356304" lon="8.138829925046142"><ele>724.0</ele><time>2026-04-08T16:50:50.999Z</time></trkpt><trkpt lat="44.37394264870082" lon="8.138739569230568"><ele>724.0</ele><time>2026-04-08T16:50:51.999Z</time></trkpt><trkpt lat="44.37386292699202" lon="8.13863930717549"><ele>724.0</ele><time>2026-04-08T16:50:52.999Z</time></trkpt><trkpt lat="44.3737816829472" lon="8.13851371814061"><ele>724.0</ele><time>2026-04-08T16:50:53.999Z</time></trkpt><trkpt lat="44.373699852036864" lon="8.138398015007315"><ele>725.0</ele><time>2026-04-08T16:50:54.999Z</time></trkpt><trkpt lat="44.37361964700826" lon="8.138276514494972"><ele>726.0</ele><time>2026-04-08T16:50:55.999Z</time></trkpt><trkpt lat="44.37354854596217" lon="8.138163639596455"><ele>727.0</ele><time>2026-04-08T16:50:56.999Z</time></trkpt><trkpt lat="44.37348135283821" lon="8.138059659165835"><ele>728.0</ele><time>2026-04-08T16:50:57.999Z</time></trkpt><trkpt lat="44.37340839718268" lon="8.137914397176301"><ele>728.0</ele><time>2026-04-08T16:50:58.999Z</time></trkpt><trkpt lat="44.37333981034702" lon="8.137783913155657"><ele>728.0</ele><time>2026-04-08T16:50:59.999Z</time></trkpt><trkpt lat="44.37326625185897" lon="8.137655134684625"><ele>728.0</ele><time>2026-04-08T16:51:00.999Z</time></trkpt><trkpt lat="44.373199619293814" lon="8.137532395602978"><ele>728.0</ele><time>2026-04-08T16:51:01.999Z</time></trkpt><trkpt lat="44.37313136764687" lon="8.137399338748454"><ele>729.0</ele><time>2026-04-08T16:51:02.999Z</time></trkpt><trkpt lat="44.37306256333057" lon="8.13727777001921"><ele>730.0</ele><time>2026-04-08T16:51:03.999Z</time></trkpt><trkpt lat="44.37299224516365" lon="8.137147649924394"><ele>731.0</ele><time>2026-04-08T16:51:04.999Z</time></trkpt><trkpt lat="44.372924654717046" lon="8.137005357845334"><ele>732.0</ele><time>2026-04-08T16:51:05.999Z</time></trkpt><trkpt lat="44.372858998807864" lon="8.136867079912479"><ele>732.0</ele><time>2026-04-08T16:51:06.999Z</time></trkpt><trkpt lat="44.372790731510925" lon="8.136737749871806"><ele>732.0</ele><time>2026-04-08T16:51:07.999Z</time></trkpt><trkpt lat="44.37272704403376" lon="8.136614160478898"><ele>732.0</ele><time>2026-04-08T16:51:08.999Z</time></trkpt><trkpt lat="44.37266437916762" lon="8.13648437869392"><ele>732.0</ele><time>2026-04-08T16:51:09.999Z</time></trkpt><trkpt lat="44.37260028909661" lon="8.136362345859435"><ele>732.0</ele><time>2026-04-08T16:51:10.999Z</time></trkpt><trkpt lat="44.372551078542614" lon="8.136254298768653"><ele>731.1666666666666</ele><time>2026-04-08T16:51:11.999Z</time></trkpt><trkpt lat="44.37251156301285" lon="8.136148116367698"><ele>730.3333333333334</ele><time>2026-04-08T16:51:12.999Z</time></trkpt><trkpt lat="44.37248041446356" lon="8.136034144857822"><ele>729.5</ele><time>2026-04-08T16:51:13.999Z</time></trkpt><trkpt lat="44.37246775649917" lon="8.135916203888689"><ele>728.6666666666667</ele><time>2026-04-08T16:51:14.999Z</time></trkpt><trkpt lat="44.37247190761963" lon="8.135785530209708"><ele>727.8333333333334</ele><time>2026-04-08T16:51:15.999Z</time></trkpt><trkpt lat="44.372483465081224" lon="8.135665143047225"><ele>727.0</ele><time>2026-04-08T16:51:16.999Z</time></trkpt><trkpt lat="44.372500736803865" lon="8.135537811214784"><ele>727.0</ele><time>2026-04-08T16:51:17.999Z</time></trkpt><trkpt lat="44.37252604440744" lon="8.135426930778658"><ele>727.0</ele><time>2026-04-08T16:51:18.999Z</time></trkpt><trkpt lat="44.37254552380748" lon="8.135316161827074"><ele>727.0</ele><time>2026-04-08T16:51:19.999Z</time></trkpt><trkpt lat="44.37255504089417" lon="8.135203121444196"><ele>727.0</ele><time>2026-04-08T16:51:20.999Z</time></trkpt><trkpt lat="44.37255940468371" lon="8.135087407972874"><ele>727.0</ele><time>2026-04-08T16:51:21.999Z</time></trkpt><trkpt lat="44.37255436141032" lon="8.134975696244565"><ele>727.0</ele><time>2026-04-08T16:51:22.999Z</time></trkpt><trkpt lat="44.3725429827888" lon="8.134855608239153"><ele>726.8</ele><time>2026-04-08T16:51:23.999Z</time></trkpt><trkpt lat="44.372523779657676" lon="8.134732387373237"><ele>726.6</ele><time>2026-04-08T16:51:24.999Z</time></trkpt><trkpt lat="44.372487118565424" lon="8.134608993330296"><ele>726.4</ele><time>2026-04-08T16:51:25.999Z</time></trkpt><trkpt lat="44.37244583420938" lon="8.134478023940714"><ele>726.1999999999999</ele><time>2026-04-08T16:51:26.999Z</time></trkpt><trkpt lat="44.37241187345157" lon="8.134341652221382"><ele>726.0</ele><time>2026-04-08T16:51:27.999Z</time></trkpt><trkpt lat="44.37237877356967" lon="8.134209002250486"><ele>726.0</ele><time>2026-04-08T16:51:28.999Z</time></trkpt><trkpt lat="44.37234564294153" lon="8.134067723600996"><ele>726.0</ele><time>2026-04-08T16:51:29.999Z</time></trkpt><trkpt lat="44.372314659930765" lon="8.133920179915622"><ele>726.0</ele><time>2026-04-08T16:51:30.999Z</time></trkpt><trkpt lat="44.372287471691266" lon="8.133758514271292"><ele>726.0</ele><time>2026-04-08T16:51:31.999Z</time></trkpt><trkpt lat="44.372266865494" lon="8.133595122467911"><ele>726.5</ele><time>2026-04-08T16:51:32.999Z</time></trkpt><trkpt lat="44.37224828572156" lon="8.133426652953135"><ele>727.0</ele><time>2026-04-08T16:51:33.999Z</time></trkpt><trkpt lat="44.37223855685568" lon="8.133259604185792"><ele>727.5</ele><time>2026-04-08T16:51:34.998Z</time></trkpt><trkpt lat="44.372225899894794" lon="8.133094292540573"><ele>728.0</ele><time>2026-04-08T16:51:35.998Z</time></trkpt><trkpt lat="44.372207501579084" lon="8.132933266365777"><ele>734.0</ele><time>2026-04-08T16:51:36.998Z</time></trkpt><trkpt lat="44.37218402786518" lon="8.132784597759166"><ele>740.0</ele><time>2026-04-08T16:51:37.998Z</time></trkpt><trkpt lat="44.372146543982026" lon="8.13263091147309"><ele>746.0</ele><time>2026-04-08T16:51:38.998Z</time></trkpt><trkpt lat="44.37210479547356" lon="8.1324760938622"><ele>752.0</ele><time>2026-04-08T16:51:39.998Z</time></trkpt><trkpt lat="44.37206476760075" lon="8.132322139565494"><ele>752.0</ele><time>2026-04-08T16:51:40.998Z</time></trkpt><trkpt lat="44.37202247528121" lon="8.132164355575965"><ele>752.0</ele><time>2026-04-08T16:51:41.998Z</time></trkpt><trkpt lat="44.37197599084089" lon="8.13200530840849"><ele>752.0</ele><time>2026-04-08T16:51:42.998Z</time></trkpt><trkpt lat="44.371927053553314" lon="8.131836550600605"><ele>752.0</ele><time>2026-04-08T16:51:43.998Z</time></trkpt><trkpt lat="44.37188339664449" lon="8.131673846159078"><ele>751.5</ele><time>2026-04-08T16:51:44.998Z</time></trkpt><trkpt lat="44.37185109219773" lon="8.131513253713656"><ele>751.0</ele><time>2026-04-08T16:51:45.998Z</time></trkpt><trkpt lat="44.371843499511826" lon="8.131348614627136"><ele>750.5</ele><time>2026-04-08T16:51:46.998Z</time></trkpt><trkpt lat="44.37181559923658" lon="8.131186454713587"><ele>750.0</ele><time>2026-04-08T16:51:47.998Z</time></trkpt><trkpt lat="44.37178221244631" lon="8.13101862677169"><ele>750.0</ele><time>2026-04-08T16:51:48.998Z</time></trkpt><trkpt lat="44.371745248515516" lon="8.130868029019476"><ele>750.0</ele><time>2026-04-08T16:51:49.998Z</time></trkpt><trkpt lat="44.371708011384996" lon="8.130718399137345"><ele>750.0</ele><time>2026-04-08T16:51:50.998Z</time></trkpt><trkpt lat="44.37167091950795" lon="8.130575472795488"><ele>750.0</ele><time>2026-04-08T16:51:51.998Z</time></trkpt><trkpt lat="44.371636271137746" lon="8.130453801002652"><ele>750.0</ele><time>2026-04-08T16:51:52.998Z</time></trkpt><trkpt lat="44.371601427312655" lon="8.130335710643132"><ele>750.2</ele><time>2026-04-08T16:51:53.998Z</time></trkpt><trkpt lat="44.37156265230383" lon="8.130206849516068"><ele>750.4</ele><time>2026-04-08T16:51:55Z</time></trkpt><trkpt lat="44.37151854356331" lon="8.130097725082276"><ele>750.5999999999999</ele><time>2026-04-08T16:51:56Z</time></trkpt><trkpt lat="44.371474060026074" lon="8.129983958825823"><ele>750.8</ele><time>2026-04-08T16:51:57Z</time></trkpt><trkpt lat="44.37142204301187" lon="8.129867992017529"><ele>751.0</ele><time>2026-04-08T16:51:58Z</time></trkpt><trkpt lat="44.37136787578387" lon="8.129757706751642"><ele>747.75</ele><time>2026-04-08T16:51:59Z</time></trkpt><trkpt lat="44.37131269249647" lon="8.129630042868426"><ele>744.5</ele><time>2026-04-08T16:52:00Z</time></trkpt><trkpt lat="44.3712531466301" lon="8.129490446039753"><ele>741.25</ele><time>2026-04-08T16:52:01Z</time></trkpt><trkpt lat="44.37119553318494" lon="8.129356397185221"><ele>738.0</ele><time>2026-04-08T16:52:02Z</time></trkpt><trkpt lat="44.37113718543308" lon="8.129213982848768"><ele>738.0</ele><time>2026-04-08T16:52:03Z</time></trkpt><trkpt lat="44.371080734738676" lon="8.129074282450809"><ele>738.0</ele><time>2026-04-08T16:52:04Z</time></trkpt><trkpt lat="44.37101905460162" lon="8.128948029932522"><ele>738.0</ele><time>2026-04-08T16:52:05Z</time></trkpt><trkpt lat="44.37096365253604" lon="8.128831931012655"><ele>738.0</ele><time>2026-04-08T16:52:06Z</time></trkpt><trkpt lat="44.37089423104946" lon="8.128692746229948"><ele>738.0</ele><time>2026-04-08T16:52:07Z</time></trkpt><trkpt lat="44.37080703548732" lon="8.128559154921625"><ele>736.25</ele><time>2026-04-08T16:52:08Z</time></trkpt><trkpt lat="44.370701427067914" lon="8.12841964926689"><ele>734.5</ele><time>2026-04-08T16:52:09Z</time></trkpt><trkpt lat="44.370602069733586" lon="8.12830147652025"><ele>732.75</ele><time>2026-04-08T16:52:10Z</time></trkpt><trkpt lat="44.37049975480021" lon="8.128169193896255"><ele>731.0</ele><time>2026-04-08T16:52:11Z</time></trkpt><trkpt lat="44.37040131444985" lon="8.12805165949097"><ele>729.25</ele><time>2026-04-08T16:52:12Z</time></trkpt><trkpt lat="44.3703059274484" lon="8.12794069847909"><ele>727.5</ele><time>2026-04-08T16:52:13Z</time></trkpt><trkpt lat="44.370206336180665" lon="8.127825987541028"><ele>725.75</ele><time>2026-04-08T16:52:14Z</time></trkpt><trkpt lat="44.37011136840224" lon="8.127716697140196"><ele>724.0</ele><time>2026-04-08T16:52:15Z</time></trkpt><trkpt lat="44.370017996581204" lon="8.12762107136948"><ele>724.0</ele><time>2026-04-08T16:52:16Z</time></trkpt><trkpt lat="44.36992949416733" lon="8.127517448150627"><ele>724.0</ele><time>2026-04-08T16:52:17Z</time></trkpt><trkpt lat="44.36985241928879" lon="8.127426252884847"><ele>724.0</ele><time>2026-04-08T16:52:18Z</time></trkpt><trkpt lat="44.369777140627285" lon="8.127332453389405"><ele>724.0</ele><time>2026-04-08T16:52:19Z</time></trkpt><trkpt lat="44.36970175170534" lon="8.127255376902124"><ele>724.0</ele><time>2026-04-08T16:52:20Z</time></trkpt><trkpt lat="44.3696438032492" lon="8.127197546808048"><ele>724.6666666666667</ele><time>2026-04-08T16:52:21Z</time></trkpt><trkpt lat="44.369550506653454" lon="8.127127698278947"><ele>725.3333333333334</ele><time>2026-04-08T16:52:23Z</time></trkpt><trkpt lat="44.36945434439622" lon="8.1271676478629"><ele>726.0</ele><time>2026-04-08T16:52:27Z</time></trkpt><trkpt lat="44.369428739585175" lon="8.12724967785131"><ele>726.6666666666666</ele><time>2026-04-08T16:53:40.999Z</time></trkpt><trkpt lat="44.36945798829429" lon="8.127331681463446"><ele>727.3333333333333</ele><time>2026-04-08T16:53:46.998Z</time></trkpt><trkpt lat="44.369439722574995" lon="8.127227806585463"><ele>728.0</ele><time>2026-04-08T16:54:16Z</time></trkpt><trkpt lat="44.369415291982534" lon="8.127137058577034"><ele>728.0</ele><time>2026-04-08T16:54:31Z</time></trkpt><trkpt lat="44.36945796101315" lon="8.127222316765831"><ele>728.0</ele><time>2026-04-08T16:58:17Z</time></trkpt><trkpt lat="44.369535342878976" lon="8.127205858519435"><ele>728.0</ele><time>2026-04-08T17:00:46Z</time></trkpt><trkpt lat="44.36953204407173" lon="8.127115290749547"><ele>728.0</ele><time>2026-04-08T17:00:50Z</time></trkpt><trkpt lat="44.36946905564031" lon="8.127031648973624"><ele>728.0</ele><time>2026-04-08T17:00:52Z</time></trkpt><trkpt lat="44.36937804641954" lon="8.126956363706043"><ele>728.0</ele><time>2026-04-08T17:00:54Z</time></trkpt><trkpt lat="44.36928870729094" lon="8.126858914086196"><ele>728.0</ele><time>2026-04-08T17:00:55.999Z</time></trkpt><trkpt lat="44.369235739127845" lon="8.126794185501389"><ele>728.0</ele><time>2026-04-08T17:00:56.999Z</time></trkpt><trkpt lat="44.36918434506528" lon="8.126720622331556"><ele>728.0</ele><time>2026-04-08T17:00:57.999Z</time></trkpt><trkpt lat="44.36912358617983" lon="8.12664381439541"><ele>728.0</ele><time>2026-04-08T17:00:58.999Z</time></trkpt><trkpt lat="44.36906478949426" lon="8.12657546184989"><ele>728.0</ele><time>2026-04-08T17:00:59.999Z</time></trkpt><trkpt lat="44.36901243328052" lon="8.126503721006262"><ele>728.0</ele><time>2026-04-08T17:01:00.999Z</time></trkpt><trkpt lat="44.368950659774235" lon="8.126439816585638"><ele>728.5999999999999</ele><time>2026-04-08T17:01:01.999Z</time></trkpt><trkpt lat="44.36887924270838" lon="8.126374497153535"><ele>729.1999999999999</ele><time>2026-04-08T17:01:02.999Z</time></trkpt><trkpt lat="44.36880870156202" lon="8.126305753843612"><ele>729.8</ele><time>2026-04-08T17:01:03.999Z</time></trkpt><trkpt lat="44.36872743502113" lon="8.126249381460683"><ele>730.4</ele><time>2026-04-08T17:01:04.999Z</time></trkpt><trkpt lat="44.36864274401656" lon="8.126197763530795"><ele>731.0</ele><time>2026-04-08T17:01:05.999Z</time></trkpt><trkpt lat="44.36855148440119" lon="8.12615705748145"><ele>731.0</ele><time>2026-04-08T17:01:06.999Z</time></trkpt><trkpt lat="44.36845905786246" lon="8.126105158504078"><ele>731.0</ele><time>2026-04-08T17:01:07.999Z</time></trkpt><trkpt lat="44.36834770475885" lon="8.126064942362289"><ele>731.0</ele><time>2026-04-08T17:01:08.999Z</time></trkpt><trkpt lat="44.36823039375479" lon="8.12601836645756"><ele>731.0</ele><time>2026-04-08T17:01:09.999Z</time></trkpt><trkpt lat="44.36811251190709" lon="8.125989007854427"><ele>732.25</ele><time>2026-04-08T17:01:10.999Z</time></trkpt><trkpt lat="44.36799586066673" lon="8.125912955336018"><ele>733.5</ele><time>2026-04-08T17:01:11.999Z</time></trkpt><trkpt lat="44.36786735299143" lon="8.125865219010253"><ele>734.75</ele><time>2026-04-08T17:01:12.999Z</time></trkpt><trkpt lat="44.36774037447808" lon="8.125816877733506"><ele>736.0</ele><time>2026-04-08T17:01:13.999Z</time></trkpt><trkpt lat="44.36761278932951" lon="8.125767261173467"><ele>735.0</ele><time>2026-04-08T17:01:14.999Z</time></trkpt><trkpt lat="44.36748972544533" lon="8.12571961659462"><ele>734.0</ele><time>2026-04-08T17:01:15.999Z</time></trkpt><trkpt lat="44.367378201595535" lon="8.125664110271291"><ele>733.0</ele><time>2026-04-08T17:01:16.999Z</time></trkpt><trkpt lat="44.36726761985433" lon="8.12561064212189"><ele>732.0</ele><time>2026-04-08T17:01:17.999Z</time></trkpt><trkpt lat="44.36715645627663" lon="8.125530617659958"><ele>732.0</ele><time>2026-04-08T17:01:18.999Z</time></trkpt><trkpt lat="44.367065454253996" lon="8.12543563772839"><ele>732.0</ele><time>2026-04-08T17:01:19.999Z</time></trkpt><trkpt lat="44.36696548242524" lon="8.125332901291111"><ele>732.0</ele><time>2026-04-08T17:01:20.999Z</time></trkpt><trkpt lat="44.36685164500051" lon="8.125237987016625"><ele>732.0</ele><time>2026-04-08T17:01:21.999Z</time></trkpt><trkpt lat="44.36676124800143" lon="8.125134976067981"><ele>732.0</ele><time>2026-04-08T17:01:22.999Z</time></trkpt><trkpt lat="44.366666741016495" lon="8.12503190543118"><ele>732.0</ele><time>2026-04-08T17:01:23.999Z</time></trkpt><trkpt lat="44.36656339029634" lon="8.124914164446743"><ele>732.0</ele><time>2026-04-08T17:01:24.999Z</time></trkpt><trkpt lat="44.366474623120595" lon="8.124820413396792"><ele>732.0</ele><time>2026-04-08T17:01:25.999Z</time></trkpt><trkpt lat="44.36639172868495" lon="8.124732977325081"><ele>732.0</ele><time>2026-04-08T17:01:26.999Z</time></trkpt><trkpt lat="44.36630739129658" lon="8.124638246346004"><ele>732.0</ele><time>2026-04-08T17:01:27.999Z</time></trkpt><trkpt lat="44.366222055187706" lon="8.124550589800586"><ele>732.0</ele><time>2026-04-08T17:01:28.999Z</time></trkpt><trkpt lat="44.36612777197697" lon="8.124462665019038"><ele>732.0</ele><time>2026-04-08T17:01:29.999Z</time></trkpt><trkpt lat="44.36603317952908" lon="8.124363405181953"><ele>732.0</ele><time>2026-04-08T17:01:30.999Z</time></trkpt><trkpt lat="44.365939002744" lon="8.124250804441093"><ele>732.0</ele><time>2026-04-08T17:01:31.999Z</time></trkpt><trkpt lat="44.3658396633969" lon="8.124135218146249"><ele>732.0</ele><time>2026-04-08T17:01:32.999Z</time></trkpt><trkpt lat="44.36574084563533" lon="8.124015398264492"><ele>732.0</ele><time>2026-04-08T17:01:33.999Z</time></trkpt><trkpt lat="44.365644104979715" lon="8.123902688725298"><ele>732.0</ele><time>2026-04-08T17:01:34.999Z</time></trkpt><trkpt lat="44.36555487912401" lon="8.123783370982743"><ele>733.6</ele><time>2026-04-08T17:01:35.999Z</time></trkpt><trkpt lat="44.36548157782025" lon="8.123653594291202"><ele>735.2</ele><time>2026-04-08T17:01:36.999Z</time></trkpt><trkpt lat="44.36540630522054" lon="8.123545461148153"><ele>736.8</ele><time>2026-04-08T17:01:37.999Z</time></trkpt><trkpt lat="44.36534354644436" lon="8.123432948429866"><ele>738.4</ele><time>2026-04-08T17:01:38.999Z</time></trkpt><trkpt lat="44.36528598809785" lon="8.123303276596934"><ele>740.0</ele><time>2026-04-08T17:01:39.999Z</time></trkpt><trkpt lat="44.36524422405387" lon="8.123165901909038"><ele>740.25</ele><time>2026-04-08T17:01:40.999Z</time></trkpt><trkpt lat="44.36522968125544" lon="8.123006015653626"><ele>740.5</ele><time>2026-04-08T17:01:41.999Z</time></trkpt><trkpt lat="44.36519809988726" lon="8.12285231941659"><ele>740.75</ele><time>2026-04-08T17:01:42.999Z</time></trkpt><trkpt lat="44.36521244889448" lon="8.122682132837221"><ele>741.0</ele><time>2026-04-08T17:01:43.999Z</time></trkpt><trkpt lat="44.36520937625204" lon="8.122520131571692"><ele>741.4</ele><time>2026-04-08T17:01:44.999Z</time></trkpt><trkpt lat="44.36518985430328" lon="8.122370155559413"><ele>741.8</ele><time>2026-04-08T17:01:45.999Z</time></trkpt><trkpt lat="44.365195353146966" lon="8.122240123605158"><ele>742.1999999999999</ele><time>2026-04-08T17:01:46.999Z</time></trkpt><trkpt lat="44.365199641805745" lon="8.122115188915712"><ele>742.5999999999999</ele><time>2026-04-08T17:01:47.999Z</time></trkpt><trkpt lat="44.36519856613818" lon="8.121984163649866"><ele>743.0</ele><time>2026-04-08T17:01:48.999Z</time></trkpt><trkpt lat="44.365190365420595" lon="8.121865036741717"><ele>743.0</ele><time>2026-04-08T17:01:49.999Z</time></trkpt><trkpt lat="44.36517785829427" lon="8.121724427472914"><ele>743.0</ele><time>2026-04-08T17:01:50.999Z</time></trkpt><trkpt lat="44.365157552224325" lon="8.12158389644056"><ele>743.0</ele><time>2026-04-08T17:01:51.999Z</time></trkpt><trkpt lat="44.36512014628542" lon="8.121419169334274"><ele>743.0</ele><time>2026-04-08T17:01:52.999Z</time></trkpt><trkpt lat="44.365083708122725" lon="8.121256842233828"><ele>743.0</ele><time>2026-04-08T17:01:53.999Z</time></trkpt><trkpt lat="44.36504197366841" lon="8.121114509979856"><ele>742.75</ele><time>2026-04-08T17:01:54.999Z</time></trkpt><trkpt lat="44.364989878798525" lon="8.120958314496788"><ele>742.5</ele><time>2026-04-08T17:01:55.999Z</time></trkpt><trkpt lat="44.36492435649619" lon="8.120806582311994"><ele>742.25</ele><time>2026-04-08T17:01:56.999Z</time></trkpt><trkpt lat="44.36485380032808" lon="8.120661065277103"><ele>742.0</ele><time>2026-04-08T17:01:57.999Z</time></trkpt><trkpt lat="44.36479356401926" lon="8.120519052878604"><ele>742.5</ele><time>2026-04-08T17:01:58.999Z</time></trkpt><trkpt lat="44.36473379190808" lon="8.12037729115972"><ele>743.0</ele><time>2026-04-08T17:01:59.999Z</time></trkpt><trkpt lat="44.36466115639917" lon="8.120221274258231"><ele>743.5</ele><time>2026-04-08T17:02:00.998Z</time></trkpt><trkpt lat="44.364595260910804" lon="8.120079683399629"><ele>744.0</ele><time>2026-04-08T17:02:01.998Z</time></trkpt><trkpt lat="44.364536206706106" lon="8.119940040515905"><ele>743.0</ele><time>2026-04-08T17:02:02.998Z</time></trkpt><trkpt lat="44.36448485696781" lon="8.119777742352985"><ele>742.0</ele><time>2026-04-08T17:02:03.998Z</time></trkpt><trkpt lat="44.36443922528576" lon="8.11962817023592"><ele>741.0</ele><time>2026-04-08T17:02:04.998Z</time></trkpt><trkpt lat="44.36439888145448" lon="8.119488546939651"><ele>740.0</ele><time>2026-04-08T17:02:05.998Z</time></trkpt><trkpt lat="44.36437953830001" lon="8.119334360608667"><ele>740.0</ele><time>2026-04-08T17:02:06.998Z</time></trkpt><trkpt lat="44.36434981873356" lon="8.119208291571507"><ele>740.0</ele><time>2026-04-08T17:02:07.998Z</time></trkpt><trkpt lat="44.36431973760265" lon="8.119083604804894"><ele>740.0</ele><time>2026-04-08T17:02:08.998Z</time></trkpt><trkpt lat="44.36427256001644" lon="8.118967084804204"><ele>740.0</ele><time>2026-04-08T17:02:09.998Z</time></trkpt><trkpt lat="44.36423667772897" lon="8.118836475199688"><ele>740.0</ele><time>2026-04-08T17:02:10.998Z</time></trkpt><trkpt lat="44.36419895148552" lon="8.118724797407939"><ele>740.6</ele><time>2026-04-08T17:02:11.998Z</time></trkpt><trkpt lat="44.36414601048892" lon="8.118618677508342"><ele>741.2</ele><time>2026-04-08T17:02:12.998Z</time></trkpt><trkpt lat="44.3640779306078" lon="8.118515060039107"><ele>741.8</ele><time>2026-04-08T17:02:13.998Z</time></trkpt><trkpt lat="44.3639978002921" lon="8.118427744979554"><ele>742.4</ele><time>2026-04-08T17:02:14.998Z</time></trkpt><trkpt lat="44.36389939504" lon="8.118341286156587"><ele>743.0</ele><time>2026-04-08T17:02:15.998Z</time></trkpt><trkpt lat="44.36379016916517" lon="8.118253052041307"><ele>741.75</ele><time>2026-04-08T17:02:16.998Z</time></trkpt><trkpt lat="44.363674863410445" lon="8.118165244160913"><ele>740.5</ele><time>2026-04-08T17:02:17.998Z</time></trkpt><trkpt lat="44.36356215599417" lon="8.118082366670208"><ele>739.25</ele><time>2026-04-08T17:02:18.998Z</time></trkpt><trkpt lat="44.36344151713929" lon="8.117994642780515"><ele>738.0</ele><time>2026-04-08T17:02:19.998Z</time></trkpt><trkpt lat="44.363316374743185" lon="8.117898933649643"><ele>738.0</ele><time>2026-04-08T17:02:20.998Z</time></trkpt><trkpt lat="44.36319495031948" lon="8.117811972493037"><ele>738.0</ele><time>2026-04-08T17:02:21.998Z</time></trkpt><trkpt lat="44.36308858713299" lon="8.11772395797307"><ele>738.0</ele><time>2026-04-08T17:02:22.998Z</time></trkpt><trkpt lat="44.36297990240917" lon="8.11764327121966"><ele>738.0</ele><time>2026-04-08T17:02:23.998Z</time></trkpt><trkpt lat="44.36287523475056" lon="8.117574549079306"><ele>736.75</ele><time>2026-04-08T17:02:25Z</time></trkpt><trkpt lat="44.362764089925584" lon="8.11750159376221"><ele>735.5</ele><time>2026-04-08T17:02:26Z</time></trkpt><trkpt lat="44.36266123051581" lon="8.117421391584093"><ele>734.25</ele><time>2026-04-08T17:02:27Z</time></trkpt><trkpt lat="44.362565955087575" lon="8.117346586639725"><ele>733.0</ele><time>2026-04-08T17:02:28Z</time></trkpt><trkpt lat="44.36247218450617" lon="8.117273769726586"><ele>733.0</ele><time>2026-04-08T17:02:29Z</time></trkpt><trkpt lat="44.362373119272576" lon="8.117207272334346"><ele>733.0</ele><time>2026-04-08T17:02:30Z</time></trkpt><trkpt lat="44.36227545109787" lon="8.11715161150793"><ele>733.0</ele><time>2026-04-08T17:02:31Z</time></trkpt><trkpt lat="44.362167062555336" lon="8.117110076701175"><ele>733.0</ele><time>2026-04-08T17:02:32Z</time></trkpt><trkpt lat="44.3620540305449" lon="8.117088163611244"><ele>733.0</ele><time>2026-04-08T17:02:33Z</time></trkpt><trkpt lat="44.3619341413767" lon="8.117076220295637"><ele>733.5</ele><time>2026-04-08T17:02:34Z</time></trkpt><trkpt lat="44.36180897841252" lon="8.117078233719791"><ele>734.0</ele><time>2026-04-08T17:02:35Z</time></trkpt><trkpt lat="44.36169219267534" lon="8.117078571827733"><ele>734.5</ele><time>2026-04-08T17:02:36Z</time></trkpt><trkpt lat="44.36157627688366" lon="8.117078587661887"><ele>735.0</ele><time>2026-04-08T17:02:37Z</time></trkpt><trkpt lat="44.361452637277715" lon="8.117050364328092"><ele>736.75</ele><time>2026-04-08T17:02:38Z</time></trkpt><trkpt lat="44.36133451207846" lon="8.11701770860839"><ele>738.5</ele><time>2026-04-08T17:02:39Z</time></trkpt><trkpt lat="44.36120730854477" lon="8.116959453933148"><ele>740.25</ele><time>2026-04-08T17:02:40Z</time></trkpt><trkpt lat="44.361073550258325" lon="8.116881782842967"><ele>742.0</ele><time>2026-04-08T17:02:41Z</time></trkpt><trkpt lat="44.360938441274044" lon="8.116813332779154"><ele>742.0</ele><time>2026-04-08T17:02:42Z</time></trkpt><trkpt lat="44.360801260597924" lon="8.116723807190784"><ele>742.0</ele><time>2026-04-08T17:02:43Z</time></trkpt><trkpt lat="44.36065554222057" lon="8.11663480569133"><ele>742.0</ele><time>2026-04-08T17:02:44Z</time></trkpt><trkpt lat="44.36050520103073" lon="8.116537955666953"><ele>740.3333333333334</ele><time>2026-04-08T17:02:45Z</time></trkpt><trkpt lat="44.3603475280016" lon="8.11643546506839"><ele>738.6666666666666</ele><time>2026-04-08T17:02:46Z</time></trkpt><trkpt lat="44.3601900595179" lon="8.116333945842193"><ele>737.0</ele><time>2026-04-08T17:02:47Z</time></trkpt><trkpt lat="44.36004773859668" lon="8.116217520416448"><ele>737.0</ele><time>2026-04-08T17:02:48Z</time></trkpt><trkpt lat="44.35990411806206" lon="8.116109403505122"><ele>737.0</ele><time>2026-04-08T17:02:49Z</time></trkpt><trkpt lat="44.35976276883384" lon="8.11599366608222"><ele>737.0</ele><time>2026-04-08T17:02:50Z</time></trkpt><trkpt lat="44.35963002282847" lon="8.115878926345303"><ele>738.3333333333333</ele><time>2026-04-08T17:02:51Z</time></trkpt><trkpt lat="44.359499648294104" lon="8.115754893961212"><ele>739.6666666666666</ele><time>2026-04-08T17:02:52Z</time></trkpt><trkpt lat="44.359374974514495" lon="8.115614014959956"><ele>741.0</ele><time>2026-04-08T17:02:53Z</time></trkpt><trkpt lat="44.359252586066184" lon="8.115459383213679"><ele>741.0</ele><time>2026-04-08T17:02:54Z</time></trkpt><trkpt lat="44.35913352506083" lon="8.115318068394973"><ele>741.0</ele><time>2026-04-08T17:02:55Z</time></trkpt><trkpt lat="44.35901095393666" lon="8.1151776029934"><ele>741.0</ele><time>2026-04-08T17:02:56Z</time></trkpt><trkpt lat="44.3588873838935" lon="8.115039232006595"><ele>742.0</ele><time>2026-04-08T17:02:57Z</time></trkpt><trkpt lat="44.3587726553833" lon="8.114905300351559"><ele>743.0</ele><time>2026-04-08T17:02:58Z</time></trkpt><trkpt lat="44.35865895738488" lon="8.11475867436928"><ele>744.0</ele><time>2026-04-08T17:02:59Z</time></trkpt><trkpt lat="44.358541787331745" lon="8.114613822641436"><ele>744.0</ele><time>2026-04-08T17:03:00Z</time></trkpt><trkpt lat="44.35842899042449" lon="8.114472768852918"><ele>744.0</ele><time>2026-04-08T17:03:01Z</time></trkpt><trkpt lat="44.35832960103652" lon="8.114329936271323"><ele>744.0</ele><time>2026-04-08T17:03:02Z</time></trkpt><trkpt lat="44.3582421193236" lon="8.114208145244822"><ele>744.0</ele><time>2026-04-08T17:03:03Z</time></trkpt><trkpt lat="44.358156694432175" lon="8.114095014331935"><ele>742.2</ele><time>2026-04-08T17:03:04Z</time></trkpt><trkpt lat="44.358067271161694" lon="8.113989500966508"><ele>740.4000000000001</ele><time>2026-04-08T17:03:05Z</time></trkpt><trkpt lat="44.3579880419709" lon="8.113879070822591"><ele>738.6</ele><time>2026-04-08T17:03:06Z</time></trkpt><trkpt lat="44.35791604645815" lon="8.113777317105788"><ele>736.8</ele><time>2026-04-08T17:03:07Z</time></trkpt><trkpt lat="44.357836496527796" lon="8.11367224863457"><ele>735.0</ele><time>2026-04-08T17:03:08Z</time></trkpt><trkpt lat="44.35774584477039" lon="8.113571753410884"><ele>740.5</ele><time>2026-04-08T17:03:09Z</time></trkpt><trkpt lat="44.35764441633295" lon="8.113492997486562"><ele>746.0</ele><time>2026-04-08T17:03:10Z</time></trkpt><trkpt lat="44.35753420912096" lon="8.1134171150502"><ele>751.5</ele><time>2026-04-08T17:03:10.999Z</time></trkpt><trkpt lat="44.35742917771606" lon="8.113340365867634"><ele>757.0</ele><time>2026-04-08T17:03:11.999Z</time></trkpt><trkpt lat="44.357328493049586" lon="8.113278363239132"><ele>759.0</ele><time>2026-04-08T17:03:12.999Z</time></trkpt><trkpt lat="44.35723268174438" lon="8.113228924654964"><ele>761.0</ele><time>2026-04-08T17:03:13.999Z</time></trkpt><trkpt lat="44.35713221969592" lon="8.113185453431887"><ele>763.0</ele><time>2026-04-08T17:03:14.999Z</time></trkpt><trkpt lat="44.357035183512686" lon="8.113150720590319"><ele>765.0</ele><time>2026-04-08T17:03:15.999Z</time></trkpt><trkpt lat="44.35693636315424" lon="8.113135449551224"><ele>767.0</ele><time>2026-04-08T17:03:16.999Z</time></trkpt><trkpt lat="44.35684511430198" lon="8.113119900261113"><ele>767.5</ele><time>2026-04-08T17:03:17.999Z</time></trkpt><trkpt lat="44.3567639953846" lon="8.113115584758813"><ele>768.0</ele><time>2026-04-08T17:03:18.999Z</time></trkpt><trkpt lat="44.35667747544072" lon="8.113098032158906"><ele>768.5</ele><time>2026-04-08T17:03:19.999Z</time></trkpt><trkpt lat="44.35660252851832" lon="8.113054961080172"><ele>769.0</ele><time>2026-04-08T17:03:20.999Z</time></trkpt><trkpt lat="44.35652194314737" lon="8.113002747171695"><ele>769.5000000000001</ele><time>2026-04-08T17:03:21.999Z</time></trkpt><trkpt lat="44.35644463801427" lon="8.1129170381817"><ele>770.0</ele><time>2026-04-08T17:03:22.999Z</time></trkpt><trkpt lat="44.3563660894071" lon="8.11281011416316"><ele>768.0</ele><time>2026-04-08T17:03:23.999Z</time></trkpt><trkpt lat="44.35629188545345" lon="8.11271409164152"><ele>766.0</ele><time>2026-04-08T17:03:24.999Z</time></trkpt><trkpt lat="44.35623236940172" lon="8.112629895791134"><ele>764.0</ele><time>2026-04-08T17:03:25.999Z</time></trkpt><trkpt lat="44.356165956103986" lon="8.112550388424575"><ele>762.0</ele><time>2026-04-08T17:03:26.999Z</time></trkpt><trkpt lat="44.356087946117086" lon="8.112467352422808"><ele>760.0</ele><time>2026-04-08T17:03:27.999Z</time></trkpt><trkpt lat="44.35599539636437" lon="8.11241955189351"><ele>760.0</ele><time>2026-04-08T17:03:28.999Z</time></trkpt><trkpt lat="44.35590316524681" lon="8.112400951239271"><ele>760.0</ele><time>2026-04-08T17:03:29.999Z</time></trkpt><trkpt lat="44.35580543919815" lon="8.112390804226463"><ele>760.0</ele><time>2026-04-08T17:03:30.999Z</time></trkpt><trkpt lat="44.35569811235046" lon="8.112399233195543"><ele>760.0</ele><time>2026-04-08T17:03:31.999Z</time></trkpt><trkpt lat="44.3555829546648" lon="8.11240274114171"><ele>760.0</ele><time>2026-04-08T17:03:32.999Z</time></trkpt><trkpt lat="44.35548607367128" lon="8.112414084898743"><ele>758.8</ele><time>2026-04-08T17:03:33.999Z</time></trkpt><trkpt lat="44.35539651083142" lon="8.112425200665685"><ele>757.6</ele><time>2026-04-08T17:03:34.999Z</time></trkpt><trkpt lat="44.35530383380751" lon="8.112443663120317"><ele>756.4000000000001</ele><time>2026-04-08T17:03:35.999Z</time></trkpt><trkpt lat="44.35520763249155" lon="8.112452682509081"><ele>755.2</ele><time>2026-04-08T17:03:36.999Z</time></trkpt><trkpt lat="44.35511369269265" lon="8.112465856106118"><ele>754.0</ele><time>2026-04-08T17:03:37.999Z</time></trkpt><trkpt lat="44.35501943472103" lon="8.112484552740549"><ele>754.0</ele><time>2026-04-08T17:03:38.999Z</time></trkpt><trkpt lat="44.35493680683074" lon="8.112513390410195"><ele>754.0</ele><time>2026-04-08T17:03:39.999Z</time></trkpt><trkpt lat="44.35486491910443" lon="8.112524244978013"><ele>754.0</ele><time>2026-04-08T17:03:40.999Z</time></trkpt><trkpt lat="44.35479764023393" lon="8.11255157269879"><ele>754.0</ele><time>2026-04-08T17:03:41.999Z</time></trkpt><trkpt lat="44.354738067781675" lon="8.112597215013274"><ele>754.0</ele><time>2026-04-08T17:03:42.999Z</time></trkpt><trkpt lat="44.35464472689641" lon="8.112598964492438"><ele>754.0</ele><time>2026-04-08T17:03:44.999Z</time></trkpt><trkpt lat="44.354582665269234" lon="8.112400633001032"><ele>752.75</ele><time>2026-04-08T17:03:46.999Z</time></trkpt><trkpt lat="44.354561798337684" lon="8.112216424147146"><ele>751.5</ele><time>2026-04-08T17:03:48.999Z</time></trkpt><trkpt lat="44.35460175824498" lon="8.112069173911339"><ele>750.25</ele><time>2026-04-08T17:03:50.999Z</time></trkpt><trkpt lat="44.35468233842542" lon="8.111913749920088"><ele>749.0</ele><time>2026-04-08T17:03:52.999Z</time></trkpt><trkpt lat="44.35475051999903" lon="8.111855048076"><ele>748.6</ele><time>2026-04-08T17:03:53.999Z</time></trkpt><trkpt lat="44.35483579960811" lon="8.111790713406299"><ele>748.2</ele><time>2026-04-08T17:03:54.999Z</time></trkpt><trkpt lat="44.35493069064867" lon="8.11172314514994"><ele>747.8000000000001</ele><time>2026-04-08T17:03:55.999Z</time></trkpt><trkpt lat="44.355030052043816" lon="8.111655797266533"><ele>747.4000000000001</ele><time>2026-04-08T17:03:56.999Z</time></trkpt><trkpt lat="44.35513660961707" lon="8.111583571743727"><ele>747.0</ele><time>2026-04-08T17:03:57.999Z</time></trkpt><trkpt lat="44.355237302529986" lon="8.111493814149851"><ele>743.25</ele><time>2026-04-08T17:03:58.999Z</time></trkpt><trkpt lat="44.35534481687897" lon="8.111444362278593"><ele>739.5</ele><time>2026-04-08T17:03:59.999Z</time></trkpt><trkpt lat="44.35545385552038" lon="8.111370427346195"><ele>735.75</ele><time>2026-04-08T17:04:00.999Z</time></trkpt><trkpt lat="44.35554915273794" lon="8.11129417855779"><ele>732.0</ele><time>2026-04-08T17:04:01.999Z</time></trkpt><trkpt lat="44.355641061768104" lon="8.111200779963713"><ele>732.0</ele><time>2026-04-08T17:04:02.999Z</time></trkpt><trkpt lat="44.3557395371634" lon="8.111101787583758"><ele>732.0</ele><time>2026-04-08T17:04:03.999Z</time></trkpt><trkpt lat="44.35583866492768" lon="8.11098838902737"><ele>732.0</ele><time>2026-04-08T17:04:04.999Z</time></trkpt><trkpt lat="44.355929353126086" lon="8.110872627116047"><ele>732.0</ele><time>2026-04-08T17:04:05.999Z</time></trkpt><trkpt lat="44.35601315490513" lon="8.110758943672169"><ele>725.0</ele><time>2026-04-08T17:04:06.999Z</time></trkpt><trkpt lat="44.35609132734916" lon="8.110653578969087"><ele>718.0</ele><time>2026-04-08T17:04:07.999Z</time></trkpt><trkpt lat="44.356177773368536" lon="8.110536764892581"><ele>711.0</ele><time>2026-04-08T17:04:08.999Z</time></trkpt><trkpt lat="44.35626311165015" lon="8.110427899060342"><ele>704.0</ele><time>2026-04-08T17:04:09.999Z</time></trkpt><trkpt lat="44.356343742957556" lon="8.11032972450675"><ele>707.4000000000001</ele><time>2026-04-08T17:04:10.999Z</time></trkpt><trkpt lat="44.35643240902222" lon="8.110252578066442"><ele>710.8</ele><time>2026-04-08T17:04:11.999Z</time></trkpt><trkpt lat="44.35652827663959" lon="8.110188242575472"><ele>714.2</ele><time>2026-04-08T17:04:12.999Z</time></trkpt><trkpt lat="44.356627217711726" lon="8.11014616921411"><ele>717.5999999999999</ele><time>2026-04-08T17:04:13.998Z</time></trkpt><trkpt lat="44.35673206088873" lon="8.110110047762928"><ele>721.0</ele><time>2026-04-08T17:04:14.998Z</time></trkpt><trkpt lat="44.356837084290696" lon="8.11008028784211"><ele>721.0</ele><time>2026-04-08T17:04:15.998Z</time></trkpt><trkpt lat="44.356936483616224" lon="8.110056511012422"><ele>721.0</ele><time>2026-04-08T17:04:16.998Z</time></trkpt><trkpt lat="44.35702066261577" lon="8.110047517126311"><ele>721.0</ele><time>2026-04-08T17:04:17.998Z</time></trkpt><trkpt lat="44.35710048798165" lon="8.110036007631688"><ele>721.0</ele><time>2026-04-08T17:04:18.998Z</time></trkpt><trkpt lat="44.357179541379175" lon="8.110035892026033"><ele>721.0</ele><time>2026-04-08T17:04:19.998Z</time></trkpt><trkpt lat="44.35729040360656" lon="8.110023114437238"><ele>722.1999999999999</ele><time>2026-04-08T17:04:21.998Z</time></trkpt><trkpt lat="44.35736443069455" lon="8.1099853853345"><ele>723.4</ele><time>2026-04-08T17:04:23.998Z</time></trkpt><trkpt lat="44.35739894691152" lon="8.109879274998008"><ele>724.6</ele><time>2026-04-08T17:04:25.998Z</time></trkpt><trkpt lat="44.35730281613872" lon="8.109779702870627"><ele>725.8</ele><time>2026-04-08T17:04:27.998Z</time></trkpt><trkpt lat="44.35717777556252" lon="8.109770948712638"><ele>727.0</ele><time>2026-04-08T17:04:29.998Z</time></trkpt><trkpt lat="44.35709270874041" lon="8.109777837035503"><ele>722.6666666666667</ele><time>2026-04-08T17:04:31Z</time></trkpt><trkpt lat="44.35699626424081" lon="8.10978370003043"><ele>718.3333333333334</ele><time>2026-04-08T17:04:32Z</time></trkpt><trkpt lat="44.35691093124093" lon="8.109794931723673"><ele>714.0</ele><time>2026-04-08T17:04:33Z</time></trkpt><trkpt lat="44.35682956334521" lon="8.109792406905552"><ele>709.6666666666666</ele><time>2026-04-08T17:04:34Z</time></trkpt><trkpt lat="44.35676021160065" lon="8.109791222800618"><ele>705.3333333333333</ele><time>2026-04-08T17:04:35Z</time></trkpt><trkpt lat="44.35665767695429" lon="8.109766293666713"><ele>701.0</ele><time>2026-04-08T17:04:37Z</time></trkpt><trkpt lat="44.35659502545065" lon="8.109711155606028"><ele>701.0</ele><time>2026-04-08T17:04:39Z</time></trkpt><trkpt lat="44.356596145010634" lon="8.109606438080577"><ele>701.0</ele><time>2026-04-08T17:04:41Z</time></trkpt><trkpt lat="44.35667434421491" lon="8.109473000016584"><ele>701.0</ele><time>2026-04-08T17:04:43Z</time></trkpt><trkpt lat="44.35680272332936" lon="8.109439617357495"><ele>701.0</ele><time>2026-04-08T17:04:45Z</time></trkpt><trkpt lat="44.35688693837956" lon="8.10945683969368"><ele>701.0</ele><time>2026-04-08T17:04:46Z</time></trkpt><trkpt lat="44.3569807802926" lon="8.109469187196803"><ele>701.0</ele><time>2026-04-08T17:04:47Z</time></trkpt><trkpt lat="44.357094116591604" lon="8.109464211107031"><ele>701.0</ele><time>2026-04-08T17:04:48Z</time></trkpt><trkpt lat="44.35720317703536" lon="8.109460694411535"><ele>701.0</ele><time>2026-04-08T17:04:49Z</time></trkpt><trkpt lat="44.35730688522665" lon="8.109462840664838"><ele>701.0</ele><time>2026-04-08T17:04:50Z</time></trkpt><trkpt lat="44.35740805229242" lon="8.109475118422804"><ele>701.0</ele><time>2026-04-08T17:04:51Z</time></trkpt><trkpt lat="44.35750552065467" lon="8.109489609433492"><ele>699.8</ele><time>2026-04-08T17:04:52Z</time></trkpt><trkpt lat="44.35759692433049" lon="8.109529443699705"><ele>698.5999999999999</ele><time>2026-04-08T17:04:53Z</time></trkpt><trkpt lat="44.357686922807524" lon="8.109536149291172"><ele>697.4</ele><time>2026-04-08T17:04:54Z</time></trkpt><trkpt lat="44.35778145939378" lon="8.10952231391458"><ele>696.2</ele><time>2026-04-08T17:04:55Z</time></trkpt><trkpt lat="44.35786267521664" lon="8.109452184035069"><ele>695.0</ele><time>2026-04-08T17:04:56Z</time></trkpt><trkpt lat="44.357955093161834" lon="8.10937465667898"><ele>693.2</ele><time>2026-04-08T17:04:57Z</time></trkpt><trkpt lat="44.35803790247453" lon="8.109281114082062"><ele>691.4</ele><time>2026-04-08T17:04:58Z</time></trkpt><trkpt lat="44.35812569280742" lon="8.109200275746568"><ele>689.5999999999999</ele><time>2026-04-08T17:04:59Z</time></trkpt><trkpt lat="44.35818164730304" lon="8.109090179516615"><ele>687.8</ele><time>2026-04-08T17:05:00Z</time></trkpt><trkpt lat="44.35824325334597" lon="8.108990005008152"><ele>686.0</ele><time>2026-04-08T17:05:01Z</time></trkpt><trkpt lat="44.35830538438832" lon="8.108887793810856"><ele>686.0</ele><time>2026-04-08T17:05:02Z</time></trkpt><trkpt lat="44.35833353751692" lon="8.108772386181558"><ele>686.0</ele><time>2026-04-08T17:05:03Z</time></trkpt><trkpt lat="44.358370595100084" lon="8.108646175774373"><ele>686.0</ele><time>2026-04-08T17:05:04Z</time></trkpt><trkpt lat="44.3583910527769" lon="8.10852709040456"><ele>686.0</ele><time>2026-04-08T17:05:05Z</time></trkpt><trkpt lat="44.35841680699031" lon="8.108416601934282"><ele>686.0</ele><time>2026-04-08T17:05:06Z</time></trkpt><trkpt lat="44.35845097125309" lon="8.108311553687132"><ele>686.0</ele><time>2026-04-08T17:05:07Z</time></trkpt><trkpt lat="44.35850241036446" lon="8.108224632692679"><ele>684.8</ele><time>2026-04-08T17:05:08Z</time></trkpt><trkpt lat="44.35857599150771" lon="8.10814147957666"><ele>683.5999999999999</ele><time>2026-04-08T17:05:09Z</time></trkpt><trkpt lat="44.358662192463335" lon="8.108064033008265"><ele>682.4</ele><time>2026-04-08T17:05:10Z</time></trkpt><trkpt lat="44.35874589598794" lon="8.107988409451664"><ele>681.2</ele><time>2026-04-08T17:05:11Z</time></trkpt><trkpt lat="44.35884395682709" lon="8.107933636231058"><ele>680.0</ele><time>2026-04-08T17:05:12Z</time></trkpt><trkpt lat="44.358928020695195" lon="8.107865330279187"><ele>680.0</ele><time>2026-04-08T17:05:13Z</time></trkpt><trkpt lat="44.35902304538023" lon="8.107810203364561"><ele>680.0</ele><time>2026-04-08T17:05:14Z</time></trkpt><trkpt lat="44.359131526448266" lon="8.107771941720957"><ele>680.0</ele><time>2026-04-08T17:05:15Z</time></trkpt><trkpt lat="44.35923923323637" lon="8.107739213773348"><ele>680.0</ele><time>2026-04-08T17:05:16Z</time></trkpt><trkpt lat="44.35933982720942" lon="8.107717123466891"><ele>680.0</ele><time>2026-04-08T17:05:17Z</time></trkpt><trkpt lat="44.359430661342394" lon="8.1077052504227"><ele>680.0</ele><time>2026-04-08T17:05:18Z</time></trkpt><trkpt lat="44.35951467436451" lon="8.107695270966008"><ele>680.0</ele><time>2026-04-08T17:05:19Z</time></trkpt><trkpt lat="44.35960091245947" lon="8.107691629667157"><ele>680.0</ele><time>2026-04-08T17:05:19.999Z</time></trkpt><trkpt lat="44.35967877876421" lon="8.10770805653081"><ele>680.0</ele><time>2026-04-08T17:05:20.999Z</time></trkpt><trkpt lat="44.35976661038133" lon="8.107746184474184"><ele>680.0</ele><time>2026-04-08T17:05:21.999Z</time></trkpt><trkpt lat="44.359856977920764" lon="8.107801230070136"><ele>680.0</ele><time>2026-04-08T17:05:22.999Z</time></trkpt><trkpt lat="44.359945929054454" lon="8.107868515439726"><ele>679.8</ele><time>2026-04-08T17:05:23.999Z</time></trkpt><trkpt lat="44.360032404787894" lon="8.10792925178544"><ele>679.6</ele><time>2026-04-08T17:05:24.999Z</time></trkpt><trkpt lat="44.36010961682783" lon="8.107995225695321"><ele>679.4000000000001</ele><time>2026-04-08T17:05:25.999Z</time></trkpt><trkpt lat="44.36020538774497" lon="8.108058402070927"><ele>679.2</ele><time>2026-04-08T17:05:26.999Z</time></trkpt><trkpt lat="44.36029587872081" lon="8.108097132598282"><ele>679.0</ele><time>2026-04-08T17:05:27.999Z</time></trkpt><trkpt lat="44.360396469927316" lon="8.108136455860194"><ele>679.0</ele><time>2026-04-08T17:05:28.999Z</time></trkpt><trkpt lat="44.36049047848441" lon="8.108172964818522"><ele>679.0</ele><time>2026-04-08T17:05:29.999Z</time></trkpt><trkpt lat="44.360598721272574" lon="8.10820169243106"><ele>679.0</ele><time>2026-04-08T17:05:30.999Z</time></trkpt><trkpt lat="44.36069694804901" lon="8.108212330722456"><ele>679.0</ele><time>2026-04-08T17:05:31.999Z</time></trkpt><trkpt lat="44.360783097378565" lon="8.108233803631306"><ele>679.0</ele><time>2026-04-08T17:05:32.999Z</time></trkpt><trkpt lat="44.36087472241209" lon="8.108203136777243"><ele>677.8000000000001</ele><time>2026-04-08T17:05:33.999Z</time></trkpt><trkpt lat="44.36097000104868" lon="8.108244319836102"><ele>676.6</ele><time>2026-04-08T17:05:34.999Z</time></trkpt><trkpt lat="44.36107328774144" lon="8.108288545540587"><ele>675.4</ele><time>2026-04-08T17:05:35.999Z</time></trkpt><trkpt lat="44.36114760940562" lon="8.10836691643399"><ele>674.2</ele><time>2026-04-08T17:05:36.999Z</time></trkpt><trkpt lat="44.36125008523458" lon="8.108460937626342"><ele>673.0</ele><time>2026-04-08T17:05:37.999Z</time></trkpt><trkpt lat="44.36135439739924" lon="8.108560752585039"><ele>670.25</ele><time>2026-04-08T17:05:38.999Z</time></trkpt><trkpt lat="44.36145846523882" lon="8.108643672366638"><ele>667.5</ele><time>2026-04-08T17:05:39.999Z</time></trkpt><trkpt lat="44.36156036837071" lon="8.108736206649183"><ele>664.75</ele><time>2026-04-08T17:05:40.999Z</time></trkpt><trkpt lat="44.36166205420787" lon="8.108820842964098"><ele>662.0</ele><time>2026-04-08T17:05:41.999Z</time></trkpt><trkpt lat="44.36176328876004" lon="8.108902356204478"><ele>662.0</ele><time>2026-04-08T17:05:42.999Z</time></trkpt><trkpt lat="44.3618543157132" lon="8.108988653581438"><ele>662.0</ele><time>2026-04-08T17:05:43.999Z</time></trkpt><trkpt lat="44.36194063902354" lon="8.109064418840003"><ele>662.0</ele><time>2026-04-08T17:05:44.999Z</time></trkpt><trkpt lat="44.362040226907915" lon="8.109152101004323"><ele>662.0</ele><time>2026-04-08T17:05:45.999Z</time></trkpt><trkpt lat="44.36213769160467" lon="8.109240748709231"><ele>662.0</ele><time>2026-04-08T17:05:46.999Z</time></trkpt><trkpt lat="44.362231290422066" lon="8.109326531510469"><ele>660.2</ele><time>2026-04-08T17:05:47.999Z</time></trkpt><trkpt lat="44.362318143675495" lon="8.109407792000308"><ele>658.4000000000001</ele><time>2026-04-08T17:05:48.999Z</time></trkpt><trkpt lat="44.36240643683794" lon="8.10948820197592"><ele>656.5999999999999</ele><time>2026-04-08T17:05:49.999Z</time></trkpt><trkpt lat="44.3624840156246" lon="8.109567958349764"><ele>654.8</ele><time>2026-04-08T17:05:50.999Z</time></trkpt><trkpt lat="44.362563427002705" lon="8.109634109040943"><ele>653.0</ele><time>2026-04-08T17:05:51.999Z</time></trkpt><trkpt lat="44.362644457608155" lon="8.10968948118235"><ele>653.0</ele><time>2026-04-08T17:05:52.999Z</time></trkpt><trkpt lat="44.362726559843395" lon="8.109724740501251"><ele>653.0</ele><time>2026-04-08T17:05:53.999Z</time></trkpt><trkpt lat="44.362828446521995" lon="8.109743211984089"><ele>653.0</ele><time>2026-04-08T17:05:54.999Z</time></trkpt><trkpt lat="44.36295316024633" lon="8.109738991590325"><ele>653.0</ele><time>2026-04-08T17:05:55.999Z</time></trkpt><trkpt lat="44.36307532498201" lon="8.10972490473196"><ele>653.0</ele><time>2026-04-08T17:05:56.999Z</time></trkpt><trkpt lat="44.36320662432482" lon="8.109737965961989"><ele>650.75</ele><time>2026-04-08T17:05:57.999Z</time></trkpt><trkpt lat="44.36332596701714" lon="8.109722401504722"><ele>648.5</ele><time>2026-04-08T17:05:58.999Z</time></trkpt><trkpt lat="44.36344687000945" lon="8.109709749233275"><ele>646.25</ele><time>2026-04-08T17:05:59.999Z</time></trkpt><trkpt lat="44.36355335692044" lon="8.109698384802147"><ele>644.0</ele><time>2026-04-08T17:06:00.999Z</time></trkpt><trkpt lat="44.36365837317591" lon="8.109688043672117"><ele>644.0</ele><time>2026-04-08T17:06:01.999Z</time></trkpt><trkpt lat="44.36375729408295" lon="8.109678413152425"><ele>644.0</ele><time>2026-04-08T17:06:02.999Z</time></trkpt><trkpt lat="44.36385424340656" lon="8.109668454625584"><ele>644.0</ele><time>2026-04-08T17:06:03.999Z</time></trkpt><trkpt lat="44.3639449146147" lon="8.109662239184752"><ele>644.0</ele><time>2026-04-08T17:06:04.999Z</time></trkpt><trkpt lat="44.36402446692525" lon="8.109651720675824"><ele>644.0</ele><time>2026-04-08T17:06:05.999Z</time></trkpt><trkpt lat="44.3640939148177" lon="8.109628407522557"><ele>644.0</ele><time>2026-04-08T17:06:06.999Z</time></trkpt><trkpt lat="44.36420230481509" lon="8.10957741830816"><ele>643.0</ele><time>2026-04-08T17:06:08.999Z</time></trkpt><trkpt lat="44.36425339668377" lon="8.109437812539912"><ele>642.0</ele><time>2026-04-08T17:06:10.999Z</time></trkpt><trkpt lat="44.36428124644558" lon="8.109353773919134"><ele>641.0</ele><time>2026-04-08T17:06:11.999Z</time></trkpt><trkpt lat="44.36428554944076" lon="8.10926066040527"><ele>640.0</ele><time>2026-04-08T17:06:12.999Z</time></trkpt><trkpt lat="44.364261997780424" lon="8.109155511036642"><ele>639.0</ele><time>2026-04-08T17:06:13.999Z</time></trkpt><trkpt lat="44.364219285775384" lon="8.109072015970597"><ele>638.0</ele><time>2026-04-08T17:06:14.999Z</time></trkpt><trkpt lat="44.3641462958897" lon="8.10901277078067"><ele>639.0</ele><time>2026-04-08T17:06:15.999Z</time></trkpt><trkpt lat="44.364051679291606" lon="8.108993170011864"><ele>640.0</ele><time>2026-04-08T17:06:16.999Z</time></trkpt><trkpt lat="44.36396114482395" lon="8.108993624548553"><ele>641.0</ele><time>2026-04-08T17:06:17.999Z</time></trkpt><trkpt lat="44.363883498380616" lon="8.108988824165644"><ele>642.0</ele><time>2026-04-08T17:06:18.999Z</time></trkpt><trkpt lat="44.363812691371905" lon="8.108983604178672"><ele>643.0</ele><time>2026-04-08T17:06:19.999Z</time></trkpt><trkpt lat="44.36373412032887" lon="8.108973148487825"><ele>644.0</ele><time>2026-04-08T17:06:20.998Z</time></trkpt><trkpt lat="44.36362123847851" lon="8.108951299346689"><ele>644.0</ele><time>2026-04-08T17:06:22.998Z</time></trkpt><trkpt lat="44.36356448713161" lon="8.108835776341303"><ele>644.0</ele><time>2026-04-08T17:06:24.998Z</time></trkpt><trkpt lat="44.363587511788154" lon="8.1087185790917"><ele>644.0</ele><time>2026-04-08T17:06:26.998Z</time></trkpt><trkpt lat="44.363683395576565" lon="8.10859903684498"><ele>644.0</ele><time>2026-04-08T17:06:28.998Z</time></trkpt><trkpt lat="44.36375505925808" lon="8.108599040912539"><ele>644.0</ele><time>2026-04-08T17:06:29.998Z</time></trkpt><trkpt lat="44.363827500225455" lon="8.108553098680458"><ele>641.6666666666666</ele><time>2026-04-08T17:06:30.998Z</time></trkpt><trkpt lat="44.363904108334744" lon="8.108547151132326"><ele>639.3333333333333</ele><time>2026-04-08T17:06:31.998Z</time></trkpt><trkpt lat="44.36396949927547" lon="8.108495754291315"><ele>637.0</ele><time>2026-04-08T17:06:32.998Z</time></trkpt><trkpt lat="44.364025907397924" lon="8.10842489013484"><ele>634.6666666666666</ele><time>2026-04-08T17:06:33.998Z</time></trkpt><trkpt lat="44.36406759301137" lon="8.108316285624417"><ele>632.3333333333334</ele><time>2026-04-08T17:06:34.998Z</time></trkpt><trkpt lat="44.36408393046584" lon="8.108195603669882"><ele>630.0</ele><time>2026-04-08T17:06:35.998Z</time></trkpt><trkpt lat="44.364078351909136" lon="8.108061946961572"><ele>628.4</ele><time>2026-04-08T17:06:37Z</time></trkpt><trkpt lat="44.36405415649065" lon="8.107919610446642"><ele>626.8</ele><time>2026-04-08T17:06:38Z</time></trkpt><trkpt lat="44.364025781561224" lon="8.107781172361271"><ele>625.2</ele><time>2026-04-08T17:06:39Z</time></trkpt><trkpt lat="44.3639843996126" lon="8.107657422903007"><ele>623.6</ele><time>2026-04-08T17:06:40Z</time></trkpt><trkpt lat="44.36395977124473" lon="8.107525834723903"><ele>622.0</ele><time>2026-04-08T17:06:41Z</time></trkpt><trkpt lat="44.36395377296347" lon="8.10740405695881"><ele>620.6</ele><time>2026-04-08T17:06:42Z</time></trkpt><trkpt lat="44.36394379370981" lon="8.10729007289618"><ele>619.2</ele><time>2026-04-08T17:06:43Z</time></trkpt><trkpt lat="44.3639459215887" lon="8.107163887116405"><ele>617.8</ele><time>2026-04-08T17:06:44Z</time></trkpt><trkpt lat="44.36396105186855" lon="8.10702613386115"><ele>616.4</ele><time>2026-04-08T17:06:45Z</time></trkpt><trkpt lat="44.36399242633216" lon="8.106902851651185"><ele>615.0</ele><time>2026-04-08T17:06:46Z</time></trkpt><trkpt lat="44.36404201286779" lon="8.106786674210186"><ele>615.0</ele><time>2026-04-08T17:06:47Z</time></trkpt><trkpt lat="44.36411535515259" lon="8.106675360076423"><ele>615.0</ele><time>2026-04-08T17:06:48Z</time></trkpt><trkpt lat="44.36420467560319" lon="8.106564027260704"><ele>615.0</ele><time>2026-04-08T17:06:49Z</time></trkpt><trkpt lat="44.36428654330401" lon="8.106462097448683"><ele>615.0</ele><time>2026-04-08T17:06:50Z</time></trkpt><trkpt lat="44.36436740648839" lon="8.106354598671198"><ele>615.0</ele><time>2026-04-08T17:06:51Z</time></trkpt><trkpt lat="44.36444979592175" lon="8.106247913304298"><ele>614.6</ele><time>2026-04-08T17:06:52Z</time></trkpt><trkpt lat="44.364529443244116" lon="8.106147916315926"><ele>614.2</ele><time>2026-04-08T17:06:53Z</time></trkpt><trkpt lat="44.36462073665868" lon="8.106064990555348"><ele>613.8</ele><time>2026-04-08T17:06:54Z</time></trkpt><trkpt lat="44.36470538017534" lon="8.105953247526326"><ele>613.4</ele><time>2026-04-08T17:06:55Z</time></trkpt><trkpt lat="44.36477833725078" lon="8.105850355316196"><ele>613.0</ele><time>2026-04-08T17:06:56Z</time></trkpt><trkpt lat="44.36483978284883" lon="8.105738713583461"><ele>611.6</ele><time>2026-04-08T17:06:57Z</time></trkpt><trkpt lat="44.3648972031086" lon="8.105624107056082"><ele>610.1999999999999</ele><time>2026-04-08T17:06:58Z</time></trkpt><trkpt lat="44.36495752883626" lon="8.105508311411105"><ele>608.8</ele><time>2026-04-08T17:06:59Z</time></trkpt><trkpt lat="44.36501420801942" lon="8.10539105587765"><ele>607.4</ele><time>2026-04-08T17:07:00Z</time></trkpt><trkpt lat="44.36506849518088" lon="8.105267623552594"><ele>606.0</ele><time>2026-04-08T17:07:01Z</time></trkpt><trkpt lat="44.36512188890187" lon="8.105144541385682"><ele>606.0</ele><time>2026-04-08T17:07:02Z</time></trkpt><trkpt lat="44.365178463976314" lon="8.105018537483721"><ele>606.0</ele><time>2026-04-08T17:07:03Z</time></trkpt><trkpt lat="44.365235973105236" lon="8.104890247771255"><ele>606.0</ele><time>2026-04-08T17:07:04Z</time></trkpt><trkpt lat="44.365290029102866" lon="8.104765849916065"><ele>606.0</ele><time>2026-04-08T17:07:05Z</time></trkpt><trkpt lat="44.36534404936893" lon="8.104647921580815"><ele>606.0</ele><time>2026-04-08T17:07:06Z</time></trkpt><trkpt lat="44.365400259149446" lon="8.104542141740522"><ele>605.6</ele><time>2026-04-08T17:07:07Z</time></trkpt><trkpt lat="44.36546249325813" lon="8.104441624666475"><ele>605.2</ele><time>2026-04-08T17:07:08Z</time></trkpt><trkpt lat="44.36553889158571" lon="8.104347088018843"><ele>604.8</ele><time>2026-04-08T17:07:09Z</time></trkpt><trkpt lat="44.365620267308515" lon="8.10426608256591"><ele>604.4</ele><time>2026-04-08T17:07:10Z</time></trkpt><trkpt lat="44.36570551284097" lon="8.104191341870495"><ele>604.0</ele><time>2026-04-08T17:07:11Z</time></trkpt><trkpt lat="44.365788536829506" lon="8.104118219623377"><ele>602.1666666666667</ele><time>2026-04-08T17:07:12Z</time></trkpt><trkpt lat="44.36586020439251" lon="8.104040379632043"><ele>600.3333333333334</ele><time>2026-04-08T17:07:13Z</time></trkpt><trkpt lat="44.365937795387964" lon="8.103989518907888"><ele>598.5</ele><time>2026-04-08T17:07:14Z</time></trkpt><trkpt lat="44.36599672576022" lon="8.103903369770386"><ele>596.6666666666666</ele><time>2026-04-08T17:07:15Z</time></trkpt><trkpt lat="44.36606237890646" lon="8.103835799398937"><ele>594.8333333333333</ele><time>2026-04-08T17:07:16Z</time></trkpt><trkpt lat="44.36613141514263" lon="8.103755053972392"><ele>593.0</ele><time>2026-04-08T17:07:17Z</time></trkpt><trkpt lat="44.36619757022551" lon="8.103668262203595"><ele>593.0</ele><time>2026-04-08T17:07:18Z</time></trkpt><trkpt lat="44.366246129642235" lon="8.103569260831888"><ele>593.0</ele><time>2026-04-08T17:07:19Z</time></trkpt><trkpt lat="44.36628454645423" lon="8.10344226183144"><ele>593.0</ele><time>2026-04-08T17:07:20Z</time></trkpt><trkpt lat="44.36632868592972" lon="8.103320293959248"><ele>593.0</ele><time>2026-04-08T17:07:21Z</time></trkpt><trkpt lat="44.36635632166757" lon="8.103194551236228"><ele>593.0</ele><time>2026-04-08T17:07:22Z</time></trkpt><trkpt lat="44.36638427874785" lon="8.103067344356512"><ele>591.1999999999999</ele><time>2026-04-08T17:07:23Z</time></trkpt><trkpt lat="44.3663979249051" lon="8.102939048729377"><ele>589.4</ele><time>2026-04-08T17:07:24Z</time></trkpt><trkpt lat="44.366432199584" lon="8.102813755746238"><ele>587.5999999999999</ele><time>2026-04-08T17:07:24.999Z</time></trkpt><trkpt lat="44.36645537847298" lon="8.10270415984758"><ele>585.8</ele><time>2026-04-08T17:07:25.999Z</time></trkpt><trkpt lat="44.36650436825635" lon="8.102596767287043"><ele>584.0</ele><time>2026-04-08T17:07:26.999Z</time></trkpt><trkpt lat="44.36652707850011" lon="8.102472363691849"><ele>583.4</ele><time>2026-04-08T17:07:27.999Z</time></trkpt><trkpt lat="44.36656620982299" lon="8.102365843966002"><ele>582.8</ele><time>2026-04-08T17:07:28.999Z</time></trkpt><trkpt lat="44.36660682481026" lon="8.10225381450005"><ele>582.2</ele><time>2026-04-08T17:07:29.999Z</time></trkpt><trkpt lat="44.36664481859282" lon="8.102127689157077"><ele>581.6</ele><time>2026-04-08T17:07:30.999Z</time></trkpt><trkpt lat="44.3666696186738" lon="8.101998173913838"><ele>581.0</ele><time>2026-04-08T17:07:31.999Z</time></trkpt><trkpt lat="44.36669475935611" lon="8.101882578541405"><ele>581.0</ele><time>2026-04-08T17:07:32.999Z</time></trkpt><trkpt lat="44.36671468282551" lon="8.101757636752803"><ele>581.0</ele><time>2026-04-08T17:07:33.999Z</time></trkpt><trkpt lat="44.36674339598181" lon="8.101635424224394"><ele>581.0</ele><time>2026-04-08T17:07:34.999Z</time></trkpt><trkpt lat="44.36677246150989" lon="8.101524875170858"><ele>581.0</ele><time>2026-04-08T17:07:35.999Z</time></trkpt><trkpt lat="44.36680150373552" lon="8.101415658646761"><ele>581.0</ele><time>2026-04-08T17:07:36.999Z</time></trkpt><trkpt lat="44.366828315363996" lon="8.101319231678342"><ele>581.0</ele><time>2026-04-08T17:07:37.999Z</time></trkpt><trkpt lat="44.36685628738484" lon="8.10122324519114"><ele>580.5</ele><time>2026-04-08T17:07:38.999Z</time></trkpt><trkpt lat="44.36687563499373" lon="8.101115270064323"><ele>580.0</ele><time>2026-04-08T17:07:39.999Z</time></trkpt><trkpt lat="44.3668977247277" lon="8.10100828385858"><ele>579.5</ele><time>2026-04-08T17:07:40.999Z</time></trkpt><trkpt lat="44.366892742443675" lon="8.10089832638478"><ele>579.0</ele><time>2026-04-08T17:07:41.999Z</time></trkpt><trkpt lat="44.36687385162043" lon="8.1007989999471"><ele>578.5</ele><time>2026-04-08T17:07:42.999Z</time></trkpt><trkpt lat="44.366857907907" lon="8.10071296697504"><ele>578.0</ele><time>2026-04-08T17:07:43.999Z</time></trkpt><trkpt lat="44.366844347262" lon="8.100580743855092"><ele>576.6666666666666</ele><time>2026-04-08T17:07:45.999Z</time></trkpt><trkpt lat="44.36688054668718" lon="8.100493698714544"><ele>575.3333333333333</ele><time>2026-04-08T17:07:47.999Z</time></trkpt><trkpt lat="44.36694238587564" lon="8.100470584812555"><ele>574.0</ele><time>2026-04-08T17:07:48.999Z</time></trkpt><trkpt lat="44.36701806658692" lon="8.1004720966729"><ele>572.6666666666666</ele><time>2026-04-08T17:07:49.999Z</time></trkpt><trkpt lat="44.367096831897385" lon="8.100504360507315"><ele>571.3333333333334</ele><time>2026-04-08T17:07:50.999Z</time></trkpt><trkpt lat="44.36717313877733" lon="8.10053941101002"><ele>570.0</ele><time>2026-04-08T17:07:51.999Z</time></trkpt><trkpt lat="44.367247104387516" lon="8.100570811372224"><ele>568.4</ele><time>2026-04-08T17:07:52.999Z</time></trkpt><trkpt lat="44.3673301242443" lon="8.100595891714422"><ele>566.8</ele><time>2026-04-08T17:07:53.999Z</time></trkpt><trkpt lat="44.36742472100191" lon="8.100635698075985"><ele>565.2</ele><time>2026-04-08T17:07:54.999Z</time></trkpt><trkpt lat="44.36753117880168" lon="8.100634693835174"><ele>563.6</ele><time>2026-04-08T17:07:55.999Z</time></trkpt><trkpt lat="44.36761910577945" lon="8.10062820890644"><ele>562.0</ele><time>2026-04-08T17:07:56.999Z</time></trkpt><trkpt lat="44.36772112689759" lon="8.10061622831973"><ele>562.0</ele><time>2026-04-08T17:07:57.999Z</time></trkpt><trkpt lat="44.36782320554392" lon="8.100602539021727"><ele>562.0</ele><time>2026-04-08T17:07:58.999Z</time></trkpt><trkpt lat="44.367913597979765" lon="8.100590074654958"><ele>562.0</ele><time>2026-04-08T17:07:59.999Z</time></trkpt><trkpt lat="44.368016770618226" lon="8.100574403020017"><ele>562.0</ele><time>2026-04-08T17:08:00.999Z</time></trkpt><trkpt lat="44.368101871453554" lon="8.100561451382807"><ele>562.0</ele><time>2026-04-08T17:08:01.999Z</time></trkpt><trkpt lat="44.36820040600976" lon="8.100523919397398"><ele>560.2</ele><time>2026-04-08T17:08:02.999Z</time></trkpt><trkpt lat="44.36834135563116" lon="8.100524114187682"><ele>558.4000000000001</ele><time>2026-04-08T17:08:04.999Z</time></trkpt><trkpt lat="44.36844097791993" lon="8.100508727482419"><ele>556.5999999999999</ele><time>2026-04-08T17:08:05.999Z</time></trkpt><trkpt lat="44.368507981437375" lon="8.100503749835983"><ele>554.8</ele><time>2026-04-08T17:08:06.999Z</time></trkpt><trkpt lat="44.36861897772081" lon="8.10047258793413"><ele>553.0</ele><time>2026-04-08T17:08:08.999Z</time></trkpt><trkpt lat="44.36865846945058" lon="8.100330464337672"><ele>553.0</ele><time>2026-04-08T17:08:10.999Z</time></trkpt><trkpt lat="44.36867334430403" lon="8.100228203511438"><ele>553.0</ele><time>2026-04-08T17:08:11.999Z</time></trkpt><trkpt lat="44.368631786008564" lon="8.10012010445588"><ele>553.0</ele><time>2026-04-08T17:08:12.999Z</time></trkpt><trkpt lat="44.368610143689224" lon="8.10001654879795"><ele>553.0</ele><time>2026-04-08T17:08:13.999Z</time></trkpt><trkpt lat="44.36857357490276" lon="8.099924044808462"><ele>553.0</ele><time>2026-04-08T17:08:14.999Z</time></trkpt><trkpt lat="44.36854048311671" lon="8.09984033616613"><ele>553.0</ele><time>2026-04-08T17:08:15.999Z</time></trkpt><trkpt lat="44.36850624389596" lon="8.099753726434512"><ele>550.6</ele><time>2026-04-08T17:08:16.999Z</time></trkpt><trkpt lat="44.368472404821624" lon="8.09963571343556"><ele>548.1999999999999</ele><time>2026-04-08T17:08:18.999Z</time></trkpt><trkpt lat="44.36845853524401" lon="8.09952348009319"><ele>545.8</ele><time>2026-04-08T17:08:20.999Z</time></trkpt><trkpt lat="44.368523652342326" lon="8.099433788584006"><ele>543.4</ele><time>2026-04-08T17:08:22.999Z</time></trkpt><trkpt lat="44.36862076844402" lon="8.099440455602155"><ele>541.0</ele><time>2026-04-08T17:08:24.998Z</time></trkpt><trkpt lat="44.36870384068086" lon="8.099562832540451"><ele>541.0</ele><time>2026-04-08T17:08:26.998Z</time></trkpt><trkpt lat="44.368720682959825" lon="8.099672136589584"><ele>541.0</ele><time>2026-04-08T17:08:27.998Z</time></trkpt><trkpt lat="44.36873435012308" lon="8.099764706326585"><ele>541.0</ele><time>2026-04-08T17:08:28.998Z</time></trkpt><trkpt lat="44.36875273939127" lon="8.099857194716662"><ele>541.0</ele><time>2026-04-08T17:08:29.998Z</time></trkpt><trkpt lat="44.368788095910574" lon="8.099945570842113"><ele>541.0</ele><time>2026-04-08T17:08:30.998Z</time></trkpt><trkpt lat="44.36884891087389" lon="8.100026118778025"><ele>541.0</ele><time>2026-04-08T17:08:31.998Z</time></trkpt><trkpt lat="44.36890950889744" lon="8.10013187677863"><ele>541.8333333333334</ele><time>2026-04-08T17:08:32.998Z</time></trkpt><trkpt lat="44.36898397302385" lon="8.100199050913144"><ele>542.6666666666667</ele><time>2026-04-08T17:08:33.998Z</time></trkpt><trkpt lat="44.36904762999752" lon="8.100279011997463"><ele>543.5</ele><time>2026-04-08T17:08:34.998Z</time></trkpt><trkpt lat="44.36910188022116" lon="8.100391421033777"><ele>544.3333333333334</ele><time>2026-04-08T17:08:35.998Z</time></trkpt><trkpt lat="44.36916258149218" lon="8.100468006248903"><ele>545.1666666666666</ele><time>2026-04-08T17:08:36.998Z</time></trkpt><trkpt lat="44.369221886163615" lon="8.100547382210532"><ele>546.0</ele><time>2026-04-08T17:08:37.998Z</time></trkpt><trkpt lat="44.36928068389904" lon="8.100624168181806"><ele>546.0</ele><time>2026-04-08T17:08:38.998Z</time></trkpt><trkpt lat="44.36933125066103" lon="8.10069304168384"><ele>546.0</ele><time>2026-04-08T17:08:39.998Z</time></trkpt><trkpt lat="44.369427245046325" lon="8.10081169403395"><ele>546.0</ele><time>2026-04-08T17:08:41.998Z</time></trkpt><trkpt lat="44.369541994675565" lon="8.100858546747203"><ele>546.0</ele><time>2026-04-08T17:08:44Z</time></trkpt><trkpt lat="44.3696620994454" lon="8.10078244607541"><ele>542.5</ele><time>2026-04-08T17:08:46Z</time></trkpt><trkpt lat="44.36972718039421" lon="8.100687865950288"><ele>539.0</ele><time>2026-04-08T17:08:47Z</time></trkpt><trkpt lat="44.3698068699506" lon="8.100580030208445"><ele>535.5</ele><time>2026-04-08T17:08:48Z</time></trkpt><trkpt lat="44.369895669711966" lon="8.100460104240977"><ele>532.0</ele><time>2026-04-08T17:08:49Z</time></trkpt><trkpt lat="44.36998273006606" lon="8.10032486452698"><ele>532.0</ele><time>2026-04-08T17:08:50Z</time></trkpt><trkpt lat="44.370083788825916" lon="8.10021419715444"><ele>532.0</ele><time>2026-04-08T17:08:51Z</time></trkpt><trkpt lat="44.370175461778196" lon="8.100090742260415"><ele>532.0</ele><time>2026-04-08T17:08:52Z</time></trkpt><trkpt lat="44.37025162585912" lon="8.09995120938213"><ele>532.0</ele><time>2026-04-08T17:08:53Z</time></trkpt><trkpt lat="44.37033397079758" lon="8.099834085415901"><ele>531.0</ele><time>2026-04-08T17:08:54Z</time></trkpt><trkpt lat="44.370416081244116" lon="8.099733183459888"><ele>530.0</ele><time>2026-04-08T17:08:55Z</time></trkpt><trkpt lat="44.370480702039956" lon="8.099634204146575"><ele>529.0</ele><time>2026-04-08T17:08:56Z</time></trkpt><trkpt lat="44.37053663805885" lon="8.099536269216918"><ele>528.0</ele><time>2026-04-08T17:08:57Z</time></trkpt><trkpt lat="44.3705865187856" lon="8.099442633720212"><ele>527.0</ele><time>2026-04-08T17:08:58Z</time></trkpt><trkpt lat="44.37063092628537" lon="8.099356095393592"><ele>526.0000000000001</ele><time>2026-04-08T17:08:59Z</time></trkpt><trkpt lat="44.37067539249933" lon="8.09927863056929"><ele>525.0</ele><time>2026-04-08T17:09:00Z</time></trkpt><trkpt lat="44.37072365606632" lon="8.099202849349826"><ele>524.0</ele><time>2026-04-08T17:09:01Z</time></trkpt><trkpt lat="44.370772863637285" lon="8.099132663441559"><ele>523.0</ele><time>2026-04-08T17:09:02Z</time></trkpt><trkpt lat="44.370837637411455" lon="8.0990910546143"><ele>522.0</ele><time>2026-04-08T17:09:03Z</time></trkpt><trkpt lat="44.37090935273954" lon="8.099061986656858"><ele>521.0000000000001</ele><time>2026-04-08T17:09:04Z</time></trkpt><trkpt lat="44.370990048877225" lon="8.099039999359606"><ele>520.0</ele><time>2026-04-08T17:09:05Z</time></trkpt><trkpt lat="44.37107344396956" lon="8.099031375248117"><ele>518.6666666666667</ele><time>2026-04-08T17:09:06Z</time></trkpt><trkpt lat="44.37114249066335" lon="8.099023418190637"><ele>517.3333333333334</ele><time>2026-04-08T17:09:07Z</time></trkpt><trkpt lat="44.37120578913486" lon="8.099022408011267"><ele>516.0</ele><time>2026-04-08T17:09:08Z</time></trkpt><trkpt lat="44.37131864075054" lon="8.099037606104732"><ele>514.6666666666666</ele><time>2026-04-08T17:09:10Z</time></trkpt><trkpt lat="44.37137851062338" lon="8.099073311752889"><ele>513.3333333333333</ele><time>2026-04-08T17:09:11Z</time></trkpt><trkpt lat="44.37143738685864" lon="8.099133017461787"><ele>512.0</ele><time>2026-04-08T17:09:12Z</time></trkpt><trkpt lat="44.371507675848804" lon="8.0992265012135"><ele>511.16666666666663</ele><time>2026-04-08T17:09:13Z</time></trkpt><trkpt lat="44.371559519836765" lon="8.099329144038968"><ele>510.3333333333333</ele><time>2026-04-08T17:09:14Z</time></trkpt><trkpt lat="44.37160014197552" lon="8.099429847048716"><ele>509.5</ele><time>2026-04-08T17:09:15Z</time></trkpt><trkpt lat="44.371640533415494" lon="8.099510824439033"><ele>508.66666666666663</ele><time>2026-04-08T17:09:16Z</time></trkpt><trkpt lat="44.371677665542315" lon="8.099596109416833"><ele>507.8333333333333</ele><time>2026-04-08T17:09:17Z</time></trkpt><trkpt lat="44.37171355849929" lon="8.09966862039045"><ele>507.0</ele><time>2026-04-08T17:09:18Z</time></trkpt><trkpt lat="44.3717702182237" lon="8.099781143609952"><ele>507.0</ele><time>2026-04-08T17:09:20Z</time></trkpt><trkpt lat="44.37185047733027" lon="8.099833989474227"><ele>507.00000000000006</ele><time>2026-04-08T17:09:22Z</time></trkpt><trkpt lat="44.37194329118032" lon="8.09979223396953"><ele>507.00000000000006</ele><time>2026-04-08T17:09:24Z</time></trkpt><trkpt lat="44.371994737449086" lon="8.099632781684432"><ele>507.0</ele><time>2026-04-08T17:09:26Z</time></trkpt><trkpt lat="44.371990284629845" lon="8.09953411772978"><ele>507.0</ele><time>2026-04-08T17:09:27Z</time></trkpt><trkpt lat="44.37195484412486" lon="8.099432557899723"><ele>507.0</ele><time>2026-04-08T17:09:27.999Z</time></trkpt><trkpt lat="44.3719517498393" lon="8.099320032682026"><ele>507.0</ele><time>2026-04-08T17:09:28.999Z</time></trkpt><trkpt lat="44.37193425257817" lon="8.099206087428175"><ele>507.0</ele><time>2026-04-08T17:09:29.999Z</time></trkpt><trkpt lat="44.371922055704395" lon="8.099096102066317"><ele>507.0</ele><time>2026-04-08T17:09:30.999Z</time></trkpt><trkpt lat="44.37191660674079" lon="8.098974018671003"><ele>507.0</ele><time>2026-04-08T17:09:31.999Z</time></trkpt><trkpt lat="44.371918663858075" lon="8.098852562853555"><ele>507.0</ele><time>2026-04-08T17:09:32.999Z</time></trkpt><trkpt lat="44.371927858420406" lon="8.098723739624722"><ele>505.8333333333333</ele><time>2026-04-08T17:09:33.999Z</time></trkpt><trkpt lat="44.371943334438065" lon="8.098609166054036"><ele>504.66666666666663</ele><time>2026-04-08T17:09:34.999Z</time></trkpt><trkpt lat="44.371959702788615" lon="8.09849481638994"><ele>503.5</ele><time>2026-04-08T17:09:35.999Z</time></trkpt><trkpt lat="44.371976000167855" lon="8.098388183420424"><ele>502.3333333333333</ele><time>2026-04-08T17:09:36.999Z</time></trkpt><trkpt lat="44.371991252667655" lon="8.098283401779891"><ele>501.16666666666663</ele><time>2026-04-08T17:09:37.999Z</time></trkpt><trkpt lat="44.37200512966099" lon="8.098184954363845"><ele>500.0</ele><time>2026-04-08T17:09:38.999Z</time></trkpt><trkpt lat="44.37200377228481" lon="8.098073099855634"><ele>498.66666666666663</ele><time>2026-04-08T17:09:39.999Z</time></trkpt><trkpt lat="44.37198229931024" lon="8.097956675003601"><ele>497.3333333333333</ele><time>2026-04-08T17:09:40.999Z</time></trkpt><trkpt lat="44.37193615667267" lon="8.097876912489655"><ele>496.0</ele><time>2026-04-08T17:09:41.999Z</time></trkpt><trkpt lat="44.37189710236241" lon="8.097743754208636"><ele>494.66666666666663</ele><time>2026-04-08T17:09:43.999Z</time></trkpt><trkpt lat="44.37189051283807" lon="8.097651831564196"><ele>493.3333333333333</ele><time>2026-04-08T17:09:45.999Z</time></trkpt><trkpt lat="44.37194997523479" lon="8.097572163802457"><ele>492.0</ele><time>2026-04-08T17:09:47.999Z</time></trkpt><trkpt lat="44.372064422924524" lon="8.097638110509054"><ele>492.0</ele><time>2026-04-08T17:09:49.999Z</time></trkpt><trkpt lat="44.37211039617134" lon="8.097699116747991"><ele>492.0</ele><time>2026-04-08T17:09:50.999Z</time></trkpt><trkpt lat="44.372208847568544" lon="8.097798842008396"><ele>492.0</ele><time>2026-04-08T17:09:52.999Z</time></trkpt><trkpt lat="44.37232808720396" lon="8.097832476297398"><ele>492.0</ele><time>2026-04-08T17:09:54.999Z</time></trkpt><trkpt lat="44.37240024498353" lon="8.097820047377503"><ele>492.0</ele><time>2026-04-08T17:09:55.999Z</time></trkpt><trkpt lat="44.37246527285098" lon="8.0977847744539"><ele>492.0</ele><time>2026-04-08T17:09:56.999Z</time></trkpt><trkpt lat="44.37255383064625" lon="8.097731296405277"><ele>489.75</ele><time>2026-04-08T17:09:57.999Z</time></trkpt><trkpt lat="44.372649244987045" lon="8.097650064126647"><ele>487.5</ele><time>2026-04-08T17:09:58.999Z</time></trkpt><trkpt lat="44.372761409902104" lon="8.097593747749395"><ele>485.25</ele><time>2026-04-08T17:09:59.999Z</time></trkpt><trkpt lat="44.372870362972364" lon="8.097517539937973"><ele>483.0</ele><time>2026-04-08T17:10:00.999Z</time></trkpt><trkpt lat="44.372975830652024" lon="8.097443769870194"><ele>482.4</ele><time>2026-04-08T17:10:01.999Z</time></trkpt><trkpt lat="44.373070626443514" lon="8.097352189039718"><ele>481.79999999999995</ele><time>2026-04-08T17:10:02.999Z</time></trkpt><trkpt lat="44.37318371652303" lon="8.097302655673563"><ele>481.2</ele><time>2026-04-08T17:10:03.999Z</time></trkpt><trkpt lat="44.373282282422366" lon="8.097240631041911"><ele>480.6</ele><time>2026-04-08T17:10:04.999Z</time></trkpt><trkpt lat="44.37337399447674" lon="8.097182536522928"><ele>480.0</ele><time>2026-04-08T17:10:05.999Z</time></trkpt><trkpt lat="44.373458570222205" lon="8.097126989806656"><ele>480.0</ele><time>2026-04-08T17:10:06.999Z</time></trkpt><trkpt lat="44.37353873025296" lon="8.097073466047846"><ele>480.0</ele><time>2026-04-08T17:10:07.999Z</time></trkpt><trkpt lat="44.373612194959335" lon="8.097023354034535"><ele>480.0</ele><time>2026-04-08T17:10:08.999Z</time></trkpt><trkpt lat="44.373674809165834" lon="8.09697802223925"><ele>480.0</ele><time>2026-04-08T17:10:09.999Z</time></trkpt><trkpt lat="44.37378016708792" lon="8.096902261230516"><ele>480.0</ele><time>2026-04-08T17:10:11.999Z</time></trkpt><trkpt lat="44.373902630700805" lon="8.09687681245701"><ele>479.3333333333333</ele><time>2026-04-08T17:10:13.999Z</time></trkpt><trkpt lat="44.374013099180594" lon="8.096851973123181"><ele>478.66666666666663</ele><time>2026-04-08T17:10:15.999Z</time></trkpt><trkpt lat="44.37410508249134" lon="8.096750977924023"><ele>478.0</ele><time>2026-04-08T17:10:17.999Z</time></trkpt><trkpt lat="44.37414920680372" lon="8.096673346841108"><ele>477.3333333333333</ele><time>2026-04-08T17:10:18.999Z</time></trkpt><trkpt lat="44.3741986398008" lon="8.096604769241015"><ele>476.66666666666663</ele><time>2026-04-08T17:10:19.999Z</time></trkpt><trkpt lat="44.374251054846134" lon="8.096547972356758"><ele>476.0</ele><time>2026-04-08T17:10:20.999Z</time></trkpt><trkpt lat="44.37430852747191" lon="8.096511090299039"><ele>476.0</ele><time>2026-04-08T17:10:21.999Z</time></trkpt><trkpt lat="44.37437168652664" lon="8.096468908269925"><ele>476.0</ele><time>2026-04-08T17:10:22.999Z</time></trkpt><trkpt lat="44.374433173753964" lon="8.096421496619572"><ele>476.0</ele><time>2026-04-08T17:10:23.999Z</time></trkpt><trkpt lat="44.37449339087155" lon="8.096380610778436"><ele>476.0</ele><time>2026-04-08T17:10:24.999Z</time></trkpt><trkpt lat="44.374560349935656" lon="8.096331695994019"><ele>476.0</ele><time>2026-04-08T17:10:25.999Z</time></trkpt><trkpt lat="44.374626358754576" lon="8.096280419699667"><ele>476.0</ele><time>2026-04-08T17:10:26.998Z</time></trkpt><trkpt lat="44.374691745588606" lon="8.09623206255737"><ele>476.0</ele><time>2026-04-08T17:10:27.998Z</time></trkpt><trkpt lat="44.37475427644047" lon="8.09618457263298"><ele>475.8333333333333</ele><time>2026-04-08T17:10:28.998Z</time></trkpt><trkpt lat="44.37481919530104" lon="8.0961333415085"><ele>475.66666666666663</ele><time>2026-04-08T17:10:29.998Z</time></trkpt><trkpt lat="44.37490050945064" lon="8.096106482404618"><ele>475.5</ele><time>2026-04-08T17:10:30.998Z</time></trkpt><trkpt lat="44.374961754157454" lon="8.09606397610533"><ele>475.33333333333337</ele><time>2026-04-08T17:10:31.998Z</time></trkpt><trkpt lat="44.37502127505747" lon="8.09602406537081"><ele>475.1666666666667</ele><time>2026-04-08T17:10:32.998Z</time></trkpt><trkpt lat="44.375079449930446" lon="8.095983405252833"><ele>475.0</ele><time>2026-04-08T17:10:33.998Z</time></trkpt><trkpt lat="44.375178365897646" lon="8.095914398304068"><ele>475.0</ele><time>2026-04-08T17:10:35.998Z</time></trkpt><trkpt lat="44.375274474268224" lon="8.095859526139957"><ele>475.0</ele><time>2026-04-08T17:10:37.998Z</time></trkpt><trkpt lat="44.37535448455378" lon="8.095792616429213"><ele>475.0</ele><time>2026-04-08T17:10:39.998Z</time></trkpt><trkpt lat="44.37543379112666" lon="8.095764724664976"><ele>475.0</ele><time>2026-04-08T17:10:41.998Z</time></trkpt><trkpt lat="44.375456081338385" lon="8.095641769973867"><ele>475.0</ele><time>2026-04-08T17:10:42.998Z</time></trkpt><trkpt lat="44.37547891668272" lon="8.095499139959843"><ele>475.1666666666667</ele><time>2026-04-08T17:10:44.998Z</time></trkpt><trkpt lat="44.37550866844489" lon="8.095338551004676"><ele>475.33333333333337</ele><time>2026-04-08T17:10:46.998Z</time></trkpt><trkpt lat="44.375523675667885" lon="8.095251876084813"><ele>475.5</ele><time>2026-04-08T17:10:47.998Z</time></trkpt><trkpt lat="44.37554378513839" lon="8.095165747466696"><ele>475.66666666666663</ele><time>2026-04-08T17:10:49Z</time></trkpt><trkpt lat="44.375563700064795" lon="8.09507329787579"><ele>475.8333333333333</ele><time>2026-04-08T17:10:50Z</time></trkpt><trkpt lat="44.37558240069092" lon="8.094987909790115"><ele>476.0</ele><time>2026-04-08T17:10:51Z</time></trkpt><trkpt lat="44.37562338473762" lon="8.094883586973058"><ele>476.1428571428571</ele><time>2026-04-08T17:10:52Z</time></trkpt><trkpt lat="44.37564622532096" lon="8.094781634705422"><ele>476.2857142857143</ele><time>2026-04-08T17:10:53Z</time></trkpt><trkpt lat="44.37566666921441" lon="8.0946904045213"><ele>476.42857142857144</ele><time>2026-04-08T17:10:54Z</time></trkpt><trkpt lat="44.37567448005102" lon="8.094584556682893"><ele>476.57142857142856</ele><time>2026-04-08T17:10:55Z</time></trkpt><trkpt lat="44.375699007279984" lon="8.094489819380113"><ele>476.71428571428567</ele><time>2026-04-08T17:10:56Z</time></trkpt><trkpt lat="44.37572055732389" lon="8.094384925123153"><ele>476.85714285714283</ele><time>2026-04-08T17:10:57Z</time></trkpt><trkpt lat="44.375753477081965" lon="8.094303027140208"><ele>477.0</ele><time>2026-04-08T17:10:58Z</time></trkpt><trkpt lat="44.37577273283346" lon="8.094217099147242"><ele>477.0</ele><time>2026-04-08T17:10:59Z</time></trkpt><trkpt lat="44.37579375215448" lon="8.094123299551885"><ele>477.0</ele><time>2026-04-08T17:11:00Z</time></trkpt><trkpt lat="44.37581837094189" lon="8.09401465161645"><ele>477.0</ele><time>2026-04-08T17:11:01Z</time></trkpt><trkpt lat="44.375844358396726" lon="8.09389950776813"><ele>477.0</ele><time>2026-04-08T17:11:02Z</time></trkpt><trkpt lat="44.375869001699364" lon="8.09379031829303"><ele>477.0</ele><time>2026-04-08T17:11:03Z</time></trkpt><trkpt lat="44.37589580958037" lon="8.093663774555969"><ele>477.0</ele><time>2026-04-08T17:11:04Z</time></trkpt><trkpt lat="44.375920721370285" lon="8.093548151025947"><ele>476.0</ele><time>2026-04-08T17:11:05Z</time></trkpt><trkpt lat="44.37594855944382" lon="8.093416154004935"><ele>475.0</ele><time>2026-04-08T17:11:06Z</time></trkpt><trkpt lat="44.375979014323335" lon="8.093273405137795"><ele>474.0</ele><time>2026-04-08T17:11:07Z</time></trkpt><trkpt lat="44.3760162281962" lon="8.093104713701413"><ele>473.0</ele><time>2026-04-08T17:11:08Z</time></trkpt><trkpt lat="44.376052621156504" lon="8.092943169279312"><ele>472.59999999999997</ele><time>2026-04-08T17:11:09Z</time></trkpt><trkpt lat="44.376084981777936" lon="8.092799523926512"><ele>472.19999999999993</ele><time>2026-04-08T17:11:10Z</time></trkpt><trkpt lat="44.376098967414606" lon="8.09265751742044"><ele>471.8</ele><time>2026-04-08T17:11:11Z</time></trkpt><trkpt lat="44.37614378148886" lon="8.092525039813207"><ele>471.4</ele><time>2026-04-08T17:11:12Z</time></trkpt><trkpt lat="44.37615594037762" lon="8.092380257467134"><ele>471.0</ele><time>2026-04-08T17:11:13Z</time></trkpt><trkpt lat="44.37618172280128" lon="8.092249319303912"><ele>470.8</ele><time>2026-04-08T17:11:14Z</time></trkpt><trkpt lat="44.37620272165882" lon="8.092108179306765"><ele>470.6</ele><time>2026-04-08T17:11:15Z</time></trkpt><trkpt lat="44.37622326677328" lon="8.091967473685116"><ele>470.4</ele><time>2026-04-08T17:11:16Z</time></trkpt><trkpt lat="44.37624255603315" lon="8.091821433663691"><ele>470.2</ele><time>2026-04-08T17:11:17Z</time></trkpt><trkpt lat="44.376269497539305" lon="8.09166590016367"><ele>470.0</ele><time>2026-04-08T17:11:18Z</time></trkpt><trkpt lat="44.376290738679934" lon="8.09150743316657"><ele>470.0</ele><time>2026-04-08T17:11:19Z</time></trkpt><trkpt lat="44.37630914213316" lon="8.09136579694264"><ele>470.0</ele><time>2026-04-08T17:11:20Z</time></trkpt><trkpt lat="44.37632029840298" lon="8.091219484958101"><ele>470.0</ele><time>2026-04-08T17:11:21Z</time></trkpt><trkpt lat="44.376334941000785" lon="8.091059161955304"><ele>470.0</ele><time>2026-04-08T17:11:22Z</time></trkpt><trkpt lat="44.37634700237946" lon="8.090907133107317"><ele>470.0</ele><time>2026-04-08T17:11:23Z</time></trkpt><trkpt lat="44.37636779263515" lon="8.09074953821624"><ele>470.0</ele><time>2026-04-08T17:11:24Z</time></trkpt><trkpt lat="44.376381346882425" lon="8.090599255372394"><ele>470.0</ele><time>2026-04-08T17:11:25Z</time></trkpt><trkpt lat="44.37638857968662" lon="8.090439902500421"><ele>470.0</ele><time>2026-04-08T17:11:26Z</time></trkpt><trkpt lat="44.37639783084086" lon="8.090284200398397"><ele>470.0</ele><time>2026-04-08T17:11:27Z</time></trkpt><trkpt lat="44.37639639328469" lon="8.090139202499055"><ele>470.0</ele><time>2026-04-08T17:11:28Z</time></trkpt><trkpt lat="44.37640090436058" lon="8.089993328758938"><ele>469.75</ele><time>2026-04-08T17:11:29Z</time></trkpt><trkpt lat="44.3764157604927" lon="8.08985164239185"><ele>469.5</ele><time>2026-04-08T17:11:30Z</time></trkpt><trkpt lat="44.3764211465765" lon="8.0896937394562"><ele>469.25</ele><time>2026-04-08T17:11:31Z</time></trkpt><trkpt lat="44.37641703691831" lon="8.089512774444104"><ele>469.0</ele><time>2026-04-08T17:11:32Z</time></trkpt><trkpt lat="44.376412196776855" lon="8.08932138346778"><ele>469.0</ele><time>2026-04-08T17:11:33Z</time></trkpt><trkpt lat="44.3764102129226" lon="8.08911389421041"><ele>469.0</ele><time>2026-04-08T17:11:34Z</time></trkpt><trkpt lat="44.376404566133544" lon="8.088928596304722"><ele>469.0</ele><time>2026-04-08T17:11:34.999Z</time></trkpt><trkpt lat="44.37638569934391" lon="8.088755692048966"><ele>469.0</ele><time>2026-04-08T17:11:35.999Z</time></trkpt><trkpt lat="44.37637331636705" lon="8.088597716798777"><ele>468.75</ele><time>2026-04-08T17:11:36.999Z</time></trkpt><trkpt lat="44.37635427334735" lon="8.088427071078685"><ele>468.5</ele><time>2026-04-08T17:11:37.999Z</time></trkpt><trkpt lat="44.37633188433718" lon="8.088253463441193"><ele>468.25</ele><time>2026-04-08T17:11:38.999Z</time></trkpt><trkpt lat="44.37631600300142" lon="8.088085710343657"><ele>468.0</ele><time>2026-04-08T17:11:39.999Z</time></trkpt><trkpt lat="44.37628642486708" lon="8.087904485151233"><ele>468.0</ele><time>2026-04-08T17:11:40.999Z</time></trkpt><trkpt lat="44.37625720791228" lon="8.087741763706918"><ele>468.0</ele><time>2026-04-08T17:11:41.999Z</time></trkpt><trkpt lat="44.37622772223082" lon="8.087580435551219"><ele>468.0</ele><time>2026-04-08T17:11:42.999Z</time></trkpt><trkpt lat="44.376214864330215" lon="8.087424847789176"><ele>468.0</ele><time>2026-04-08T17:11:43.999Z</time></trkpt><trkpt lat="44.37618228554999" lon="8.087278706301252"><ele>468.0</ele><time>2026-04-08T17:11:44.999Z</time></trkpt><trkpt lat="44.376129745618336" lon="8.087128601537353"><ele>467.99999999999994</ele><time>2026-04-08T17:11:45.999Z</time></trkpt><trkpt lat="44.37605255709707" lon="8.087008737724606"><ele>467.99999999999994</ele><time>2026-04-08T17:11:46.999Z</time></trkpt><trkpt lat="44.375995641427565" lon="8.08688508340979"><ele>468.0</ele><time>2026-04-08T17:11:47.999Z</time></trkpt><trkpt lat="44.37594098868974" lon="8.086763622724884"><ele>468.0</ele><time>2026-04-08T17:11:48.999Z</time></trkpt><trkpt lat="44.3758987415302" lon="8.086656915417143"><ele>468.0</ele><time>2026-04-08T17:11:49.999Z</time></trkpt><trkpt lat="44.3758621883107" lon="8.08654189347794"><ele>467.99999999999994</ele><time>2026-04-08T17:11:50.999Z</time></trkpt><trkpt lat="44.375828919176364" lon="8.086403177734978"><ele>467.99999999999994</ele><time>2026-04-08T17:11:51.999Z</time></trkpt><trkpt lat="44.37579676898829" lon="8.086259263405656"><ele>468.0</ele><time>2026-04-08T17:11:52.999Z</time></trkpt><trkpt lat="44.375761815133316" lon="8.08608877000766"><ele>468.0</ele><time>2026-04-08T17:11:53.999Z</time></trkpt><trkpt lat="44.375741936075734" lon="8.085891956279237"><ele>468.66666666666663</ele><time>2026-04-08T17:11:54.999Z</time></trkpt><trkpt lat="44.37571815941466" lon="8.085683051178158"><ele>469.3333333333333</ele><time>2026-04-08T17:11:55.999Z</time></trkpt><trkpt lat="44.37568207538833" lon="8.0854488263367"><ele>470.0</ele><time>2026-04-08T17:11:56.999Z</time></trkpt><trkpt lat="44.375629339638586" lon="8.085222928537705"><ele>470.0</ele><time>2026-04-08T17:11:57.999Z</time></trkpt><trkpt lat="44.3755731082976" lon="8.084985226700617"><ele>470.0</ele><time>2026-04-08T17:11:58.999Z</time></trkpt><trkpt lat="44.37550741781155" lon="8.084745289578223"><ele>470.0</ele><time>2026-04-08T17:11:59.999Z</time></trkpt><trkpt lat="44.37543580363369" lon="8.08449793830124"><ele>470.0</ele><time>2026-04-08T17:12:00.999Z</time></trkpt><trkpt lat="44.375359036590325" lon="8.084251101121714"><ele>470.0</ele><time>2026-04-08T17:12:01.999Z</time></trkpt><trkpt lat="44.375283740988074" lon="8.08399676222168"><ele>470.0</ele><time>2026-04-08T17:12:02.999Z</time></trkpt><trkpt lat="44.37519679885188" lon="8.08373479532278"><ele>469.66666666666663</ele><time>2026-04-08T17:12:03.999Z</time></trkpt><trkpt lat="44.37510903426819" lon="8.083466110467"><ele>469.33333333333337</ele><time>2026-04-08T17:12:04.999Z</time></trkpt><trkpt lat="44.37502796461933" lon="8.08321600342192"><ele>469.0</ele><time>2026-04-08T17:12:05.999Z</time></trkpt><trkpt lat="44.37495115150586" lon="8.082973254644791"><ele>469.0</ele><time>2026-04-08T17:12:06.999Z</time></trkpt><trkpt lat="44.37487052681507" lon="8.082714268218451"><ele>469.0</ele><time>2026-04-08T17:12:07.999Z</time></trkpt><trkpt lat="44.37480125045685" lon="8.082440383073788"><ele>469.0</ele><time>2026-04-08T17:12:08.999Z</time></trkpt><trkpt lat="44.3747134076767" lon="8.082153602226251"><ele>468.33333333333337</ele><time>2026-04-08T17:12:09.999Z</time></trkpt><trkpt lat="44.37463133498553" lon="8.08188958186904"><ele>467.66666666666663</ele><time>2026-04-08T17:12:10.999Z</time></trkpt><trkpt lat="44.37455737604433" lon="8.081648284935358"><ele>467.0</ele><time>2026-04-08T17:12:11.999Z</time></trkpt><trkpt lat="44.37448372653995" lon="8.081421249969523"><ele>467.0</ele><time>2026-04-08T17:12:12.999Z</time></trkpt><trkpt lat="44.37441193396492" lon="8.081162980295483"><ele>467.0</ele><time>2026-04-08T17:12:13.999Z</time></trkpt><trkpt lat="44.374335421854894" lon="8.080925511995824"><ele>467.0</ele><time>2026-04-08T17:12:14.999Z</time></trkpt><trkpt lat="44.37427170375386" lon="8.080695996159982"><ele>467.66666666666663</ele><time>2026-04-08T17:12:15.999Z</time></trkpt><trkpt lat="44.37421256090272" lon="8.080486800179514"><ele>468.33333333333337</ele><time>2026-04-08T17:12:16.999Z</time></trkpt><trkpt lat="44.37414933860418" lon="8.080289976275191"><ele>469.0</ele><time>2026-04-08T17:12:17.999Z</time></trkpt><trkpt lat="44.374099285726636" lon="8.08009977085811"><ele>468.33333333333337</ele><time>2026-04-08T17:12:18.999Z</time></trkpt><trkpt lat="44.374054984653206" lon="8.079919429017206"><ele>467.66666666666663</ele><time>2026-04-08T17:12:19.999Z</time></trkpt><trkpt lat="44.374022300798664" lon="8.079705254224246"><ele>467.0</ele><time>2026-04-08T17:12:20.999Z</time></trkpt><trkpt lat="44.3739988004116" lon="8.079487996600895"><ele>467.0</ele><time>2026-04-08T17:12:21.999Z</time></trkpt><trkpt lat="44.37398407514729" lon="8.079253738804377"><ele>467.0</ele><time>2026-04-08T17:12:22.999Z</time></trkpt><trkpt lat="44.37398276451186" lon="8.07900774943789"><ele>467.0</ele><time>2026-04-08T17:12:23.999Z</time></trkpt><trkpt lat="44.373974271720684" lon="8.078770650443188"><ele>466.66666666666663</ele><time>2026-04-08T17:12:24.999Z</time></trkpt><trkpt lat="44.37398745617286" lon="8.078542140276976"><ele>466.33333333333337</ele><time>2026-04-08T17:12:25.999Z</time></trkpt><trkpt lat="44.37398545390283" lon="8.078334981971528"><ele>466.0</ele><time>2026-04-08T17:12:26.999Z</time></trkpt><trkpt lat="44.37398363240373" lon="8.078131689954349"><ele>465.75</ele><time>2026-04-08T17:12:27.999Z</time></trkpt><trkpt lat="44.37398055460854" lon="8.077936332971253"><ele>465.5</ele><time>2026-04-08T17:12:28.999Z</time></trkpt><trkpt lat="44.37397484097112" lon="8.077737807327413"><ele>465.25</ele><time>2026-04-08T17:12:29.999Z</time></trkpt><trkpt lat="44.37395388323375" lon="8.077526271809836"><ele>465.0</ele><time>2026-04-08T17:12:30.999Z</time></trkpt><trkpt lat="44.37389401464519" lon="8.077317539921333"><ele>463.75</ele><time>2026-04-08T17:12:31.999Z</time></trkpt><trkpt lat="44.373829780851096" lon="8.077115924229236"><ele>462.5</ele><time>2026-04-08T17:12:32.998Z</time></trkpt><trkpt lat="44.373773360387574" lon="8.076932572988719"><ele>461.25</ele><time>2026-04-08T17:12:33.998Z</time></trkpt><trkpt lat="44.373720284666206" lon="8.076758224735915"><ele>460.0</ele><time>2026-04-08T17:12:34.998Z</time></trkpt><trkpt lat="44.373662484473144" lon="8.07655298578626"><ele>459.6666666666667</ele><time>2026-04-08T17:12:35.998Z</time></trkpt><trkpt lat="44.37360289258875" lon="8.076372315589282"><ele>459.33333333333337</ele><time>2026-04-08T17:12:36.998Z</time></trkpt><trkpt lat="44.373528115185024" lon="8.076200516123814"><ele>459.0</ele><time>2026-04-08T17:12:37.998Z</time></trkpt><trkpt lat="44.37346417021083" lon="8.075982920535012"><ele>459.0</ele><time>2026-04-08T17:12:38.998Z</time></trkpt><trkpt lat="44.37339845765618" lon="8.075776997612783"><ele>459.0</ele><time>2026-04-08T17:12:39.998Z</time></trkpt><trkpt lat="44.3733417253057" lon="8.075602602813694"><ele>459.0</ele><time>2026-04-08T17:12:40.998Z</time></trkpt><trkpt lat="44.37327651692911" lon="8.075407819638682"><ele>459.5</ele><time>2026-04-08T17:12:41.998Z</time></trkpt><trkpt lat="44.373222088631515" lon="8.075219422507859"><ele>460.0</ele><time>2026-04-08T17:12:42.998Z</time></trkpt><trkpt lat="44.37316326850327" lon="8.075041266985956"><ele>460.5</ele><time>2026-04-08T17:12:43.998Z</time></trkpt><trkpt lat="44.373104081626806" lon="8.074864883756947"><ele>461.0</ele><time>2026-04-08T17:12:44.998Z</time></trkpt><trkpt lat="44.37304762404145" lon="8.074680490881082"><ele>459.5</ele><time>2026-04-08T17:12:45.998Z</time></trkpt><trkpt lat="44.37298582787034" lon="8.074503750586313"><ele>458.0</ele><time>2026-04-08T17:12:46.998Z</time></trkpt><trkpt lat="44.37293352889131" lon="8.074335521334962"><ele>456.5</ele><time>2026-04-08T17:12:47.998Z</time></trkpt><trkpt lat="44.37287979471869" lon="8.074178165636654"><ele>455.0</ele><time>2026-04-08T17:12:48.998Z</time></trkpt><trkpt lat="44.37283639567604" lon="8.074011659146594"><ele>455.0</ele><time>2026-04-08T17:12:49.998Z</time></trkpt><trkpt lat="44.37280096197452" lon="8.07385695889317"><ele>455.0</ele><time>2026-04-08T17:12:50.998Z</time></trkpt><trkpt lat="44.37278218931996" lon="8.073700563742637"><ele>455.0</ele><time>2026-04-08T17:12:51.998Z</time></trkpt><trkpt lat="44.37277252644774" lon="8.073535895004678"><ele>455.0</ele><time>2026-04-08T17:12:52.998Z</time></trkpt><trkpt lat="44.372771226080694" lon="8.0733786971197"><ele>454.25</ele><time>2026-04-08T17:12:53.998Z</time></trkpt><trkpt lat="44.372780521866865" lon="8.073221929396228"><ele>453.5</ele><time>2026-04-08T17:12:55Z</time></trkpt><trkpt lat="44.3727979228576" lon="8.07305183457699"><ele>452.75</ele><time>2026-04-08T17:12:56Z</time></trkpt><trkpt lat="44.3728248295313" lon="8.07288494769789"><ele>452.0</ele><time>2026-04-08T17:12:57Z</time></trkpt><trkpt lat="44.37286525819957" lon="8.07273226093757"><ele>452.0</ele><time>2026-04-08T17:12:58Z</time></trkpt><trkpt lat="44.37293331943955" lon="8.072576082541978"><ele>452.0</ele><time>2026-04-08T17:12:59Z</time></trkpt><trkpt lat="44.37302072513782" lon="8.072422819701742"><ele>452.0</ele><time>2026-04-08T17:13:00Z</time></trkpt><trkpt lat="44.37311929726514" lon="8.072277242194042"><ele>452.0</ele><time>2026-04-08T17:13:01Z</time></trkpt><trkpt lat="44.373234251420264" lon="8.072116237063563"><ele>451.0</ele><time>2026-04-08T17:13:02Z</time></trkpt><trkpt lat="44.37335756771708" lon="8.071961830664062"><ele>450.0</ele><time>2026-04-08T17:13:03Z</time></trkpt><trkpt lat="44.3734934415452" lon="8.071800792880774"><ele>449.0</ele><time>2026-04-08T17:13:04Z</time></trkpt><trkpt lat="44.37363398460083" lon="8.071635348559202"><ele>448.66666666666663</ele><time>2026-04-08T17:13:05Z</time></trkpt><trkpt lat="44.373776160921246" lon="8.07146912998284"><ele>448.33333333333337</ele><time>2026-04-08T17:13:06Z</time></trkpt><trkpt lat="44.37392303655534" lon="8.071300952358719"><ele>448.0</ele><time>2026-04-08T17:13:07Z</time></trkpt><trkpt lat="44.374065161070945" lon="8.071133951715085"><ele>448.0</ele><time>2026-04-08T17:13:08Z</time></trkpt><trkpt lat="44.374211608126096" lon="8.070968889427593"><ele>448.0</ele><time>2026-04-08T17:13:09Z</time></trkpt><trkpt lat="44.37435874882409" lon="8.070801723321427"><ele>448.0</ele><time>2026-04-08T17:13:10Z</time></trkpt><trkpt lat="44.37450283865393" lon="8.07062870533334"><ele>448.33333333333337</ele><time>2026-04-08T17:13:11Z</time></trkpt><trkpt lat="44.37465003299285" lon="8.070456536615357"><ele>448.66666666666663</ele><time>2026-04-08T17:13:12Z</time></trkpt><trkpt lat="44.37480447982606" lon="8.070304694915558"><ele>449.0</ele><time>2026-04-08T17:13:13Z</time></trkpt><trkpt lat="44.374937038800496" lon="8.070147714747899"><ele>449.3333333333333</ele><time>2026-04-08T17:13:14Z</time></trkpt><trkpt lat="44.37506688469316" lon="8.069993947500098"><ele>449.66666666666663</ele><time>2026-04-08T17:13:15Z</time></trkpt><trkpt lat="44.37519289642351" lon="8.069832330529254"><ele>450.0</ele><time>2026-04-08T17:13:16Z</time></trkpt><trkpt lat="44.375318228848485" lon="8.069630330572139"><ele>450.0</ele><time>2026-04-08T17:13:17Z</time></trkpt><trkpt lat="44.37541552987813" lon="8.069446003158474"><ele>450.0</ele><time>2026-04-08T17:13:18Z</time></trkpt><trkpt lat="44.37550529019964" lon="8.069249072496381"><ele>450.0</ele><time>2026-04-08T17:13:19Z</time></trkpt><trkpt lat="44.375587417487054" lon="8.069028832857544"><ele>450.66666666666663</ele><time>2026-04-08T17:13:20Z</time></trkpt><trkpt lat="44.37565527611105" lon="8.068812060188352"><ele>451.3333333333333</ele><time>2026-04-08T17:13:21Z</time></trkpt><trkpt lat="44.37570329752496" lon="8.068607303219895"><ele>452.0</ele><time>2026-04-08T17:13:22Z</time></trkpt><trkpt lat="44.37573876557291" lon="8.068415427474994"><ele>453.25</ele><time>2026-04-08T17:13:23Z</time></trkpt><trkpt lat="44.37576317195975" lon="8.068228888219396"><ele>454.5</ele><time>2026-04-08T17:13:24Z</time></trkpt><trkpt lat="44.37577962960162" lon="8.068057597581188"><ele>455.75</ele><time>2026-04-08T17:13:25Z</time></trkpt><trkpt lat="44.37579858321197" lon="8.067895019644647"><ele>457.0</ele><time>2026-04-08T17:13:26Z</time></trkpt><trkpt lat="44.375811679775495" lon="8.067754662640738"><ele>457.00000000000006</ele><time>2026-04-08T17:13:27Z</time></trkpt><trkpt lat="44.375833386457685" lon="8.067640218939127"><ele>457.0</ele><time>2026-04-08T17:13:28Z</time></trkpt><trkpt lat="44.37584944124161" lon="8.067530903744311"><ele>457.00000000000006</ele><time>2026-04-08T17:13:29Z</time></trkpt><trkpt lat="44.375864749653445" lon="8.067429484351432"><ele>457.00000000000006</ele><time>2026-04-08T17:13:30Z</time></trkpt><trkpt lat="44.375886026803805" lon="8.06733852933337"><ele>457.0</ele><time>2026-04-08T17:13:31Z</time></trkpt><trkpt lat="44.37590857744466" lon="8.067246812423523"><ele>457.00000000000006</ele><time>2026-04-08T17:13:32Z</time></trkpt><trkpt lat="44.37592134727947" lon="8.067158750204019"><ele>457.00000000000006</ele><time>2026-04-08T17:13:33Z</time></trkpt><trkpt lat="44.37590220065921" lon="8.067074583230632"><ele>458.0</ele><time>2026-04-08T17:13:34Z</time></trkpt><trkpt lat="44.3758582474636" lon="8.066986083699353"><ele>459.00000000000006</ele><time>2026-04-08T17:13:35Z</time></trkpt><trkpt lat="44.37579129361474" lon="8.066894154298422"><ele>460.00000000000006</ele><time>2026-04-08T17:13:36Z</time></trkpt><trkpt lat="44.375743195454234" lon="8.06674929340982"><ele>461.0</ele><time>2026-04-08T17:13:37Z</time></trkpt><trkpt lat="44.375712521984156" lon="8.066585713237023"><ele>462.0</ele><time>2026-04-08T17:13:38Z</time></trkpt><trkpt lat="44.37568776532254" lon="8.066416032301968"><ele>462.0</ele><time>2026-04-08T17:13:38.999Z</time></trkpt><trkpt lat="44.37565503827985" lon="8.066225799110166"><ele>462.0</ele><time>2026-04-08T17:13:39.999Z</time></trkpt><trkpt lat="44.37562798906519" lon="8.066062685226676"><ele>462.0</ele><time>2026-04-08T17:13:40.999Z</time></trkpt><trkpt lat="44.375601930412856" lon="8.065890456052198"><ele>462.0</ele><time>2026-04-08T17:13:41.999Z</time></trkpt><trkpt lat="44.375582343109464" lon="8.065712587598368"><ele>460.5</ele><time>2026-04-08T17:13:42.999Z</time></trkpt><trkpt lat="44.37555644587321" lon="8.065528763672699"><ele>459.0</ele><time>2026-04-08T17:13:43.999Z</time></trkpt><trkpt lat="44.37553092260427" lon="8.065340310310601"><ele>457.5</ele><time>2026-04-08T17:13:44.999Z</time></trkpt><trkpt lat="44.37550478433468" lon="8.065140207644458"><ele>456.0</ele><time>2026-04-08T17:13:45.999Z</time></trkpt><trkpt lat="44.375473617133544" lon="8.064951688656478"><ele>451.75</ele><time>2026-04-08T17:13:46.999Z</time></trkpt><trkpt lat="44.37544551205567" lon="8.064760546086868"><ele>447.5</ele><time>2026-04-08T17:13:47.999Z</time></trkpt><trkpt lat="44.375416052327324" lon="8.064556550058096"><ele>443.25</ele><time>2026-04-08T17:13:48.999Z</time></trkpt><trkpt lat="44.37539142353219" lon="8.064349411958766"><ele>439.0</ele><time>2026-04-08T17:13:49.999Z</time></trkpt><trkpt lat="44.375369992638966" lon="8.06414282667946"><ele>435.33333333333337</ele><time>2026-04-08T17:13:50.999Z</time></trkpt><trkpt lat="44.37534615249318" lon="8.063944316107857"><ele>431.66666666666663</ele><time>2026-04-08T17:13:51.999Z</time></trkpt><trkpt lat="44.375320966037386" lon="8.063735865616424"><ele>428.0</ele><time>2026-04-08T17:13:52.999Z</time></trkpt><trkpt lat="44.37529524392208" lon="8.063522168465452"><ele>428.0</ele><time>2026-04-08T17:13:53.999Z</time></trkpt><trkpt lat="44.375273931926245" lon="8.063304856562091"><ele>428.0</ele><time>2026-04-08T17:13:54.999Z</time></trkpt><trkpt lat="44.375253883315814" lon="8.063098303408674"><ele>428.0</ele><time>2026-04-08T17:13:55.999Z</time></trkpt><trkpt lat="44.37524011595078" lon="8.062890742015238"><ele>429.0</ele><time>2026-04-08T17:13:56.999Z</time></trkpt><trkpt lat="44.37522695346564" lon="8.062675136583687"><ele>430.0</ele><time>2026-04-08T17:13:57.999Z</time></trkpt><trkpt lat="44.375214751532994" lon="8.062466747519622"><ele>431.0</ele><time>2026-04-08T17:13:58.999Z</time></trkpt><trkpt lat="44.37520765595656" lon="8.062257414971624"><ele>432.75</ele><time>2026-04-08T17:13:59.999Z</time></trkpt><trkpt lat="44.3752062457474" lon="8.062050487407651"><ele>434.5</ele><time>2026-04-08T17:14:00.999Z</time></trkpt><trkpt lat="44.375197486381616" lon="8.061855255342467"><ele>436.25</ele><time>2026-04-08T17:14:01.999Z</time></trkpt><trkpt lat="44.37519450391759" lon="8.061659779853215"><ele>438.0</ele><time>2026-04-08T17:14:02.999Z</time></trkpt><trkpt lat="44.37518990214311" lon="8.061456360983955"><ele>438.33333333333337</ele><time>2026-04-08T17:14:03.999Z</time></trkpt><trkpt lat="44.37518770066812" lon="8.061234991791599"><ele>438.6666666666667</ele><time>2026-04-08T17:14:04.999Z</time></trkpt><trkpt lat="44.37518579248416" lon="8.060992434507982"><ele>439.0</ele><time>2026-04-08T17:14:05.999Z</time></trkpt><trkpt lat="44.37518374889535" lon="8.060738131302635"><ele>439.33333333333337</ele><time>2026-04-08T17:14:06.999Z</time></trkpt><trkpt lat="44.37518700819876" lon="8.06047364359768"><ele>439.66666666666663</ele><time>2026-04-08T17:14:07.999Z</time></trkpt><trkpt lat="44.37518365336466" lon="8.06019774362862"><ele>440.0</ele><time>2026-04-08T17:14:08.999Z</time></trkpt><trkpt lat="44.37518264075436" lon="8.05991899339349"><ele>440.3333333333333</ele><time>2026-04-08T17:14:09.999Z</time></trkpt><trkpt lat="44.37517631914386" lon="8.059644566609713"><ele>440.66666666666663</ele><time>2026-04-08T17:14:10.999Z</time></trkpt><trkpt lat="44.375174424838" lon="8.059353284672389"><ele>441.0</ele><time>2026-04-08T17:14:11.999Z</time></trkpt><trkpt lat="44.37517277598123" lon="8.059047680984715"><ele>440.0</ele><time>2026-04-08T17:14:12.999Z</time></trkpt><trkpt lat="44.37516529459184" lon="8.058734766560363"><ele>439.0</ele><time>2026-04-08T17:14:13.999Z</time></trkpt><trkpt lat="44.37515992948766" lon="8.058418110946608"><ele>439.0</ele><time>2026-04-08T17:14:14.999Z</time></trkpt><trkpt lat="44.37515170538244" lon="8.058100834340072"><ele>439.0</ele><time>2026-04-08T17:14:15.999Z</time></trkpt><trkpt lat="44.37514745987862" lon="8.057761535430396"><ele>438.5</ele><time>2026-04-08T17:14:16.999Z</time></trkpt><trkpt lat="44.37513905227782" lon="8.05743429582744"><ele>438.0</ele><time>2026-04-08T17:14:17.999Z</time></trkpt><trkpt lat="44.37512868058905" lon="8.057128303156137"><ele>438.0</ele><time>2026-04-08T17:14:18.999Z</time></trkpt><trkpt lat="44.37512890431136" lon="8.056817350126593"><ele>438.0</ele><time>2026-04-08T17:14:19.999Z</time></trkpt><trkpt lat="44.37512226595603" lon="8.056497189142222"><ele>437.5</ele><time>2026-04-08T17:14:20.999Z</time></trkpt><trkpt lat="44.3751306229735" lon="8.056176952510288"><ele>437.0</ele><time>2026-04-08T17:14:21.999Z</time></trkpt><trkpt lat="44.37512732068885" lon="8.055857383971912"><ele>435.5</ele><time>2026-04-08T17:14:22.999Z</time></trkpt><trkpt lat="44.3751229270602" lon="8.055526938023068"><ele>434.0</ele><time>2026-04-08T17:14:23.999Z</time></trkpt><trkpt lat="44.37511367191282" lon="8.055192424489338"><ele>434.5</ele><time>2026-04-08T17:14:24.999Z</time></trkpt><trkpt lat="44.37511556281443" lon="8.05487302600406"><ele>435.0</ele><time>2026-04-08T17:14:25.999Z</time></trkpt><trkpt lat="44.37512198172478" lon="8.054539590110847"><ele>435.0</ele><time>2026-04-08T17:14:26.999Z</time></trkpt><trkpt lat="44.375114685466556" lon="8.054214621518506"><ele>435.0</ele><time>2026-04-08T17:14:27.999Z</time></trkpt><trkpt lat="44.37510066329093" lon="8.053882205710106"><ele>435.66666666666663</ele><time>2026-04-08T17:14:28.999Z</time></trkpt><trkpt lat="44.37509105456501" lon="8.053564449181682"><ele>436.3333333333333</ele><time>2026-04-08T17:14:29.999Z</time></trkpt><trkpt lat="44.37508072191919" lon="8.05325494984634"><ele>437.0</ele><time>2026-04-08T17:14:30.999Z</time></trkpt><trkpt lat="44.375083818104805" lon="8.052969903350473"><ele>437.0</ele><time>2026-04-08T17:14:31.999Z</time></trkpt><trkpt lat="44.37507109943813" lon="8.052688267420576"><ele>437.0</ele><time>2026-04-08T17:14:32.999Z</time></trkpt><trkpt lat="44.37506902275744" lon="8.052419192919423"><ele>437.0</ele><time>2026-04-08T17:14:33.999Z</time></trkpt><trkpt lat="44.375075889812074" lon="8.052154242943265"><ele>437.0</ele><time>2026-04-08T17:14:34.999Z</time></trkpt><trkpt lat="44.37507734901805" lon="8.051899341010113"><ele>437.0</ele><time>2026-04-08T17:14:35.999Z</time></trkpt><trkpt lat="44.37507318802605" lon="8.05166447806503"><ele>437.0</ele><time>2026-04-08T17:14:36.998Z</time></trkpt><trkpt lat="44.375069540801675" lon="8.051431873495691"><ele>436.66666666666663</ele><time>2026-04-08T17:14:37.998Z</time></trkpt><trkpt lat="44.37506308764855" lon="8.051202995556483"><ele>436.33333333333337</ele><time>2026-04-08T17:14:38.998Z</time></trkpt><trkpt lat="44.37506353991344" lon="8.05097559832758"><ele>436.0</ele><time>2026-04-08T17:14:39.998Z</time></trkpt><trkpt lat="44.37505843209759" lon="8.050750809669685"><ele>436.6666666666667</ele><time>2026-04-08T17:14:40.998Z</time></trkpt><trkpt lat="44.37505489086073" lon="8.050527236605086"><ele>437.33333333333337</ele><time>2026-04-08T17:14:41.998Z</time></trkpt><trkpt lat="44.375052352236" lon="8.05029725827474"><ele>438.0</ele><time>2026-04-08T17:14:42.998Z</time></trkpt><trkpt lat="44.375055616593684" lon="8.050079777086808"><ele>438.33333333333337</ele><time>2026-04-08T17:14:43.998Z</time></trkpt><trkpt lat="44.37507290924318" lon="8.049854774225208"><ele>438.6666666666667</ele><time>2026-04-08T17:14:44.998Z</time></trkpt><trkpt lat="44.375106700429434" lon="8.04964269440169"><ele>439.0</ele><time>2026-04-08T17:14:45.998Z</time></trkpt><trkpt lat="44.375144855865315" lon="8.049416973670185"><ele>439.0</ele><time>2026-04-08T17:14:46.998Z</time></trkpt><trkpt lat="44.37518619334512" lon="8.049217499778445"><ele>439.0</ele><time>2026-04-08T17:14:47.998Z</time></trkpt><trkpt lat="44.37524268530206" lon="8.049039122896199"><ele>439.0</ele><time>2026-04-08T17:14:48.998Z</time></trkpt><trkpt lat="44.375292632576" lon="8.048855717805218"><ele>439.0</ele><time>2026-04-08T17:14:49.998Z</time></trkpt><trkpt lat="44.3753465208234" lon="8.048692485606264"><ele>439.25</ele><time>2026-04-08T17:14:50.998Z</time></trkpt><trkpt lat="44.375392585232504" lon="8.048528861768514"><ele>439.5</ele><time>2026-04-08T17:14:51.998Z</time></trkpt><trkpt lat="44.375436779012205" lon="8.04835754788751"><ele>439.75</ele><time>2026-04-08T17:14:52.998Z</time></trkpt><trkpt lat="44.37548313368501" lon="8.048192907060777"><ele>440.0</ele><time>2026-04-08T17:14:53.998Z</time></trkpt><trkpt lat="44.375526752415574" lon="8.048040567889299"><ele>439.75</ele><time>2026-04-08T17:14:54.998Z</time></trkpt><trkpt lat="44.37557326582095" lon="8.047881186683261"><ele>439.5</ele><time>2026-04-08T17:14:55.998Z</time></trkpt><trkpt lat="44.37562464488353" lon="8.047722294174212"><ele>439.25</ele><time>2026-04-08T17:14:56.998Z</time></trkpt><trkpt lat="44.37567010978204" lon="8.047590097123066"><ele>439.0</ele><time>2026-04-08T17:14:57.998Z</time></trkpt><trkpt lat="44.37571252866259" lon="8.047445205137771"><ele>439.0</ele><time>2026-04-08T17:14:58.998Z</time></trkpt><trkpt lat="44.375752165631305" lon="8.047294156342668"><ele>439.0</ele><time>2026-04-08T17:14:59.998Z</time></trkpt><trkpt lat="44.375785357992264" lon="8.04714732032541"><ele>439.0</ele><time>2026-04-08T17:15:01Z</time></trkpt><trkpt lat="44.375850717939755" lon="8.04700316860151"><ele>439.0</ele><time>2026-04-08T17:15:02Z</time></trkpt><trkpt lat="44.37589210424497" lon="8.04685526483888"><ele>439.0</ele><time>2026-04-08T17:15:03Z</time></trkpt><trkpt lat="44.37593837174797" lon="8.046706356210471"><ele>439.0</ele><time>2026-04-08T17:15:04Z</time></trkpt><trkpt lat="44.375978181804626" lon="8.046563483942101"><ele>439.0</ele><time>2026-04-08T17:15:05Z</time></trkpt><trkpt lat="44.37602328513092" lon="8.046420665590249"><ele>439.0</ele><time>2026-04-08T17:15:06Z</time></trkpt><trkpt lat="44.376071818643574" lon="8.046265051304005"><ele>439.4</ele><time>2026-04-08T17:15:07Z</time></trkpt><trkpt lat="44.37611410638752" lon="8.046107728015233"><ele>439.79999999999995</ele><time>2026-04-08T17:15:08Z</time></trkpt><trkpt lat="44.37616152256694" lon="8.045950940208101"><ele>440.20000000000005</ele><time>2026-04-08T17:15:09Z</time></trkpt><trkpt lat="44.3762018594586" lon="8.045814983932555"><ele>440.6</ele><time>2026-04-08T17:15:10Z</time></trkpt><trkpt lat="44.37623826143632" lon="8.045683943032278"><ele>441.0</ele><time>2026-04-08T17:15:11Z</time></trkpt><trkpt lat="44.37628270173276" lon="8.045547358000682"><ele>441.0</ele><time>2026-04-08T17:15:12Z</time></trkpt><trkpt lat="44.37632542204192" lon="8.045407327464583"><ele>441.0</ele><time>2026-04-08T17:15:13Z</time></trkpt><trkpt lat="44.37636122210809" lon="8.045273219049571"><ele>441.0</ele><time>2026-04-08T17:15:14Z</time></trkpt><trkpt lat="44.37639278000419" lon="8.045138036011451"><ele>441.0</ele><time>2026-04-08T17:15:15Z</time></trkpt><trkpt lat="44.37642578109601" lon="8.045016905280733"><ele>441.0</ele><time>2026-04-08T17:15:16Z</time></trkpt><trkpt lat="44.376455344385505" lon="8.04490157070604"><ele>441.0</ele><time>2026-04-08T17:15:17Z</time></trkpt><trkpt lat="44.376489580680726" lon="8.044776574788923"><ele>441.0</ele><time>2026-04-08T17:15:18Z</time></trkpt><trkpt lat="44.376529247013174" lon="8.044658371334405"><ele>441.0</ele><time>2026-04-08T17:15:19Z</time></trkpt><trkpt lat="44.376577496970555" lon="8.044533634005845"><ele>441.0</ele><time>2026-04-08T17:15:20Z</time></trkpt><trkpt lat="44.37661600513232" lon="8.044413720467235"><ele>441.0</ele><time>2026-04-08T17:15:21Z</time></trkpt><trkpt lat="44.37664789884624" lon="8.044301537083395"><ele>441.0</ele><time>2026-04-08T17:15:22Z</time></trkpt><trkpt lat="44.376684624590936" lon="8.04418755522854"><ele>441.0</ele><time>2026-04-08T17:15:23Z</time></trkpt><trkpt lat="44.37671847300372" lon="8.044054001982337"><ele>441.0</ele><time>2026-04-08T17:15:24Z</time></trkpt><trkpt lat="44.37676484682576" lon="8.04394152353836"><ele>441.0</ele><time>2026-04-08T17:15:25Z</time></trkpt><trkpt lat="44.37679333887814" lon="8.043809158368413"><ele>441.0</ele><time>2026-04-08T17:15:26Z</time></trkpt><trkpt lat="44.37682847152309" lon="8.043674770795644"><ele>441.0</ele><time>2026-04-08T17:15:27Z</time></trkpt><trkpt lat="44.37686179227311" lon="8.043532671279266"><ele>441.0</ele><time>2026-04-08T17:15:28Z</time></trkpt><trkpt lat="44.37689590757726" lon="8.043394748891448"><ele>441.0</ele><time>2026-04-08T17:15:29Z</time></trkpt><trkpt lat="44.37693516663201" lon="8.04325682359617"><ele>441.0</ele><time>2026-04-08T17:15:30Z</time></trkpt><trkpt lat="44.376982133216025" lon="8.043116873341251"><ele>441.0</ele><time>2026-04-08T17:15:31Z</time></trkpt><trkpt lat="44.377029289100676" lon="8.042975401180545"><ele>441.0</ele><time>2026-04-08T17:15:32Z</time></trkpt><trkpt lat="44.37706666821626" lon="8.042847358537845"><ele>441.0</ele><time>2026-04-08T17:15:33Z</time></trkpt><trkpt lat="44.37709570926522" lon="8.042701592592003"><ele>441.0</ele><time>2026-04-08T17:15:34Z</time></trkpt><trkpt lat="44.37712627406198" lon="8.04256027706029"><ele>441.0</ele><time>2026-04-08T17:15:35Z</time></trkpt><trkpt lat="44.37715903402719" lon="8.042426539115672"><ele>441.0</ele><time>2026-04-08T17:15:36Z</time></trkpt><trkpt lat="44.37719240623351" lon="8.042306260468267"><ele>440.6666666666667</ele><time>2026-04-08T17:15:37Z</time></trkpt><trkpt lat="44.37721796455922" lon="8.04219384999069"><ele>440.33333333333337</ele><time>2026-04-08T17:15:38Z</time></trkpt><trkpt lat="44.37725057957075" lon="8.042087322942383"><ele>440.0</ele><time>2026-04-08T17:15:39Z</time></trkpt><trkpt lat="44.377280946496114" lon="8.041987335241338"><ele>439.6666666666667</ele><time>2026-04-08T17:15:40Z</time></trkpt><trkpt lat="44.377311672783314" lon="8.041886064633188"><ele>439.33333333333337</ele><time>2026-04-08T17:15:41Z</time></trkpt><trkpt lat="44.37733659333679" lon="8.041788792780153"><ele>439.0</ele><time>2026-04-08T17:15:42Z</time></trkpt><trkpt lat="44.377360842975726" lon="8.041700751814334"><ele>438.79999999999995</ele><time>2026-04-08T17:15:43Z</time></trkpt><trkpt lat="44.377423122063746" lon="8.041552181183729"><ele>438.59999999999997</ele><time>2026-04-08T17:15:44.999Z</time></trkpt><trkpt lat="44.377471507996276" lon="8.041469716670017"><ele>438.4</ele><time>2026-04-08T17:15:45.999Z</time></trkpt><trkpt lat="44.377525345244315" lon="8.041388488758416"><ele>438.2</ele><time>2026-04-08T17:15:46.999Z</time></trkpt><trkpt lat="44.37756283007097" lon="8.041312509063586"><ele>438.0</ele><time>2026-04-08T17:15:47.999Z</time></trkpt><trkpt lat="44.37758524533703" lon="8.04114456594305"><ele>438.0</ele><time>2026-04-08T17:15:49.999Z</time></trkpt><trkpt lat="44.377571345789484" lon="8.041043772702123"><ele>437.99999999999994</ele><time>2026-04-08T17:15:50.999Z</time></trkpt><trkpt lat="44.37753969015496" lon="8.040932380296036"><ele>437.99999999999994</ele><time>2026-04-08T17:15:51.999Z</time></trkpt><trkpt lat="44.377498578050385" lon="8.040811607536916"><ele>438.0</ele><time>2026-04-08T17:15:52.999Z</time></trkpt><trkpt lat="44.37745365121147" lon="8.040677530480048"><ele>438.0</ele><time>2026-04-08T17:15:53.999Z</time></trkpt><trkpt lat="44.37741172910324" lon="8.040560368927695"><ele>438.0</ele><time>2026-04-08T17:15:54.999Z</time></trkpt><trkpt lat="44.37737758420924" lon="8.040437431026099"><ele>437.99999999999994</ele><time>2026-04-08T17:15:55.999Z</time></trkpt><trkpt lat="44.37734615851114" lon="8.04032321493524"><ele>437.99999999999994</ele><time>2026-04-08T17:15:56.999Z</time></trkpt><trkpt lat="44.37731443154039" lon="8.040199812762424"><ele>438.0</ele><time>2026-04-08T17:15:57.999Z</time></trkpt><trkpt lat="44.37728731859659" lon="8.04007121216152"><ele>438.0</ele><time>2026-04-08T17:15:58.999Z</time></trkpt><trkpt lat="44.37726001764331" lon="8.039933180364033"><ele>437.59999999999997</ele><time>2026-04-08T17:15:59.999Z</time></trkpt><trkpt lat="44.377219644039094" lon="8.039786905623986"><ele>437.19999999999993</ele><time>2026-04-08T17:16:00.999Z</time></trkpt><trkpt lat="44.37718329547448" lon="8.03964402642925"><ele>436.8</ele><time>2026-04-08T17:16:01.999Z</time></trkpt><trkpt lat="44.37714436910244" lon="8.03951188471793"><ele>436.4</ele><time>2026-04-08T17:16:02.999Z</time></trkpt><trkpt lat="44.37711138839773" lon="8.039372385110502"><ele>436.0</ele><time>2026-04-08T17:16:03.999Z</time></trkpt><trkpt lat="44.377077130561034" lon="8.039235609500235"><ele>435.20000000000005</ele><time>2026-04-08T17:16:04.999Z</time></trkpt><trkpt lat="44.37704467762151" lon="8.039096452829037"><ele>434.40000000000003</ele><time>2026-04-08T17:16:05.999Z</time></trkpt><trkpt lat="44.37700899977715" lon="8.038948843265153"><ele>433.6</ele><time>2026-04-08T17:16:06.999Z</time></trkpt><trkpt lat="44.37697515888051" lon="8.038809361028783"><ele>432.8</ele><time>2026-04-08T17:16:07.999Z</time></trkpt><trkpt lat="44.376943800316916" lon="8.038669529898577"><ele>432.0</ele><time>2026-04-08T17:16:08.999Z</time></trkpt><trkpt lat="44.37691206120767" lon="8.038536597919961"><ele>432.0</ele><time>2026-04-08T17:16:09.999Z</time></trkpt><trkpt lat="44.37688576702391" lon="8.038405839390148"><ele>432.00000000000006</ele><time>2026-04-08T17:16:10.999Z</time></trkpt><trkpt lat="44.376859963608695" lon="8.03828761396557"><ele>432.00000000000006</ele><time>2026-04-08T17:16:11.999Z</time></trkpt><trkpt lat="44.37683464514955" lon="8.038151724242466"><ele>432.0</ele><time>2026-04-08T17:16:12.999Z</time></trkpt><trkpt lat="44.376807634035266" lon="8.038031283330842"><ele>432.0</ele><time>2026-04-08T17:16:13.999Z</time></trkpt><trkpt lat="44.37679154285927" lon="8.037900631107672"><ele>431.5</ele><time>2026-04-08T17:16:14.999Z</time></trkpt><trkpt lat="44.376774981425456" lon="8.037757243237497"><ele>431.0</ele><time>2026-04-08T17:16:15.999Z</time></trkpt><trkpt lat="44.37676190087062" lon="8.037585524878299"><ele>430.5</ele><time>2026-04-08T17:16:16.999Z</time></trkpt><trkpt lat="44.376757736995486" lon="8.03741404716919"><ele>430.0</ele><time>2026-04-08T17:16:17.999Z</time></trkpt><trkpt lat="44.37676349221947" lon="8.037232916566616"><ele>429.0</ele><time>2026-04-08T17:16:18.999Z</time></trkpt><trkpt lat="44.37679003456475" lon="8.037051055026792"><ele>428.0</ele><time>2026-04-08T17:16:19.999Z</time></trkpt><trkpt lat="44.37683179696168" lon="8.036864235006588"><ele>427.0</ele><time>2026-04-08T17:16:20.999Z</time></trkpt><trkpt lat="44.37688907990644" lon="8.036669093558466"><ele>426.0</ele><time>2026-04-08T17:16:21.999Z</time></trkpt><trkpt lat="44.37696351666215" lon="8.036449794189663"><ele>424.33333333333337</ele><time>2026-04-08T17:16:22.999Z</time></trkpt><trkpt lat="44.37704491557791" lon="8.036247029129289"><ele>422.6666666666667</ele><time>2026-04-08T17:16:23.999Z</time></trkpt><trkpt lat="44.37712853240667" lon="8.036010878365355"><ele>421.0</ele><time>2026-04-08T17:16:24.999Z</time></trkpt><trkpt lat="44.37721313847455" lon="8.035772859560613"><ele>421.0</ele><time>2026-04-08T17:16:25.999Z</time></trkpt><trkpt lat="44.377305466440156" lon="8.035529111114924"><ele>421.0</ele><time>2026-04-08T17:16:26.999Z</time></trkpt><trkpt lat="44.37739633937322" lon="8.035277174561603"><ele>421.0</ele><time>2026-04-08T17:16:27.999Z</time></trkpt><trkpt lat="44.37748772411341" lon="8.03502738327272"><ele>420.0</ele><time>2026-04-08T17:16:28.999Z</time></trkpt><trkpt lat="44.37758173605629" lon="8.034781870818286"><ele>419.0</ele><time>2026-04-08T17:16:29.999Z</time></trkpt><trkpt lat="44.3776748345226" lon="8.034544541021205"><ele>418.0</ele><time>2026-04-08T17:16:30.999Z</time></trkpt><trkpt lat="44.37776630324644" lon="8.03431161845093"><ele>418.33333333333337</ele><time>2026-04-08T17:16:31.999Z</time></trkpt><trkpt lat="44.3778588373842" lon="8.034063168645506"><ele>418.66666666666663</ele><time>2026-04-08T17:16:32.999Z</time></trkpt><trkpt lat="44.37794214742264" lon="8.03383760423736"><ele>419.0</ele><time>2026-04-08T17:16:33.999Z</time></trkpt><trkpt lat="44.37802767285933" lon="8.033614022916904"><ele>419.0</ele><time>2026-04-08T17:16:34.999Z</time></trkpt><trkpt lat="44.37811104187001" lon="8.033397216698642"><ele>419.0</ele><time>2026-04-08T17:16:35.999Z</time></trkpt><trkpt lat="44.37819287902319" lon="8.03318174760624"><ele>419.0</ele><time>2026-04-08T17:16:36.999Z</time></trkpt><trkpt lat="44.37826995386978" lon="8.032979436661323"><ele>418.66666666666663</ele><time>2026-04-08T17:16:37.999Z</time></trkpt><trkpt lat="44.3783447511391" lon="8.032787393928498"><ele>418.33333333333337</ele><time>2026-04-08T17:16:38.999Z</time></trkpt><trkpt lat="44.37841855075154" lon="8.032591324525987"><ele>418.0</ele><time>2026-04-08T17:16:39.999Z</time></trkpt><trkpt lat="44.37848990831054" lon="8.032409507999574"><ele>417.5</ele><time>2026-04-08T17:16:40.999Z</time></trkpt><trkpt lat="44.378556295214736" lon="8.032223931701033"><ele>417.0</ele><time>2026-04-08T17:16:41.998Z</time></trkpt><trkpt lat="44.37861690918585" lon="8.032066387851172"><ele>416.5</ele><time>2026-04-08T17:16:42.998Z</time></trkpt><trkpt lat="44.378677808243616" lon="8.031915102898019"><ele>416.0</ele><time>2026-04-08T17:16:43.998Z</time></trkpt><trkpt lat="44.37873176296626" lon="8.031775183966857"><ele>414.8</ele><time>2026-04-08T17:16:44.998Z</time></trkpt><trkpt lat="44.37878844609898" lon="8.031634609238289"><ele>413.6</ele><time>2026-04-08T17:16:45.998Z</time></trkpt><trkpt lat="44.37884547303233" lon="8.03150338190095"><ele>412.4</ele><time>2026-04-08T17:16:46.998Z</time></trkpt><trkpt lat="44.378905647287596" lon="8.031372808871154"><ele>411.2</ele><time>2026-04-08T17:16:47.998Z</time></trkpt><trkpt lat="44.37896608701209" lon="8.031262553124503"><ele>410.0</ele><time>2026-04-08T17:16:48.998Z</time></trkpt><trkpt lat="44.379030065879704" lon="8.031151255540436"><ele>409.8</ele><time>2026-04-08T17:16:49.998Z</time></trkpt><trkpt lat="44.37910274849113" lon="8.031062434587517"><ele>409.6</ele><time>2026-04-08T17:16:50.998Z</time></trkpt><trkpt lat="44.379192206070165" lon="8.030977397902976"><ele>409.4</ele><time>2026-04-08T17:16:51.998Z</time></trkpt><trkpt lat="44.379289777880075" lon="8.03090704663798"><ele>409.2</ele><time>2026-04-08T17:16:52.998Z</time></trkpt><trkpt lat="44.37938667848138" lon="8.03085257467331"><ele>409.0</ele><time>2026-04-08T17:16:53.998Z</time></trkpt><trkpt lat="44.3794923345088" lon="8.03079661330823"><ele>408.4</ele><time>2026-04-08T17:16:54.998Z</time></trkpt><trkpt lat="44.37959452564678" lon="8.030758370341596"><ele>407.79999999999995</ele><time>2026-04-08T17:16:55.998Z</time></trkpt><trkpt lat="44.379700419393004" lon="8.030725755560908"><ele>407.20000000000005</ele><time>2026-04-08T17:16:56.998Z</time></trkpt><trkpt lat="44.37980861933361" lon="8.030707789383392"><ele>406.6</ele><time>2026-04-08T17:16:57.998Z</time></trkpt><trkpt lat="44.37992889174957" lon="8.030697700776273"><ele>406.0</ele><time>2026-04-08T17:16:58.998Z</time></trkpt><trkpt lat="44.38003673946726" lon="8.03069566364076"><ele>404.4</ele><time>2026-04-08T17:16:59.998Z</time></trkpt><trkpt lat="44.38014333906419" lon="8.030697609540386"><ele>402.8</ele><time>2026-04-08T17:17:00.998Z</time></trkpt><trkpt lat="44.380260632606785" lon="8.030701734836859"><ele>401.2</ele><time>2026-04-08T17:17:01.998Z</time></trkpt><trkpt lat="44.38036857857758" lon="8.030717259667096"><ele>399.59999999999997</ele><time>2026-04-08T17:17:02.998Z</time></trkpt><trkpt lat="44.38045967155315" lon="8.030739262596907"><ele>398.0</ele><time>2026-04-08T17:17:03.998Z</time></trkpt><trkpt lat="44.38055704853493" lon="8.030756897350011"><ele>397.2</ele><time>2026-04-08T17:17:04.998Z</time></trkpt><trkpt lat="44.38064625951769" lon="8.030783865514"><ele>396.4</ele><time>2026-04-08T17:17:05.998Z</time></trkpt><trkpt lat="44.380721953896476" lon="8.03085181959139"><ele>395.59999999999997</ele><time>2026-04-08T17:17:07Z</time></trkpt><trkpt lat="44.380793267945734" lon="8.030930002092166"><ele>394.79999999999995</ele><time>2026-04-08T17:17:08Z</time></trkpt><trkpt lat="44.38086291459886" lon="8.03104544475336"><ele>394.0</ele><time>2026-04-08T17:17:09Z</time></trkpt><trkpt lat="44.38093340801054" lon="8.03118860080886"><ele>394.0</ele><time>2026-04-08T17:17:10Z</time></trkpt><trkpt lat="44.38101995806137" lon="8.03134311798827"><ele>394.0</ele><time>2026-04-08T17:17:11Z</time></trkpt><trkpt lat="44.38108140046564" lon="8.031512370791186"><ele>394.0</ele><time>2026-04-08T17:17:12Z</time></trkpt><trkpt lat="44.38116476468455" lon="8.031649777505166"><ele>394.0</ele><time>2026-04-08T17:17:13Z</time></trkpt><trkpt lat="44.38122321328341" lon="8.03180975053502"><ele>390.75</ele><time>2026-04-08T17:17:14Z</time></trkpt><trkpt lat="44.381289029544725" lon="8.031957347543436"><ele>387.5</ele><time>2026-04-08T17:17:15Z</time></trkpt><trkpt lat="44.38135820189438" lon="8.032112962080372"><ele>384.25</ele><time>2026-04-08T17:17:16Z</time></trkpt><trkpt lat="44.381415460269665" lon="8.032246285520321"><ele>381.0</ele><time>2026-04-08T17:17:17Z</time></trkpt><trkpt lat="44.38147338165436" lon="8.03236948385414"><ele>383.20000000000005</ele><time>2026-04-08T17:17:18Z</time></trkpt><trkpt lat="44.38153299182284" lon="8.032492891857904"><ele>385.40000000000003</ele><time>2026-04-08T17:17:19Z</time></trkpt><trkpt lat="44.38159729073651" lon="8.032621872618282"><ele>387.6</ele><time>2026-04-08T17:17:20Z</time></trkpt><trkpt lat="44.38166205000032" lon="8.032738426233427"><ele>389.8</ele><time>2026-04-08T17:17:21Z</time></trkpt><trkpt lat="44.38171893382807" lon="8.032853856125728"><ele>392.0</ele><time>2026-04-08T17:17:22Z</time></trkpt><trkpt lat="44.381771318969285" lon="8.032950495962904"><ele>391.99999999999994</ele><time>2026-04-08T17:17:23Z</time></trkpt><trkpt lat="44.381817641795585" lon="8.033024185176032"><ele>392.0</ele><time>2026-04-08T17:17:24Z</time></trkpt><trkpt lat="44.38188797881341" lon="8.03307874263117"><ele>392.0</ele><time>2026-04-08T17:17:25Z</time></trkpt><trkpt lat="44.381978476791886" lon="8.03311392476564"><ele>392.0</ele><time>2026-04-08T17:17:26Z</time></trkpt><trkpt lat="44.382071589748435" lon="8.033104849114418"><ele>391.99999999999994</ele><time>2026-04-08T17:17:27Z</time></trkpt><trkpt lat="44.382174226280156" lon="8.033082707259403"><ele>392.0</ele><time>2026-04-08T17:17:28Z</time></trkpt><trkpt lat="44.38226181294257" lon="8.033032132873062"><ele>389.6</ele><time>2026-04-08T17:17:29Z</time></trkpt><trkpt lat="44.38232644590569" lon="8.032884993090672"><ele>387.20000000000005</ele><time>2026-04-08T17:17:31Z</time></trkpt><trkpt lat="44.38236549216995" lon="8.032769852031237"><ele>384.8</ele><time>2026-04-08T17:17:32Z</time></trkpt><trkpt lat="44.3823561401363" lon="8.032618374792644"><ele>382.4</ele><time>2026-04-08T17:17:33Z</time></trkpt><trkpt lat="44.38233110147148" lon="8.032466701944303"><ele>380.0</ele><time>2026-04-08T17:17:34Z</time></trkpt><trkpt lat="44.38232595438055" lon="8.03233181111749"><ele>379.5</ele><time>2026-04-08T17:17:35Z</time></trkpt><trkpt lat="44.38232356489776" lon="8.032198960406792"><ele>379.0</ele><time>2026-04-08T17:17:36Z</time></trkpt><trkpt lat="44.38231459364211" lon="8.032073988929971"><ele>378.5</ele><time>2026-04-08T17:17:37Z</time></trkpt><trkpt lat="44.38231031310078" lon="8.031955165950828"><ele>378.0</ele><time>2026-04-08T17:17:38Z</time></trkpt><trkpt lat="44.38232728315555" lon="8.031845198569426"><ele>377.5</ele><time>2026-04-08T17:17:39Z</time></trkpt><trkpt lat="44.382351322095694" lon="8.031751449438785"><ele>377.0</ele><time>2026-04-08T17:17:40Z</time></trkpt><trkpt lat="44.38238902054807" lon="8.031656553771064"><ele>376.8</ele><time>2026-04-08T17:17:41Z</time></trkpt><trkpt lat="44.38242173410165" lon="8.031546106418194"><ele>376.6</ele><time>2026-04-08T17:17:42Z</time></trkpt><trkpt lat="44.38243117498705" lon="8.031446054686196"><ele>376.40000000000003</ele><time>2026-04-08T17:17:43Z</time></trkpt><trkpt lat="44.38242840089119" lon="8.031317693524992"><ele>376.20000000000005</ele><time>2026-04-08T17:17:44Z</time></trkpt><trkpt lat="44.38243073952264" lon="8.031160407135156"><ele>376.0</ele><time>2026-04-08T17:17:45Z</time></trkpt><trkpt lat="44.38244929067172" lon="8.031010387754144"><ele>376.0</ele><time>2026-04-08T17:17:46Z</time></trkpt><trkpt lat="44.38248975278973" lon="8.030829226249647"><ele>376.0</ele><time>2026-04-08T17:17:47Z</time></trkpt><trkpt lat="44.382527322232754" lon="8.03066458121712"><ele>376.0</ele><time>2026-04-08T17:17:48Z</time></trkpt><trkpt lat="44.38254648215155" lon="8.030508981358684"><ele>376.0</ele><time>2026-04-08T17:17:48.999Z</time></trkpt><trkpt lat="44.3825774643841" lon="8.030359891262687"><ele>375.8</ele><time>2026-04-08T17:17:49.999Z</time></trkpt><trkpt lat="44.382600802461724" lon="8.030218996352096"><ele>375.6</ele><time>2026-04-08T17:17:50.999Z</time></trkpt><trkpt lat="44.38262334722932" lon="8.030084615777714"><ele>375.4</ele><time>2026-04-08T17:17:51.999Z</time></trkpt><trkpt lat="44.38264628281469" lon="8.029946894924043"><ele>375.2</ele><time>2026-04-08T17:17:52.999Z</time></trkpt><trkpt lat="44.38267293408802" lon="8.029826817034"><ele>375.0</ele><time>2026-04-08T17:17:53.999Z</time></trkpt><trkpt lat="44.38269744071783" lon="8.029717477389289"><ele>375.6</ele><time>2026-04-08T17:17:54.999Z</time></trkpt><trkpt lat="44.382721347319745" lon="8.02959024099859"><ele>376.2</ele><time>2026-04-08T17:17:55.999Z</time></trkpt><trkpt lat="44.382746071245144" lon="8.02945595888928"><ele>376.79999999999995</ele><time>2026-04-08T17:17:56.999Z</time></trkpt><trkpt lat="44.38277412119839" lon="8.029313458528499"><ele>377.4</ele><time>2026-04-08T17:17:57.999Z</time></trkpt><trkpt lat="44.3828034498193" lon="8.029161959360522"><ele>378.0</ele><time>2026-04-08T17:17:58.999Z</time></trkpt><trkpt lat="44.38283488577741" lon="8.029002527121923"><ele>378.5</ele><time>2026-04-08T17:17:59.999Z</time></trkpt><trkpt lat="44.382865406719084" lon="8.028847331785498"><ele>379.0</ele><time>2026-04-08T17:18:00.999Z</time></trkpt><trkpt lat="44.382892491908315" lon="8.028697535842038"><ele>379.5</ele><time>2026-04-08T17:18:01.999Z</time></trkpt><trkpt lat="44.382920773439416" lon="8.028545130382346"><ele>380.0</ele><time>2026-04-08T17:18:02.999Z</time></trkpt><trkpt lat="44.38295381103142" lon="8.028384664305488"><ele>379.8</ele><time>2026-04-08T17:18:03.999Z</time></trkpt><trkpt lat="44.38298171852837" lon="8.02824049388768"><ele>379.6</ele><time>2026-04-08T17:18:04.999Z</time></trkpt><trkpt lat="44.3830105202866" lon="8.028099235762078"><ele>379.4</ele><time>2026-04-08T17:18:05.999Z</time></trkpt><trkpt lat="44.383040258587144" lon="8.027958215333125"><ele>379.2</ele><time>2026-04-08T17:18:06.999Z</time></trkpt><trkpt lat="44.38306769096626" lon="8.027824050460941"><ele>379.0</ele><time>2026-04-08T17:18:07.999Z</time></trkpt><trkpt lat="44.38308553825777" lon="8.02769901814761"><ele>379.16666666666663</ele><time>2026-04-08T17:18:08.999Z</time></trkpt><trkpt lat="44.38310455865327" lon="8.027590128584423"><ele>379.3333333333333</ele><time>2026-04-08T17:18:09.999Z</time></trkpt><trkpt lat="44.38312480697222" lon="8.027490653914679"><ele>379.5</ele><time>2026-04-08T17:18:10.999Z</time></trkpt><trkpt lat="44.38314304998697" lon="8.027399231344758"><ele>379.6666666666667</ele><time>2026-04-08T17:18:11.999Z</time></trkpt><trkpt lat="44.38317270855202" lon="8.027298712246685"><ele>379.83333333333337</ele><time>2026-04-08T17:18:12.999Z</time></trkpt><trkpt lat="44.38320686004774" lon="8.027169808657582"><ele>380.0</ele><time>2026-04-08T17:18:13.999Z</time></trkpt><trkpt lat="44.38323275272034" lon="8.027023455816266"><ele>380.0</ele><time>2026-04-08T17:18:14.999Z</time></trkpt><trkpt lat="44.38325748815726" lon="8.026857351293271"><ele>380.0</ele><time>2026-04-08T17:18:15.999Z</time></trkpt><trkpt lat="44.3832919840465" lon="8.026682826602975"><ele>380.0</ele><time>2026-04-08T17:18:16.999Z</time></trkpt><trkpt lat="44.38332821876981" lon="8.026497308426176"><ele>380.0</ele><time>2026-04-08T17:18:17.999Z</time></trkpt><trkpt lat="44.38335921360701" lon="8.026323113462396"><ele>380.0</ele><time>2026-04-08T17:18:18.999Z</time></trkpt><trkpt lat="44.38339966733811" lon="8.026152077145479"><ele>380.0</ele><time>2026-04-08T17:18:19.999Z</time></trkpt><trkpt lat="44.38345658316219" lon="8.0260103988814"><ele>380.0</ele><time>2026-04-08T17:18:20.999Z</time></trkpt><trkpt lat="44.38354892201736" lon="8.025881332536219"><ele>380.0</ele><time>2026-04-08T17:18:21.999Z</time></trkpt><trkpt lat="44.38365838393088" lon="8.02578551906704"><ele>382.75</ele><time>2026-04-08T17:18:22.999Z</time></trkpt><trkpt lat="44.3837691476985" lon="8.025713013492329"><ele>385.5</ele><time>2026-04-08T17:18:23.999Z</time></trkpt><trkpt lat="44.383910183308465" lon="8.025681677399922"><ele>388.25</ele><time>2026-04-08T17:18:24.999Z</time></trkpt><trkpt lat="44.38404600530177" lon="8.02567883737366"><ele>391.0</ele><time>2026-04-08T17:18:25.999Z</time></trkpt><trkpt lat="44.38418708534706" lon="8.025722975011359"><ele>389.6666666666667</ele><time>2026-04-08T17:18:26.999Z</time></trkpt><trkpt lat="44.384337693126106" lon="8.025783384658327"><ele>388.33333333333337</ele><time>2026-04-08T17:18:27.999Z</time></trkpt><trkpt lat="44.3844876948086" lon="8.02585080284493"><ele>387.0</ele><time>2026-04-08T17:18:28.999Z</time></trkpt><trkpt lat="44.384615856010996" lon="8.025927896852236"><ele>390.5</ele><time>2026-04-08T17:18:29.999Z</time></trkpt><trkpt lat="44.384726631919605" lon="8.026015496328444"><ele>394.0</ele><time>2026-04-08T17:18:30.999Z</time></trkpt><trkpt lat="44.384843413012455" lon="8.026119750188647"><ele>397.5</ele><time>2026-04-08T17:18:31.999Z</time></trkpt><trkpt lat="44.38494517233809" lon="8.026271987487844"><ele>401.0</ele><time>2026-04-08T17:18:32.999Z</time></trkpt><trkpt lat="44.38504653306925" lon="8.026418421235912"><ele>401.0</ele><time>2026-04-08T17:18:33.999Z</time></trkpt><trkpt lat="44.385128434372135" lon="8.026545415068703"><ele>401.0</ele><time>2026-04-08T17:18:34.999Z</time></trkpt><trkpt lat="44.38519627913802" lon="8.026660283557979"><ele>401.0</ele><time>2026-04-08T17:18:35.999Z</time></trkpt><trkpt lat="44.38523288837737" lon="8.026765140244"><ele>401.0</ele><time>2026-04-08T17:18:36.999Z</time></trkpt><trkpt lat="44.385262902894645" lon="8.026879331199158"><ele>401.0</ele><time>2026-04-08T17:18:37.999Z</time></trkpt><trkpt lat="44.385288816787416" lon="8.026977731662194"><ele>400.66666666666663</ele><time>2026-04-08T17:18:38.999Z</time></trkpt><trkpt lat="44.385322636996186" lon="8.027072492892199"><ele>400.3333333333333</ele><time>2026-04-08T17:18:39.999Z</time></trkpt><trkpt lat="44.385361032401526" lon="8.027146036978003"><ele>400.0</ele><time>2026-04-08T17:18:40.999Z</time></trkpt><trkpt lat="44.38542006117452" lon="8.027203984216724"><ele>399.66666666666663</ele><time>2026-04-08T17:18:41.999Z</time></trkpt><trkpt lat="44.385517436286314" lon="8.027272081747718"><ele>399.3333333333333</ele><time>2026-04-08T17:18:43.999Z</time></trkpt><trkpt lat="44.38560098718259" lon="8.027372956170352"><ele>399.0</ele><time>2026-04-08T17:18:45.999Z</time></trkpt><trkpt lat="44.38570290954063" lon="8.027418818412363"><ele>399.0</ele><time>2026-04-08T17:18:47.998Z</time></trkpt><trkpt lat="44.385800740435045" lon="8.027350688077046"><ele>399.0</ele><time>2026-04-08T17:18:49.998Z</time></trkpt><trkpt lat="44.38581644945446" lon="8.02717584320716"><ele>399.0</ele><time>2026-04-08T17:18:51.998Z</time></trkpt><trkpt lat="44.38580462273492" lon="8.027073143583577"><ele>399.0</ele><time>2026-04-08T17:18:52.998Z</time></trkpt><trkpt lat="44.385803715287274" lon="8.026957893074245"><ele>399.0</ele><time>2026-04-08T17:18:53.998Z</time></trkpt><trkpt lat="44.3858027029764" lon="8.02683214085898"><ele>399.0</ele><time>2026-04-08T17:18:54.998Z</time></trkpt><trkpt lat="44.38580115190135" lon="8.026711261002408"><ele>399.0</ele><time>2026-04-08T17:18:55.998Z</time></trkpt><trkpt lat="44.385804145874026" lon="8.026580380653236"><ele>399.0</ele><time>2026-04-08T17:18:56.998Z</time></trkpt><trkpt lat="44.38580576570793" lon="8.026451966650802"><ele>399.0</ele><time>2026-04-08T17:18:57.998Z</time></trkpt><trkpt lat="44.38581539264189" lon="8.026314352799316"><ele>399.0</ele><time>2026-04-08T17:18:58.998Z</time></trkpt><trkpt lat="44.38582870445944" lon="8.026173493057437"><ele>401.0</ele><time>2026-04-08T17:18:59.998Z</time></trkpt><trkpt lat="44.38584894969666" lon="8.026019294429878"><ele>403.0</ele><time>2026-04-08T17:19:00.998Z</time></trkpt><trkpt lat="44.38587101548954" lon="8.02584726019972"><ele>405.0</ele><time>2026-04-08T17:19:01.998Z</time></trkpt><trkpt lat="44.38588897686227" lon="8.02568327162313"><ele>407.0</ele><time>2026-04-08T17:19:02.998Z</time></trkpt><trkpt lat="44.38589809470485" lon="8.025532103612708"><ele>408.0</ele><time>2026-04-08T17:19:03.998Z</time></trkpt><trkpt lat="44.38591103550666" lon="8.025366426026462"><ele>409.0</ele><time>2026-04-08T17:19:04.998Z</time></trkpt><trkpt lat="44.38592466303925" lon="8.025209715080333"><ele>410.0</ele><time>2026-04-08T17:19:05.998Z</time></trkpt><trkpt lat="44.385932785969146" lon="8.025046850021774"><ele>411.0</ele><time>2026-04-08T17:19:06.998Z</time></trkpt><trkpt lat="44.385950542855" lon="8.024889840561356"><ele>411.5</ele><time>2026-04-08T17:19:07.998Z</time></trkpt><trkpt lat="44.385966502009175" lon="8.024726379834423"><ele>412.0</ele><time>2026-04-08T17:19:08.998Z</time></trkpt><trkpt lat="44.385981270343144" lon="8.024568546663339"><ele>412.5</ele><time>2026-04-08T17:19:09.998Z</time></trkpt><trkpt lat="44.38601526492684" lon="8.024410247175817"><ele>413.0</ele><time>2026-04-08T17:19:10.998Z</time></trkpt><trkpt lat="44.38603033425462" lon="8.024247920578437"><ele>413.2</ele><time>2026-04-08T17:19:11.998Z</time></trkpt><trkpt lat="44.38604592762638" lon="8.024087699627415"><ele>413.4</ele><time>2026-04-08T17:19:13Z</time></trkpt><trkpt lat="44.386068286188475" lon="8.02392853325145"><ele>413.59999999999997</ele><time>2026-04-08T17:19:14Z</time></trkpt><trkpt lat="44.38608152467982" lon="8.023772521764387"><ele>413.79999999999995</ele><time>2026-04-08T17:19:15Z</time></trkpt><trkpt lat="44.38610142726199" lon="8.023633987051856"><ele>414.0</ele><time>2026-04-08T17:19:16Z</time></trkpt><trkpt lat="44.386115988718046" lon="8.02348786538957"><ele>414.0</ele><time>2026-04-08T17:19:17Z</time></trkpt><trkpt lat="44.38613463506742" lon="8.023346402649633"><ele>414.0</ele><time>2026-04-08T17:19:18Z</time></trkpt><trkpt lat="44.386142313247014" lon="8.023184983475838"><ele>414.0</ele><time>2026-04-08T17:19:19Z</time></trkpt><trkpt lat="44.386160051807224" lon="8.023026552684131"><ele>414.0</ele><time>2026-04-08T17:19:20Z</time></trkpt><trkpt lat="44.38617536947332" lon="8.022868260928249"><ele>414.0</ele><time>2026-04-08T17:19:21Z</time></trkpt><trkpt lat="44.38618690576592" lon="8.022711083672567"><ele>414.25</ele><time>2026-04-08T17:19:22Z</time></trkpt><trkpt lat="44.38619731459811" lon="8.022555146732909"><ele>414.5</ele><time>2026-04-08T17:19:23Z</time></trkpt><trkpt lat="44.38621592967596" lon="8.022409645146446"><ele>414.75</ele><time>2026-04-08T17:19:24Z</time></trkpt><trkpt lat="44.38623759049038" lon="8.022253097992808"><ele>415.0</ele><time>2026-04-08T17:19:25Z</time></trkpt><trkpt lat="44.38624347029771" lon="8.02207500393263"><ele>415.0</ele><time>2026-04-08T17:19:26Z</time></trkpt><trkpt lat="44.38626154153482" lon="8.02191254786554"><ele>415.0</ele><time>2026-04-08T17:19:27Z</time></trkpt><trkpt lat="44.386275889609415" lon="8.021754994428326"><ele>415.0</ele><time>2026-04-08T17:19:28Z</time></trkpt><trkpt lat="44.38629120743961" lon="8.02160730172393"><ele>415.0</ele><time>2026-04-08T17:19:29Z</time></trkpt><trkpt lat="44.38630152912506" lon="8.02145292865855"><ele>415.0</ele><time>2026-04-08T17:19:30Z</time></trkpt><trkpt lat="44.38630857804885" lon="8.021288253672283"><ele>414.75</ele><time>2026-04-08T17:19:31Z</time></trkpt><trkpt lat="44.38632261590676" lon="8.021126767193286"><ele>414.5</ele><time>2026-04-08T17:19:32Z</time></trkpt><trkpt lat="44.38633837549261" lon="8.020975665100746"><ele>414.25</ele><time>2026-04-08T17:19:33Z</time></trkpt><trkpt lat="44.38635608762211" lon="8.020814321778872"><ele>414.0</ele><time>2026-04-08T17:19:34Z</time></trkpt><trkpt lat="44.3863664705313" lon="8.02065213494364"><ele>414.0</ele><time>2026-04-08T17:19:35Z</time></trkpt><trkpt lat="44.38638394462159" lon="8.020495645005047"><ele>414.0</ele><time>2026-04-08T17:19:36Z</time></trkpt><trkpt lat="44.386404313721975" lon="8.02034049650868"><ele>414.0</ele><time>2026-04-08T17:19:37Z</time></trkpt><trkpt lat="44.38642170429039" lon="8.02019384239433"><ele>414.0</ele><time>2026-04-08T17:19:38Z</time></trkpt><trkpt lat="44.38643851818584" lon="8.020035089227486"><ele>414.0</ele><time>2026-04-08T17:19:39Z</time></trkpt><trkpt lat="44.38645090885445" lon="8.019879362045359"><ele>414.0</ele><time>2026-04-08T17:19:40Z</time></trkpt><trkpt lat="44.38646300482257" lon="8.01972053610609"><ele>414.0</ele><time>2026-04-08T17:19:41Z</time></trkpt><trkpt lat="44.38647577284918" lon="8.01956168099115"><ele>414.0</ele><time>2026-04-08T17:19:42Z</time></trkpt><trkpt lat="44.386486372998654" lon="8.019406897795916"><ele>414.0</ele><time>2026-04-08T17:19:43Z</time></trkpt><trkpt lat="44.3865091757019" lon="8.019253912391868"><ele>414.0</ele><time>2026-04-08T17:19:44Z</time></trkpt><trkpt lat="44.38652430997884" lon="8.019095735523615"><ele>414.0</ele><time>2026-04-08T17:19:45Z</time></trkpt><trkpt lat="44.386535277195726" lon="8.018935587911107"><ele>414.0</ele><time>2026-04-08T17:19:46Z</time></trkpt><trkpt lat="44.38654738382805" lon="8.018786599638725"><ele>414.0</ele><time>2026-04-08T17:19:47Z</time></trkpt><trkpt lat="44.38656092251009" lon="8.018621251747136"><ele>414.0</ele><time>2026-04-08T17:19:48Z</time></trkpt><trkpt lat="44.38658102951869" lon="8.018471324064594"><ele>414.0</ele><time>2026-04-08T17:19:49Z</time></trkpt><trkpt lat="44.38659740494599" lon="8.018312040427356"><ele>414.0</ele><time>2026-04-08T17:19:50Z</time></trkpt><trkpt lat="44.38661336086531" lon="8.018156269219105"><ele>414.0</ele><time>2026-04-08T17:19:51Z</time></trkpt><trkpt lat="44.38662512156879" lon="8.017993063682681"><ele>414.0</ele><time>2026-04-08T17:19:52Z</time></trkpt><trkpt lat="44.386638383638875" lon="8.01782838752357"><ele>414.0</ele><time>2026-04-08T17:19:53Z</time></trkpt><trkpt lat="44.38666128642829" lon="8.017661338006699"><ele>414.0</ele><time>2026-04-08T17:19:54Z</time></trkpt><trkpt lat="44.38667041970493" lon="8.017501944623607"><ele>414.0</ele><time>2026-04-08T17:19:54.999Z</time></trkpt><trkpt lat="44.38668354426543" lon="8.01733785776784"><ele>414.0</ele><time>2026-04-08T17:19:55.999Z</time></trkpt><trkpt lat="44.38669666504841" lon="8.017177930393544"><ele>414.0</ele><time>2026-04-08T17:19:56.999Z</time></trkpt><trkpt lat="44.38670769432606" lon="8.01702119303"><ele>414.0</ele><time>2026-04-08T17:19:57.999Z</time></trkpt><trkpt lat="44.38672120408903" lon="8.016858937278602"><ele>414.0</ele><time>2026-04-08T17:19:58.999Z</time></trkpt><trkpt lat="44.386741570657406" lon="8.016712831723215"><ele>413.75</ele><time>2026-04-08T17:19:59.999Z</time></trkpt><trkpt lat="44.3867528610089" lon="8.016552066217388"><ele>413.5</ele><time>2026-04-08T17:20:00.999Z</time></trkpt><trkpt lat="44.38677387906518" lon="8.016384377867931"><ele>413.25</ele><time>2026-04-08T17:20:01.999Z</time></trkpt><trkpt lat="44.38678604501607" lon="8.016214800530333"><ele>413.0</ele><time>2026-04-08T17:20:02.999Z</time></trkpt><trkpt lat="44.386810865860305" lon="8.016044108717706"><ele>413.0</ele><time>2026-04-08T17:20:03.999Z</time></trkpt><trkpt lat="44.38682275421535" lon="8.015890850365121"><ele>413.0</ele><time>2026-04-08T17:20:04.999Z</time></trkpt><trkpt lat="44.38684061599979" lon="8.015721907909246"><ele>413.0</ele><time>2026-04-08T17:20:05.999Z</time></trkpt><trkpt lat="44.38685955392528" lon="8.01555761276174"><ele>413.0</ele><time>2026-04-08T17:20:06.999Z</time></trkpt><trkpt lat="44.38687607554295" lon="8.015397017616394"><ele>413.0</ele><time>2026-04-08T17:20:07.999Z</time></trkpt><trkpt lat="44.386889113586264" lon="8.015237768378359"><ele>413.0</ele><time>2026-04-08T17:20:08.999Z</time></trkpt><trkpt lat="44.386904008724244" lon="8.015064071423136"><ele>413.0</ele><time>2026-04-08T17:20:09.999Z</time></trkpt><trkpt lat="44.386915863617894" lon="8.014906007940757"><ele>413.0</ele><time>2026-04-08T17:20:10.999Z</time></trkpt><trkpt lat="44.38693479328574" lon="8.014742920325268"><ele>413.0</ele><time>2026-04-08T17:20:11.999Z</time></trkpt><trkpt lat="44.386948765181685" lon="8.014579868601164"><ele>413.0</ele><time>2026-04-08T17:20:12.999Z</time></trkpt><trkpt lat="44.38695631377994" lon="8.014432276200015"><ele>413.0</ele><time>2026-04-08T17:20:13.999Z</time></trkpt><trkpt lat="44.386967748715456" lon="8.014277181288318"><ele>413.0</ele><time>2026-04-08T17:20:14.999Z</time></trkpt><trkpt lat="44.386984133105685" lon="8.014125233216"><ele>413.0</ele><time>2026-04-08T17:20:15.999Z</time></trkpt><trkpt lat="44.3869987667595" lon="8.013965294835497"><ele>413.0</ele><time>2026-04-08T17:20:16.999Z</time></trkpt><trkpt lat="44.38701624054123" lon="8.013802239821361"><ele>413.0</ele><time>2026-04-08T17:20:17.999Z</time></trkpt><trkpt lat="44.38702828747553" lon="8.013645370741502"><ele>413.0</ele><time>2026-04-08T17:20:18.999Z</time></trkpt><trkpt lat="44.38703743081932" lon="8.013490585654228"><ele>413.0</ele><time>2026-04-08T17:20:19.999Z</time></trkpt><trkpt lat="44.387052974068155" lon="8.01333129395117"><ele>412.75</ele><time>2026-04-08T17:20:20.999Z</time></trkpt><trkpt lat="44.38706686985441" lon="8.013172836111137"><ele>412.5</ele><time>2026-04-08T17:20:21.999Z</time></trkpt><trkpt lat="44.38707632640653" lon="8.012999484415568"><ele>412.25</ele><time>2026-04-08T17:20:22.999Z</time></trkpt><trkpt lat="44.38709269986452" lon="8.012832125794077"><ele>412.0</ele><time>2026-04-08T17:20:23.999Z</time></trkpt><trkpt lat="44.38710607025115" lon="8.012662479621312"><ele>412.25</ele><time>2026-04-08T17:20:24.999Z</time></trkpt><trkpt lat="44.38712567535618" lon="8.012486470237965"><ele>412.5</ele><time>2026-04-08T17:20:25.999Z</time></trkpt><trkpt lat="44.38714399760237" lon="8.012306846684702"><ele>412.75</ele><time>2026-04-08T17:20:26.999Z</time></trkpt><trkpt lat="44.38716125254317" lon="8.012127355410259"><ele>413.0</ele><time>2026-04-08T17:20:27.999Z</time></trkpt><trkpt lat="44.38718089802403" lon="8.011944585033373"><ele>412.75</ele><time>2026-04-08T17:20:28.999Z</time></trkpt><trkpt lat="44.387200447904696" lon="8.011754206491807"><ele>412.5</ele><time>2026-04-08T17:20:29.999Z</time></trkpt><trkpt lat="44.38721969417454" lon="8.011555025181892"><ele>412.25</ele><time>2026-04-08T17:20:30.999Z</time></trkpt><trkpt lat="44.38724717683341" lon="8.01135614686861"><ele>412.0</ele><time>2026-04-08T17:20:31.999Z</time></trkpt><trkpt lat="44.38729118392002" lon="8.011165586881667"><ele>412.0</ele><time>2026-04-08T17:20:32.999Z</time></trkpt><trkpt lat="44.387354615520735" lon="8.010962982039679"><ele>412.0</ele><time>2026-04-08T17:20:33.999Z</time></trkpt><trkpt lat="44.38742229115654" lon="8.010764114106994"><ele>412.0</ele><time>2026-04-08T17:20:34.999Z</time></trkpt><trkpt lat="44.38750567069553" lon="8.010599310157646"><ele>415.0</ele><time>2026-04-08T17:20:35.999Z</time></trkpt><trkpt lat="44.38761442124107" lon="8.01042153519555"><ele>418.0</ele><time>2026-04-08T17:20:36.999Z</time></trkpt><trkpt lat="44.38773238547271" lon="8.010260201788459"><ele>421.0</ele><time>2026-04-08T17:20:37.999Z</time></trkpt><trkpt lat="44.38785704307446" lon="8.01010248102116"><ele>422.0</ele><time>2026-04-08T17:20:38.999Z</time></trkpt><trkpt lat="44.38799522653206" lon="8.009945199652433"><ele>423.0</ele><time>2026-04-08T17:20:39.999Z</time></trkpt><trkpt lat="44.38814538153688" lon="8.009795947724498"><ele>424.0</ele><time>2026-04-08T17:20:40.999Z</time></trkpt><trkpt lat="44.388295977146846" lon="8.009635865264757"><ele>424.0</ele><time>2026-04-08T17:20:41.999Z</time></trkpt><trkpt lat="44.38845527115116" lon="8.009473231507418"><ele>424.0</ele><time>2026-04-08T17:20:42.999Z</time></trkpt><trkpt lat="44.388607093110714" lon="8.009309926539016"><ele>424.0</ele><time>2026-04-08T17:20:43.999Z</time></trkpt><trkpt lat="44.38876001700487" lon="8.00914802456287"><ele>424.33333333333337</ele><time>2026-04-08T17:20:44.999Z</time></trkpt><trkpt lat="44.38891124310556" lon="8.008980368062396"><ele>424.66666666666663</ele><time>2026-04-08T17:20:45.999Z</time></trkpt><trkpt lat="44.38905857838983" lon="8.008800041747032"><ele>425.0</ele><time>2026-04-08T17:20:46.999Z</time></trkpt><trkpt lat="44.38921141209947" lon="8.008615650487918"><ele>425.0</ele><time>2026-04-08T17:20:47.999Z</time></trkpt><trkpt lat="44.38935927396656" lon="8.00842262908852"><ele>425.0</ele><time>2026-04-08T17:20:48.999Z</time></trkpt><trkpt lat="44.38951127747076" lon="8.008229363611434"><ele>425.0</ele><time>2026-04-08T17:20:49.999Z</time></trkpt><trkpt lat="44.38966376901863" lon="8.008034006708945"><ele>425.0</ele><time>2026-04-08T17:20:50.999Z</time></trkpt><trkpt lat="44.389819366105975" lon="8.007834987881036"><ele>425.0</ele><time>2026-04-08T17:20:51.999Z</time></trkpt><trkpt lat="44.3899707547961" lon="8.007627813268442"><ele>425.0</ele><time>2026-04-08T17:20:52.999Z</time></trkpt><trkpt lat="44.39012763282828" lon="8.007425721483651"><ele>425.0</ele><time>2026-04-08T17:20:53.998Z</time></trkpt><trkpt lat="44.39028401549673" lon="8.007215268755981"><ele>425.0</ele><time>2026-04-08T17:20:54.998Z</time></trkpt><trkpt lat="44.39044224585871" lon="8.007002359528736"><ele>425.0</ele><time>2026-04-08T17:20:55.998Z</time></trkpt><trkpt lat="44.39058602787288" lon="8.006807620954719"><ele>425.0</ele><time>2026-04-08T17:20:56.998Z</time></trkpt><trkpt lat="44.3907392329154" lon="8.006603924395028"><ele>425.0</ele><time>2026-04-08T17:20:57.998Z</time></trkpt><trkpt lat="44.390880476893834" lon="8.006411253143073"><ele>425.0</ele><time>2026-04-08T17:20:58.998Z</time></trkpt><trkpt lat="44.391023346015245" lon="8.006252866513986"><ele>425.0</ele><time>2026-04-08T17:20:59.998Z</time></trkpt><trkpt lat="44.391150919513606" lon="8.006087112156047"><ele>425.0</ele><time>2026-04-08T17:21:00.998Z</time></trkpt><trkpt lat="44.39127533974936" lon="8.005923705847646"><ele>425.0</ele><time>2026-04-08T17:21:01.998Z</time></trkpt><trkpt lat="44.391388702756956" lon="8.005771301808975"><ele>424.66666666666663</ele><time>2026-04-08T17:21:02.998Z</time></trkpt><trkpt lat="44.39149679121667" lon="8.005616999487552"><ele>424.33333333333337</ele><time>2026-04-08T17:21:03.998Z</time></trkpt><trkpt lat="44.391566835965726" lon="8.005425997730562"><ele>424.0</ele><time>2026-04-08T17:21:04.998Z</time></trkpt><trkpt lat="44.39165898487855" lon="8.005260203487548"><ele>424.0</ele><time>2026-04-08T17:21:05.998Z</time></trkpt><trkpt lat="44.391751327540085" lon="8.005068869396283"><ele>424.0</ele><time>2026-04-08T17:21:06.998Z</time></trkpt><trkpt lat="44.39181951798268" lon="8.004901508034894"><ele>424.0</ele><time>2026-04-08T17:21:07.998Z</time></trkpt><trkpt lat="44.39190965381811" lon="8.004726233396562"><ele>424.33333333333337</ele><time>2026-04-08T17:21:08.998Z</time></trkpt><trkpt lat="44.39197477204444" lon="8.00453326037686"><ele>424.66666666666663</ele><time>2026-04-08T17:21:09.998Z</time></trkpt><trkpt lat="44.39204063231489" lon="8.004336915424078"><ele>425.0</ele><time>2026-04-08T17:21:10.998Z</time></trkpt><trkpt lat="44.3921066528113" lon="8.004143218433198"><ele>424.0</ele><time>2026-04-08T17:21:11.998Z</time></trkpt><trkpt lat="44.39217489438871" lon="8.003943012232234"><ele>423.0</ele><time>2026-04-08T17:21:12.998Z</time></trkpt><trkpt lat="44.39224501355194" lon="8.003740710238578"><ele>422.0</ele><time>2026-04-08T17:21:13.998Z</time></trkpt><trkpt lat="44.39231739127589" lon="8.003530623752093"><ele>421.3333333333333</ele><time>2026-04-08T17:21:14.998Z</time></trkpt><trkpt lat="44.39239160034561" lon="8.003315221182957"><ele>420.66666666666663</ele><time>2026-04-08T17:21:15.998Z</time></trkpt><trkpt lat="44.39246485947023" lon="8.003097165095499"><ele>420.0</ele><time>2026-04-08T17:21:16.998Z</time></trkpt><trkpt lat="44.39253923683681" lon="8.002852182154125"><ele>420.0</ele><time>2026-04-08T17:21:17.998Z</time></trkpt><trkpt lat="44.392604562498434" lon="8.00259879932009"><ele>420.0</ele><time>2026-04-08T17:21:19Z</time></trkpt><trkpt lat="44.392661816570694" lon="8.002325645822811"><ele>420.0</ele><time>2026-04-08T17:21:20Z</time></trkpt><trkpt lat="44.39271483798405" lon="8.002040260049576"><ele>419.66666666666663</ele><time>2026-04-08T17:21:21Z</time></trkpt><trkpt lat="44.39276617852308" lon="8.001748977630378"><ele>419.3333333333333</ele><time>2026-04-08T17:21:22Z</time></trkpt><trkpt lat="44.39281665128316" lon="8.00146261936632"><ele>419.0</ele><time>2026-04-08T17:21:23Z</time></trkpt><trkpt lat="44.39287092505082" lon="8.001153628662328"><ele>419.0</ele><time>2026-04-08T17:21:24Z</time></trkpt><trkpt lat="44.3929219135863" lon="8.000861057062812"><ele>419.0</ele><time>2026-04-08T17:21:25Z</time></trkpt><trkpt lat="44.392971969857506" lon="8.000576058896982"><ele>419.0</ele><time>2026-04-08T17:21:26Z</time></trkpt><trkpt lat="44.39302156916687" lon="8.000290595058633"><ele>418.66666666666663</ele><time>2026-04-08T17:21:27Z</time></trkpt><trkpt lat="44.39306898775654" lon="8.000017982777603"><ele>418.33333333333337</ele><time>2026-04-08T17:21:28Z</time></trkpt><trkpt lat="44.393108725883614" lon="7.999734641230902"><ele>418.0</ele><time>2026-04-08T17:21:29Z</time></trkpt><trkpt lat="44.393171088398134" lon="7.999453038420131"><ele>418.0</ele><time>2026-04-08T17:21:30Z</time></trkpt><trkpt lat="44.39323717277181" lon="7.999169765776426"><ele>418.0</ele><time>2026-04-08T17:21:31Z</time></trkpt><trkpt lat="44.39332225775705" lon="7.998896251425558"><ele>418.0</ele><time>2026-04-08T17:21:32Z</time></trkpt><trkpt lat="44.39343168449358" lon="7.998627484017359"><ele>418.0</ele><time>2026-04-08T17:21:33Z</time></trkpt><trkpt lat="44.39355141204472" lon="7.9983677050875555"><ele>418.0</ele><time>2026-04-08T17:21:34Z</time></trkpt><trkpt lat="44.39365257552296" lon="7.9981067584323675"><ele>418.0</ele><time>2026-04-08T17:21:35Z</time></trkpt><trkpt lat="44.3937505632667" lon="7.997861839280332"><ele>418.33333333333337</ele><time>2026-04-08T17:21:36Z</time></trkpt><trkpt lat="44.39385395149318" lon="7.997606973102712"><ele>418.66666666666663</ele><time>2026-04-08T17:21:37Z</time></trkpt><trkpt lat="44.393961666642106" lon="7.997335554629138"><ele>419.0</ele><time>2026-04-08T17:21:38Z</time></trkpt><trkpt lat="44.39406286425581" lon="7.997053323788004"><ele>419.0</ele><time>2026-04-08T17:21:39Z</time></trkpt><trkpt lat="44.394168182308135" lon="7.9967593756251505"><ele>419.0</ele><time>2026-04-08T17:21:40Z</time></trkpt><trkpt lat="44.39427506776435" lon="7.996461322709574"><ele>420.0</ele><time>2026-04-08T17:21:41Z</time></trkpt><trkpt lat="44.39438091947864" lon="7.996165485386401"><ele>421.0</ele><time>2026-04-08T17:21:42Z</time></trkpt><trkpt lat="44.39449675113839" lon="7.99585639122946"><ele>420.6666666666667</ele><time>2026-04-08T17:21:43Z</time></trkpt><trkpt lat="44.39460009584335" lon="7.995584274622251"><ele>420.33333333333337</ele><time>2026-04-08T17:21:44Z</time></trkpt><trkpt lat="44.39469837162134" lon="7.995326525967399"><ele>420.0</ele><time>2026-04-08T17:21:45Z</time></trkpt><trkpt lat="44.39479684099337" lon="7.995068049006127"><ele>419.33333333333337</ele><time>2026-04-08T17:21:46Z</time></trkpt><trkpt lat="44.39489389052916" lon="7.99480264041346"><ele>418.6666666666667</ele><time>2026-04-08T17:21:47Z</time></trkpt><trkpt lat="44.39498966922603" lon="7.994540538553766"><ele>418.0</ele><time>2026-04-08T17:21:48Z</time></trkpt><trkpt lat="44.39508265981106" lon="7.994282609867814"><ele>418.0</ele><time>2026-04-08T17:21:49Z</time></trkpt><trkpt lat="44.39516830668211" lon="7.99404050456425"><ele>418.0</ele><time>2026-04-08T17:21:50Z</time></trkpt><trkpt lat="44.3952512988647" lon="7.9938090117205665"><ele>418.0</ele><time>2026-04-08T17:21:51Z</time></trkpt><trkpt lat="44.39533483302018" lon="7.993580485270935"><ele>418.0</ele><time>2026-04-08T17:21:52Z</time></trkpt><trkpt lat="44.395414655453" lon="7.993354568967145"><ele>418.0</ele><time>2026-04-08T17:21:53Z</time></trkpt><trkpt lat="44.3954950736819" lon="7.993132157255608"><ele>418.0</ele><time>2026-04-08T17:21:54Z</time></trkpt><trkpt lat="44.395573536909566" lon="7.992915813721895"><ele>417.6666666666667</ele><time>2026-04-08T17:21:55Z</time></trkpt><trkpt lat="44.39565570066046" lon="7.99270289392828"><ele>417.33333333333337</ele><time>2026-04-08T17:21:56Z</time></trkpt><trkpt lat="44.39573114593416" lon="7.992486907329134"><ele>417.0</ele><time>2026-04-08T17:21:57Z</time></trkpt><trkpt lat="44.39581133002594" lon="7.9922705101160245"><ele>417.66666666666663</ele><time>2026-04-08T17:21:58Z</time></trkpt><trkpt lat="44.39590020909554" lon="7.992064095810148"><ele>418.3333333333333</ele><time>2026-04-08T17:21:59Z</time></trkpt><trkpt lat="44.39599798207306" lon="7.991859398953153"><ele>419.0</ele><time>2026-04-08T17:22:00Z</time></trkpt><trkpt lat="44.3961058522384" lon="7.991653697342179"><ele>419.0</ele><time>2026-04-08T17:22:00.999Z</time></trkpt><trkpt lat="44.39620636068883" lon="7.991463045411139"><ele>419.0</ele><time>2026-04-08T17:22:01.999Z</time></trkpt><trkpt lat="44.3963124978427" lon="7.991288430892218"><ele>419.0</ele><time>2026-04-08T17:22:02.999Z</time></trkpt><trkpt lat="44.39641448144889" lon="7.991109376998282"><ele>419.0</ele><time>2026-04-08T17:22:03.999Z</time></trkpt><trkpt lat="44.39652591682226" lon="7.99093341607674"><ele>419.0</ele><time>2026-04-08T17:22:04.999Z</time></trkpt><trkpt lat="44.396628118468286" lon="7.990762245354806"><ele>419.0</ele><time>2026-04-08T17:22:05.999Z</time></trkpt><trkpt lat="44.39672914051388" lon="7.990588068965871"><ele>418.66666666666663</ele><time>2026-04-08T17:22:06.999Z</time></trkpt><trkpt lat="44.39683171616251" lon="7.990409254110972"><ele>418.33333333333337</ele><time>2026-04-08T17:22:07.999Z</time></trkpt><trkpt lat="44.396919339656286" lon="7.990214781017099"><ele>418.0</ele><time>2026-04-08T17:22:08.999Z</time></trkpt><trkpt lat="44.39698829845871" lon="7.990021406159347"><ele>417.33333333333337</ele><time>2026-04-08T17:22:09.999Z</time></trkpt><trkpt lat="44.39705787855092" lon="7.989823133148548"><ele>416.66666666666663</ele><time>2026-04-08T17:22:10.999Z</time></trkpt><trkpt lat="44.397119691434696" lon="7.989619101180557"><ele>416.0</ele><time>2026-04-08T17:22:11.999Z</time></trkpt><trkpt lat="44.39716096257775" lon="7.989399398475809"><ele>416.0</ele><time>2026-04-08T17:22:12.999Z</time></trkpt><trkpt lat="44.397197799311215" lon="7.989177046314361"><ele>416.0</ele><time>2026-04-08T17:22:13.999Z</time></trkpt><trkpt lat="44.39723325386448" lon="7.988961179023618"><ele>416.0</ele><time>2026-04-08T17:22:14.999Z</time></trkpt><trkpt lat="44.397280003673224" lon="7.9887520246458505"><ele>416.0</ele><time>2026-04-08T17:22:15.999Z</time></trkpt><trkpt lat="44.39731457866803" lon="7.9885299867222965"><ele>416.0</ele><time>2026-04-08T17:22:16.999Z</time></trkpt><trkpt lat="44.39735560489596" lon="7.988312550836535"><ele>416.0</ele><time>2026-04-08T17:22:17.999Z</time></trkpt><trkpt lat="44.397385036889375" lon="7.988095618749441"><ele>415.66666666666663</ele><time>2026-04-08T17:22:18.999Z</time></trkpt><trkpt lat="44.397423572889515" lon="7.987882324354616"><ele>415.33333333333337</ele><time>2026-04-08T17:22:19.999Z</time></trkpt><trkpt lat="44.39746219959704" lon="7.9876481585336565"><ele>415.0</ele><time>2026-04-08T17:22:20.999Z</time></trkpt><trkpt lat="44.397504844498044" lon="7.987429707433177"><ele>415.6666666666667</ele><time>2026-04-08T17:22:21.999Z</time></trkpt><trkpt lat="44.397540596067856" lon="7.987210479091404"><ele>416.33333333333337</ele><time>2026-04-08T17:22:22.999Z</time></trkpt><trkpt lat="44.397581632320424" lon="7.986990719862604"><ele>417.0</ele><time>2026-04-08T17:22:23.999Z</time></trkpt><trkpt lat="44.39762118633729" lon="7.986783550678554"><ele>418.33333333333337</ele><time>2026-04-08T17:22:24.999Z</time></trkpt><trkpt lat="44.39766312486818" lon="7.986576432043401"><ele>419.6666666666667</ele><time>2026-04-08T17:22:25.999Z</time></trkpt><trkpt lat="44.39770146678761" lon="7.986358610565984"><ele>421.0</ele><time>2026-04-08T17:22:26.999Z</time></trkpt><trkpt lat="44.39773898906022" lon="7.986148033164188"><ele>421.0</ele><time>2026-04-08T17:22:27.999Z</time></trkpt><trkpt lat="44.39777848066825" lon="7.9859343466980866"><ele>421.0</ele><time>2026-04-08T17:22:28.999Z</time></trkpt><trkpt lat="44.397816568609606" lon="7.985726287422617"><ele>421.0</ele><time>2026-04-08T17:22:29.999Z</time></trkpt><trkpt lat="44.39785198346653" lon="7.98550907361519"><ele>420.6666666666667</ele><time>2026-04-08T17:22:30.999Z</time></trkpt><trkpt lat="44.39789106700805" lon="7.98530078548009"><ele>420.33333333333337</ele><time>2026-04-08T17:22:31.999Z</time></trkpt><trkpt lat="44.39793310562449" lon="7.985087581785056"><ele>420.0</ele><time>2026-04-08T17:22:32.999Z</time></trkpt><trkpt lat="44.39797250387395" lon="7.98488590496804"><ele>419.25</ele><time>2026-04-08T17:22:33.999Z</time></trkpt><trkpt lat="44.398013917183654" lon="7.984682316640446"><ele>418.5</ele><time>2026-04-08T17:22:34.999Z</time></trkpt><trkpt lat="44.39804158999891" lon="7.984492413864269"><ele>417.75</ele><time>2026-04-08T17:22:35.999Z</time></trkpt><trkpt lat="44.39807616166848" lon="7.984294208045683"><ele>417.0</ele><time>2026-04-08T17:22:36.999Z</time></trkpt><trkpt lat="44.39810840438735" lon="7.984091546156028"><ele>417.0</ele><time>2026-04-08T17:22:37.999Z</time></trkpt><trkpt lat="44.39813044065678" lon="7.98388139515974"><ele>417.0</ele><time>2026-04-08T17:22:38.999Z</time></trkpt><trkpt lat="44.39814817515546" lon="7.983670276997129"><ele>417.0</ele><time>2026-04-08T17:22:39.999Z</time></trkpt><trkpt lat="44.39816256939323" lon="7.983458719644137"><ele>416.66666666666663</ele><time>2026-04-08T17:22:40.999Z</time></trkpt><trkpt lat="44.398173507855674" lon="7.983244408642596"><ele>416.3333333333333</ele><time>2026-04-08T17:22:41.999Z</time></trkpt><trkpt lat="44.398183512926934" lon="7.983023856998392"><ele>416.0</ele><time>2026-04-08T17:22:42.999Z</time></trkpt><trkpt lat="44.39819493747269" lon="7.982810963181643"><ele>416.0</ele><time>2026-04-08T17:22:43.999Z</time></trkpt><trkpt lat="44.398204519342684" lon="7.982593173547674"><ele>416.0</ele><time>2026-04-08T17:22:44.999Z</time></trkpt><trkpt lat="44.39821145736599" lon="7.982367239759776"><ele>416.0</ele><time>2026-04-08T17:22:45.999Z</time></trkpt><trkpt lat="44.39821932569613" lon="7.982137874261513"><ele>416.3333333333333</ele><time>2026-04-08T17:22:46.999Z</time></trkpt><trkpt lat="44.3982323905368" lon="7.981927487561134"><ele>416.66666666666663</ele><time>2026-04-08T17:22:47.999Z</time></trkpt><trkpt lat="44.39824214656278" lon="7.981719491894873"><ele>417.0</ele><time>2026-04-08T17:22:48.999Z</time></trkpt><trkpt lat="44.39824866694012" lon="7.981497728871331"><ele>417.33333333333337</ele><time>2026-04-08T17:22:49.999Z</time></trkpt><trkpt lat="44.39826024317974" lon="7.981284460171658"><ele>417.6666666666667</ele><time>2026-04-08T17:22:50.999Z</time></trkpt><trkpt lat="44.398270079405236" lon="7.981068841822768"><ele>418.0</ele><time>2026-04-08T17:22:51.999Z</time></trkpt><trkpt lat="44.39828188092642" lon="7.98085233003936"><ele>418.0</ele><time>2026-04-08T17:22:52.999Z</time></trkpt><trkpt lat="44.39828551570852" lon="7.980629630639815"><ele>418.0</ele><time>2026-04-08T17:22:53.999Z</time></trkpt><trkpt lat="44.39830102288671" lon="7.980411288609599"><ele>418.0</ele><time>2026-04-08T17:22:54.999Z</time></trkpt><trkpt lat="44.39831293018272" lon="7.980205235507407"><ele>419.0</ele><time>2026-04-08T17:22:55.999Z</time></trkpt><trkpt lat="44.398324963500976" lon="7.979999431847444"><ele>420.0</ele><time>2026-04-08T17:22:56.999Z</time></trkpt><trkpt lat="44.39833509430603" lon="7.9797939835006"><ele>421.0</ele><time>2026-04-08T17:22:57.999Z</time></trkpt><trkpt lat="44.39834688842057" lon="7.979586254231342"><ele>422.0</ele><time>2026-04-08T17:22:58.999Z</time></trkpt><trkpt lat="44.39835971352534" lon="7.979385106249711"><ele>422.0</ele><time>2026-04-08T17:22:59.999Z</time></trkpt><trkpt lat="44.39836656286528" lon="7.979196890384828"><ele>422.0</ele><time>2026-04-08T17:23:00.998Z</time></trkpt><trkpt lat="44.398378933327706" lon="7.9790126696563695"><ele>422.0</ele><time>2026-04-08T17:23:01.998Z</time></trkpt><trkpt lat="44.39839119907532" lon="7.978834933914922"><ele>422.0</ele><time>2026-04-08T17:23:02.998Z</time></trkpt><trkpt lat="44.39840002821142" lon="7.978663198920448"><ele>422.5</ele><time>2026-04-08T17:23:03.998Z</time></trkpt><trkpt lat="44.398423586729336" lon="7.978498661912917"><ele>423.0</ele><time>2026-04-08T17:23:04.998Z</time></trkpt><trkpt lat="44.39846297184414" lon="7.978331886911343"><ele>423.5</ele><time>2026-04-08T17:23:05.998Z</time></trkpt><trkpt lat="44.398522326299705" lon="7.978166769928177"><ele>424.0</ele><time>2026-04-08T17:23:06.998Z</time></trkpt><trkpt lat="44.398607728538366" lon="7.978010858472391"><ele>424.0</ele><time>2026-04-08T17:23:07.998Z</time></trkpt><trkpt lat="44.398708509303994" lon="7.977881444222358"><ele>424.0</ele><time>2026-04-08T17:23:08.998Z</time></trkpt><trkpt lat="44.3988297783923" lon="7.977760929819766"><ele>424.0</ele><time>2026-04-08T17:23:09.998Z</time></trkpt><trkpt lat="44.39897412726903" lon="7.9776518847087585"><ele>424.33333333333337</ele><time>2026-04-08T17:23:10.998Z</time></trkpt><trkpt lat="44.39911735157005" lon="7.977554971477907"><ele>424.66666666666663</ele><time>2026-04-08T17:23:11.998Z</time></trkpt><trkpt lat="44.39926154730628" lon="7.977444896432414"><ele>425.0</ele><time>2026-04-08T17:23:12.998Z</time></trkpt><trkpt lat="44.399410767240894" lon="7.977344137061597"><ele>425.0</ele><time>2026-04-08T17:23:13.998Z</time></trkpt><trkpt lat="44.39954867170098" lon="7.977247929804303"><ele>425.0</ele><time>2026-04-08T17:23:14.998Z</time></trkpt><trkpt lat="44.39968238030186" lon="7.977154821634523"><ele>425.0</ele><time>2026-04-08T17:23:15.998Z</time></trkpt><trkpt lat="44.399812624137006" lon="7.977069767585192"><ele>425.0</ele><time>2026-04-08T17:23:16.998Z</time></trkpt><trkpt lat="44.39992801049983" lon="7.9769855024931795"><ele>424.75</ele><time>2026-04-08T17:23:17.998Z</time></trkpt><trkpt lat="44.40005357638079" lon="7.976906085943369"><ele>424.5</ele><time>2026-04-08T17:23:18.998Z</time></trkpt><trkpt lat="44.40015897285177" lon="7.976831198206931"><ele>424.25</ele><time>2026-04-08T17:23:19.998Z</time></trkpt><trkpt lat="44.4002636217873" lon="7.976748090302096"><ele>424.0</ele><time>2026-04-08T17:23:20.998Z</time></trkpt><trkpt lat="44.40035644228079" lon="7.97665972363615"><ele>424.0</ele><time>2026-04-08T17:23:21.998Z</time></trkpt><trkpt lat="44.40044356110648" lon="7.9765592652485715"><ele>424.0</ele><time>2026-04-08T17:23:22.998Z</time></trkpt><trkpt lat="44.40052576496315" lon="7.9764319137514255"><ele>424.0</ele><time>2026-04-08T17:23:23.998Z</time></trkpt><trkpt lat="44.40059080934205" lon="7.976277945214692"><ele>424.0</ele><time>2026-04-08T17:23:25Z</time></trkpt><trkpt lat="44.40064726611963" lon="7.9760847160997494"><ele>422.6666666666667</ele><time>2026-04-08T17:23:26Z</time></trkpt><trkpt lat="44.4007045660582" lon="7.9758706853632715"><ele>421.33333333333337</ele><time>2026-04-08T17:23:27Z</time></trkpt><trkpt lat="44.40076363154254" lon="7.975658876276101"><ele>420.0</ele><time>2026-04-08T17:23:28Z</time></trkpt><trkpt lat="44.40082080304475" lon="7.975457412933811"><ele>420.0</ele><time>2026-04-08T17:23:29Z</time></trkpt><trkpt lat="44.400867316645396" lon="7.975270497885616"><ele>420.0</ele><time>2026-04-08T17:23:30Z</time></trkpt><trkpt lat="44.40091660119198" lon="7.975093947898064"><ele>420.0</ele><time>2026-04-08T17:23:31Z</time></trkpt><trkpt lat="44.40095451007103" lon="7.974929544154527"><ele>420.0</ele><time>2026-04-08T17:23:32Z</time></trkpt><trkpt lat="44.40098471993555" lon="7.974784972320917"><ele>420.4</ele><time>2026-04-08T17:23:33Z</time></trkpt><trkpt lat="44.401015648674644" lon="7.974640908921596"><ele>420.8</ele><time>2026-04-08T17:23:34Z</time></trkpt><trkpt lat="44.40104101832238" lon="7.974501820757537"><ele>421.20000000000005</ele><time>2026-04-08T17:23:35Z</time></trkpt><trkpt lat="44.40105865240247" lon="7.974374424511437"><ele>421.6</ele><time>2026-04-08T17:23:36Z</time></trkpt><trkpt lat="44.40107135042952" lon="7.974268378360509"><ele>422.0</ele><time>2026-04-08T17:23:37Z</time></trkpt><trkpt lat="44.4010896880672" lon="7.974169008265293"><ele>422.6</ele><time>2026-04-08T17:23:38Z</time></trkpt><trkpt lat="44.401124119246184" lon="7.974081873169005"><ele>423.20000000000005</ele><time>2026-04-08T17:23:39Z</time></trkpt><trkpt lat="44.40119555935718" lon="7.973988021529917"><ele>423.8</ele><time>2026-04-08T17:23:40Z</time></trkpt><trkpt lat="44.401284425561094" lon="7.973918986379541"><ele>424.4</ele><time>2026-04-08T17:23:41Z</time></trkpt><trkpt lat="44.401370968205505" lon="7.973801430184592"><ele>425.0</ele><time>2026-04-08T17:23:42Z</time></trkpt><trkpt lat="44.40145973372284" lon="7.973702746841371"><ele>423.0</ele><time>2026-04-08T17:23:43Z</time></trkpt><trkpt lat="44.401569011256925" lon="7.973603005004951"><ele>421.0</ele><time>2026-04-08T17:23:44Z</time></trkpt><trkpt lat="44.40170805270688" lon="7.973533812885335"><ele>419.0</ele><time>2026-04-08T17:23:45Z</time></trkpt><trkpt lat="44.40183532198505" lon="7.973426176418022"><ele>417.0</ele><time>2026-04-08T17:23:46Z</time></trkpt><trkpt lat="44.40197639220016" lon="7.973305337474477"><ele>417.0</ele><time>2026-04-08T17:23:47Z</time></trkpt><trkpt lat="44.40212692282716" lon="7.9731687477451505"><ele>417.0</ele><time>2026-04-08T17:23:48Z</time></trkpt><trkpt lat="44.40228201174396" lon="7.973029026022288"><ele>417.0</ele><time>2026-04-08T17:23:49Z</time></trkpt><trkpt lat="44.402453784488145" lon="7.972879306194063"><ele>416.33333333333337</ele><time>2026-04-08T17:23:50Z</time></trkpt><trkpt lat="44.40262541368572" lon="7.9727287957581705"><ele>415.6666666666667</ele><time>2026-04-08T17:23:51Z</time></trkpt><trkpt lat="44.402816895113155" lon="7.972570734894201"><ele>415.0</ele><time>2026-04-08T17:23:52Z</time></trkpt><trkpt lat="44.40301034994635" lon="7.9724127152432125"><ele>414.0</ele><time>2026-04-08T17:23:53Z</time></trkpt><trkpt lat="44.40320164224877" lon="7.972264380755944"><ele>413.0</ele><time>2026-04-08T17:23:54Z</time></trkpt><trkpt lat="44.40340297483952" lon="7.972105098374428"><ele>413.0</ele><time>2026-04-08T17:23:55Z</time></trkpt><trkpt lat="44.403614874358446" lon="7.971945590981294"><ele>413.0</ele><time>2026-04-08T17:23:56Z</time></trkpt><trkpt lat="44.40382966293226" lon="7.971790356684852"><ele>412.0</ele><time>2026-04-08T17:23:57Z</time></trkpt><trkpt lat="44.40404650387587" lon="7.971630356927054"><ele>411.0</ele><time>2026-04-08T17:23:58Z</time></trkpt><trkpt lat="44.404244373070625" lon="7.9714934770755015"><ele>411.0</ele><time>2026-04-08T17:23:59Z</time></trkpt><trkpt lat="44.404448395344886" lon="7.971349835238304"><ele>411.0</ele><time>2026-04-08T17:24:00Z</time></trkpt><trkpt lat="44.40465730935135" lon="7.971199732066609"><ele>410.5</ele><time>2026-04-08T17:24:01Z</time></trkpt><trkpt lat="44.404860643272784" lon="7.971047599052862"><ele>410.0</ele><time>2026-04-08T17:24:02Z</time></trkpt><trkpt lat="44.405065196946744" lon="7.9708840206873965"><ele>409.5</ele><time>2026-04-08T17:24:03Z</time></trkpt><trkpt lat="44.405260847742795" lon="7.970709269288882"><ele>409.0</ele><time>2026-04-08T17:24:04Z</time></trkpt><trkpt lat="44.40544995785508" lon="7.970548468307848"><ele>408.33333333333337</ele><time>2026-04-08T17:24:05Z</time></trkpt><trkpt lat="44.405636672983356" lon="7.97038906633085"><ele>407.66666666666663</ele><time>2026-04-08T17:24:06Z</time></trkpt><trkpt lat="44.40582791405891" lon="7.970229191427117"><ele>407.0</ele><time>2026-04-08T17:24:07Z</time></trkpt><trkpt lat="44.40602176517385" lon="7.970061039126544"><ele>407.3333333333333</ele><time>2026-04-08T17:24:07.999Z</time></trkpt><trkpt lat="44.40620015501419" lon="7.969899075359109"><ele>407.66666666666663</ele><time>2026-04-08T17:24:08.999Z</time></trkpt><trkpt lat="44.40637292399714" lon="7.969746302442306"><ele>408.0</ele><time>2026-04-08T17:24:09.999Z</time></trkpt><trkpt lat="44.406541546127244" lon="7.969606768474953"><ele>407.33333333333337</ele><time>2026-04-08T17:24:10.999Z</time></trkpt><trkpt lat="44.406691759534475" lon="7.969470243320297"><ele>406.6666666666667</ele><time>2026-04-08T17:24:11.999Z</time></trkpt><trkpt lat="44.406851550194446" lon="7.9693358854926375"><ele>406.0</ele><time>2026-04-08T17:24:12.999Z</time></trkpt><trkpt lat="44.40700076433195" lon="7.969212456776887"><ele>405.6666666666667</ele><time>2026-04-08T17:24:13.999Z</time></trkpt><trkpt lat="44.40714646173204" lon="7.969098835397324"><ele>405.33333333333337</ele><time>2026-04-08T17:24:14.999Z</time></trkpt><trkpt lat="44.40729110362648" lon="7.968973693391029"><ele>405.0</ele><time>2026-04-08T17:24:15.999Z</time></trkpt><trkpt lat="44.40743157090388" lon="7.968843783617835"><ele>403.66666666666663</ele><time>2026-04-08T17:24:16.999Z</time></trkpt><trkpt lat="44.40757457150148" lon="7.968713760414396"><ele>402.3333333333333</ele><time>2026-04-08T17:24:17.999Z</time></trkpt><trkpt lat="44.40770202483679" lon="7.968604049175197"><ele>401.0</ele><time>2026-04-08T17:24:18.999Z</time></trkpt><trkpt lat="44.407831915253276" lon="7.9684939934253"><ele>401.0</ele><time>2026-04-08T17:24:19.999Z</time></trkpt><trkpt lat="44.40797004923211" lon="7.968383234871082"><ele>401.0</ele><time>2026-04-08T17:24:20.999Z</time></trkpt><trkpt lat="44.40808508520515" lon="7.9682626561429695"><ele>401.0</ele><time>2026-04-08T17:24:21.999Z</time></trkpt><trkpt lat="44.408203517111374" lon="7.968132197290384"><ele>400.0</ele><time>2026-04-08T17:24:22.999Z</time></trkpt><trkpt lat="44.40832629988923" lon="7.967985273216233"><ele>399.0</ele><time>2026-04-08T17:24:23.999Z</time></trkpt><trkpt lat="44.408429667672415" lon="7.967842748529085"><ele>398.0</ele><time>2026-04-08T17:24:24.999Z</time></trkpt><trkpt lat="44.40853600212029" lon="7.9676907311069955"><ele>398.0</ele><time>2026-04-08T17:24:25.999Z</time></trkpt><trkpt lat="44.4086302257423" lon="7.967546460675885"><ele>398.0</ele><time>2026-04-08T17:24:26.999Z</time></trkpt><trkpt lat="44.40871474918484" lon="7.967386816041697"><ele>398.0</ele><time>2026-04-08T17:24:27.999Z</time></trkpt><trkpt lat="44.4087940664775" lon="7.96721873159594"><ele>398.0</ele><time>2026-04-08T17:24:28.999Z</time></trkpt><trkpt lat="44.408882043452955" lon="7.9670152812611"><ele>398.3333333333333</ele><time>2026-04-08T17:24:29.999Z</time></trkpt><trkpt lat="44.40894399261403" lon="7.966814354204746"><ele>398.66666666666663</ele><time>2026-04-08T17:24:30.999Z</time></trkpt><trkpt lat="44.409000647176214" lon="7.966608614198415"><ele>399.0</ele><time>2026-04-08T17:24:31.999Z</time></trkpt><trkpt lat="44.40904772608116" lon="7.966400818743251"><ele>397.75</ele><time>2026-04-08T17:24:32.999Z</time></trkpt><trkpt lat="44.40909457731063" lon="7.966204578497988"><ele>396.5</ele><time>2026-04-08T17:24:33.999Z</time></trkpt><trkpt lat="44.409127137445346" lon="7.9660335366324535"><ele>395.25</ele><time>2026-04-08T17:24:34.999Z</time></trkpt><trkpt lat="44.40917250915038" lon="7.96587574071949"><ele>394.0</ele><time>2026-04-08T17:24:35.999Z</time></trkpt><trkpt lat="44.40921805718297" lon="7.965710917833368"><ele>392.5</ele><time>2026-04-08T17:24:36.999Z</time></trkpt><trkpt lat="44.40926687804646" lon="7.965554145564691"><ele>391.0</ele><time>2026-04-08T17:24:37.999Z</time></trkpt><trkpt lat="44.4093161176333" lon="7.965390316358971"><ele>389.5</ele><time>2026-04-08T17:24:38.999Z</time></trkpt><trkpt lat="44.4093810890355" lon="7.96524456160522"><ele>388.0</ele><time>2026-04-08T17:24:39.999Z</time></trkpt><trkpt lat="44.409453224578314" lon="7.965113200066863"><ele>386.75</ele><time>2026-04-08T17:24:40.999Z</time></trkpt><trkpt lat="44.40952891146768" lon="7.964972523996448"><ele>385.5</ele><time>2026-04-08T17:24:41.999Z</time></trkpt><trkpt lat="44.40962079142302" lon="7.964848539820907"><ele>384.25</ele><time>2026-04-08T17:24:42.999Z</time></trkpt><trkpt lat="44.40973506680587" lon="7.964717890107824"><ele>383.0</ele><time>2026-04-08T17:24:43.999Z</time></trkpt><trkpt lat="44.409867969122395" lon="7.964586354630954"><ele>386.33333333333337</ele><time>2026-04-08T17:24:44.999Z</time></trkpt><trkpt lat="44.41000446567896" lon="7.964452073719545"><ele>389.6666666666667</ele><time>2026-04-08T17:24:45.999Z</time></trkpt><trkpt lat="44.41014700158566" lon="7.964329479674981"><ele>393.0</ele><time>2026-04-08T17:24:46.999Z</time></trkpt><trkpt lat="44.410267404653496" lon="7.964223917945942"><ele>390.75</ele><time>2026-04-08T17:24:47.999Z</time></trkpt><trkpt lat="44.41038017625693" lon="7.96413800428773"><ele>388.5</ele><time>2026-04-08T17:24:48.999Z</time></trkpt><trkpt lat="44.410497170517985" lon="7.964056743417246"><ele>386.25</ele><time>2026-04-08T17:24:49.999Z</time></trkpt><trkpt lat="44.410618180258815" lon="7.963979268833806"><ele>384.0</ele><time>2026-04-08T17:24:50.999Z</time></trkpt><trkpt lat="44.410749721305656" lon="7.963929666051217"><ele>384.0</ele><time>2026-04-08T17:24:51.999Z</time></trkpt><trkpt lat="44.410888406647416" lon="7.963891283028697"><ele>384.0</ele><time>2026-04-08T17:24:52.999Z</time></trkpt><trkpt lat="44.4110267372108" lon="7.963865623717011"><ele>384.0</ele><time>2026-04-08T17:24:53.999Z</time></trkpt><trkpt lat="44.41117735762593" lon="7.963850568955679"><ele>384.0</ele><time>2026-04-08T17:24:54.999Z</time></trkpt><trkpt lat="44.41134448724706" lon="7.963857640829292"><ele>382.0</ele><time>2026-04-08T17:24:55.999Z</time></trkpt><trkpt lat="44.41152419698682" lon="7.963874963962216"><ele>380.0</ele><time>2026-04-08T17:24:56.999Z</time></trkpt><trkpt lat="44.411692153137466" lon="7.963912832953603"><ele>378.0</ele><time>2026-04-08T17:24:57.999Z</time></trkpt><trkpt lat="44.41187477120033" lon="7.96393709412148"><ele>378.0</ele><time>2026-04-08T17:24:58.999Z</time></trkpt><trkpt lat="44.41204860240121" lon="7.963958853667819"><ele>378.0</ele><time>2026-04-08T17:24:59.999Z</time></trkpt><trkpt lat="44.41221219824422" lon="7.9639769676886445"><ele>378.0</ele><time>2026-04-08T17:25:00.999Z</time></trkpt><trkpt lat="44.412367127091024" lon="7.96399753651483"><ele>375.3333333333333</ele><time>2026-04-08T17:25:01.999Z</time></trkpt><trkpt lat="44.412523890909455" lon="7.964022853171895"><ele>372.66666666666663</ele><time>2026-04-08T17:25:02.999Z</time></trkpt><trkpt lat="44.41267234714826" lon="7.964033200955158"><ele>370.0</ele><time>2026-04-08T17:25:03.999Z</time></trkpt><trkpt lat="44.41282751617897" lon="7.964039533402953"><ele>370.0</ele><time>2026-04-08T17:25:04.999Z</time></trkpt><trkpt lat="44.412972868216" lon="7.964034410281342"><ele>370.0</ele><time>2026-04-08T17:25:05.999Z</time></trkpt><trkpt lat="44.41311136865843" lon="7.964025374937431"><ele>370.0</ele><time>2026-04-08T17:25:06.999Z</time></trkpt><trkpt lat="44.4132531762275" lon="7.964021118016215"><ele>370.0</ele><time>2026-04-08T17:25:07.998Z</time></trkpt><trkpt lat="44.4134104171339" lon="7.963992185569034"><ele>367.66666666666663</ele><time>2026-04-08T17:25:08.998Z</time></trkpt><trkpt lat="44.41357654164109" lon="7.963936312563428"><ele>365.3333333333333</ele><time>2026-04-08T17:25:09.998Z</time></trkpt><trkpt lat="44.41372787407179" lon="7.963858563396375"><ele>363.0</ele><time>2026-04-08T17:25:10.998Z</time></trkpt><trkpt lat="44.41388590131403" lon="7.963761804861049"><ele>362.0</ele><time>2026-04-08T17:25:11.998Z</time></trkpt><trkpt lat="44.41405259717489" lon="7.963645063756309"><ele>361.0</ele><time>2026-04-08T17:25:12.998Z</time></trkpt><trkpt lat="44.41421526541672" lon="7.963506000575639"><ele>360.0</ele><time>2026-04-08T17:25:13.998Z</time></trkpt><trkpt lat="44.41438348747407" lon="7.963340107977214"><ele>359.6666666666667</ele><time>2026-04-08T17:25:14.998Z</time></trkpt><trkpt lat="44.414560583717055" lon="7.963160742227201"><ele>359.33333333333337</ele><time>2026-04-08T17:25:15.998Z</time></trkpt><trkpt lat="44.4147408766391" lon="7.962976002612936"><ele>359.0</ele><time>2026-04-08T17:25:16.998Z</time></trkpt><trkpt lat="44.41492447129746" lon="7.96278619122318"><ele>357.0</ele><time>2026-04-08T17:25:17.998Z</time></trkpt><trkpt lat="44.41511380379854" lon="7.962586980987129"><ele>355.0</ele><time>2026-04-08T17:25:18.998Z</time></trkpt><trkpt lat="44.41530259323486" lon="7.9623905718241375"><ele>350.5</ele><time>2026-04-08T17:25:19.998Z</time></trkpt><trkpt lat="44.41549438276082" lon="7.962181624213789"><ele>346.0</ele><time>2026-04-08T17:25:20.998Z</time></trkpt><trkpt lat="44.41569768772747" lon="7.961973046173935"><ele>346.0</ele><time>2026-04-08T17:25:21.998Z</time></trkpt><trkpt lat="44.41588854424701" lon="7.961789864185911"><ele>346.0</ele><time>2026-04-08T17:25:22.998Z</time></trkpt><trkpt lat="44.41607163850442" lon="7.961602253237301"><ele>345.5</ele><time>2026-04-08T17:25:23.998Z</time></trkpt><trkpt lat="44.41626118574836" lon="7.961408549977743"><ele>345.0</ele><time>2026-04-08T17:25:24.998Z</time></trkpt><trkpt lat="44.41643488285672" lon="7.961221317288106"><ele>345.0</ele><time>2026-04-08T17:25:25.998Z</time></trkpt><trkpt lat="44.41660894833224" lon="7.961034059419599"><ele>345.0</ele><time>2026-04-08T17:25:26.998Z</time></trkpt><trkpt lat="44.41676774021878" lon="7.9608613391971135"><ele>345.0</ele><time>2026-04-08T17:25:27.998Z</time></trkpt><trkpt lat="44.416935128247616" lon="7.960696367698464"><ele>345.0</ele><time>2026-04-08T17:25:28.998Z</time></trkpt><trkpt lat="44.41709024323811" lon="7.960540241653437"><ele>345.0</ele><time>2026-04-08T17:25:29.998Z</time></trkpt><trkpt lat="44.41723874550054" lon="7.960397554641808"><ele>345.0</ele><time>2026-04-08T17:25:31Z</time></trkpt><trkpt lat="44.41738362213497" lon="7.960265922547379"><ele>344.3333333333333</ele><time>2026-04-08T17:25:32Z</time></trkpt><trkpt lat="44.417548309087046" lon="7.960150212772915"><ele>343.66666666666663</ele><time>2026-04-08T17:25:33Z</time></trkpt><trkpt lat="44.41771773694396" lon="7.960056442545586"><ele>343.0</ele><time>2026-04-08T17:25:34Z</time></trkpt><trkpt lat="44.417889175677125" lon="7.959986417812003"><ele>344.3333333333333</ele><time>2026-04-08T17:25:35Z</time></trkpt><trkpt lat="44.41807116560827" lon="7.959934985758066"><ele>345.6666666666667</ele><time>2026-04-08T17:25:36Z</time></trkpt><trkpt lat="44.41823895967397" lon="7.959900290122859"><ele>347.0</ele><time>2026-04-08T17:25:37Z</time></trkpt><trkpt lat="44.41843048730853" lon="7.959886596354533"><ele>347.0</ele><time>2026-04-08T17:25:38Z</time></trkpt><trkpt lat="44.41861870191703" lon="7.9598962760780765"><ele>347.0</ele><time>2026-04-08T17:25:39Z</time></trkpt><trkpt lat="44.41881989153692" lon="7.959918475105204"><ele>347.0</ele><time>2026-04-08T17:25:40Z</time></trkpt><trkpt lat="44.41901661340717" lon="7.959955163703814"><ele>348.0</ele><time>2026-04-08T17:25:41Z</time></trkpt><trkpt lat="44.419205351907465" lon="7.959993208419416"><ele>349.0</ele><time>2026-04-08T17:25:42Z</time></trkpt><trkpt lat="44.419385457580255" lon="7.960036734385345"><ele>350.0</ele><time>2026-04-08T17:25:43Z</time></trkpt><trkpt lat="44.419566444533494" lon="7.960074460599279"><ele>347.0</ele><time>2026-04-08T17:25:44Z</time></trkpt><trkpt lat="44.419738018673755" lon="7.960109818912241"><ele>344.0</ele><time>2026-04-08T17:25:45Z</time></trkpt><trkpt lat="44.419927325018136" lon="7.960146445978722"><ele>341.0</ele><time>2026-04-08T17:25:46Z</time></trkpt><trkpt lat="44.42009308564514" lon="7.960191451963378"><ele>341.0</ele><time>2026-04-08T17:25:47Z</time></trkpt><trkpt lat="44.42026309686282" lon="7.960230715907131"><ele>341.0</ele><time>2026-04-08T17:25:48Z</time></trkpt><trkpt lat="44.420434144149716" lon="7.960266150661689"><ele>341.0</ele><time>2026-04-08T17:25:49Z</time></trkpt><trkpt lat="44.42060679529705" lon="7.960303946373848"><ele>342.0</ele><time>2026-04-08T17:25:50Z</time></trkpt><trkpt lat="44.420781071086616" lon="7.9603421162267285"><ele>343.0</ele><time>2026-04-08T17:25:51Z</time></trkpt><trkpt lat="44.42096367777585" lon="7.960376562487941"><ele>344.0</ele><time>2026-04-08T17:25:52Z</time></trkpt><trkpt lat="44.42113550851949" lon="7.960408555297107"><ele>344.0</ele><time>2026-04-08T17:25:53Z</time></trkpt><trkpt lat="44.42129109261459" lon="7.960442178773646"><ele>344.0</ele><time>2026-04-08T17:25:54Z</time></trkpt><trkpt lat="44.421452309537706" lon="7.960468869000003"><ele>344.0</ele><time>2026-04-08T17:25:55Z</time></trkpt><trkpt lat="44.42160814587897" lon="7.960500953206769"><ele>345.6666666666667</ele><time>2026-04-08T17:25:56Z</time></trkpt><trkpt lat="44.42176155056123" lon="7.9605359500280874"><ele>347.3333333333333</ele><time>2026-04-08T17:25:57Z</time></trkpt><trkpt lat="44.42191924538804" lon="7.960564731845486"><ele>349.0</ele><time>2026-04-08T17:25:58Z</time></trkpt><trkpt lat="44.42207739743482" lon="7.960598885056468"><ele>351.0</ele><time>2026-04-08T17:25:59Z</time></trkpt><trkpt lat="44.42223155687082" lon="7.960632283446991"><ele>353.0</ele><time>2026-04-08T17:26:00Z</time></trkpt><trkpt lat="44.422386407661875" lon="7.960659511083526"><ele>355.0</ele><time>2026-04-08T17:26:01Z</time></trkpt><trkpt lat="44.42253795149551" lon="7.9606912675564825"><ele>355.0</ele><time>2026-04-08T17:26:02Z</time></trkpt><trkpt lat="44.42269703828749" lon="7.960726241967042"><ele>355.0</ele><time>2026-04-08T17:26:03Z</time></trkpt><trkpt lat="44.42285182253605" lon="7.960755393359039"><ele>355.0</ele><time>2026-04-08T17:26:04Z</time></trkpt><trkpt lat="44.422995526575896" lon="7.960780770124705"><ele>355.66666666666663</ele><time>2026-04-08T17:26:05Z</time></trkpt><trkpt lat="44.42314044284909" lon="7.960810086174613"><ele>356.3333333333333</ele><time>2026-04-08T17:26:06Z</time></trkpt><trkpt lat="44.42329530273566" lon="7.960828936166535"><ele>357.0</ele><time>2026-04-08T17:26:07Z</time></trkpt><trkpt lat="44.4234431605566" lon="7.960838656715129"><ele>357.0</ele><time>2026-04-08T17:26:08Z</time></trkpt><trkpt lat="44.423587071872255" lon="7.960838179475971"><ele>357.0</ele><time>2026-04-08T17:26:09Z</time></trkpt><trkpt lat="44.423731909660084" lon="7.960821431969844"><ele>357.0</ele><time>2026-04-08T17:26:10Z</time></trkpt><trkpt lat="44.42388774863353" lon="7.960793052226079"><ele>357.0</ele><time>2026-04-08T17:26:11Z</time></trkpt><trkpt lat="44.42402283661815" lon="7.960753499522766"><ele>358.3333333333333</ele><time>2026-04-08T17:26:12Z</time></trkpt><trkpt lat="44.4241734034884" lon="7.960692704249908"><ele>359.66666666666663</ele><time>2026-04-08T17:26:13Z</time></trkpt><trkpt lat="44.424320423672256" lon="7.960630422083089"><ele>361.0</ele><time>2026-04-08T17:26:14Z</time></trkpt><trkpt lat="44.42446715157227" lon="7.960542972401209"><ele>361.0</ele><time>2026-04-08T17:26:14.999Z</time></trkpt><trkpt lat="44.424615406417985" lon="7.9604529465709275"><ele>361.0</ele><time>2026-04-08T17:26:15.999Z</time></trkpt><trkpt lat="44.42475409429682" lon="7.960350579427135"><ele>361.0</ele><time>2026-04-08T17:26:16.999Z</time></trkpt><trkpt lat="44.42488658193494" lon="7.960240908520514"><ele>360.3333333333333</ele><time>2026-04-08T17:26:17.999Z</time></trkpt><trkpt lat="44.42500809230184" lon="7.960126416397185"><ele>359.6666666666667</ele><time>2026-04-08T17:26:18.999Z</time></trkpt><trkpt lat="44.42513121181673" lon="7.959989951169998"><ele>359.0</ele><time>2026-04-08T17:26:19.999Z</time></trkpt><trkpt lat="44.425240847324986" lon="7.9598540910075135"><ele>359.0</ele><time>2026-04-08T17:26:20.999Z</time></trkpt><trkpt lat="44.425367327766374" lon="7.9596980997987785"><ele>359.0</ele><time>2026-04-08T17:26:21.999Z</time></trkpt><trkpt lat="44.425466578083565" lon="7.959538069167563"><ele>359.0</ele><time>2026-04-08T17:26:22.999Z</time></trkpt><trkpt lat="44.425573833755244" lon="7.9593720295708765"><ele>358.33333333333337</ele><time>2026-04-08T17:26:23.999Z</time></trkpt><trkpt lat="44.425662290807004" lon="7.95920333040107"><ele>357.6666666666667</ele><time>2026-04-08T17:26:24.999Z</time></trkpt><trkpt lat="44.4257500877927" lon="7.958997702488746"><ele>357.0</ele><time>2026-04-08T17:26:25.999Z</time></trkpt><trkpt lat="44.42583237787575" lon="7.958775621772586"><ele>355.3333333333333</ele><time>2026-04-08T17:26:26.999Z</time></trkpt><trkpt lat="44.42591180429799" lon="7.958547151706436"><ele>353.66666666666663</ele><time>2026-04-08T17:26:27.999Z</time></trkpt><trkpt lat="44.42598239070518" lon="7.958291262890833"><ele>352.0</ele><time>2026-04-08T17:26:28.999Z</time></trkpt><trkpt lat="44.42604010585591" lon="7.958036675330414"><ele>350.3333333333333</ele><time>2026-04-08T17:26:29.999Z</time></trkpt><trkpt lat="44.42610683475411" lon="7.9577935930950705"><ele>348.6666666666667</ele><time>2026-04-08T17:26:30.999Z</time></trkpt><trkpt lat="44.426168243287854" lon="7.957564315256646"><ele>347.0</ele><time>2026-04-08T17:26:31.999Z</time></trkpt><trkpt lat="44.42622678607139" lon="7.95734146643749"><ele>345.33333333333337</ele><time>2026-04-08T17:26:32.999Z</time></trkpt><trkpt lat="44.42627680972923" lon="7.957127813890555"><ele>343.6666666666667</ele><time>2026-04-08T17:26:33.999Z</time></trkpt><trkpt lat="44.42632799300954" lon="7.956913508680588"><ele>342.0</ele><time>2026-04-08T17:26:34.999Z</time></trkpt><trkpt lat="44.42637803984877" lon="7.956710536385593"><ele>337.6666666666667</ele><time>2026-04-08T17:26:35.999Z</time></trkpt><trkpt lat="44.42642040061538" lon="7.956495850069019"><ele>333.33333333333337</ele><time>2026-04-08T17:26:36.999Z</time></trkpt><trkpt lat="44.426452482318375" lon="7.956274834548426"><ele>329.0</ele><time>2026-04-08T17:26:37.999Z</time></trkpt><trkpt lat="44.42647824092909" lon="7.956048395935918"><ele>329.0</ele><time>2026-04-08T17:26:38.999Z</time></trkpt><trkpt lat="44.42649549840347" lon="7.95581830616491"><ele>329.0</ele><time>2026-04-08T17:26:39.999Z</time></trkpt><trkpt lat="44.42651090288102" lon="7.95558047341469"><ele>329.0</ele><time>2026-04-08T17:26:40.999Z</time></trkpt><trkpt lat="44.4265159864892" lon="7.955338812452544"><ele>329.0</ele><time>2026-04-08T17:26:41.999Z</time></trkpt><trkpt lat="44.42650356061007" lon="7.9550932605805285"><ele>329.0</ele><time>2026-04-08T17:26:42.999Z</time></trkpt><trkpt lat="44.42648228409491" lon="7.954837158443758"><ele>329.0</ele><time>2026-04-08T17:26:43.999Z</time></trkpt><trkpt lat="44.42646073439911" lon="7.9545891701995926"><ele>331.0</ele><time>2026-04-08T17:26:44.999Z</time></trkpt><trkpt lat="44.426427843427554" lon="7.9543106439427556"><ele>333.0</ele><time>2026-04-08T17:26:45.999Z</time></trkpt><trkpt lat="44.42637658313126" lon="7.954026283515479"><ele>335.0</ele><time>2026-04-08T17:26:46.999Z</time></trkpt><trkpt lat="44.42631705691625" lon="7.953752439943278"><ele>335.33333333333337</ele><time>2026-04-08T17:26:47.999Z</time></trkpt><trkpt lat="44.42625533836099" lon="7.953462906322287"><ele>335.6666666666667</ele><time>2026-04-08T17:26:48.999Z</time></trkpt><trkpt lat="44.426190239751165" lon="7.953177671754405"><ele>336.0</ele><time>2026-04-08T17:26:49.999Z</time></trkpt><trkpt lat="44.42611236054851" lon="7.9528884635273815"><ele>336.0</ele><time>2026-04-08T17:26:50.999Z</time></trkpt><trkpt lat="44.42604129105162" lon="7.952584482561972"><ele>336.0</ele><time>2026-04-08T17:26:51.999Z</time></trkpt><trkpt lat="44.42595979100656" lon="7.952278666086915"><ele>337.5</ele><time>2026-04-08T17:26:52.999Z</time></trkpt><trkpt lat="44.42588636647757" lon="7.9519625006965855"><ele>339.0</ele><time>2026-04-08T17:26:53.999Z</time></trkpt><trkpt lat="44.42580997745193" lon="7.95164709721867"><ele>340.3333333333333</ele><time>2026-04-08T17:26:54.999Z</time></trkpt><trkpt lat="44.42574749500636" lon="7.9513483047252"><ele>341.66666666666663</ele><time>2026-04-08T17:26:55.999Z</time></trkpt><trkpt lat="44.42569757964727" lon="7.951063150438883"><ele>343.0</ele><time>2026-04-08T17:26:56.999Z</time></trkpt><trkpt lat="44.425639470084924" lon="7.950793801240223"><ele>343.66666666666663</ele><time>2026-04-08T17:26:57.999Z</time></trkpt><trkpt lat="44.425578507672896" lon="7.950518680011102"><ele>344.3333333333333</ele><time>2026-04-08T17:26:58.999Z</time></trkpt><trkpt lat="44.42553115404399" lon="7.9502423210948745"><ele>345.0</ele><time>2026-04-08T17:26:59.999Z</time></trkpt><trkpt lat="44.42549027186953" lon="7.949952353860771"><ele>344.0</ele><time>2026-04-08T17:27:00.999Z</time></trkpt><trkpt lat="44.425461061583945" lon="7.949671869512812"><ele>343.0</ele><time>2026-04-08T17:27:01.999Z</time></trkpt><trkpt lat="44.4254337512394" lon="7.949393210140401"><ele>342.0</ele><time>2026-04-08T17:27:02.999Z</time></trkpt><trkpt lat="44.4254225238087" lon="7.949111279271102"><ele>342.0</ele><time>2026-04-08T17:27:03.999Z</time></trkpt><trkpt lat="44.425425473295" lon="7.948851836348715"><ele>342.0</ele><time>2026-04-08T17:27:04.999Z</time></trkpt><trkpt lat="44.42542942480354" lon="7.948593238216429"><ele>342.0</ele><time>2026-04-08T17:27:05.999Z</time></trkpt><trkpt lat="44.42545526287028" lon="7.9483295954022335"><ele>342.6666666666667</ele><time>2026-04-08T17:27:06.999Z</time></trkpt><trkpt lat="44.425480744887395" lon="7.948066966592867"><ele>343.33333333333337</ele><time>2026-04-08T17:27:07.999Z</time></trkpt><trkpt lat="44.425522207192046" lon="7.94780241999102"><ele>344.0</ele><time>2026-04-08T17:27:08.999Z</time></trkpt><trkpt lat="44.42557284950474" lon="7.947544353784817"><ele>343.0</ele><time>2026-04-08T17:27:09.999Z</time></trkpt><trkpt lat="44.42564049796747" lon="7.947291427851668"><ele>342.0</ele><time>2026-04-08T17:27:10.999Z</time></trkpt><trkpt lat="44.42570560418971" lon="7.947036209243146"><ele>341.0</ele><time>2026-04-08T17:27:11.999Z</time></trkpt><trkpt lat="44.425789659752155" lon="7.946791107525919"><ele>339.6666666666667</ele><time>2026-04-08T17:27:12.999Z</time></trkpt><trkpt lat="44.425884068187685" lon="7.9465356487213406"><ele>338.3333333333333</ele><time>2026-04-08T17:27:13.999Z</time></trkpt><trkpt lat="44.42598700178379" lon="7.94627284197314"><ele>337.0</ele><time>2026-04-08T17:27:14.998Z</time></trkpt><trkpt lat="44.42610035134118" lon="7.946011169348037"><ele>336.0</ele><time>2026-04-08T17:27:15.998Z</time></trkpt><trkpt lat="44.42620900664746" lon="7.945747193413619"><ele>335.0</ele><time>2026-04-08T17:27:16.998Z</time></trkpt><trkpt lat="44.42631762967824" lon="7.945491308586394"><ele>334.0</ele><time>2026-04-08T17:27:17.998Z</time></trkpt><trkpt lat="44.42642699354453" lon="7.945229991872673"><ele>332.66666666666663</ele><time>2026-04-08T17:27:18.998Z</time></trkpt><trkpt lat="44.426535513793475" lon="7.944966534626726"><ele>331.3333333333333</ele><time>2026-04-08T17:27:19.998Z</time></trkpt><trkpt lat="44.42663309096323" lon="7.944730167380389"><ele>330.0</ele><time>2026-04-08T17:27:20.998Z</time></trkpt><trkpt lat="44.4267309071956" lon="7.944515147156893"><ele>330.0</ele><time>2026-04-08T17:27:21.998Z</time></trkpt><trkpt lat="44.42682029937736" lon="7.944291645010826"><ele>330.0</ele><time>2026-04-08T17:27:22.998Z</time></trkpt><trkpt lat="44.42690439938055" lon="7.944079008093792"><ele>330.0</ele><time>2026-04-08T17:27:23.998Z</time></trkpt><trkpt lat="44.426981897722264" lon="7.943870553142643"><ele>330.6666666666667</ele><time>2026-04-08T17:27:24.998Z</time></trkpt><trkpt lat="44.42705193910552" lon="7.943639347336231"><ele>331.33333333333337</ele><time>2026-04-08T17:27:25.998Z</time></trkpt><trkpt lat="44.427122477538425" lon="7.9434191512553545"><ele>332.0</ele><time>2026-04-08T17:27:26.998Z</time></trkpt><trkpt lat="44.42718978079734" lon="7.943217242485999"><ele>332.0</ele><time>2026-04-08T17:27:27.998Z</time></trkpt><trkpt lat="44.42719096080671" lon="7.942960593722547"><ele>332.0</ele><time>2026-04-08T17:27:28.998Z</time></trkpt><trkpt lat="44.42722779188898" lon="7.942732684956022"><ele>332.0</ele><time>2026-04-08T17:27:29.998Z</time></trkpt><trkpt lat="44.42725686473869" lon="7.94251706772279"><ele>334.33333333333337</ele><time>2026-04-08T17:27:30.998Z</time></trkpt><trkpt lat="44.42727782955522" lon="7.94229658728554"><ele>336.6666666666667</ele><time>2026-04-08T17:27:31.998Z</time></trkpt><trkpt lat="44.42729637607276" lon="7.9420789273054275"><ele>339.0</ele><time>2026-04-08T17:27:32.998Z</time></trkpt><trkpt lat="44.42730514810347" lon="7.941864381567623"><ele>339.6666666666667</ele><time>2026-04-08T17:27:33.998Z</time></trkpt><trkpt lat="44.42730623784719" lon="7.941637136779116"><ele>340.33333333333337</ele><time>2026-04-08T17:27:34.998Z</time></trkpt><trkpt lat="44.42729400022604" lon="7.941404607921958"><ele>341.0</ele><time>2026-04-08T17:27:35.998Z</time></trkpt><trkpt lat="44.42727345703109" lon="7.941174178341189"><ele>341.0</ele><time>2026-04-08T17:27:37Z</time></trkpt><trkpt lat="44.42724895286968" lon="7.940967812215225"><ele>341.0</ele><time>2026-04-08T17:27:38Z</time></trkpt><trkpt lat="44.4272222807907" lon="7.9407395353687384"><ele>341.0</ele><time>2026-04-08T17:27:39Z</time></trkpt><trkpt lat="44.427182375715894" lon="7.940516736830102"><ele>341.33333333333337</ele><time>2026-04-08T17:27:40Z</time></trkpt><trkpt lat="44.42714117694804" lon="7.940287344067541"><ele>341.6666666666667</ele><time>2026-04-08T17:27:41Z</time></trkpt><trkpt lat="44.4270878283114" lon="7.940041034963431"><ele>342.0</ele><time>2026-04-08T17:27:42Z</time></trkpt><trkpt lat="44.427029206036636" lon="7.939806990251377"><ele>343.3333333333333</ele><time>2026-04-08T17:27:43Z</time></trkpt><trkpt lat="44.42696686783132" lon="7.939567984589741"><ele>344.66666666666663</ele><time>2026-04-08T17:27:44Z</time></trkpt><trkpt lat="44.42690220337397" lon="7.939344273365863"><ele>346.0</ele><time>2026-04-08T17:27:45Z</time></trkpt><trkpt lat="44.4268287594669" lon="7.9391150269991035"><ele>346.3333333333333</ele><time>2026-04-08T17:27:46Z</time></trkpt><trkpt lat="44.426748432344716" lon="7.938885148512194"><ele>346.6666666666667</ele><time>2026-04-08T17:27:47Z</time></trkpt><trkpt lat="44.426669332001" lon="7.93867810675799"><ele>347.0</ele><time>2026-04-08T17:27:48Z</time></trkpt><trkpt lat="44.4265974616129" lon="7.938474761238311"><ele>345.6666666666667</ele><time>2026-04-08T17:27:49Z</time></trkpt><trkpt lat="44.42651442416617" lon="7.938265023471784"><ele>344.3333333333333</ele><time>2026-04-08T17:27:50Z</time></trkpt><trkpt lat="44.426417015501144" lon="7.938059216862039"><ele>343.0</ele><time>2026-04-08T17:27:51Z</time></trkpt><trkpt lat="44.426324608641195" lon="7.93787750102644"><ele>343.0</ele><time>2026-04-08T17:27:52Z</time></trkpt><trkpt lat="44.42621923593493" lon="7.937694773946625"><ele>343.0</ele><time>2026-04-08T17:27:53Z</time></trkpt><trkpt lat="44.42610984219517" lon="7.937524599572012"><ele>343.0</ele><time>2026-04-08T17:27:54Z</time></trkpt><trkpt lat="44.425991617079454" lon="7.937346087713855"><ele>343.0</ele><time>2026-04-08T17:27:55Z</time></trkpt><trkpt lat="44.42587459499332" lon="7.937183483044633"><ele>343.0</ele><time>2026-04-08T17:27:56Z</time></trkpt><trkpt lat="44.42575485011594" lon="7.937021518264557"><ele>343.0</ele><time>2026-04-08T17:27:57Z</time></trkpt><trkpt lat="44.4256296064488" lon="7.936871694567912"><ele>343.3333333333333</ele><time>2026-04-08T17:27:58Z</time></trkpt><trkpt lat="44.42549618279616" lon="7.936716157625568"><ele>343.6666666666667</ele><time>2026-04-08T17:27:59Z</time></trkpt><trkpt lat="44.425356681846495" lon="7.936559994155542"><ele>344.0</ele><time>2026-04-08T17:28:00Z</time></trkpt><trkpt lat="44.42521221528533" lon="7.936419206675317"><ele>344.0</ele><time>2026-04-08T17:28:01Z</time></trkpt><trkpt lat="44.42506190314283" lon="7.936276331725684"><ele>344.0</ele><time>2026-04-08T17:28:02Z</time></trkpt><trkpt lat="44.42491244348663" lon="7.936150904574221"><ele>344.0</ele><time>2026-04-08T17:28:03Z</time></trkpt><trkpt lat="44.4247592311222" lon="7.936037662497519"><ele>343.0</ele><time>2026-04-08T17:28:04Z</time></trkpt><trkpt lat="44.42460209792592" lon="7.935933587713591"><ele>342.0</ele><time>2026-04-08T17:28:05Z</time></trkpt><trkpt lat="44.424441599504874" lon="7.93582959455469"><ele>341.0</ele><time>2026-04-08T17:28:06Z</time></trkpt><trkpt lat="44.42427387603542" lon="7.935742347241048"><ele>341.0</ele><time>2026-04-08T17:28:07Z</time></trkpt><trkpt lat="44.42409630342822" lon="7.9356540012855525"><ele>341.0</ele><time>2026-04-08T17:28:08Z</time></trkpt><trkpt lat="44.42391226018833" lon="7.935584877535153"><ele>341.0</ele><time>2026-04-08T17:28:09Z</time></trkpt><trkpt lat="44.42372304989972" lon="7.935515715691883"><ele>340.6666666666667</ele><time>2026-04-08T17:28:10Z</time></trkpt><trkpt lat="44.42354163189258" lon="7.935455237162015"><ele>340.3333333333333</ele><time>2026-04-08T17:28:11Z</time></trkpt><trkpt lat="44.42336290772246" lon="7.935406205217746"><ele>340.0</ele><time>2026-04-08T17:28:12Z</time></trkpt><trkpt lat="44.42318117099455" lon="7.935353526166636"><ele>340.0</ele><time>2026-04-08T17:28:13Z</time></trkpt><trkpt lat="44.4229974506322" lon="7.935290853646125"><ele>340.0</ele><time>2026-04-08T17:28:14Z</time></trkpt><trkpt lat="44.422804891111404" lon="7.935235850814021"><ele>340.0</ele><time>2026-04-08T17:28:15Z</time></trkpt><trkpt lat="44.422631800563686" lon="7.935170613196285"><ele>339.66666666666663</ele><time>2026-04-08T17:28:16Z</time></trkpt><trkpt lat="44.42245989586714" lon="7.93511450540591"><ele>339.3333333333333</ele><time>2026-04-08T17:28:17Z</time></trkpt><trkpt lat="44.42227997657513" lon="7.93503803374077"><ele>339.0</ele><time>2026-04-08T17:28:18Z</time></trkpt><trkpt lat="44.422103082399815" lon="7.93494279326152"><ele>339.0</ele><time>2026-04-08T17:28:19Z</time></trkpt><trkpt lat="44.42191755676905" lon="7.934825164764579"><ele>339.0</ele><time>2026-04-08T17:28:20Z</time></trkpt><trkpt lat="44.4217387824788" lon="7.934698547846765"><ele>339.0</ele><time>2026-04-08T17:28:20.999Z</time></trkpt><trkpt lat="44.42155608867591" lon="7.934561589779782"><ele>339.0</ele><time>2026-04-08T17:28:21.999Z</time></trkpt><trkpt lat="44.421368782705684" lon="7.934424674448078"><ele>339.0</ele><time>2026-04-08T17:28:22.999Z</time></trkpt><trkpt lat="44.42117194501331" lon="7.934277217690309"><ele>339.0</ele><time>2026-04-08T17:28:23.999Z</time></trkpt><trkpt lat="44.42099785860626" lon="7.934142686194103"><ele>338.0</ele><time>2026-04-08T17:28:24.999Z</time></trkpt><trkpt lat="44.42082801999463" lon="7.934009821865203"><ele>337.0</ele><time>2026-04-08T17:28:25.999Z</time></trkpt><trkpt lat="44.42067322235872" lon="7.93389169037338"><ele>336.0</ele><time>2026-04-08T17:28:26.999Z</time></trkpt><trkpt lat="44.42050722132231" lon="7.9337711965640025"><ele>343.0</ele><time>2026-04-08T17:28:27.999Z</time></trkpt><trkpt lat="44.42034427079243" lon="7.933660853603946"><ele>350.0</ele><time>2026-04-08T17:28:28.999Z</time></trkpt><trkpt lat="44.42017583209103" lon="7.933556115814917"><ele>357.0</ele><time>2026-04-08T17:28:29.999Z</time></trkpt><trkpt lat="44.4200086464719" lon="7.933447657403206"><ele>351.6666666666667</ele><time>2026-04-08T17:28:30.999Z</time></trkpt><trkpt lat="44.41982770277376" lon="7.93335903001133"><ele>346.33333333333337</ele><time>2026-04-08T17:28:31.999Z</time></trkpt><trkpt lat="44.419644284750376" lon="7.933271796217738"><ele>341.0</ele><time>2026-04-08T17:28:32.999Z</time></trkpt><trkpt lat="44.419455191592895" lon="7.93319228496813"><ele>341.0</ele><time>2026-04-08T17:28:33.999Z</time></trkpt><trkpt lat="44.419257544570684" lon="7.933135088801135"><ele>341.0</ele><time>2026-04-08T17:28:34.999Z</time></trkpt><trkpt lat="44.419067614781646" lon="7.9331000048236495"><ele>341.0</ele><time>2026-04-08T17:28:35.999Z</time></trkpt><trkpt lat="44.418883455367876" lon="7.933063537060201"><ele>342.0</ele><time>2026-04-08T17:28:36.999Z</time></trkpt><trkpt lat="44.418705859464175" lon="7.933020366217333"><ele>343.0</ele><time>2026-04-08T17:28:37.999Z</time></trkpt><trkpt lat="44.418536496493516" lon="7.932965428443121"><ele>344.0</ele><time>2026-04-08T17:28:38.999Z</time></trkpt><trkpt lat="44.41836670392502" lon="7.93289678762731"><ele>344.0</ele><time>2026-04-08T17:28:39.999Z</time></trkpt><trkpt lat="44.418196079346124" lon="7.932820862739842"><ele>344.0</ele><time>2026-04-08T17:28:40.999Z</time></trkpt><trkpt lat="44.41802059112415" lon="7.932724896829406"><ele>344.0</ele><time>2026-04-08T17:28:41.999Z</time></trkpt><trkpt lat="44.4178472048122" lon="7.93262457876895"><ele>344.33333333333337</ele><time>2026-04-08T17:28:42.999Z</time></trkpt><trkpt lat="44.41767896479252" lon="7.932510546402163"><ele>344.6666666666667</ele><time>2026-04-08T17:28:43.999Z</time></trkpt><trkpt lat="44.417518939153545" lon="7.9323943744815315"><ele>345.0</ele><time>2026-04-08T17:28:44.999Z</time></trkpt><trkpt lat="44.4173629011682" lon="7.932252301736771"><ele>345.0</ele><time>2026-04-08T17:28:45.999Z</time></trkpt><trkpt lat="44.417210164086" lon="7.932089762699314"><ele>345.0</ele><time>2026-04-08T17:28:46.999Z</time></trkpt><trkpt lat="44.41705806917814" lon="7.931916642276423"><ele>345.0</ele><time>2026-04-08T17:28:47.999Z</time></trkpt><trkpt lat="44.41691385740638" lon="7.931733969438951"><ele>343.0</ele><time>2026-04-08T17:28:48.999Z</time></trkpt><trkpt lat="44.41677068445285" lon="7.931545752320665"><ele>341.0</ele><time>2026-04-08T17:28:49.999Z</time></trkpt><trkpt lat="44.416635308787285" lon="7.931363421167387"><ele>339.0</ele><time>2026-04-08T17:28:50.999Z</time></trkpt><trkpt lat="44.416500404737945" lon="7.931176870309762"><ele>339.0</ele><time>2026-04-08T17:28:51.999Z</time></trkpt><trkpt lat="44.4163677870396" lon="7.93099604722904"><ele>339.0</ele><time>2026-04-08T17:28:52.999Z</time></trkpt><trkpt lat="44.41624713087307" lon="7.930801021545453"><ele>339.0</ele><time>2026-04-08T17:28:53.999Z</time></trkpt><trkpt lat="44.41614403454772" lon="7.930598966236795"><ele>337.6666666666667</ele><time>2026-04-08T17:28:54.999Z</time></trkpt><trkpt lat="44.416054850398105" lon="7.930373690225547"><ele>336.33333333333337</ele><time>2026-04-08T17:28:55.999Z</time></trkpt><trkpt lat="44.41597130113121" lon="7.930138948651238"><ele>335.0</ele><time>2026-04-08T17:28:56.999Z</time></trkpt><trkpt lat="44.41589758689001" lon="7.929894128894819"><ele>335.0</ele><time>2026-04-08T17:28:57.999Z</time></trkpt><trkpt lat="44.41583775917211" lon="7.9296414576662855"><ele>335.0</ele><time>2026-04-08T17:28:58.999Z</time></trkpt><trkpt lat="44.41579265326622" lon="7.9293752630573575"><ele>335.0</ele><time>2026-04-08T17:28:59.999Z</time></trkpt><trkpt lat="44.415743018534506" lon="7.929097500170158"><ele>333.6666666666667</ele><time>2026-04-08T17:29:00.999Z</time></trkpt><trkpt lat="44.4156888076616" lon="7.928828280899149"><ele>332.3333333333333</ele><time>2026-04-08T17:29:01.999Z</time></trkpt><trkpt lat="44.415637731137735" lon="7.9285625960623305"><ele>331.0</ele><time>2026-04-08T17:29:02.999Z</time></trkpt><trkpt lat="44.41561317167243" lon="7.928280508921921"><ele>331.0</ele><time>2026-04-08T17:29:03.999Z</time></trkpt><trkpt lat="44.41558246690264" lon="7.927998904764559"><ele>331.0</ele><time>2026-04-08T17:29:04.999Z</time></trkpt><trkpt lat="44.41555037460446" lon="7.927704575555976"><ele>331.0</ele><time>2026-04-08T17:29:05.999Z</time></trkpt><trkpt lat="44.41551975820332" lon="7.927423782156618"><ele>329.0</ele><time>2026-04-08T17:29:06.999Z</time></trkpt><trkpt lat="44.415490091716364" lon="7.927151700696097"><ele>327.0</ele><time>2026-04-08T17:29:07.999Z</time></trkpt><trkpt lat="44.41546204547579" lon="7.92688899214397"><ele>325.0</ele><time>2026-04-08T17:29:08.999Z</time></trkpt><trkpt lat="44.415433440969764" lon="7.926620819526303"><ele>331.0</ele><time>2026-04-08T17:29:09.999Z</time></trkpt><trkpt lat="44.41540709171207" lon="7.926362024038146"><ele>337.0</ele><time>2026-04-08T17:29:10.999Z</time></trkpt><trkpt lat="44.415367147270345" lon="7.926100766163094"><ele>343.0</ele><time>2026-04-08T17:29:11.999Z</time></trkpt><trkpt lat="44.41535695822158" lon="7.925830082281898"><ele>343.0</ele><time>2026-04-08T17:29:12.999Z</time></trkpt><trkpt lat="44.41535482879704" lon="7.9255600337378445"><ele>343.0</ele><time>2026-04-08T17:29:13.999Z</time></trkpt><trkpt lat="44.415355929619" lon="7.9252729863843365"><ele>343.0</ele><time>2026-04-08T17:29:14.999Z</time></trkpt><trkpt lat="44.41537484839152" lon="7.924971236966625"><ele>342.66666666666663</ele><time>2026-04-08T17:29:15.999Z</time></trkpt><trkpt lat="44.41541463944733" lon="7.924674543286667"><ele>342.3333333333333</ele><time>2026-04-08T17:29:16.999Z</time></trkpt><trkpt lat="44.41544721847979" lon="7.924378713172649"><ele>342.0</ele><time>2026-04-08T17:29:17.999Z</time></trkpt><trkpt lat="44.415469738406244" lon="7.924088623417084"><ele>336.0</ele><time>2026-04-08T17:29:18.999Z</time></trkpt><trkpt lat="44.415520710889474" lon="7.923830465301206"><ele>330.0</ele><time>2026-04-08T17:29:19.999Z</time></trkpt><trkpt lat="44.41555574906247" lon="7.923575594102998"><ele>324.0</ele><time>2026-04-08T17:29:20.998Z</time></trkpt><trkpt lat="44.4156159198294" lon="7.923317531417277"><ele>324.0</ele><time>2026-04-08T17:29:21.998Z</time></trkpt><trkpt lat="44.41570141638683" lon="7.923060604251871"><ele>324.0</ele><time>2026-04-08T17:29:22.998Z</time></trkpt><trkpt lat="44.4157878661892" lon="7.922808012535558"><ele>324.0</ele><time>2026-04-08T17:29:23.998Z</time></trkpt><trkpt lat="44.415883378055646" lon="7.92256025550645"><ele>326.6666666666667</ele><time>2026-04-08T17:29:24.998Z</time></trkpt><trkpt lat="44.41598950985443" lon="7.922322851469082"><ele>329.33333333333337</ele><time>2026-04-08T17:29:25.998Z</time></trkpt><trkpt lat="44.41610133002097" lon="7.9220846826488245"><ele>332.0</ele><time>2026-04-08T17:29:26.998Z</time></trkpt><trkpt lat="44.41623008489075" lon="7.9218536817368115"><ele>329.0</ele><time>2026-04-08T17:29:27.998Z</time></trkpt><trkpt lat="44.416372972009405" lon="7.9216344318155"><ele>326.0</ele><time>2026-04-08T17:29:28.998Z</time></trkpt><trkpt lat="44.41653101947602" lon="7.921429461780955"><ele>323.0</ele><time>2026-04-08T17:29:29.998Z</time></trkpt><trkpt lat="44.41670313044453" lon="7.921230157148111"><ele>323.0</ele><time>2026-04-08T17:29:30.998Z</time></trkpt><trkpt lat="44.41688969301589" lon="7.92104671107973"><ele>323.0</ele><time>2026-04-08T17:29:31.998Z</time></trkpt><trkpt lat="44.41709425108815" lon="7.920872121862512"><ele>323.0</ele><time>2026-04-08T17:29:32.998Z</time></trkpt><trkpt lat="44.41728112336683" lon="7.920722216442292"><ele>323.0</ele><time>2026-04-08T17:29:33.998Z</time></trkpt><trkpt lat="44.41746052357873" lon="7.920597011300992"><ele>323.0</ele><time>2026-04-08T17:29:34.998Z</time></trkpt><trkpt lat="44.41763848794274" lon="7.920479700679407"><ele>323.0</ele><time>2026-04-08T17:29:35.998Z</time></trkpt><trkpt lat="44.41782069986651" lon="7.920371524318451"><ele>323.0</ele><time>2026-04-08T17:29:36.998Z</time></trkpt><trkpt lat="44.417994443810066" lon="7.920252791248864"><ele>323.0</ele><time>2026-04-08T17:29:37.998Z</time></trkpt><trkpt lat="44.418173804609786" lon="7.920128705276329"><ele>324.33333333333337</ele><time>2026-04-08T17:29:38.998Z</time></trkpt><trkpt lat="44.41834316385147" lon="7.920005509354399"><ele>325.6666666666667</ele><time>2026-04-08T17:29:39.998Z</time></trkpt><trkpt lat="44.41851696951718" lon="7.919886516292929"><ele>327.0</ele><time>2026-04-08T17:29:40.998Z</time></trkpt><trkpt lat="44.41868262871408" lon="7.91976984735755"><ele>323.0</ele><time>2026-04-08T17:29:41.998Z</time></trkpt><trkpt lat="44.41886208953904" lon="7.919634856210323"><ele>319.0</ele><time>2026-04-08T17:29:43Z</time></trkpt><trkpt lat="44.41903546520048" lon="7.919494534918259"><ele>315.0</ele><time>2026-04-08T17:29:44Z</time></trkpt><trkpt lat="44.419203745988675" lon="7.919362771011466"><ele>317.6666666666667</ele><time>2026-04-08T17:29:45Z</time></trkpt><trkpt lat="44.41936182212852" lon="7.919230943952177"><ele>320.33333333333337</ele><time>2026-04-08T17:29:46Z</time></trkpt><trkpt lat="44.41951863333948" lon="7.919098057557778"><ele>323.0</ele><time>2026-04-08T17:29:47Z</time></trkpt><trkpt lat="44.41967093709675" lon="7.918973382754434"><ele>323.0</ele><time>2026-04-08T17:29:48Z</time></trkpt><trkpt lat="44.41983405864267" lon="7.918843047176749"><ele>323.0</ele><time>2026-04-08T17:29:49Z</time></trkpt><trkpt lat="44.42000612726329" lon="7.918729530222404"><ele>323.0</ele><time>2026-04-08T17:29:50Z</time></trkpt><trkpt lat="44.420177086862864" lon="7.91863109710922"><ele>323.0</ele><time>2026-04-08T17:29:51Z</time></trkpt><trkpt lat="44.42035633894882" lon="7.918537614985178"><ele>323.0</ele><time>2026-04-08T17:29:52Z</time></trkpt><trkpt lat="44.42054260755531" lon="7.918455828266641"><ele>323.0</ele><time>2026-04-08T17:29:53Z</time></trkpt><trkpt lat="44.42073951653817" lon="7.918381314820557"><ele>324.6666666666667</ele><time>2026-04-08T17:29:54Z</time></trkpt><trkpt lat="44.42094693944372" lon="7.918348434867729"><ele>326.3333333333333</ele><time>2026-04-08T17:29:55Z</time></trkpt><trkpt lat="44.4211542338226" lon="7.918301604094102"><ele>328.0</ele><time>2026-04-08T17:29:56Z</time></trkpt><trkpt lat="44.421367854703554" lon="7.918257554005894"><ele>329.0</ele><time>2026-04-08T17:29:57Z</time></trkpt><trkpt lat="44.42156117011369" lon="7.91821503649417"><ele>330.0</ele><time>2026-04-08T17:29:58Z</time></trkpt><trkpt lat="44.42175333162263" lon="7.918145773217455"><ele>331.0</ele><time>2026-04-08T17:29:59Z</time></trkpt><trkpt lat="44.421944774789" lon="7.918092965557751"><ele>331.0</ele><time>2026-04-08T17:30:00Z</time></trkpt><trkpt lat="44.422142089944145" lon="7.918029821223989"><ele>331.0</ele><time>2026-04-08T17:30:01Z</time></trkpt><trkpt lat="44.42233183398407" lon="7.91795476343103"><ele>331.0</ele><time>2026-04-08T17:30:02Z</time></trkpt><trkpt lat="44.42250752543626" lon="7.917881837730368"><ele>335.0</ele><time>2026-04-08T17:30:03Z</time></trkpt><trkpt lat="44.42267079622871" lon="7.917799431676557"><ele>339.0</ele><time>2026-04-08T17:30:04Z</time></trkpt><trkpt lat="44.4228235771594" lon="7.917724074668118"><ele>343.0</ele><time>2026-04-08T17:30:05Z</time></trkpt><trkpt lat="44.42297771299706" lon="7.917650472786778"><ele>344.0</ele><time>2026-04-08T17:30:06Z</time></trkpt><trkpt lat="44.42313326056123" lon="7.917581170314357"><ele>345.0</ele><time>2026-04-08T17:30:07Z</time></trkpt><trkpt lat="44.423288163637835" lon="7.917506712012708"><ele>346.0</ele><time>2026-04-08T17:30:08Z</time></trkpt><trkpt lat="44.4234388298464" lon="7.917462858134804"><ele>338.0</ele><time>2026-04-08T17:30:09Z</time></trkpt><trkpt lat="44.423592964942365" lon="7.917397702254315"><ele>330.0</ele><time>2026-04-08T17:30:10Z</time></trkpt><trkpt lat="44.42374099684922" lon="7.917313580600708"><ele>322.0</ele><time>2026-04-08T17:30:11Z</time></trkpt><trkpt lat="44.42389384800071" lon="7.917251916834505"><ele>321.3333333333333</ele><time>2026-04-08T17:30:12Z</time></trkpt><trkpt lat="44.42406837624999" lon="7.917212606843746"><ele>320.6666666666667</ele><time>2026-04-08T17:30:13Z</time></trkpt><trkpt lat="44.42423278342328" lon="7.917152273709959"><ele>320.0</ele><time>2026-04-08T17:30:14Z</time></trkpt><trkpt lat="44.424400824629146" lon="7.917094931963179"><ele>320.0</ele><time>2026-04-08T17:30:15Z</time></trkpt><trkpt lat="44.424558133689345" lon="7.9170524272827"><ele>320.0</ele><time>2026-04-08T17:30:16Z</time></trkpt><trkpt lat="44.424716877310836" lon="7.9170111482802605"><ele>320.0</ele><time>2026-04-08T17:30:17Z</time></trkpt><trkpt lat="44.42488081224929" lon="7.916971819759834"><ele>317.33333333333337</ele><time>2026-04-08T17:30:18Z</time></trkpt><trkpt lat="44.42504552376623" lon="7.916932304669525"><ele>314.6666666666667</ele><time>2026-04-08T17:30:19Z</time></trkpt><trkpt lat="44.42521473718481" lon="7.9168885963076"><ele>312.0</ele><time>2026-04-08T17:30:20Z</time></trkpt><trkpt lat="44.42538091935909" lon="7.91684604439356"><ele>310.3333333333333</ele><time>2026-04-08T17:30:21Z</time></trkpt><trkpt lat="44.425559928147266" lon="7.916797380523878"><ele>308.66666666666663</ele><time>2026-04-08T17:30:22Z</time></trkpt><trkpt lat="44.42574693481791" lon="7.916750368540263"><ele>307.0</ele><time>2026-04-08T17:30:23Z</time></trkpt><trkpt lat="44.42593530595219" lon="7.916703478937745"><ele>307.0</ele><time>2026-04-08T17:30:24Z</time></trkpt><trkpt lat="44.42612632877951" lon="7.916660779551945"><ele>307.0</ele><time>2026-04-08T17:30:25Z</time></trkpt><trkpt lat="44.426291020938116" lon="7.91661929326077"><ele>307.0</ele><time>2026-04-08T17:30:25.999Z</time></trkpt><trkpt lat="44.426444471515914" lon="7.916581798771812"><ele>307.0</ele><time>2026-04-08T17:30:26.999Z</time></trkpt><trkpt lat="44.42658076672109" lon="7.916545311697018"><ele>307.0</ele><time>2026-04-08T17:30:27.999Z</time></trkpt><trkpt lat="44.42671423510208" lon="7.9165111099069065"><ele>307.0</ele><time>2026-04-08T17:30:28.999Z</time></trkpt><trkpt lat="44.42684311802621" lon="7.9164935598305455"><ele>307.0</ele><time>2026-04-08T17:30:29.999Z</time></trkpt><trkpt lat="44.426963425147235" lon="7.916449712312533"><ele>307.0</ele><time>2026-04-08T17:30:30.999Z</time></trkpt><trkpt lat="44.42708132659244" lon="7.916387158171313"><ele>307.0</ele><time>2026-04-08T17:30:31.999Z</time></trkpt><trkpt lat="44.42720406818272" lon="7.916306951379521"><ele>307.0</ele><time>2026-04-08T17:30:32.999Z</time></trkpt><trkpt lat="44.42732642977466" lon="7.916202797181052"><ele>307.0</ele><time>2026-04-08T17:30:33.999Z</time></trkpt><trkpt lat="44.4274441204086" lon="7.916084554073705"><ele>309.75</ele><time>2026-04-08T17:30:34.999Z</time></trkpt><trkpt lat="44.42755542789824" lon="7.915951064265292"><ele>312.5</ele><time>2026-04-08T17:30:35.999Z</time></trkpt><trkpt lat="44.427660199278215" lon="7.915801575163155"><ele>315.25</ele><time>2026-04-08T17:30:36.999Z</time></trkpt><trkpt lat="44.427757259698204" lon="7.915645515650901"><ele>318.0</ele><time>2026-04-08T17:30:37.999Z</time></trkpt><trkpt lat="44.42784626042052" lon="7.915469529867456"><ele>318.3333333333333</ele><time>2026-04-08T17:30:38.999Z</time></trkpt><trkpt lat="44.42792276359629" lon="7.915276446616781"><ele>318.66666666666663</ele><time>2026-04-08T17:30:39.999Z</time></trkpt><trkpt lat="44.42798816300752" lon="7.915082958873224"><ele>319.0</ele><time>2026-04-08T17:30:40.999Z</time></trkpt><trkpt lat="44.42804157060762" lon="7.914882336560505"><ele>326.66666666666663</ele><time>2026-04-08T17:30:41.999Z</time></trkpt><trkpt lat="44.42807835722533" lon="7.914667630872916"><ele>334.3333333333333</ele><time>2026-04-08T17:30:42.999Z</time></trkpt><trkpt lat="44.428098420851086" lon="7.914451458879503"><ele>342.0</ele><time>2026-04-08T17:30:43.999Z</time></trkpt><trkpt lat="44.42810154759946" lon="7.914216376934706"><ele>342.3333333333333</ele><time>2026-04-08T17:30:44.999Z</time></trkpt><trkpt lat="44.42809533380552" lon="7.913988856814844"><ele>342.66666666666663</ele><time>2026-04-08T17:30:45.999Z</time></trkpt><trkpt lat="44.4280837532037" lon="7.913756731588626"><ele>343.0</ele><time>2026-04-08T17:30:46.999Z</time></trkpt><trkpt lat="44.428078447718825" lon="7.913520024592153"><ele>344.3333333333333</ele><time>2026-04-08T17:30:47.999Z</time></trkpt><trkpt lat="44.42806822844734" lon="7.913274211039513"><ele>345.6666666666667</ele><time>2026-04-08T17:30:48.999Z</time></trkpt><trkpt lat="44.42809520102062" lon="7.913029945136598"><ele>347.0</ele><time>2026-04-08T17:30:49.999Z</time></trkpt><trkpt lat="44.42813557658003" lon="7.912785838594053"><ele>347.6666666666667</ele><time>2026-04-08T17:30:50.999Z</time></trkpt><trkpt lat="44.428194724270156" lon="7.912537054852502"><ele>348.3333333333333</ele><time>2026-04-08T17:30:51.999Z</time></trkpt><trkpt lat="44.42823305801082" lon="7.912286524501875"><ele>349.0</ele><time>2026-04-08T17:30:52.999Z</time></trkpt><trkpt lat="44.42827555041624" lon="7.912055679266113"><ele>349.0</ele><time>2026-04-08T17:30:53.999Z</time></trkpt><trkpt lat="44.428305981071865" lon="7.9118140796859775"><ele>349.0</ele><time>2026-04-08T17:30:54.999Z</time></trkpt><trkpt lat="44.42831750430892" lon="7.911565191327528"><ele>349.0</ele><time>2026-04-08T17:30:55.999Z</time></trkpt><trkpt lat="44.42832041427089" lon="7.9113263717036535"><ele>348.66666666666663</ele><time>2026-04-08T17:30:56.999Z</time></trkpt><trkpt lat="44.428313374467926" lon="7.911093751105056"><ele>348.3333333333333</ele><time>2026-04-08T17:30:57.999Z</time></trkpt><trkpt lat="44.428297442364865" lon="7.910862937965884"><ele>348.0</ele><time>2026-04-08T17:30:58.999Z</time></trkpt><trkpt lat="44.42827388654739" lon="7.910649492210853"><ele>348.0</ele><time>2026-04-08T17:30:59.999Z</time></trkpt><trkpt lat="44.42823876556433" lon="7.910423465428135"><ele>348.0</ele><time>2026-04-08T17:31:00.999Z</time></trkpt><trkpt lat="44.42818607500911" lon="7.910209776368502"><ele>348.0</ele><time>2026-04-08T17:31:01.999Z</time></trkpt><trkpt lat="44.428118698614654" lon="7.9099829189841895"><ele>350.25</ele><time>2026-04-08T17:31:02.999Z</time></trkpt><trkpt lat="44.428054572119564" lon="7.909790780558921"><ele>352.5</ele><time>2026-04-08T17:31:03.999Z</time></trkpt><trkpt lat="44.42798559394131" lon="7.909606321403546"><ele>354.75</ele><time>2026-04-08T17:31:04.999Z</time></trkpt><trkpt lat="44.42792351419231" lon="7.909425214524673"><ele>357.0</ele><time>2026-04-08T17:31:05.999Z</time></trkpt><trkpt lat="44.42787144681504" lon="7.909240152556375"><ele>352.25</ele><time>2026-04-08T17:31:06.999Z</time></trkpt><trkpt lat="44.42782590929183" lon="7.909046688875314"><ele>347.5</ele><time>2026-04-08T17:31:07.999Z</time></trkpt><trkpt lat="44.42778296227662" lon="7.9088385696647014"><ele>342.75</ele><time>2026-04-08T17:31:08.999Z</time></trkpt><trkpt lat="44.42774895123829" lon="7.908644321870543"><ele>338.0</ele><time>2026-04-08T17:31:09.999Z</time></trkpt><trkpt lat="44.427722912378584" lon="7.908471680595072"><ele>339.0</ele><time>2026-04-08T17:31:10.999Z</time></trkpt><trkpt lat="44.42770232989274" lon="7.908303472942088"><ele>340.0</ele><time>2026-04-08T17:31:11.999Z</time></trkpt><trkpt lat="44.427695370320464" lon="7.908159793043635"><ele>341.0</ele><time>2026-04-08T17:31:12.999Z</time></trkpt><trkpt lat="44.42770588586215" lon="7.908038253548879"><ele>342.0</ele><time>2026-04-08T17:31:13.999Z</time></trkpt><trkpt lat="44.427733515667555" lon="7.907909891597956"><ele>343.0</ele><time>2026-04-08T17:31:14.999Z</time></trkpt><trkpt lat="44.42777767031079" lon="7.907782410270378"><ele>343.0</ele><time>2026-04-08T17:31:15.999Z</time></trkpt><trkpt lat="44.42783515732823" lon="7.907655179904089"><ele>343.0</ele><time>2026-04-08T17:31:16.999Z</time></trkpt><trkpt lat="44.42790139056228" lon="7.907532030896518"><ele>343.0</ele><time>2026-04-08T17:31:17.999Z</time></trkpt><trkpt lat="44.427963929263356" lon="7.907419198681223"><ele>343.0</ele><time>2026-04-08T17:31:18.999Z</time></trkpt><trkpt lat="44.42803389966321" lon="7.907331962705733"><ele>343.0</ele><time>2026-04-08T17:31:19.999Z</time></trkpt><trkpt lat="44.428128230460395" lon="7.907271943965145"><ele>346.2</ele><time>2026-04-08T17:31:20.999Z</time></trkpt><trkpt lat="44.4282250674073" lon="7.907234614833501"><ele>349.4</ele><time>2026-04-08T17:31:21.999Z</time></trkpt><trkpt lat="44.42832729416533" lon="7.907219545815848"><ele>352.59999999999997</ele><time>2026-04-08T17:31:22.999Z</time></trkpt><trkpt lat="44.42842679787441" lon="7.907236406313725"><ele>355.79999999999995</ele><time>2026-04-08T17:31:23.999Z</time></trkpt><trkpt lat="44.428531278066735" lon="7.907274056179538"><ele>359.0</ele><time>2026-04-08T17:31:24.999Z</time></trkpt><trkpt lat="44.42864270467154" lon="7.907329529065225"><ele>359.0</ele><time>2026-04-08T17:31:25.998Z</time></trkpt><trkpt lat="44.42873971962855" lon="7.907419584064801"><ele>359.0</ele><time>2026-04-08T17:31:26.998Z</time></trkpt><trkpt lat="44.42883560364693" lon="7.907538280729725"><ele>359.0</ele><time>2026-04-08T17:31:27.998Z</time></trkpt><trkpt lat="44.42893587547486" lon="7.907688700905225"><ele>359.0</ele><time>2026-04-08T17:31:28.998Z</time></trkpt><trkpt lat="44.42903989533349" lon="7.907838167728709"><ele>359.6666666666667</ele><time>2026-04-08T17:31:29.998Z</time></trkpt><trkpt lat="44.429136044191274" lon="7.908008374282441"><ele>360.3333333333333</ele><time>2026-04-08T17:31:30.998Z</time></trkpt><trkpt lat="44.42923740266225" lon="7.908187560430075"><ele>361.0</ele><time>2026-04-08T17:31:31.998Z</time></trkpt><trkpt lat="44.429347706634374" lon="7.908370286019046"><ele>361.3333333333333</ele><time>2026-04-08T17:31:32.998Z</time></trkpt><trkpt lat="44.4294604404705" lon="7.908558646756514"><ele>361.6666666666667</ele><time>2026-04-08T17:31:33.998Z</time></trkpt><trkpt lat="44.42958566084518" lon="7.908751836624643"><ele>362.0</ele><time>2026-04-08T17:31:34.998Z</time></trkpt><trkpt lat="44.42969923754097" lon="7.908939602880557"><ele>362.0</ele><time>2026-04-08T17:31:35.998Z</time></trkpt><trkpt lat="44.42980169832496" lon="7.9091104877549085"><ele>362.0</ele><time>2026-04-08T17:31:36.998Z</time></trkpt><trkpt lat="44.42990215351026" lon="7.909268378641985"><ele>362.0</ele><time>2026-04-08T17:31:37.998Z</time></trkpt><trkpt lat="44.430000970447836" lon="7.909420362247662"><ele>362.75</ele><time>2026-04-08T17:31:38.998Z</time></trkpt><trkpt lat="44.43009735371503" lon="7.909547960197207"><ele>363.5</ele><time>2026-04-08T17:31:39.998Z</time></trkpt><trkpt lat="44.43020566107681" lon="7.909673671943556"><ele>364.25</ele><time>2026-04-08T17:31:40.998Z</time></trkpt><trkpt lat="44.430324832510685" lon="7.909789380086047"><ele>365.0</ele><time>2026-04-08T17:31:41.998Z</time></trkpt><trkpt lat="44.43045644871316" lon="7.909896272926118"><ele>365.33333333333337</ele><time>2026-04-08T17:31:42.998Z</time></trkpt><trkpt lat="44.43059609948426" lon="7.909981375333522"><ele>365.6666666666667</ele><time>2026-04-08T17:31:43.998Z</time></trkpt><trkpt lat="44.430736805967655" lon="7.9100527736717625"><ele>366.0</ele><time>2026-04-08T17:31:44.998Z</time></trkpt><trkpt lat="44.43089020984207" lon="7.910102212903626"><ele>368.0</ele><time>2026-04-08T17:31:45.998Z</time></trkpt><trkpt lat="44.431050122919196" lon="7.910124016951394"><ele>370.0</ele><time>2026-04-08T17:31:46.998Z</time></trkpt><trkpt lat="44.43121653714454" lon="7.910127546461176"><ele>372.0</ele><time>2026-04-08T17:31:47.998Z</time></trkpt><trkpt lat="44.43137501768872" lon="7.910136552715112"><ele>372.75</ele><time>2026-04-08T17:31:49Z</time></trkpt><trkpt lat="44.43151747979768" lon="7.91013251466077"><ele>373.5</ele><time>2026-04-08T17:31:50Z</time></trkpt><trkpt lat="44.43165096065387" lon="7.910124829170928"><ele>374.25</ele><time>2026-04-08T17:31:51Z</time></trkpt><trkpt lat="44.43178212663694" lon="7.9101059857059335"><ele>375.0</ele><time>2026-04-08T17:31:52Z</time></trkpt><trkpt lat="44.431908154490216" lon="7.910077218446752"><ele>373.0</ele><time>2026-04-08T17:31:53Z</time></trkpt><trkpt lat="44.432034415899" lon="7.910031452716057"><ele>371.0</ele><time>2026-04-08T17:31:54Z</time></trkpt><trkpt lat="44.43215662369795" lon="7.909965344413488"><ele>369.0</ele><time>2026-04-08T17:31:55Z</time></trkpt><trkpt lat="44.43228344969601" lon="7.909888926622944"><ele>367.0</ele><time>2026-04-08T17:31:56Z</time></trkpt><trkpt lat="44.432396684303754" lon="7.909798864152933"><ele>366.75</ele><time>2026-04-08T17:31:57Z</time></trkpt><trkpt lat="44.432496859845685" lon="7.909702906912696"><ele>366.5</ele><time>2026-04-08T17:31:58Z</time></trkpt><trkpt lat="44.43260010211686" lon="7.909587613471049"><ele>366.25</ele><time>2026-04-08T17:31:59Z</time></trkpt><trkpt lat="44.43270947138047" lon="7.909449284794494"><ele>366.0</ele><time>2026-04-08T17:32:00Z</time></trkpt><trkpt lat="44.43281636003728" lon="7.9092984738792325"><ele>365.6666666666667</ele><time>2026-04-08T17:32:01Z</time></trkpt><trkpt lat="44.432933235954785" lon="7.9091158723380355"><ele>365.33333333333337</ele><time>2026-04-08T17:32:02Z</time></trkpt><trkpt lat="44.43304687887433" lon="7.908924986801803"><ele>365.0</ele><time>2026-04-08T17:32:03Z</time></trkpt><trkpt lat="44.4331697163186" lon="7.90872094707586"><ele>365.0</ele><time>2026-04-08T17:32:04Z</time></trkpt><trkpt lat="44.433290035049346" lon="7.9085208846065775"><ele>365.0</ele><time>2026-04-08T17:32:05Z</time></trkpt><trkpt lat="44.433403569178694" lon="7.908326960414141"><ele>365.0</ele><time>2026-04-08T17:32:06Z</time></trkpt><trkpt lat="44.433516417985736" lon="7.908139267035967"><ele>362.6666666666667</ele><time>2026-04-08T17:32:07Z</time></trkpt><trkpt lat="44.43362231165302" lon="7.907957071658231"><ele>360.3333333333333</ele><time>2026-04-08T17:32:08Z</time></trkpt><trkpt lat="44.43372660677298" lon="7.9077833072670085"><ele>358.0</ele><time>2026-04-08T17:32:09Z</time></trkpt><trkpt lat="44.43384891986935" lon="7.907616135341532"><ele>354.0</ele><time>2026-04-08T17:32:10Z</time></trkpt><trkpt lat="44.4339926124705" lon="7.90744773077465"><ele>350.0</ele><time>2026-04-08T17:32:11Z</time></trkpt><trkpt lat="44.434141525558" lon="7.907293581346516"><ele>346.0</ele><time>2026-04-08T17:32:12Z</time></trkpt><trkpt lat="44.434305235158945" lon="7.907137431119512"><ele>346.0</ele><time>2026-04-08T17:32:13Z</time></trkpt><trkpt lat="44.43448612950941" lon="7.906969585385423"><ele>346.0</ele><time>2026-04-08T17:32:14Z</time></trkpt><trkpt lat="44.43465621088669" lon="7.906800774024021"><ele>346.0</ele><time>2026-04-08T17:32:15Z</time></trkpt><trkpt lat="44.43481715964579" lon="7.906645148912468"><ele>343.0</ele><time>2026-04-08T17:32:16Z</time></trkpt><trkpt lat="44.43496862422314" lon="7.9065024688251135"><ele>340.0</ele><time>2026-04-08T17:32:17Z</time></trkpt><trkpt lat="44.435103446159445" lon="7.90638073999141"><ele>337.0</ele><time>2026-04-08T17:32:18Z</time></trkpt><trkpt lat="44.435240114954475" lon="7.906255791305466"><ele>337.0</ele><time>2026-04-08T17:32:19Z</time></trkpt><trkpt lat="44.43537342885698" lon="7.906148144828974"><ele>337.0</ele><time>2026-04-08T17:32:20Z</time></trkpt><trkpt lat="44.43551852189825" lon="7.906043623650101"><ele>337.0</ele><time>2026-04-08T17:32:21Z</time></trkpt><trkpt lat="44.43568162284834" lon="7.905958284219299"><ele>333.66666666666663</ele><time>2026-04-08T17:32:22Z</time></trkpt><trkpt lat="44.43586916401268" lon="7.905873820678136"><ele>330.3333333333333</ele><time>2026-04-08T17:32:23Z</time></trkpt><trkpt lat="44.436057260358616" lon="7.905784223993002"><ele>327.0</ele><time>2026-04-08T17:32:24Z</time></trkpt><trkpt lat="44.43624966808058" lon="7.905696917180785"><ele>329.6666666666667</ele><time>2026-04-08T17:32:25Z</time></trkpt><trkpt lat="44.43645002212734" lon="7.90560697958976"><ele>332.33333333333337</ele><time>2026-04-08T17:32:26Z</time></trkpt><trkpt lat="44.436632949846356" lon="7.905522504132017"><ele>335.0</ele><time>2026-04-08T17:32:27Z</time></trkpt><trkpt lat="44.436811992210465" lon="7.905443169343612"><ele>335.0</ele><time>2026-04-08T17:32:28Z</time></trkpt><trkpt lat="44.43699016369221" lon="7.905367186502715"><ele>335.0</ele><time>2026-04-08T17:32:29Z</time></trkpt><trkpt lat="44.43716166091243" lon="7.905286556471722"><ele>335.0</ele><time>2026-04-08T17:32:30Z</time></trkpt><trkpt lat="44.437334983051706" lon="7.905205603642903"><ele>333.33333333333337</ele><time>2026-04-08T17:32:31Z</time></trkpt><trkpt lat="44.43748430720664" lon="7.9051368092367635"><ele>331.6666666666667</ele><time>2026-04-08T17:32:32Z</time></trkpt><trkpt lat="44.43762399095954" lon="7.9050677299427115"><ele>330.0</ele><time>2026-04-08T17:32:32.999Z</time></trkpt><trkpt lat="44.43776108617151" lon="7.904989989002704"><ele>330.0</ele><time>2026-04-08T17:32:33.999Z</time></trkpt><trkpt lat="44.43790040587592" lon="7.904905233115709"><ele>330.0</ele><time>2026-04-08T17:32:34.999Z</time></trkpt><trkpt lat="44.438034250343364" lon="7.904805976804624"><ele>330.0</ele><time>2026-04-08T17:32:35.999Z</time></trkpt><trkpt lat="44.438183145630695" lon="7.9047087585090825"><ele>331.0</ele><time>2026-04-08T17:32:36.999Z</time></trkpt><trkpt lat="44.43828687589145" lon="7.904598973624458"><ele>332.0</ele><time>2026-04-08T17:32:37.999Z</time></trkpt><trkpt lat="44.43838898268614" lon="7.904484467827368"><ele>333.0</ele><time>2026-04-08T17:32:38.999Z</time></trkpt><trkpt lat="44.438484303744275" lon="7.9043681159025585"><ele>334.0</ele><time>2026-04-08T17:32:39.999Z</time></trkpt><trkpt lat="44.43857624002123" lon="7.904249603580936"><ele>333.0</ele><time>2026-04-08T17:32:40.999Z</time></trkpt><trkpt lat="44.438655466307694" lon="7.90412179833485"><ele>332.0</ele><time>2026-04-08T17:32:41.999Z</time></trkpt><trkpt lat="44.438739969485226" lon="7.904003280455701"><ele>331.0</ele><time>2026-04-08T17:32:42.999Z</time></trkpt><trkpt lat="44.438805029192096" lon="7.903873213742628"><ele>330.0</ele><time>2026-04-08T17:32:43.999Z</time></trkpt><trkpt lat="44.43886362427029" lon="7.90374009231397"><ele>330.0</ele><time>2026-04-08T17:32:44.999Z</time></trkpt><trkpt lat="44.43892293138361" lon="7.903609011641111"><ele>330.0</ele><time>2026-04-08T17:32:45.999Z</time></trkpt><trkpt lat="44.43897963919874" lon="7.903487044500927"><ele>330.0</ele><time>2026-04-08T17:32:46.999Z</time></trkpt><trkpt lat="44.439039400054064" lon="7.903361773245217"><ele>330.0</ele><time>2026-04-08T17:32:47.999Z</time></trkpt><trkpt lat="44.43909272800489" lon="7.903248409603706"><ele>330.0</ele><time>2026-04-08T17:32:48.999Z</time></trkpt><trkpt lat="44.439153192704175" lon="7.903125771868821"><ele>328.0</ele><time>2026-04-08T17:32:49.999Z</time></trkpt><trkpt lat="44.439211485657424" lon="7.902987411045935"><ele>326.0</ele><time>2026-04-08T17:32:50.999Z</time></trkpt><trkpt lat="44.43927831439137" lon="7.902842813867562"><ele>324.0</ele><time>2026-04-08T17:32:51.999Z</time></trkpt><trkpt lat="44.439345529247454" lon="7.902679758220603"><ele>322.0</ele><time>2026-04-08T17:32:52.999Z</time></trkpt><trkpt lat="44.43942092050885" lon="7.902508709120832"><ele>321.0</ele><time>2026-04-08T17:32:53.999Z</time></trkpt><trkpt lat="44.439502870910935" lon="7.902339694112464"><ele>320.0</ele><time>2026-04-08T17:32:54.999Z</time></trkpt><trkpt lat="44.439593452141395" lon="7.902158333386259"><ele>319.0</ele><time>2026-04-08T17:32:55.999Z</time></trkpt><trkpt lat="44.439679792577614" lon="7.901976025617628"><ele>319.0</ele><time>2026-04-08T17:32:56.999Z</time></trkpt><trkpt lat="44.43976611101193" lon="7.9017715713742716"><ele>319.0</ele><time>2026-04-08T17:32:57.999Z</time></trkpt><trkpt lat="44.43986045633373" lon="7.901550887540517"><ele>319.0</ele><time>2026-04-08T17:32:58.999Z</time></trkpt><trkpt lat="44.4399600553174" lon="7.901318344005471"><ele>316.3333333333333</ele><time>2026-04-08T17:32:59.999Z</time></trkpt><trkpt lat="44.44006280643429" lon="7.901094175860823"><ele>313.6666666666667</ele><time>2026-04-08T17:33:00.999Z</time></trkpt><trkpt lat="44.440157352481386" lon="7.90087285454481"><ele>311.0</ele><time>2026-04-08T17:33:01.999Z</time></trkpt><trkpt lat="44.44024377929762" lon="7.900662686304737"><ele>308.33333333333337</ele><time>2026-04-08T17:33:02.999Z</time></trkpt><trkpt lat="44.44032681002171" lon="7.9004514743698495"><ele>305.6666666666667</ele><time>2026-04-08T17:33:03.999Z</time></trkpt><trkpt lat="44.440391501388774" lon="7.900240235668252"><ele>303.0</ele><time>2026-04-08T17:33:04.999Z</time></trkpt><trkpt lat="44.44046205672948" lon="7.90001987619829"><ele>303.3333333333333</ele><time>2026-04-08T17:33:05.999Z</time></trkpt><trkpt lat="44.440521133466696" lon="7.89982099560046"><ele>303.66666666666663</ele><time>2026-04-08T17:33:06.999Z</time></trkpt><trkpt lat="44.440575387164536" lon="7.899622049531564"><ele>304.0</ele><time>2026-04-08T17:33:07.999Z</time></trkpt><trkpt lat="44.440619418275915" lon="7.8994204157785255"><ele>302.0</ele><time>2026-04-08T17:33:08.999Z</time></trkpt><trkpt lat="44.440653917792375" lon="7.8992298549693585"><ele>300.0</ele><time>2026-04-08T17:33:09.999Z</time></trkpt><trkpt lat="44.4406894356272" lon="7.899044000995744"><ele>298.0</ele><time>2026-04-08T17:33:10.999Z</time></trkpt><trkpt lat="44.440725872733466" lon="7.8988604996901595"><ele>296.0</ele><time>2026-04-08T17:33:11.999Z</time></trkpt><trkpt lat="44.44075703696955" lon="7.898678052228097"><ele>296.0</ele><time>2026-04-08T17:33:12.999Z</time></trkpt><trkpt lat="44.44078020947755" lon="7.89850346867305"><ele>296.0</ele><time>2026-04-08T17:33:13.999Z</time></trkpt><trkpt lat="44.440793500804766" lon="7.898330080669456"><ele>296.0</ele><time>2026-04-08T17:33:14.999Z</time></trkpt><trkpt lat="44.440803712858234" lon="7.898155173304248"><ele>296.0</ele><time>2026-04-08T17:33:15.999Z</time></trkpt><trkpt lat="44.44081822061582" lon="7.897975902554997"><ele>295.75</ele><time>2026-04-08T17:33:16.999Z</time></trkpt><trkpt lat="44.440834141735" lon="7.897811713562909"><ele>295.5</ele><time>2026-04-08T17:33:17.999Z</time></trkpt><trkpt lat="44.44084261673757" lon="7.897650945722655"><ele>295.25</ele><time>2026-04-08T17:33:18.999Z</time></trkpt><trkpt lat="44.440863526494056" lon="7.897486600396231"><ele>295.0</ele><time>2026-04-08T17:33:19.999Z</time></trkpt><trkpt lat="44.44087800330068" lon="7.897322105766547"><ele>295.0</ele><time>2026-04-08T17:33:20.999Z</time></trkpt><trkpt lat="44.44089367233695" lon="7.897166506947158"><ele>295.0</ele><time>2026-04-08T17:33:21.999Z</time></trkpt><trkpt lat="44.440906145754674" lon="7.897014733056806"><ele>295.0</ele><time>2026-04-08T17:33:22.999Z</time></trkpt><trkpt lat="44.44091701278181" lon="7.896868797462849"><ele>295.0</ele><time>2026-04-08T17:33:23.999Z</time></trkpt><trkpt lat="44.440931601861315" lon="7.896724717071362"><ele>295.0</ele><time>2026-04-08T17:33:24.999Z</time></trkpt><trkpt lat="44.44094761588762" lon="7.896590103417233"><ele>295.0</ele><time>2026-04-08T17:33:25.999Z</time></trkpt><trkpt lat="44.44096233083883" lon="7.896458695458244"><ele>295.0</ele><time>2026-04-08T17:33:26.999Z</time></trkpt><trkpt lat="44.44097689917228" lon="7.8963296044410365"><ele>295.0</ele><time>2026-04-08T17:33:27.999Z</time></trkpt><trkpt lat="44.4409843554103" lon="7.896190085122748"><ele>295.0</ele><time>2026-04-08T17:33:28.999Z</time></trkpt><trkpt lat="44.4409936755871" lon="7.896055944672319"><ele>295.0</ele><time>2026-04-08T17:33:29.999Z</time></trkpt><trkpt lat="44.441002969680525" lon="7.895919692905782"><ele>295.0</ele><time>2026-04-08T17:33:30.999Z</time></trkpt><trkpt lat="44.441017778941365" lon="7.895781411262259"><ele>295.0</ele><time>2026-04-08T17:33:31.999Z</time></trkpt><trkpt lat="44.44102957998875" lon="7.895636117469653"><ele>295.0</ele><time>2026-04-08T17:33:32.998Z</time></trkpt><trkpt lat="44.44104416682877" lon="7.895501133134975"><ele>295.0</ele><time>2026-04-08T17:33:33.998Z</time></trkpt><trkpt lat="44.44105930729829" lon="7.895362491324722"><ele>295.0</ele><time>2026-04-08T17:33:34.998Z</time></trkpt><trkpt lat="44.44106789093051" lon="7.895232184548351"><ele>295.0</ele><time>2026-04-08T17:33:35.998Z</time></trkpt><trkpt lat="44.44108606258789" lon="7.895087823617539"><ele>295.0</ele><time>2026-04-08T17:33:36.998Z</time></trkpt><trkpt lat="44.44109647692748" lon="7.894953734236583"><ele>295.0</ele><time>2026-04-08T17:33:37.998Z</time></trkpt><trkpt lat="44.44111302369631" lon="7.894817400182794"><ele>295.0</ele><time>2026-04-08T17:33:38.998Z</time></trkpt><trkpt lat="44.44113382876119" lon="7.894686074439196"><ele>295.0</ele><time>2026-04-08T17:33:39.998Z</time></trkpt><trkpt lat="44.441152355872106" lon="7.894563475196307"><ele>294.8333333333333</ele><time>2026-04-08T17:33:40.998Z</time></trkpt><trkpt lat="44.44117085020391" lon="7.894441683527144"><ele>294.66666666666663</ele><time>2026-04-08T17:33:41.998Z</time></trkpt><trkpt lat="44.44118673070055" lon="7.894334860037242"><ele>294.5</ele><time>2026-04-08T17:33:42.998Z</time></trkpt><trkpt lat="44.441205699347265" lon="7.894248365118817"><ele>294.3333333333333</ele><time>2026-04-08T17:33:43.998Z</time></trkpt><trkpt lat="44.44122545900823" lon="7.89413609833558"><ele>294.1666666666667</ele><time>2026-04-08T17:33:44.998Z</time></trkpt><trkpt lat="44.44122915915784" lon="7.89401009583681"><ele>294.0</ele><time>2026-04-08T17:33:45.998Z</time></trkpt><trkpt lat="44.44122850872861" lon="7.893875815761982"><ele>294.5</ele><time>2026-04-08T17:33:46.998Z</time></trkpt><trkpt lat="44.44123668605753" lon="7.893716300508314"><ele>295.0</ele><time>2026-04-08T17:33:47.998Z</time></trkpt><trkpt lat="44.44125118668671" lon="7.893557304936266"><ele>295.5</ele><time>2026-04-08T17:33:48.998Z</time></trkpt><trkpt lat="44.44127426533121" lon="7.893372169204676"><ele>296.0</ele><time>2026-04-08T17:33:49.998Z</time></trkpt><trkpt lat="44.44130695990571" lon="7.8931952028133745"><ele>296.0</ele><time>2026-04-08T17:33:50.998Z</time></trkpt><trkpt lat="44.44134254487936" lon="7.8930182691306925"><ele>296.0</ele><time>2026-04-08T17:33:51.998Z</time></trkpt><trkpt lat="44.44137608435344" lon="7.892852935239206"><ele>296.0</ele><time>2026-04-08T17:33:52.998Z</time></trkpt><trkpt lat="44.44141286285755" lon="7.892697139804711"><ele>296.0</ele><time>2026-04-08T17:33:53.998Z</time></trkpt><trkpt lat="44.44144162854659" lon="7.89254919163295"><ele>295.25</ele><time>2026-04-08T17:33:55Z</time></trkpt><trkpt lat="44.4414902818132" lon="7.892400190353712"><ele>294.5</ele><time>2026-04-08T17:33:56Z</time></trkpt><trkpt lat="44.44155457663065" lon="7.892255214079361"><ele>293.75</ele><time>2026-04-08T17:33:57Z</time></trkpt><trkpt lat="44.44162244612006" lon="7.892134341052745"><ele>293.0</ele><time>2026-04-08T17:33:58Z</time></trkpt><trkpt lat="44.44169726117303" lon="7.89201344905238"><ele>293.0</ele><time>2026-04-08T17:33:59Z</time></trkpt><trkpt lat="44.441791477269405" lon="7.891920496994945"><ele>293.0</ele><time>2026-04-08T17:34:00Z</time></trkpt><trkpt lat="44.44189093592133" lon="7.8918451375691685"><ele>293.0</ele><time>2026-04-08T17:34:01Z</time></trkpt><trkpt lat="44.441984145583675" lon="7.891785036091384"><ele>293.0</ele><time>2026-04-08T17:34:02Z</time></trkpt><trkpt lat="44.44209556429291" lon="7.891732236266392"><ele>293.0</ele><time>2026-04-08T17:34:03Z</time></trkpt><trkpt lat="44.44220608670951" lon="7.891695227546672"><ele>293.0</ele><time>2026-04-08T17:34:04Z</time></trkpt><trkpt lat="44.44231271072962" lon="7.891683312796055"><ele>293.0</ele><time>2026-04-08T17:34:05Z</time></trkpt><trkpt lat="44.4424127249062" lon="7.891697612467758"><ele>293.0</ele><time>2026-04-08T17:34:06Z</time></trkpt><trkpt lat="44.44251046305222" lon="7.891719281157861"><ele>293.0</ele><time>2026-04-08T17:34:07Z</time></trkpt><trkpt lat="44.44259352042659" lon="7.891748159570045"><ele>293.0</ele><time>2026-04-08T17:34:08Z</time></trkpt><trkpt lat="44.44266995827695" lon="7.891798453367311"><ele>293.25</ele><time>2026-04-08T17:34:09Z</time></trkpt><trkpt lat="44.442801634292486" lon="7.8918336286327495"><ele>293.5</ele><time>2026-04-08T17:34:10Z</time></trkpt><trkpt lat="44.44291455347774" lon="7.891879290509977"><ele>293.75</ele><time>2026-04-08T17:34:11Z</time></trkpt><trkpt lat="44.44301593329834" lon="7.891938833969648"><ele>294.0</ele><time>2026-04-08T17:34:12Z</time></trkpt><trkpt lat="44.44310473668604" lon="7.891993811394838"><ele>293.2</ele><time>2026-04-08T17:34:13Z</time></trkpt><trkpt lat="44.44319438430336" lon="7.892048051488637"><ele>292.4</ele><time>2026-04-08T17:34:14Z</time></trkpt><trkpt lat="44.443294618902804" lon="7.892120143696331"><ele>291.6</ele><time>2026-04-08T17:34:15Z</time></trkpt><trkpt lat="44.44339664662176" lon="7.892193947631977"><ele>290.8</ele><time>2026-04-08T17:34:16Z</time></trkpt><trkpt lat="44.44349267714352" lon="7.892264475590802"><ele>290.0</ele><time>2026-04-08T17:34:17Z</time></trkpt><trkpt lat="44.44358266772416" lon="7.892330392713628"><ele>290.0</ele><time>2026-04-08T17:34:18Z</time></trkpt><trkpt lat="44.44368019966702" lon="7.892394260389467"><ele>290.0</ele><time>2026-04-08T17:34:19Z</time></trkpt><trkpt lat="44.443785737837466" lon="7.892458175538227"><ele>290.0</ele><time>2026-04-08T17:34:20Z</time></trkpt><trkpt lat="44.44388544501613" lon="7.892535003537245"><ele>290.0</ele><time>2026-04-08T17:34:21Z</time></trkpt><trkpt lat="44.44398995291626" lon="7.892607814212998"><ele>289.25</ele><time>2026-04-08T17:34:22Z</time></trkpt><trkpt lat="44.44409495878089" lon="7.892691331553001"><ele>288.5</ele><time>2026-04-08T17:34:23Z</time></trkpt><trkpt lat="44.44421086877915" lon="7.892805447503897"><ele>287.75</ele><time>2026-04-08T17:34:24Z</time></trkpt><trkpt lat="44.44432862153828" lon="7.892930882443733"><ele>287.0</ele><time>2026-04-08T17:34:25Z</time></trkpt><trkpt lat="44.444450593175766" lon="7.893062973831618"><ele>287.0</ele><time>2026-04-08T17:34:26Z</time></trkpt><trkpt lat="44.44456872638895" lon="7.893230503503336"><ele>287.0</ele><time>2026-04-08T17:34:27Z</time></trkpt><trkpt lat="44.444679235990755" lon="7.893412302964837"><ele>287.0</ele><time>2026-04-08T17:34:28Z</time></trkpt><trkpt lat="44.44478149500581" lon="7.8936088980267645"><ele>286.33333333333337</ele><time>2026-04-08T17:34:29Z</time></trkpt><trkpt lat="44.44487769810393" lon="7.8938234966505405"><ele>285.6666666666667</ele><time>2026-04-08T17:34:30Z</time></trkpt><trkpt lat="44.444976839930426" lon="7.89404206485506"><ele>285.0</ele><time>2026-04-08T17:34:31Z</time></trkpt><trkpt lat="44.445064328281944" lon="7.8942447929915245"><ele>284.0</ele><time>2026-04-08T17:34:32Z</time></trkpt><trkpt lat="44.44514750601741" lon="7.894443026495206"><ele>283.0</ele><time>2026-04-08T17:34:33Z</time></trkpt><trkpt lat="44.44522481030573" lon="7.894629209796256"><ele>282.0</ele><time>2026-04-08T17:34:34Z</time></trkpt><trkpt lat="44.4452974372722" lon="7.894805610255866"><ele>282.0</ele><time>2026-04-08T17:34:35Z</time></trkpt><trkpt lat="44.44537434701637" lon="7.894980355635749"><ele>282.0</ele><time>2026-04-08T17:34:36Z</time></trkpt><trkpt lat="44.44544925991388" lon="7.895155872465379"><ele>282.0</ele><time>2026-04-08T17:34:37Z</time></trkpt><trkpt lat="44.44552246208704" lon="7.8953427559640685"><ele>282.0</ele><time>2026-04-08T17:34:37.999Z</time></trkpt><trkpt lat="44.44558969857607" lon="7.895504657639246"><ele>284.5</ele><time>2026-04-08T17:34:38.999Z</time></trkpt><trkpt lat="44.44565599290638" lon="7.89566672276652"><ele>287.0</ele><time>2026-04-08T17:34:39.999Z</time></trkpt><trkpt lat="44.44572095436415" lon="7.895810202478497"><ele>289.5</ele><time>2026-04-08T17:34:40.999Z</time></trkpt><trkpt lat="44.445789578554624" lon="7.895927490984785"><ele>292.0</ele><time>2026-04-08T17:34:41.999Z</time></trkpt><trkpt lat="44.4458697421981" lon="7.89604382538886"><ele>292.0</ele><time>2026-04-08T17:34:42.999Z</time></trkpt><trkpt lat="44.44596397783423" lon="7.896155237193754"><ele>292.0</ele><time>2026-04-08T17:34:43.999Z</time></trkpt><trkpt lat="44.44606360595746" lon="7.8962512973996715"><ele>292.0</ele><time>2026-04-08T17:34:44.999Z</time></trkpt><trkpt lat="44.446174945052185" lon="7.896324586485405"><ele>292.0</ele><time>2026-04-08T17:34:45.999Z</time></trkpt><trkpt lat="44.44628699481835" lon="7.896370056332312"><ele>293.25</ele><time>2026-04-08T17:34:46.999Z</time></trkpt><trkpt lat="44.44640201878597" lon="7.8963890088856665"><ele>294.5</ele><time>2026-04-08T17:34:47.999Z</time></trkpt><trkpt lat="44.446523209781844" lon="7.896391421846138"><ele>295.75</ele><time>2026-04-08T17:34:48.999Z</time></trkpt><trkpt lat="44.44663275063252" lon="7.896387474371181"><ele>297.0</ele><time>2026-04-08T17:34:49.999Z</time></trkpt><trkpt lat="44.44674408462536" lon="7.896358573403694"><ele>297.0</ele><time>2026-04-08T17:34:50.999Z</time></trkpt><trkpt lat="44.446848061850936" lon="7.896323569744025"><ele>297.0</ele><time>2026-04-08T17:34:51.999Z</time></trkpt><trkpt lat="44.446954649053666" lon="7.896291491497225"><ele>297.0</ele><time>2026-04-08T17:34:52.999Z</time></trkpt><trkpt lat="44.44705462181551" lon="7.896250845957759"><ele>297.0</ele><time>2026-04-08T17:34:53.999Z</time></trkpt><trkpt lat="44.447157474403596" lon="7.896213505572878"><ele>297.0</ele><time>2026-04-08T17:34:54.999Z</time></trkpt><trkpt lat="44.44726404131" lon="7.8961734571065865"><ele>297.4</ele><time>2026-04-08T17:34:55.999Z</time></trkpt><trkpt lat="44.44736885525448" lon="7.8961496048438224"><ele>297.79999999999995</ele><time>2026-04-08T17:34:56.999Z</time></trkpt><trkpt lat="44.4474753614286" lon="7.896116237844858"><ele>298.2</ele><time>2026-04-08T17:34:57.999Z</time></trkpt><trkpt lat="44.44758053998278" lon="7.89608069356094"><ele>298.59999999999997</ele><time>2026-04-08T17:34:58.999Z</time></trkpt><trkpt lat="44.44768510318697" lon="7.896040773486328"><ele>299.0</ele><time>2026-04-08T17:34:59.999Z</time></trkpt><trkpt lat="44.447791930141456" lon="7.895997475703649"><ele>299.0</ele><time>2026-04-08T17:35:00.999Z</time></trkpt><trkpt lat="44.4478937640428" lon="7.895964108741371"><ele>299.0</ele><time>2026-04-08T17:35:01.999Z</time></trkpt><trkpt lat="44.448003895665636" lon="7.895926524981986"><ele>299.0</ele><time>2026-04-08T17:35:02.999Z</time></trkpt><trkpt lat="44.44810298538085" lon="7.8958954510456225"><ele>299.0</ele><time>2026-04-08T17:35:03.999Z</time></trkpt><trkpt lat="44.44820929035281" lon="7.895856610544446"><ele>299.0</ele><time>2026-04-08T17:35:04.999Z</time></trkpt><trkpt lat="44.44831900031113" lon="7.895813237199666"><ele>297.75</ele><time>2026-04-08T17:35:05.999Z</time></trkpt><trkpt lat="44.44842972584978" lon="7.895775087995683"><ele>296.5</ele><time>2026-04-08T17:35:06.999Z</time></trkpt><trkpt lat="44.44853897388989" lon="7.895738557349057"><ele>295.25</ele><time>2026-04-08T17:35:07.999Z</time></trkpt><trkpt lat="44.44864805896629" lon="7.895699316475267"><ele>294.0</ele><time>2026-04-08T17:35:08.999Z</time></trkpt><trkpt lat="44.44875671578773" lon="7.895667560675018"><ele>293.59999999999997</ele><time>2026-04-08T17:35:09.999Z</time></trkpt><trkpt lat="44.448868301846744" lon="7.895630358674948"><ele>293.2</ele><time>2026-04-08T17:35:10.999Z</time></trkpt><trkpt lat="44.448967080644266" lon="7.895595855554982"><ele>292.79999999999995</ele><time>2026-04-08T17:35:11.999Z</time></trkpt><trkpt lat="44.4490683488371" lon="7.8955574906601695"><ele>292.4</ele><time>2026-04-08T17:35:12.999Z</time></trkpt><trkpt lat="44.44917207081667" lon="7.895509600530157"><ele>292.0</ele><time>2026-04-08T17:35:13.999Z</time></trkpt><trkpt lat="44.44927531689401" lon="7.895446207820855"><ele>292.0</ele><time>2026-04-08T17:35:14.999Z</time></trkpt><trkpt lat="44.44936908568695" lon="7.895375851852633"><ele>292.0</ele><time>2026-04-08T17:35:15.999Z</time></trkpt><trkpt lat="44.449462630687194" lon="7.895285798264607"><ele>292.0</ele><time>2026-04-08T17:35:16.999Z</time></trkpt><trkpt lat="44.44956318924017" lon="7.895183972067034"><ele>292.0</ele><time>2026-04-08T17:35:17.999Z</time></trkpt><trkpt lat="44.449663383882964" lon="7.895074656467684"><ele>291.25</ele><time>2026-04-08T17:35:18.999Z</time></trkpt><trkpt lat="44.449760572027365" lon="7.894962102277551"><ele>290.5</ele><time>2026-04-08T17:35:19.999Z</time></trkpt><trkpt lat="44.44986335060879" lon="7.89483501580506"><ele>289.75</ele><time>2026-04-08T17:35:20.999Z</time></trkpt><trkpt lat="44.44997369790762" lon="7.894707127508643"><ele>289.0</ele><time>2026-04-08T17:35:21.999Z</time></trkpt><trkpt lat="44.45007980865004" lon="7.894572269754913"><ele>289.0</ele><time>2026-04-08T17:35:22.999Z</time></trkpt><trkpt lat="44.45018929087708" lon="7.8944365414613245"><ele>289.0</ele><time>2026-04-08T17:35:23.999Z</time></trkpt><trkpt lat="44.450313308712076" lon="7.894288381497617"><ele>289.0</ele><time>2026-04-08T17:35:24.999Z</time></trkpt><trkpt lat="44.45044739201049" lon="7.89413132379731"><ele>286.66666666666663</ele><time>2026-04-08T17:35:25.999Z</time></trkpt><trkpt lat="44.45058580631698" lon="7.893960623181931"><ele>284.3333333333333</ele><time>2026-04-08T17:35:26.999Z</time></trkpt><trkpt lat="44.450712717146125" lon="7.893803055365625"><ele>282.0</ele><time>2026-04-08T17:35:27.999Z</time></trkpt><trkpt lat="44.450837395483866" lon="7.893650463171207"><ele>282.0</ele><time>2026-04-08T17:35:28.999Z</time></trkpt><trkpt lat="44.45095001649993" lon="7.893509386087259"><ele>282.0</ele><time>2026-04-08T17:35:29.999Z</time></trkpt><trkpt lat="44.45105614814586" lon="7.893382146572859"><ele>282.0</ele><time>2026-04-08T17:35:30.999Z</time></trkpt><trkpt lat="44.451151566852815" lon="7.8932661319135"><ele>282.0</ele><time>2026-04-08T17:35:31.999Z</time></trkpt><trkpt lat="44.45124305988901" lon="7.893169778531472"><ele>282.0</ele><time>2026-04-08T17:35:32.999Z</time></trkpt><trkpt lat="44.451331739507346" lon="7.893070636883891"><ele>282.0</ele><time>2026-04-08T17:35:33.999Z</time></trkpt><trkpt lat="44.45142145570721" lon="7.892972248039561"><ele>282.0</ele><time>2026-04-08T17:35:34.999Z</time></trkpt><trkpt lat="44.45152955722393" lon="7.892849110815466"><ele>282.0</ele><time>2026-04-08T17:35:35.999Z</time></trkpt><trkpt lat="44.451661579465814" lon="7.892787482323294"><ele>282.0</ele><time>2026-04-08T17:35:36.999Z</time></trkpt><trkpt lat="44.45179433241093" lon="7.892701909275437"><ele>282.0</ele><time>2026-04-08T17:35:37.999Z</time></trkpt><trkpt lat="44.45193587269678" lon="7.89262326674756"><ele>282.0</ele><time>2026-04-08T17:35:38.999Z</time></trkpt><trkpt lat="44.452088422447" lon="7.892558252291631"><ele>281.3333333333333</ele><time>2026-04-08T17:35:39.998Z</time></trkpt><trkpt lat="44.45224936966002" lon="7.892505464329416"><ele>280.66666666666663</ele><time>2026-04-08T17:35:40.998Z</time></trkpt><trkpt lat="44.45242459732819" lon="7.8924443766132555"><ele>280.0</ele><time>2026-04-08T17:35:41.998Z</time></trkpt><trkpt lat="44.4525971334504" lon="7.892381689769752"><ele>280.0</ele><time>2026-04-08T17:35:42.998Z</time></trkpt><trkpt lat="44.452788846035304" lon="7.89231322237877"><ele>280.0</ele><time>2026-04-08T17:35:43.998Z</time></trkpt><trkpt lat="44.45298643907982" lon="7.8922452037142"><ele>280.0</ele><time>2026-04-08T17:35:44.998Z</time></trkpt><trkpt lat="44.45318876206856" lon="7.892169222267185"><ele>279.3333333333333</ele><time>2026-04-08T17:35:45.998Z</time></trkpt><trkpt lat="44.45338189662429" lon="7.892101254714049"><ele>278.6666666666667</ele><time>2026-04-08T17:35:46.998Z</time></trkpt><trkpt lat="44.45357918904549" lon="7.892029305801472"><ele>278.0</ele><time>2026-04-08T17:35:47.998Z</time></trkpt><trkpt lat="44.45378444425541" lon="7.891959718545128"><ele>279.33333333333337</ele><time>2026-04-08T17:35:48.998Z</time></trkpt><trkpt lat="44.453987566356524" lon="7.891890861355613"><ele>280.6666666666667</ele><time>2026-04-08T17:35:49.998Z</time></trkpt><trkpt lat="44.45419489814214" lon="7.891821736844286"><ele>282.0</ele><time>2026-04-08T17:35:50.998Z</time></trkpt><trkpt lat="44.45440251559796" lon="7.8917449432480415"><ele>282.0</ele><time>2026-04-08T17:35:51.998Z</time></trkpt><trkpt lat="44.45462028422528" lon="7.891671318545979"><ele>282.0</ele><time>2026-04-08T17:35:52.998Z</time></trkpt><trkpt lat="44.454831930102216" lon="7.891597978638004"><ele>282.0</ele><time>2026-04-08T17:35:53.998Z</time></trkpt><trkpt lat="44.45503962203834" lon="7.891527107644715"><ele>282.0</ele><time>2026-04-08T17:35:54.998Z</time></trkpt><trkpt lat="44.4552485391807" lon="7.891461887106427"><ele>282.0</ele><time>2026-04-08T17:35:55.998Z</time></trkpt><trkpt lat="44.45545672682017" lon="7.891388400902244"><ele>282.0</ele><time>2026-04-08T17:35:56.998Z</time></trkpt><trkpt lat="44.455653621384734" lon="7.891322623989846"><ele>282.0</ele><time>2026-04-08T17:35:57.998Z</time></trkpt><trkpt lat="44.4558548366003" lon="7.891250864834073"><ele>282.0</ele><time>2026-04-08T17:35:58.998Z</time></trkpt><trkpt lat="44.45605206254564" lon="7.891180237896793"><ele>282.0</ele><time>2026-04-08T17:35:59.998Z</time></trkpt><trkpt lat="44.456266203112065" lon="7.891112210331432"><ele>280.0</ele><time>2026-04-08T17:36:01Z</time></trkpt><trkpt lat="44.456463877448975" lon="7.891040364633957"><ele>278.0</ele><time>2026-04-08T17:36:02Z</time></trkpt><trkpt lat="44.45666466172879" lon="7.8909739400808245"><ele>276.0</ele><time>2026-04-08T17:36:03Z</time></trkpt><trkpt lat="44.45686473956606" lon="7.890902465217402"><ele>276.0</ele><time>2026-04-08T17:36:04Z</time></trkpt><trkpt lat="44.457073305561835" lon="7.890828184432339"><ele>276.0</ele><time>2026-04-08T17:36:05Z</time></trkpt><trkpt lat="44.457275714709915" lon="7.890759244945267"><ele>276.0</ele><time>2026-04-08T17:36:06Z</time></trkpt><trkpt lat="44.45748085426019" lon="7.890690631131468"><ele>275.0</ele><time>2026-04-08T17:36:07Z</time></trkpt><trkpt lat="44.45769112117043" lon="7.890620888674238"><ele>274.0</ele><time>2026-04-08T17:36:08Z</time></trkpt><trkpt lat="44.4579009686294" lon="7.890545782734051"><ele>273.0</ele><time>2026-04-08T17:36:09Z</time></trkpt><trkpt lat="44.45809904599124" lon="7.890476601647754"><ele>273.0</ele><time>2026-04-08T17:36:10Z</time></trkpt><trkpt lat="44.45830073956916" lon="7.890403337524014"><ele>273.0</ele><time>2026-04-08T17:36:11Z</time></trkpt><trkpt lat="44.45849534597464" lon="7.890327704202317"><ele>273.0</ele><time>2026-04-08T17:36:12Z</time></trkpt><trkpt lat="44.4586777769368" lon="7.890258203108819"><ele>273.6666666666667</ele><time>2026-04-08T17:36:13Z</time></trkpt><trkpt lat="44.45886249403983" lon="7.890185658737414"><ele>274.33333333333337</ele><time>2026-04-08T17:36:14Z</time></trkpt><trkpt lat="44.459043254773086" lon="7.890099252081649"><ele>275.0</ele><time>2026-04-08T17:36:15Z</time></trkpt><trkpt lat="44.45922210762381" lon="7.8900022978347"><ele>275.6666666666667</ele><time>2026-04-08T17:36:16Z</time></trkpt><trkpt lat="44.45940220897368" lon="7.889877520254219"><ele>276.3333333333333</ele><time>2026-04-08T17:36:17Z</time></trkpt><trkpt lat="44.45958735542843" lon="7.889732291896031"><ele>277.0</ele><time>2026-04-08T17:36:18Z</time></trkpt><trkpt lat="44.45976398563172" lon="7.889585788567044"><ele>277.0</ele><time>2026-04-08T17:36:19Z</time></trkpt><trkpt lat="44.459945177202314" lon="7.889420103295401"><ele>277.0</ele><time>2026-04-08T17:36:20Z</time></trkpt><trkpt lat="44.46011632855798" lon="7.889235863577807"><ele>277.0</ele><time>2026-04-08T17:36:21Z</time></trkpt><trkpt lat="44.46028687368159" lon="7.889043584968366"><ele>277.66666666666663</ele><time>2026-04-08T17:36:22Z</time></trkpt><trkpt lat="44.46045369565426" lon="7.888831936447822"><ele>278.3333333333333</ele><time>2026-04-08T17:36:23Z</time></trkpt><trkpt lat="44.460611444517035" lon="7.888619567055356"><ele>279.0</ele><time>2026-04-08T17:36:24Z</time></trkpt><trkpt lat="44.46077411140314" lon="7.888425626091208"><ele>279.6666666666667</ele><time>2026-04-08T17:36:25Z</time></trkpt><trkpt lat="44.460934071027516" lon="7.888230420360631"><ele>280.33333333333337</ele><time>2026-04-08T17:36:26Z</time></trkpt><trkpt lat="44.4610820651453" lon="7.88805441919431"><ele>281.0</ele><time>2026-04-08T17:36:27Z</time></trkpt><trkpt lat="44.46122796348824" lon="7.887875073181901"><ele>281.33333333333337</ele><time>2026-04-08T17:36:28Z</time></trkpt><trkpt lat="44.461373434768014" lon="7.887690280777224"><ele>281.6666666666667</ele><time>2026-04-08T17:36:29Z</time></trkpt><trkpt lat="44.4615194060244" lon="7.887507225273034"><ele>282.0</ele><time>2026-04-08T17:36:30Z</time></trkpt><trkpt lat="44.4616654096666" lon="7.887329933705604"><ele>282.0</ele><time>2026-04-08T17:36:31Z</time></trkpt><trkpt lat="44.461806064654795" lon="7.887155499880462"><ele>282.0</ele><time>2026-04-08T17:36:32Z</time></trkpt><trkpt lat="44.46195234005752" lon="7.886982895902136"><ele>282.0</ele><time>2026-04-08T17:36:33Z</time></trkpt><trkpt lat="44.46209330721606" lon="7.886812074544473"><ele>283.3333333333333</ele><time>2026-04-08T17:36:34Z</time></trkpt><trkpt lat="44.46222622867429" lon="7.886641760320783"><ele>284.66666666666663</ele><time>2026-04-08T17:36:35Z</time></trkpt><trkpt lat="44.462353897979256" lon="7.886475456213309"><ele>286.0</ele><time>2026-04-08T17:36:36Z</time></trkpt><trkpt lat="44.46248505436004" lon="7.886313608443727"><ele>286.0</ele><time>2026-04-08T17:36:37Z</time></trkpt><trkpt lat="44.46262416428999" lon="7.886139110522167"><ele>286.0</ele><time>2026-04-08T17:36:38Z</time></trkpt><trkpt lat="44.462753516091766" lon="7.885965989046819"><ele>286.0</ele><time>2026-04-08T17:36:39Z</time></trkpt><trkpt lat="44.46289292982993" lon="7.885798201518848"><ele>281.66666666666663</ele><time>2026-04-08T17:36:40Z</time></trkpt><trkpt lat="44.46302606709625" lon="7.885649465769609"><ele>277.3333333333333</ele><time>2026-04-08T17:36:41Z</time></trkpt><trkpt lat="44.4631692451488" lon="7.885498636030803"><ele>273.0</ele><time>2026-04-08T17:36:42Z</time></trkpt><trkpt lat="44.463310481006296" lon="7.885356922016388"><ele>273.0</ele><time>2026-04-08T17:36:43Z</time></trkpt><trkpt lat="44.46345630819691" lon="7.885223978742974"><ele>273.0</ele><time>2026-04-08T17:36:43.999Z</time></trkpt><trkpt lat="44.46361349362678" lon="7.885086427290156"><ele>273.0</ele><time>2026-04-08T17:36:44.999Z</time></trkpt><trkpt lat="44.46378024396237" lon="7.884961555173662"><ele>274.3333333333333</ele><time>2026-04-08T17:36:45.999Z</time></trkpt><trkpt lat="44.46393896155747" lon="7.884847589888907"><ele>275.66666666666663</ele><time>2026-04-08T17:36:46.999Z</time></trkpt><trkpt lat="44.464099723007465" lon="7.884742438184374"><ele>277.0</ele><time>2026-04-08T17:36:47.999Z</time></trkpt><trkpt lat="44.46425875515261" lon="7.884648253851122"><ele>277.0</ele><time>2026-04-08T17:36:48.999Z</time></trkpt><trkpt lat="44.46440949964667" lon="7.884555816649538"><ele>277.0</ele><time>2026-04-08T17:36:49.999Z</time></trkpt><trkpt lat="44.46455257695277" lon="7.8844752695621745"><ele>277.0</ele><time>2026-04-08T17:36:50.999Z</time></trkpt><trkpt lat="44.46469941849454" lon="7.8844050366295075"><ele>276.3333333333333</ele><time>2026-04-08T17:36:51.999Z</time></trkpt><trkpt lat="44.46484336097257" lon="7.884355092247432"><ele>275.6666666666667</ele><time>2026-04-08T17:36:52.999Z</time></trkpt><trkpt lat="44.4649888423037" lon="7.884308793150089"><ele>275.0</ele><time>2026-04-08T17:36:53.999Z</time></trkpt><trkpt lat="44.46514160273144" lon="7.88426030986729"><ele>276.33333333333337</ele><time>2026-04-08T17:36:54.999Z</time></trkpt><trkpt lat="44.46529446331897" lon="7.884221327792844"><ele>277.6666666666667</ele><time>2026-04-08T17:36:55.999Z</time></trkpt><trkpt lat="44.46544498016856" lon="7.8841829524978815"><ele>279.0</ele><time>2026-04-08T17:36:56.999Z</time></trkpt><trkpt lat="44.46559726602101" lon="7.884148646875451"><ele>279.3333333333333</ele><time>2026-04-08T17:36:57.999Z</time></trkpt><trkpt lat="44.46574228290163" lon="7.884129227589741"><ele>279.66666666666663</ele><time>2026-04-08T17:36:58.999Z</time></trkpt><trkpt lat="44.465894496632664" lon="7.884110697457487"><ele>280.0</ele><time>2026-04-08T17:36:59.999Z</time></trkpt><trkpt lat="44.466050243359824" lon="7.8840916059883535"><ele>280.0</ele><time>2026-04-08T17:37:00.999Z</time></trkpt><trkpt lat="44.4661928015994" lon="7.884092235364172"><ele>280.0</ele><time>2026-04-08T17:37:01.999Z</time></trkpt><trkpt lat="44.466331175667385" lon="7.884097493437351"><ele>280.0</ele><time>2026-04-08T17:37:02.999Z</time></trkpt><trkpt lat="44.466482163183336" lon="7.884098134426959"><ele>280.0</ele><time>2026-04-08T17:37:03.999Z</time></trkpt><trkpt lat="44.4666434859663" lon="7.884108891475926"><ele>281.66666666666663</ele><time>2026-04-08T17:37:04.999Z</time></trkpt><trkpt lat="44.46681449396558" lon="7.884123616244523"><ele>283.3333333333333</ele><time>2026-04-08T17:37:05.999Z</time></trkpt><trkpt lat="44.46699210996869" lon="7.8841575241135216"><ele>285.0</ele><time>2026-04-08T17:37:06.999Z</time></trkpt><trkpt lat="44.46717652296439" lon="7.884208373562151"><ele>285.0</ele><time>2026-04-08T17:37:07.999Z</time></trkpt><trkpt lat="44.46735596716266" lon="7.884260639001554"><ele>285.0</ele><time>2026-04-08T17:37:08.999Z</time></trkpt><trkpt lat="44.467524986319894" lon="7.884321919919084"><ele>285.0</ele><time>2026-04-08T17:37:09.999Z</time></trkpt><trkpt lat="44.46769095869994" lon="7.884376074365408"><ele>285.0</ele><time>2026-04-08T17:37:10.999Z</time></trkpt><trkpt lat="44.46784492348037" lon="7.884432130344184"><ele>285.0</ele><time>2026-04-08T17:37:11.999Z</time></trkpt><trkpt lat="44.46799487581257" lon="7.884509523616402"><ele>285.0</ele><time>2026-04-08T17:37:12.999Z</time></trkpt><trkpt lat="44.468161589724495" lon="7.884592891097473"><ele>285.0</ele><time>2026-04-08T17:37:13.999Z</time></trkpt><trkpt lat="44.468319807090744" lon="7.884684279744404"><ele>285.0</ele><time>2026-04-08T17:37:14.999Z</time></trkpt><trkpt lat="44.46846761025918" lon="7.884775045120169"><ele>285.0</ele><time>2026-04-08T17:37:15.999Z</time></trkpt><trkpt lat="44.46861565649063" lon="7.884866934125821"><ele>285.0</ele><time>2026-04-08T17:37:16.999Z</time></trkpt><trkpt lat="44.468756991892235" lon="7.884970114563363"><ele>285.0</ele><time>2026-04-08T17:37:17.999Z</time></trkpt><trkpt lat="44.46890159946405" lon="7.885080930713741"><ele>285.0</ele><time>2026-04-08T17:37:18.999Z</time></trkpt><trkpt lat="44.469051480454894" lon="7.885208559382659"><ele>285.3333333333333</ele><time>2026-04-08T17:37:19.999Z</time></trkpt><trkpt lat="44.46918493434453" lon="7.885335583939286"><ele>285.66666666666663</ele><time>2026-04-08T17:37:20.999Z</time></trkpt><trkpt lat="44.469320272352405" lon="7.885467739059783"><ele>286.0</ele><time>2026-04-08T17:37:21.999Z</time></trkpt><trkpt lat="44.46944662216585" lon="7.8856007141992155"><ele>286.0</ele><time>2026-04-08T17:37:22.999Z</time></trkpt><trkpt lat="44.469563165934645" lon="7.8857379509215075"><ele>286.0</ele><time>2026-04-08T17:37:23.999Z</time></trkpt><trkpt lat="44.469684843618445" lon="7.88587863951104"><ele>286.0</ele><time>2026-04-08T17:37:24.999Z</time></trkpt><trkpt lat="44.46979724192047" lon="7.886011729712305"><ele>286.25</ele><time>2026-04-08T17:37:25.999Z</time></trkpt><trkpt lat="44.469894659062085" lon="7.88614316078835"><ele>286.5</ele><time>2026-04-08T17:37:26.999Z</time></trkpt><trkpt lat="44.470002236402976" lon="7.886277025011342"><ele>286.75</ele><time>2026-04-08T17:37:27.999Z</time></trkpt><trkpt lat="44.47010490472819" lon="7.886425798837703"><ele>287.0</ele><time>2026-04-08T17:37:28.999Z</time></trkpt><trkpt lat="44.47021675256514" lon="7.886580704173198"><ele>287.0</ele><time>2026-04-08T17:37:29.999Z</time></trkpt><trkpt lat="44.47033794710501" lon="7.886739247476856"><ele>287.0</ele><time>2026-04-08T17:37:30.999Z</time></trkpt><trkpt lat="44.47046543427906" lon="7.886912650145837"><ele>287.0</ele><time>2026-04-08T17:37:31.999Z</time></trkpt><trkpt lat="44.47059579416499" lon="7.8870940922481365"><ele>286.33333333333337</ele><time>2026-04-08T17:37:32.999Z</time></trkpt><trkpt lat="44.47073918425677" lon="7.887285222344184"><ele>285.6666666666667</ele><time>2026-04-08T17:37:33.999Z</time></trkpt><trkpt lat="44.470876883887364" lon="7.88746837083318"><ele>285.0</ele><time>2026-04-08T17:37:34.999Z</time></trkpt><trkpt lat="44.471013134883435" lon="7.88764423474079"><ele>284.0</ele><time>2026-04-08T17:37:35.999Z</time></trkpt><trkpt lat="44.471146377341526" lon="7.887821851552472"><ele>283.0</ele><time>2026-04-08T17:37:36.999Z</time></trkpt><trkpt lat="44.47129955787967" lon="7.887993515703044"><ele>282.0</ele><time>2026-04-08T17:37:37.999Z</time></trkpt><trkpt lat="44.471452443801844" lon="7.888147643979295"><ele>281.6666666666667</ele><time>2026-04-08T17:37:38.999Z</time></trkpt><trkpt lat="44.471606215120865" lon="7.888299311773083"><ele>281.33333333333337</ele><time>2026-04-08T17:37:39.999Z</time></trkpt><trkpt lat="44.47175801111711" lon="7.8884376007731625"><ele>281.0</ele><time>2026-04-08T17:37:40.999Z</time></trkpt><trkpt lat="44.47193242978097" lon="7.888589683367324"><ele>280.33333333333337</ele><time>2026-04-08T17:37:41.999Z</time></trkpt><trkpt lat="44.47209024876627" lon="7.8887117785105145"><ele>279.6666666666667</ele><time>2026-04-08T17:37:42.999Z</time></trkpt><trkpt lat="44.47224591931985" lon="7.888819904396993"><ele>279.0</ele><time>2026-04-08T17:37:43.999Z</time></trkpt><trkpt lat="44.472407211880444" lon="7.888928784067339"><ele>279.0</ele><time>2026-04-08T17:37:44.999Z</time></trkpt><trkpt lat="44.47256924617677" lon="7.889024270012733"><ele>279.0</ele><time>2026-04-08T17:37:45.998Z</time></trkpt><trkpt lat="44.47274371283462" lon="7.889116876650448"><ele>279.0</ele><time>2026-04-08T17:37:46.998Z</time></trkpt><trkpt lat="44.472915685789175" lon="7.889206204743221"><ele>278.3333333333333</ele><time>2026-04-08T17:37:47.998Z</time></trkpt><trkpt lat="44.4730741768286" lon="7.8892894646543255"><ele>277.66666666666663</ele><time>2026-04-08T17:37:48.998Z</time></trkpt><trkpt lat="44.4732366204659" lon="7.889361552871028"><ele>277.0</ele><time>2026-04-08T17:37:49.998Z</time></trkpt><trkpt lat="44.47340414050155" lon="7.889426611897916"><ele>277.0</ele><time>2026-04-08T17:37:50.998Z</time></trkpt><trkpt lat="44.47357843084759" lon="7.889488013707225"><ele>277.0</ele><time>2026-04-08T17:37:51.998Z</time></trkpt><trkpt lat="44.47374570901231" lon="7.8895442151095"><ele>277.0</ele><time>2026-04-08T17:37:52.998Z</time></trkpt><trkpt lat="44.47391544206182" lon="7.8895895355088"><ele>277.3333333333333</ele><time>2026-04-08T17:37:53.998Z</time></trkpt><trkpt lat="44.47408628432081" lon="7.8896259205928665"><ele>277.6666666666667</ele><time>2026-04-08T17:37:54.998Z</time></trkpt><trkpt lat="44.47426193500796" lon="7.889658618662207"><ele>278.0</ele><time>2026-04-08T17:37:55.998Z</time></trkpt><trkpt lat="44.474425761549114" lon="7.889683250189147"><ele>278.0</ele><time>2026-04-08T17:37:56.998Z</time></trkpt><trkpt lat="44.47459127589496" lon="7.88970111325189"><ele>278.0</ele><time>2026-04-08T17:37:57.998Z</time></trkpt><trkpt lat="44.47476352461689" lon="7.889709466365509"><ele>278.0</ele><time>2026-04-08T17:37:58.998Z</time></trkpt><trkpt lat="44.47493576001536" lon="7.889708939747645"><ele>277.33333333333337</ele><time>2026-04-08T17:37:59.998Z</time></trkpt><trkpt lat="44.47511005763294" lon="7.889706814046302"><ele>276.6666666666667</ele><time>2026-04-08T17:38:00.998Z</time></trkpt><trkpt lat="44.475295579468565" lon="7.889692804137696"><ele>276.0</ele><time>2026-04-08T17:38:01.998Z</time></trkpt><trkpt lat="44.47548590353714" lon="7.889682330427998"><ele>275.3333333333333</ele><time>2026-04-08T17:38:02.998Z</time></trkpt><trkpt lat="44.475676886788904" lon="7.88969119597071"><ele>274.66666666666663</ele><time>2026-04-08T17:38:03.998Z</time></trkpt><trkpt lat="44.475856940330054" lon="7.889696602908411"><ele>274.0</ele><time>2026-04-08T17:38:04.998Z</time></trkpt><trkpt lat="44.47604219704917" lon="7.889698088485939"><ele>274.0</ele><time>2026-04-08T17:38:05.998Z</time></trkpt><trkpt lat="44.476226080213394" lon="7.889719611977067"><ele>274.0</ele><time>2026-04-08T17:38:07Z</time></trkpt><trkpt lat="44.47640519014008" lon="7.8897517963958235"><ele>274.0</ele><time>2026-04-08T17:38:08Z</time></trkpt><trkpt lat="44.47657421425516" lon="7.889782744554401"><ele>274.0</ele><time>2026-04-08T17:38:09Z</time></trkpt><trkpt lat="44.476744739567174" lon="7.8898339003599975"><ele>274.0</ele><time>2026-04-08T17:38:10Z</time></trkpt><trkpt lat="44.476907177272004" lon="7.889882355605559"><ele>274.0</ele><time>2026-04-08T17:38:11Z</time></trkpt><trkpt lat="44.47706181626607" lon="7.889934879822238"><ele>274.25</ele><time>2026-04-08T17:38:12Z</time></trkpt><trkpt lat="44.47720921322652" lon="7.889989589679998"><ele>274.5</ele><time>2026-04-08T17:38:13Z</time></trkpt><trkpt lat="44.47735658105774" lon="7.890049732284343"><ele>274.75</ele><time>2026-04-08T17:38:14Z</time></trkpt><trkpt lat="44.47749427035527" lon="7.890103301768256"><ele>275.0</ele><time>2026-04-08T17:38:15Z</time></trkpt><trkpt lat="44.47762815425559" lon="7.8901486999981945"><ele>275.25</ele><time>2026-04-08T17:38:16Z</time></trkpt><trkpt lat="44.477771270642435" lon="7.890207644946361"><ele>275.5</ele><time>2026-04-08T17:38:17Z</time></trkpt><trkpt lat="44.477917460730126" lon="7.890257004849523"><ele>275.75</ele><time>2026-04-08T17:38:18Z</time></trkpt><trkpt lat="44.47806232794566" lon="7.890290500353129"><ele>276.0</ele><time>2026-04-08T17:38:19Z</time></trkpt><trkpt lat="44.478196227593706" lon="7.890323734112244"><ele>275.25</ele><time>2026-04-08T17:38:20Z</time></trkpt><trkpt lat="44.47832983246639" lon="7.89034867948353"><ele>274.5</ele><time>2026-04-08T17:38:21Z</time></trkpt><trkpt lat="44.47845131644358" lon="7.890366433677528"><ele>273.75</ele><time>2026-04-08T17:38:22Z</time></trkpt><trkpt lat="44.47857579130005" lon="7.890362950197028"><ele>273.0</ele><time>2026-04-08T17:38:23Z</time></trkpt><trkpt lat="44.478686499718584" lon="7.890352109725213"><ele>273.1666666666667</ele><time>2026-04-08T17:38:24Z</time></trkpt><trkpt lat="44.478787049603795" lon="7.890341667806088"><ele>273.3333333333333</ele><time>2026-04-08T17:38:25Z</time></trkpt><trkpt lat="44.478885973564616" lon="7.890313156676069"><ele>273.5</ele><time>2026-04-08T17:38:26Z</time></trkpt><trkpt lat="44.47897859273472" lon="7.8902941703859595"><ele>273.66666666666663</ele><time>2026-04-08T17:38:27Z</time></trkpt><trkpt lat="44.47905536840035" lon="7.890271223962465"><ele>273.8333333333333</ele><time>2026-04-08T17:38:28Z</time></trkpt><trkpt lat="44.479120363133276" lon="7.890260779153936"><ele>274.0</ele><time>2026-04-08T17:38:29Z</time></trkpt><trkpt lat="44.47918586694468" lon="7.890261320839547"><ele>274.0</ele><time>2026-04-08T17:38:30Z</time></trkpt><trkpt lat="44.479257652420344" lon="7.890280545429643"><ele>274.0</ele><time>2026-04-08T17:38:31Z</time></trkpt><trkpt lat="44.479326311510796" lon="7.890299367778681"><ele>274.0</ele><time>2026-04-08T17:38:32Z</time></trkpt><trkpt lat="44.47938979870201" lon="7.890309016511734"><ele>274.0</ele><time>2026-04-08T17:38:33Z</time></trkpt><trkpt lat="44.47950821138576" lon="7.890318014779492"><ele>274.0</ele><time>2026-04-08T17:38:35Z</time></trkpt><trkpt lat="44.479585417418356" lon="7.890256914755439"><ele>274.0</ele><time>2026-04-08T17:38:36Z</time></trkpt><trkpt lat="44.47963007547129" lon="7.890151832672906"><ele>274.0</ele><time>2026-04-08T17:38:37Z</time></trkpt><trkpt lat="44.47964575878135" lon="7.889991683046823"><ele>274.0</ele><time>2026-04-08T17:38:39Z</time></trkpt><trkpt lat="44.47957113956032" lon="7.889878265863026"><ele>274.0</ele><time>2026-04-08T17:38:40Z</time></trkpt><trkpt lat="44.47951174214018" lon="7.889813661493034"><ele>274.0</ele><time>2026-04-08T17:38:41Z</time></trkpt><trkpt lat="44.47949952968589" lon="7.889723836538985"><ele>274.0</ele><time>2026-04-08T17:38:42Z</time></trkpt><trkpt lat="44.47948201226509" lon="7.889617063642382"><ele>274.0</ele><time>2026-04-08T17:38:43Z</time></trkpt><trkpt lat="44.4794628152012" lon="7.88950005297512"><ele>274.0</ele><time>2026-04-08T17:38:44Z</time></trkpt><trkpt lat="44.479438600569694" lon="7.8893524590349"><ele>274.0</ele><time>2026-04-08T17:38:45Z</time></trkpt><trkpt lat="44.47940175440202" lon="7.889196059776411"><ele>274.0</ele><time>2026-04-08T17:38:46Z</time></trkpt><trkpt lat="44.479432922006126" lon="7.88900642748757"><ele>274.0</ele><time>2026-04-08T17:38:47Z</time></trkpt><trkpt lat="44.479415010765145" lon="7.888798154708992"><ele>274.5</ele><time>2026-04-08T17:38:48Z</time></trkpt><trkpt lat="44.47938652054958" lon="7.888599037074312"><ele>275.0</ele><time>2026-04-08T17:38:49Z</time></trkpt><trkpt lat="44.4793884395389" lon="7.8884170102046065"><ele>275.5</ele><time>2026-04-08T17:38:50Z</time></trkpt><trkpt lat="44.4793927677488" lon="7.888260899569005"><ele>276.0</ele><time>2026-04-08T17:38:50.999Z</time></trkpt><trkpt lat="44.479411094889564" lon="7.888130215235702"><ele>276.5</ele><time>2026-04-08T17:38:51.999Z</time></trkpt><trkpt lat="44.47945995378725" lon="7.887982590850484"><ele>277.0</ele><time>2026-04-08T17:38:52.999Z</time></trkpt><trkpt lat="44.47954442313903" lon="7.887857373899372"><ele>277.5</ele><time>2026-04-08T17:38:53.999Z</time></trkpt><trkpt lat="44.47964497450769" lon="7.8877523414611"><ele>278.0</ele><time>2026-04-08T17:38:54.999Z</time></trkpt><trkpt lat="44.47973591045795" lon="7.887663660870779"><ele>281.2</ele><time>2026-04-08T17:38:55.999Z</time></trkpt><trkpt lat="44.47981468157833" lon="7.887566910301788"><ele>284.4</ele><time>2026-04-08T17:38:56.999Z</time></trkpt><trkpt lat="44.47987840291003" lon="7.887450317189632"><ele>287.59999999999997</ele><time>2026-04-08T17:38:57.999Z</time></trkpt><trkpt lat="44.47991882960255" lon="7.887314008275684"><ele>290.8</ele><time>2026-04-08T17:38:58.999Z</time></trkpt><trkpt lat="44.47992825840435" lon="7.887159749318498"><ele>294.0</ele><time>2026-04-08T17:38:59.999Z</time></trkpt><trkpt lat="44.4799077398909" lon="7.886991239087073"><ele>294.0</ele><time>2026-04-08T17:39:00.999Z</time></trkpt><trkpt lat="44.47987632235498" lon="7.8868194539843985"><ele>294.0</ele><time>2026-04-08T17:39:01.999Z</time></trkpt><trkpt lat="44.47983388024017" lon="7.886652120151545"><ele>294.0</ele><time>2026-04-08T17:39:02.999Z</time></trkpt><trkpt lat="44.47979283902398" lon="7.886460486867104"><ele>294.0</ele><time>2026-04-08T17:39:03.999Z</time></trkpt><trkpt lat="44.479752273622246" lon="7.886265348738215"><ele>297.6666666666667</ele><time>2026-04-08T17:39:04.999Z</time></trkpt><trkpt lat="44.479708690843495" lon="7.8860554627552055"><ele>301.33333333333337</ele><time>2026-04-08T17:39:05.999Z</time></trkpt><trkpt lat="44.4796578759371" lon="7.88583401893663"><ele>305.0</ele><time>2026-04-08T17:39:06.999Z</time></trkpt><trkpt lat="44.479611931390295" lon="7.885626574878614"><ele>303.6666666666667</ele><time>2026-04-08T17:39:07.999Z</time></trkpt><trkpt lat="44.47954974811208" lon="7.885411946926192"><ele>302.3333333333333</ele><time>2026-04-08T17:39:08.999Z</time></trkpt><trkpt lat="44.47949005250078" lon="7.885192217197363"><ele>301.0</ele><time>2026-04-08T17:39:09.999Z</time></trkpt><trkpt lat="44.47939717567005" lon="7.884980289879336"><ele>301.0</ele><time>2026-04-08T17:39:10.999Z</time></trkpt><trkpt lat="44.479286798422834" lon="7.884784934149471"><ele>301.0</ele><time>2026-04-08T17:39:11.999Z</time></trkpt><trkpt lat="44.479163506184406" lon="7.884598279797831"><ele>301.0</ele><time>2026-04-08T17:39:12.999Z</time></trkpt><trkpt lat="44.47904041992158" lon="7.884421723340985"><ele>301.0</ele><time>2026-04-08T17:39:13.999Z</time></trkpt><trkpt lat="44.47894396187728" lon="7.884263438501055"><ele>301.0</ele><time>2026-04-08T17:39:14.999Z</time></trkpt><trkpt lat="44.47885170383654" lon="7.88412018505169"><ele>301.0</ele><time>2026-04-08T17:39:15.999Z</time></trkpt><trkpt lat="44.47877311664237" lon="7.883989177493696"><ele>301.0</ele><time>2026-04-08T17:39:16.999Z</time></trkpt><trkpt lat="44.478705603008066" lon="7.883864238766019"><ele>300.8333333333333</ele><time>2026-04-08T17:39:17.999Z</time></trkpt><trkpt lat="44.47865872204193" lon="7.883740947755404"><ele>300.66666666666663</ele><time>2026-04-08T17:39:18.999Z</time></trkpt><trkpt lat="44.47862621268064" lon="7.883621288423283"><ele>300.5</ele><time>2026-04-08T17:39:19.999Z</time></trkpt><trkpt lat="44.47860700596547" lon="7.883507106277983"><ele>300.3333333333333</ele><time>2026-04-08T17:39:20.999Z</time></trkpt><trkpt lat="44.47862150980809" lon="7.883401658903379"><ele>300.1666666666667</ele><time>2026-04-08T17:39:21.999Z</time></trkpt><trkpt lat="44.478654097820275" lon="7.883313327119026"><ele>300.0</ele><time>2026-04-08T17:39:22.999Z</time></trkpt><trkpt lat="44.47870133246125" lon="7.883230294430481"><ele>304.8</ele><time>2026-04-08T17:39:23.999Z</time></trkpt><trkpt lat="44.47878498903919" lon="7.883174042648713"><ele>309.6</ele><time>2026-04-08T17:39:24.999Z</time></trkpt><trkpt lat="44.478877873117746" lon="7.883128138491486"><ele>314.4</ele><time>2026-04-08T17:39:25.999Z</time></trkpt><trkpt lat="44.478974355586416" lon="7.8830650465889045"><ele>319.2</ele><time>2026-04-08T17:39:26.999Z</time></trkpt><trkpt lat="44.479056642344325" lon="7.883007514230539"><ele>324.0</ele><time>2026-04-08T17:39:27.999Z</time></trkpt><trkpt lat="44.4791356172852" lon="7.882950063628853"><ele>324.0</ele><time>2026-04-08T17:39:28.999Z</time></trkpt><trkpt lat="44.479202233554" lon="7.88287338738153"><ele>324.0</ele><time>2026-04-08T17:39:29.999Z</time></trkpt><trkpt lat="44.47924667863923" lon="7.8827906940241546"><ele>324.0</ele><time>2026-04-08T17:39:30.999Z</time></trkpt><trkpt lat="44.479272978651345" lon="7.882702815099328"><ele>324.0</ele><time>2026-04-08T17:39:31.999Z</time></trkpt><trkpt lat="44.479309002061385" lon="7.882610259597295"><ele>324.0</ele><time>2026-04-08T17:39:32.999Z</time></trkpt><trkpt lat="44.47931301305412" lon="7.882505825121772"><ele>324.0</ele><time>2026-04-08T17:39:33.999Z</time></trkpt><trkpt lat="44.47928566453008" lon="7.882396833477232"><ele>324.3333333333333</ele><time>2026-04-08T17:39:34.999Z</time></trkpt><trkpt lat="44.47921874894755" lon="7.88232653284011"><ele>324.6666666666667</ele><time>2026-04-08T17:39:35.999Z</time></trkpt><trkpt lat="44.47914828800357" lon="7.8823120998301235"><ele>325.0</ele><time>2026-04-08T17:39:36.999Z</time></trkpt><trkpt lat="44.4790719474892" lon="7.882316372192324"><ele>325.33333333333337</ele><time>2026-04-08T17:39:37.999Z</time></trkpt><trkpt lat="44.47898913487242" lon="7.882354509069908"><ele>325.6666666666667</ele><time>2026-04-08T17:39:38.999Z</time></trkpt><trkpt lat="44.47891063865224" lon="7.882416696979991"><ele>326.0</ele><time>2026-04-08T17:39:39.999Z</time></trkpt><trkpt lat="44.4788192881729" lon="7.882467730589009"><ele>323.8</ele><time>2026-04-08T17:39:40.999Z</time></trkpt><trkpt lat="44.47873472627742" lon="7.882491208111971"><ele>321.6</ele><time>2026-04-08T17:39:41.999Z</time></trkpt><trkpt lat="44.478658412343634" lon="7.8824861358096845"><ele>319.4</ele><time>2026-04-08T17:39:42.999Z</time></trkpt><trkpt lat="44.47857650513732" lon="7.882444589972571"><ele>317.2</ele><time>2026-04-08T17:39:43.999Z</time></trkpt><trkpt lat="44.478494599215026" lon="7.882366680075609"><ele>315.0</ele><time>2026-04-08T17:39:44.999Z</time></trkpt><trkpt lat="44.4784095084366" lon="7.882264712536236"><ele>315.0</ele><time>2026-04-08T17:39:45.999Z</time></trkpt><trkpt lat="44.478319441909306" lon="7.882150780124851"><ele>315.0</ele><time>2026-04-08T17:39:46.999Z</time></trkpt><trkpt lat="44.47821434114724" lon="7.882033602573211"><ele>315.0</ele><time>2026-04-08T17:39:47.999Z</time></trkpt><trkpt lat="44.47811984953035" lon="7.881912377834519"><ele>315.0</ele><time>2026-04-08T17:39:48.999Z</time></trkpt><trkpt lat="44.47801003811943" lon="7.881795896942607"><ele>314.5</ele><time>2026-04-08T17:39:49.999Z</time></trkpt><trkpt lat="44.47790668192444" lon="7.881657423932425"><ele>314.0</ele><time>2026-04-08T17:39:50.999Z</time></trkpt><trkpt lat="44.47782238841745" lon="7.8814895057002525"><ele>313.5</ele><time>2026-04-08T17:39:51.999Z</time></trkpt><trkpt lat="44.47775817451474" lon="7.881336798649283"><ele>313.0</ele><time>2026-04-08T17:39:52.998Z</time></trkpt><trkpt lat="44.47771289593002" lon="7.881214963267559"><ele>313.0</ele><time>2026-04-08T17:39:53.998Z</time></trkpt><trkpt lat="44.4776687294086" lon="7.881111098536765"><ele>313.0</ele><time>2026-04-08T17:39:54.998Z</time></trkpt><trkpt lat="44.47763206516827" lon="7.881023620472893"><ele>313.0</ele><time>2026-04-08T17:39:55.998Z</time></trkpt><trkpt lat="44.47760885297348" lon="7.880910681053048"><ele>313.0</ele><time>2026-04-08T17:39:57.998Z</time></trkpt><trkpt lat="44.47766492123116" lon="7.880867316232125"><ele>313.0</ele><time>2026-04-08T17:39:59.998Z</time></trkpt><trkpt lat="44.47773665702864" lon="7.880963364819884"><ele>313.0</ele><time>2026-04-08T17:40:01.998Z</time></trkpt><trkpt lat="44.47776373155509" lon="7.881076216245549"><ele>313.0</ele><time>2026-04-08T17:40:02.998Z</time></trkpt><trkpt lat="44.47780069323862" lon="7.881182260997429"><ele>313.0</ele><time>2026-04-08T17:40:03.998Z</time></trkpt><trkpt lat="44.47785111647681" lon="7.8813037523176375"><ele>313.0</ele><time>2026-04-08T17:40:04.998Z</time></trkpt><trkpt lat="44.477913148818864" lon="7.881416424325057"><ele>313.0</ele><time>2026-04-08T17:40:05.998Z</time></trkpt><trkpt lat="44.47801048267378" lon="7.881512825827478"><ele>313.0</ele><time>2026-04-08T17:40:06.998Z</time></trkpt><trkpt lat="44.478110152992016" lon="7.881628672665346"><ele>313.5</ele><time>2026-04-08T17:40:07.998Z</time></trkpt><trkpt lat="44.47822392757794" lon="7.881719458786481"><ele>314.0</ele><time>2026-04-08T17:40:08.998Z</time></trkpt><trkpt lat="44.47834010860231" lon="7.881804559624964"><ele>314.5</ele><time>2026-04-08T17:40:09.998Z</time></trkpt><trkpt lat="44.478437558721375" lon="7.881883183336066"><ele>315.0</ele><time>2026-04-08T17:40:10.998Z</time></trkpt><trkpt lat="44.478512221560585" lon="7.881941851920089"><ele>315.0</ele><time>2026-04-08T17:40:11.998Z</time></trkpt><trkpt lat="44.47857406662962" lon="7.882003462821808"><ele>315.0</ele><time>2026-04-08T17:40:13Z</time></trkpt><trkpt lat="44.47866226978275" lon="7.882078816390072"><ele>315.0</ele><time>2026-04-08T17:40:15Z</time></trkpt><trkpt lat="44.47872367797997" lon="7.882032558632371"><ele>315.0</ele><time>2026-04-08T17:40:17Z</time></trkpt><trkpt lat="44.478716019143015" lon="7.881892098204608"><ele>315.0</ele><time>2026-04-08T17:40:19Z</time></trkpt><trkpt lat="44.4786592768726" lon="7.881825632726593"><ele>315.0</ele><time>2026-04-08T17:40:20Z</time></trkpt><trkpt lat="44.47857652199112" lon="7.881775779603111"><ele>319.0</ele><time>2026-04-08T17:40:21Z</time></trkpt><trkpt lat="44.478495742598916" lon="7.8816994922397114"><ele>323.0</ele><time>2026-04-08T17:40:22Z</time></trkpt><trkpt lat="44.47840686621445" lon="7.881609236150757"><ele>327.0</ele><time>2026-04-08T17:40:23Z</time></trkpt><trkpt lat="44.47831917075114" lon="7.881511408085546"><ele>331.0</ele><time>2026-04-08T17:40:24Z</time></trkpt><trkpt lat="44.478228839647834" lon="7.881386871102052"><ele>335.0</ele><time>2026-04-08T17:40:25Z</time></trkpt><trkpt lat="44.47814487174991" lon="7.881230482136199"><ele>335.0</ele><time>2026-04-08T17:40:26Z</time></trkpt><trkpt lat="44.47808432008215" lon="7.8810941310797595"><ele>335.0</ele><time>2026-04-08T17:40:27Z</time></trkpt><trkpt lat="44.47804021380853" lon="7.880969073793687"><ele>335.0</ele><time>2026-04-08T17:40:28Z</time></trkpt><trkpt lat="44.478013230360645" lon="7.880832572130774"><ele>335.0</ele><time>2026-04-08T17:40:29Z</time></trkpt><trkpt lat="44.47798912763898" lon="7.880697955352454"><ele>335.0</ele><time>2026-04-08T17:40:30Z</time></trkpt><trkpt lat="44.47797634013961" lon="7.880579571221882"><ele>333.83333333333337</ele><time>2026-04-08T17:40:31Z</time></trkpt><trkpt lat="44.477950876785265" lon="7.8804644593585715"><ele>332.6666666666667</ele><time>2026-04-08T17:40:32Z</time></trkpt><trkpt lat="44.47792599257629" lon="7.880348675106154"><ele>331.5</ele><time>2026-04-08T17:40:33Z</time></trkpt><trkpt lat="44.47790471598782" lon="7.880234736934709"><ele>330.3333333333333</ele><time>2026-04-08T17:40:34Z</time></trkpt><trkpt lat="44.47789698039996" lon="7.880141149245471"><ele>329.16666666666663</ele><time>2026-04-08T17:40:35Z</time></trkpt><trkpt lat="44.477903952571715" lon="7.880037285356677"><ele>328.0</ele><time>2026-04-08T17:40:36Z</time></trkpt><trkpt lat="44.47792249103131" lon="7.879929054296262"><ele>333.3333333333333</ele><time>2026-04-08T17:40:37Z</time></trkpt><trkpt lat="44.477938213309464" lon="7.879817561964377"><ele>338.66666666666663</ele><time>2026-04-08T17:40:38Z</time></trkpt><trkpt lat="44.47796376448008" lon="7.879712246444054"><ele>344.0</ele><time>2026-04-08T17:40:39Z</time></trkpt><trkpt lat="44.477986325286196" lon="7.87959642572862"><ele>349.3333333333333</ele><time>2026-04-08T17:40:40Z</time></trkpt><trkpt lat="44.47800757759247" lon="7.879479029655804"><ele>354.6666666666667</ele><time>2026-04-08T17:40:41Z</time></trkpt><trkpt lat="44.47801747619928" lon="7.879364182265838"><ele>360.0</ele><time>2026-04-08T17:40:42Z</time></trkpt><trkpt lat="44.47801798672066" lon="7.8792661401525494"><ele>360.4</ele><time>2026-04-08T17:40:43Z</time></trkpt><trkpt lat="44.478014857310924" lon="7.879096184463806"><ele>360.8</ele><time>2026-04-08T17:40:45Z</time></trkpt><trkpt lat="44.478030935473576" lon="7.878965963905739"><ele>361.20000000000005</ele><time>2026-04-08T17:40:47Z</time></trkpt><trkpt lat="44.47808412595509" lon="7.878860758022819"><ele>361.6</ele><time>2026-04-08T17:40:49Z</time></trkpt><trkpt lat="44.47816078804363" lon="7.87875674969149"><ele>362.0</ele><time>2026-04-08T17:40:51Z</time></trkpt><trkpt lat="44.47823230500834" lon="7.87868694000709"><ele>362.0</ele><time>2026-04-08T17:40:53Z</time></trkpt><trkpt lat="44.47816858959191" lon="7.878517121858494"><ele>362.0</ele><time>2026-04-08T17:40:56.999Z</time></trkpt><trkpt lat="44.47809753067009" lon="7.878455972491263"><ele>362.0</ele><time>2026-04-08T17:40:57.999Z</time></trkpt><trkpt lat="44.47802515458547" lon="7.878358385575226"><ele>362.0</ele><time>2026-04-08T17:40:58.999Z</time></trkpt><trkpt lat="44.477986727879156" lon="7.878282274491285"><ele>362.0</ele><time>2026-04-08T17:40:59.999Z</time></trkpt><trkpt lat="44.47793470952725" lon="7.878224401298095"><ele>362.0</ele><time>2026-04-08T17:41:00.999Z</time></trkpt><trkpt lat="44.47789000938509" lon="7.878095102015366"><ele>362.0</ele><time>2026-04-08T17:41:02.999Z</time></trkpt><trkpt lat="44.47785676190968" lon="7.877993545816655"><ele>362.0</ele><time>2026-04-08T17:41:04.999Z</time></trkpt><trkpt lat="44.477874373355604" lon="7.877852708554876"><ele>362.0</ele><time>2026-04-08T17:41:06.999Z</time></trkpt><trkpt lat="44.477898649608434" lon="7.877750346285751"><ele>362.0</ele><time>2026-04-08T17:41:07.999Z</time></trkpt><trkpt lat="44.4779125087674" lon="7.877657935607855"><ele>362.0</ele><time>2026-04-08T17:41:08.999Z</time></trkpt><trkpt lat="44.47796247168429" lon="7.877529196297775"><ele>362.0</ele><time>2026-04-08T17:41:10.999Z</time></trkpt><trkpt lat="44.47799826236818" lon="7.877395113890667"><ele>362.0</ele><time>2026-04-08T17:41:12.999Z</time></trkpt><trkpt lat="44.478031930377355" lon="7.877307191859129"><ele>362.0</ele><time>2026-04-08T17:41:13.999Z</time></trkpt><trkpt lat="44.478119467062236" lon="7.877181321544186"><ele>362.0</ele><time>2026-04-08T17:41:15.999Z</time></trkpt><trkpt lat="44.47816484111211" lon="7.877105698485302"><ele>362.0</ele><time>2026-04-08T17:41:16.999Z</time></trkpt><trkpt lat="44.47817704277852" lon="7.876988982485627"><ele>362.0</ele><time>2026-04-08T17:41:17.999Z</time></trkpt><trkpt lat="44.478211414301796" lon="7.876905822147024"><ele>362.0</ele><time>2026-04-08T17:41:18.999Z</time></trkpt><trkpt lat="44.478279483889416" lon="7.876743643534198"><ele>362.0</ele><time>2026-04-08T17:41:20.999Z</time></trkpt><trkpt lat="44.47832376199638" lon="7.876639159226308"><ele>362.0</ele><time>2026-04-08T17:41:21.999Z</time></trkpt><trkpt lat="44.47831390606728" lon="7.876468751850615"><ele>362.0</ele><time>2026-04-08T17:41:22.999Z</time></trkpt><trkpt lat="44.47831397699752" lon="7.87631076157284"><ele>361.75</ele><time>2026-04-08T17:41:23.999Z</time></trkpt><trkpt lat="44.47831402982709" lon="7.876123098881949"><ele>361.5</ele><time>2026-04-08T17:41:24.999Z</time></trkpt><trkpt lat="44.47831839359175" lon="7.8759290785226135"><ele>361.25</ele><time>2026-04-08T17:41:25.999Z</time></trkpt><trkpt lat="44.47831965343986" lon="7.875762036362511"><ele>361.0</ele><time>2026-04-08T17:41:26.999Z</time></trkpt><trkpt lat="44.478317482324556" lon="7.875616095272066"><ele>361.0</ele><time>2026-04-08T17:41:27.999Z</time></trkpt><trkpt lat="44.478316069589226" lon="7.875499851177661"><ele>361.0</ele><time>2026-04-08T17:41:28.999Z</time></trkpt><trkpt lat="44.47832023745266" lon="7.8753920608510715"><ele>361.0</ele><time>2026-04-08T17:41:29.999Z</time></trkpt><trkpt lat="44.47830958466753" lon="7.875243924678457"><ele>361.0</ele><time>2026-04-08T17:41:31.999Z</time></trkpt><trkpt lat="44.4783344973877" lon="7.875153317219202"><ele>361.0</ele><time>2026-04-08T17:41:33.999Z</time></trkpt><trkpt lat="44.47845580296303" lon="7.875154842985585"><ele>361.0</ele><time>2026-04-08T17:41:35.999Z</time></trkpt><trkpt lat="44.478557965353446" lon="7.875154030997434"><ele>361.0</ele><time>2026-04-08T17:41:37.999Z</time></trkpt><trkpt lat="44.47865486525033" lon="7.875138052423284"><ele>361.0</ele><time>2026-04-08T17:41:39.999Z</time></trkpt><trkpt lat="44.47873113399831" lon="7.875096235593401"><ele>361.0</ele><time>2026-04-08T17:41:41.999Z</time></trkpt><trkpt lat="44.47874458329191" lon="7.87492936133938"><ele>361.0</ele><time>2026-04-08T17:41:42.999Z</time></trkpt><trkpt lat="44.47875055485435" lon="7.87481338117398"><ele>361.0</ele><time>2026-04-08T17:41:43.999Z</time></trkpt><trkpt lat="44.478758547912996" lon="7.874725345379611"><ele>361.0</ele><time>2026-04-08T17:41:44.999Z</time></trkpt><trkpt lat="44.478740168537655" lon="7.87457699575985"><ele>361.0</ele><time>2026-04-08T17:41:46.999Z</time></trkpt><trkpt lat="44.47873300902747" lon="7.8744441708135415"><ele>361.0</ele><time>2026-04-08T17:41:48.999Z</time></trkpt><trkpt lat="44.47872690248595" lon="7.874330880859193"><ele>361.0</ele><time>2026-04-08T17:41:51.999Z</time></trkpt><trkpt lat="44.478847130690276" lon="7.874337741724555"><ele>361.0</ele><time>2026-04-08T17:41:52.999Z</time></trkpt><trkpt lat="44.47893942255777" lon="7.874322906062695"><ele>361.0</ele><time>2026-04-08T17:41:53.999Z</time></trkpt><trkpt lat="44.479022375266545" lon="7.87428824468693"><ele>361.0</ele><time>2026-04-08T17:41:54.999Z</time></trkpt><trkpt lat="44.47909803162286" lon="7.87428107674707"><ele>361.0</ele><time>2026-04-08T17:41:55.999Z</time></trkpt><trkpt lat="44.47917190486927" lon="7.874273328815582"><ele>361.0</ele><time>2026-04-08T17:41:56.999Z</time></trkpt><trkpt lat="44.47923540870329" lon="7.874264930183287"><ele>361.0</ele><time>2026-04-08T17:41:57.999Z</time></trkpt><trkpt lat="44.479336012215924" lon="7.874259434225138"><ele>361.20000000000005</ele><time>2026-04-08T17:41:59.998Z</time></trkpt><trkpt lat="44.4794111467916" lon="7.874245301707611"><ele>361.40000000000003</ele><time>2026-04-08T17:42:06.998Z</time></trkpt><trkpt lat="44.479414770379194" lon="7.874067092590059"><ele>361.6</ele><time>2026-04-08T17:42:08.998Z</time></trkpt><trkpt lat="44.479390719420344" lon="7.87386254226547"><ele>361.8</ele><time>2026-04-08T17:42:10.998Z</time></trkpt><trkpt lat="44.479359138686654" lon="7.873733644670873"><ele>362.0</ele><time>2026-04-08T17:42:11.998Z</time></trkpt><trkpt lat="44.479309122810726" lon="7.873606618801365"><ele>362.0</ele><time>2026-04-08T17:42:12.998Z</time></trkpt><trkpt lat="44.47926471504222" lon="7.873465094902765"><ele>362.0</ele><time>2026-04-08T17:42:13.998Z</time></trkpt><trkpt lat="44.47922740482707" lon="7.873343654582951"><ele>362.0</ele><time>2026-04-08T17:42:14.998Z</time></trkpt><trkpt lat="44.47919190274747" lon="7.873222288654979"><ele>362.0</ele><time>2026-04-08T17:42:15.998Z</time></trkpt><trkpt lat="44.47916071688743" lon="7.873111216513976"><ele>362.0</ele><time>2026-04-08T17:42:16.998Z</time></trkpt><trkpt lat="44.47913096181777" lon="7.873003949724107"><ele>362.40000000000003</ele><time>2026-04-08T17:42:17.998Z</time></trkpt><trkpt lat="44.479096603484734" lon="7.872896140320581"><ele>362.8</ele><time>2026-04-08T17:42:19Z</time></trkpt><trkpt lat="44.479053311402104" lon="7.872777032357071"><ele>363.2</ele><time>2026-04-08T17:42:20Z</time></trkpt><trkpt lat="44.479020018021416" lon="7.8726408986014755"><ele>363.6</ele><time>2026-04-08T17:42:21Z</time></trkpt><trkpt lat="44.478977250215934" lon="7.872476769700963"><ele>364.0</ele><time>2026-04-08T17:42:22Z</time></trkpt><trkpt lat="44.4789229249281" lon="7.872315035143119"><ele>364.0</ele><time>2026-04-08T17:42:23Z</time></trkpt><trkpt lat="44.47887781451973" lon="7.872176829722083"><ele>364.0</ele><time>2026-04-08T17:42:24Z</time></trkpt><trkpt lat="44.47883403911362" lon="7.872030203341417"><ele>364.0</ele><time>2026-04-08T17:42:25Z</time></trkpt><trkpt lat="44.478792534099846" lon="7.871881021278"><ele>364.0</ele><time>2026-04-08T17:42:26Z</time></trkpt><trkpt lat="44.478757659944854" lon="7.8717270948407805"><ele>364.0</ele><time>2026-04-08T17:42:27Z</time></trkpt><trkpt lat="44.47871736952434" lon="7.87158711651173"><ele>364.0</ele><time>2026-04-08T17:42:28Z</time></trkpt><trkpt lat="44.4786734583249" lon="7.871460345903126"><ele>364.0</ele><time>2026-04-08T17:42:29Z</time></trkpt><trkpt lat="44.478632107499465" lon="7.871337104034494"><ele>364.0</ele><time>2026-04-08T17:42:30Z</time></trkpt><trkpt lat="44.47859572845339" lon="7.8712190879043895"><ele>364.0</ele><time>2026-04-08T17:42:31Z</time></trkpt><trkpt lat="44.478578107853515" lon="7.871114123311579"><ele>364.0</ele><time>2026-04-08T17:42:32Z</time></trkpt><trkpt lat="44.47856083644805" lon="7.871019575413713"><ele>364.0</ele><time>2026-04-08T17:42:33Z</time></trkpt><trkpt lat="44.478537596213215" lon="7.870928103610532"><ele>364.0</ele><time>2026-04-08T17:42:34Z</time></trkpt><trkpt lat="44.47861321997421" lon="7.870773114953091"><ele>364.0</ele><time>2026-04-08T17:42:35Z</time></trkpt><trkpt lat="44.47869066751069" lon="7.87066589680217"><ele>364.0</ele><time>2026-04-08T17:42:36Z</time></trkpt><trkpt lat="44.47874073091405" lon="7.870543967839643"><ele>363.79999999999995</ele><time>2026-04-08T17:42:37Z</time></trkpt><trkpt lat="44.47880281771498" lon="7.870404785771481"><ele>363.59999999999997</ele><time>2026-04-08T17:42:38Z</time></trkpt><trkpt lat="44.47887147214207" lon="7.870278544284494"><ele>363.4</ele><time>2026-04-08T17:42:39Z</time></trkpt><trkpt lat="44.478924618570105" lon="7.870163905704233"><ele>363.2</ele><time>2026-04-08T17:42:40Z</time></trkpt><trkpt lat="44.478959672632556" lon="7.870089115637363"><ele>363.0</ele><time>2026-04-08T17:42:41Z</time></trkpt><trkpt lat="44.478998107898526" lon="7.87001544806702"><ele>363.0</ele><time>2026-04-08T17:42:42Z</time></trkpt><trkpt lat="44.47904801510825" lon="7.869922263288957"><ele>363.0</ele><time>2026-04-08T17:42:44Z</time></trkpt><trkpt lat="44.47911456514143" lon="7.869863164606391"><ele>363.0</ele><time>2026-04-08T17:42:47Z</time></trkpt><trkpt lat="44.47918163039754" lon="7.870002466751706"><ele>363.0</ele><time>2026-04-08T17:42:48Z</time></trkpt><trkpt lat="44.4792457956494" lon="7.870065512139348"><ele>363.0</ele><time>2026-04-08T17:42:49Z</time></trkpt><trkpt lat="44.47932384100534" lon="7.8701272205322095"><ele>363.0</ele><time>2026-04-08T17:42:50Z</time></trkpt><trkpt lat="44.479402798403484" lon="7.87019867478884"><ele>363.0</ele><time>2026-04-08T17:42:51Z</time></trkpt><trkpt lat="44.479491183018105" lon="7.8703066167219555"><ele>363.0</ele><time>2026-04-08T17:42:52Z</time></trkpt><trkpt lat="44.47959450884912" lon="7.8703988710067385"><ele>363.0</ele><time>2026-04-08T17:42:53Z</time></trkpt><trkpt lat="44.479687029331316" lon="7.870495027806677"><ele>363.0</ele><time>2026-04-08T17:42:54Z</time></trkpt><trkpt lat="44.479777761936234" lon="7.870583668288932"><ele>363.0</ele><time>2026-04-08T17:42:55Z</time></trkpt><trkpt lat="44.47986660728939" lon="7.8706667884039545"><ele>363.0</ele><time>2026-04-08T17:42:56Z</time></trkpt><trkpt lat="44.47994801753026" lon="7.870752448395987"><ele>363.0</ele><time>2026-04-08T17:42:57Z</time></trkpt><trkpt lat="44.48003402993823" lon="7.870839267270057"><ele>363.0</ele><time>2026-04-08T17:42:58Z</time></trkpt><trkpt lat="44.480123410548494" lon="7.87093118211641"><ele>363.0</ele><time>2026-04-08T17:42:59Z</time></trkpt><trkpt lat="44.48020255910605" lon="7.8710129714007175"><ele>363.0</ele><time>2026-04-08T17:43:00Z</time></trkpt><trkpt lat="44.48029081603037" lon="7.871099790266569"><ele>363.0</ele><time>2026-04-08T17:43:01Z</time></trkpt><trkpt lat="44.48039713458073" lon="7.871211296824819"><ele>363.0</ele><time>2026-04-08T17:43:02Z</time></trkpt><trkpt lat="44.48047709339659" lon="7.871359161055609"><ele>363.0</ele><time>2026-04-08T17:43:03Z</time></trkpt><trkpt lat="44.480571312316656" lon="7.8715107905034944"><ele>363.0</ele><time>2026-04-08T17:43:03.999Z</time></trkpt><trkpt lat="44.48062699509686" lon="7.871654198136487"><ele>363.0</ele><time>2026-04-08T17:43:04.999Z</time></trkpt><trkpt lat="44.48067616526634" lon="7.871780689996079"><ele>363.0</ele><time>2026-04-08T17:43:05.999Z</time></trkpt><trkpt lat="44.480696126581385" lon="7.8718944022890645"><ele>363.0</ele><time>2026-04-08T17:43:06.999Z</time></trkpt><trkpt lat="44.48072642809665" lon="7.871989663177556"><ele>363.0</ele><time>2026-04-08T17:43:07.999Z</time></trkpt><trkpt lat="44.48075206673973" lon="7.872070728335243"><ele>363.0</ele><time>2026-04-08T17:43:08.999Z</time></trkpt><trkpt lat="44.48075375463557" lon="7.872185933075237"><ele>363.0</ele><time>2026-04-08T17:43:10.999Z</time></trkpt><trkpt lat="44.48064760858623" lon="7.872262080848274"><ele>363.0</ele><time>2026-04-08T17:43:12.999Z</time></trkpt><trkpt lat="44.48055674442683" lon="7.872307384718518"><ele>363.0</ele><time>2026-04-08T17:43:13.999Z</time></trkpt><trkpt lat="44.480486225508756" lon="7.872345485950004"><ele>363.0</ele><time>2026-04-08T17:43:14.999Z</time></trkpt><trkpt lat="44.48042289874656" lon="7.872379394780688"><ele>363.0</ele><time>2026-04-08T17:43:15.999Z</time></trkpt><trkpt lat="44.48033454052955" lon="7.872449946342325"><ele>363.0</ele><time>2026-04-08T17:43:17.999Z</time></trkpt><trkpt lat="44.48026428896348" lon="7.872478817347607"><ele>363.0</ele><time>2026-04-08T17:43:19.999Z</time></trkpt><trkpt lat="44.480223842476306" lon="7.872634715382611"><ele>363.0</ele><time>2026-04-08T17:43:40.999Z</time></trkpt><trkpt lat="44.480221397018354" lon="7.87276107674388"><ele>363.0</ele><time>2026-04-08T17:43:43.999Z</time></trkpt><trkpt lat="44.48021127201587" lon="7.872882342942773"><ele>363.0</ele><time>2026-04-08T17:43:45.999Z</time></trkpt><trkpt lat="44.4802039374885" lon="7.873005394740747"><ele>363.0</ele><time>2026-04-08T17:43:48.012Z</time></trkpt><trkpt lat="44.48020997915236" lon="7.873126081361177"><ele>363.0</ele><time>2026-04-08T17:43:50.012Z</time></trkpt><trkpt lat="44.479714148298015" lon="7.873016740148909"><ele>363.0</ele><time>2026-04-08T17:44:07.591Z</time></trkpt></trkseg></trk></gpx>